<?xml version="1.0" encoding="UTF-8" standalone="no" ?>
<gpx xmlns="http://www.topografix.com/GPX/1/1" xmlns:xsi="http://www.w3.org/2001/XMLSchema-instance" xsi:schemaLocation="http://www.topografix.com/GPX/1/1 http://www.topografix.com/GPX/1/1/gpx.xsd" version="1.1" creator="VisuGPX - https://www.visugpx.com">
  <metadata>
    <name>Option tour</name>
  </metadata>
  <trk>
    <name><![CDATA[Option tour_1]]></name>
    <trkseg>
      <trkpt lat="45.59162" lon="6.67083">
        <ele>1411</ele>
        <time>2022-02-08T07:17:40Z</time>
      </trkpt>
      <trkpt lat="45.59166" lon="6.67079">
        <ele>1407.8</ele>
        <time>2022-02-08T07:18:01Z</time>
      </trkpt>
      <trkpt lat="45.59167" lon="6.67085">
        <ele>1408.6</ele>
        <time>2022-02-08T07:19:31Z</time>
      </trkpt>
      <trkpt lat="45.59172" lon="6.67087">
        <ele>1409.3</ele>
        <time>2022-02-08T07:19:36Z</time>
      </trkpt>
      <trkpt lat="45.59176" lon="6.67091">
        <ele>1410.3</ele>
        <time>2022-02-08T07:19:42Z</time>
      </trkpt>
      <trkpt lat="45.59181" lon="6.67093">
        <ele>1411.5</ele>
        <time>2022-02-08T07:19:48Z</time>
      </trkpt>
      <trkpt lat="45.59185" lon="6.67095">
        <ele>1412.5</ele>
        <time>2022-02-08T07:19:53Z</time>
      </trkpt>
      <trkpt lat="45.59191" lon="6.67095">
        <ele>1413.1</ele>
        <time>2022-02-08T07:19:58Z</time>
      </trkpt>
      <trkpt lat="45.59196" lon="6.67094">
        <ele>1413.1</ele>
        <time>2022-02-08T07:20:03Z</time>
      </trkpt>
      <trkpt lat="45.592" lon="6.67093">
        <ele>1412.4</ele>
        <time>2022-02-08T07:21:17Z</time>
      </trkpt>
      <trkpt lat="45.59205" lon="6.6709">
        <ele>1411.5</ele>
        <time>2022-02-08T07:21:55Z</time>
      </trkpt>
      <trkpt lat="45.5921" lon="6.67089">
        <ele>1410.4</ele>
        <time>2022-02-08T07:22:00Z</time>
      </trkpt>
      <trkpt lat="45.59216" lon="6.67087">
        <ele>1409.7</ele>
        <time>2022-02-08T07:22:05Z</time>
      </trkpt>
      <trkpt lat="45.5922" lon="6.67085">
        <ele>1409.9</ele>
        <time>2022-02-08T07:22:11Z</time>
      </trkpt>
      <trkpt lat="45.59225" lon="6.67085">
        <ele>1411.6</ele>
        <time>2022-02-08T07:22:18Z</time>
      </trkpt>
      <trkpt lat="45.5923" lon="6.67084">
        <ele>1413.8</ele>
        <time>2022-02-08T07:22:25Z</time>
      </trkpt>
      <trkpt lat="45.59235" lon="6.67084">
        <ele>1413.9</ele>
        <time>2022-02-08T07:22:30Z</time>
      </trkpt>
      <trkpt lat="45.5924" lon="6.67084">
        <ele>1414.2</ele>
        <time>2022-02-08T07:22:35Z</time>
      </trkpt>
      <trkpt lat="45.59245" lon="6.67084">
        <ele>1414.6</ele>
        <time>2022-02-08T07:22:40Z</time>
      </trkpt>
      <trkpt lat="45.59251" lon="6.67084">
        <ele>1414.5</ele>
        <time>2022-02-08T07:22:45Z</time>
      </trkpt>
      <trkpt lat="45.59256" lon="6.67082">
        <ele>1414.1</ele>
        <time>2022-02-08T07:22:49Z</time>
      </trkpt>
      <trkpt lat="45.59261" lon="6.67081">
        <ele>1413.7</ele>
        <time>2022-02-08T07:22:53Z</time>
      </trkpt>
      <trkpt lat="45.59266" lon="6.67082">
        <ele>1412.9</ele>
        <time>2022-02-08T07:22:58Z</time>
      </trkpt>
      <trkpt lat="45.59271" lon="6.67083">
        <ele>1412.5</ele>
        <time>2022-02-08T07:23:04Z</time>
      </trkpt>
      <trkpt lat="45.59275" lon="6.67081">
        <ele>1413.5</ele>
        <time>2022-02-08T07:23:09Z</time>
      </trkpt>
      <trkpt lat="45.5928" lon="6.6708">
        <ele>1414.3</ele>
        <time>2022-02-08T07:23:14Z</time>
      </trkpt>
      <trkpt lat="45.59285" lon="6.67079">
        <ele>1416</ele>
        <time>2022-02-08T07:23:19Z</time>
      </trkpt>
      <trkpt lat="45.5929" lon="6.67078">
        <ele>1416.9</ele>
        <time>2022-02-08T07:23:25Z</time>
      </trkpt>
      <trkpt lat="45.59295" lon="6.67079">
        <ele>1416.8</ele>
        <time>2022-02-08T07:23:30Z</time>
      </trkpt>
      <trkpt lat="45.593" lon="6.67079">
        <ele>1416.2</ele>
        <time>2022-02-08T07:23:35Z</time>
      </trkpt>
      <trkpt lat="45.59304" lon="6.67078">
        <ele>1416.9</ele>
        <time>2022-02-08T07:23:40Z</time>
      </trkpt>
      <trkpt lat="45.5931" lon="6.67079">
        <ele>1416.8</ele>
        <time>2022-02-08T07:23:45Z</time>
      </trkpt>
      <trkpt lat="45.59314" lon="6.6708">
        <ele>1416.2</ele>
        <time>2022-02-08T07:23:50Z</time>
      </trkpt>
      <trkpt lat="45.5932" lon="6.6708">
        <ele>1415.5</ele>
        <time>2022-02-08T07:23:55Z</time>
      </trkpt>
      <trkpt lat="45.59325" lon="6.67081">
        <ele>1414.9</ele>
        <time>2022-02-08T07:23:59Z</time>
      </trkpt>
      <trkpt lat="45.59329" lon="6.67081">
        <ele>1414.4</ele>
        <time>2022-02-08T07:24:03Z</time>
      </trkpt>
      <trkpt lat="45.59335" lon="6.67082">
        <ele>1414.5</ele>
        <time>2022-02-08T07:24:09Z</time>
      </trkpt>
      <trkpt lat="45.59339" lon="6.67084">
        <ele>1414.9</ele>
        <time>2022-02-08T07:24:14Z</time>
      </trkpt>
      <trkpt lat="45.59344" lon="6.67086">
        <ele>1414.6</ele>
        <time>2022-02-08T07:24:19Z</time>
      </trkpt>
      <trkpt lat="45.59349" lon="6.67088">
        <ele>1413.7</ele>
        <time>2022-02-08T07:24:24Z</time>
      </trkpt>
      <trkpt lat="45.59354" lon="6.6709">
        <ele>1413.7</ele>
        <time>2022-02-08T07:24:29Z</time>
      </trkpt>
      <trkpt lat="45.59359" lon="6.67089">
        <ele>1414.1</ele>
        <time>2022-02-08T07:24:34Z</time>
      </trkpt>
      <trkpt lat="45.59364" lon="6.67089">
        <ele>1414.3</ele>
        <time>2022-02-08T07:24:39Z</time>
      </trkpt>
      <trkpt lat="45.5937" lon="6.67087">
        <ele>1413.5</ele>
        <time>2022-02-08T07:24:44Z</time>
      </trkpt>
      <trkpt lat="45.59374" lon="6.67087">
        <ele>1413.5</ele>
        <time>2022-02-08T07:24:49Z</time>
      </trkpt>
      <trkpt lat="45.5938" lon="6.67085">
        <ele>1414.1</ele>
        <time>2022-02-08T07:24:54Z</time>
      </trkpt>
      <trkpt lat="45.59384" lon="6.67084">
        <ele>1414.6</ele>
        <time>2022-02-08T07:24:59Z</time>
      </trkpt>
      <trkpt lat="45.59389" lon="6.67081">
        <ele>1414.1</ele>
        <time>2022-02-08T07:25:04Z</time>
      </trkpt>
      <trkpt lat="45.59394" lon="6.67079">
        <ele>1414.3</ele>
        <time>2022-02-08T07:25:09Z</time>
      </trkpt>
      <trkpt lat="45.59398" lon="6.67076">
        <ele>1414.1</ele>
        <time>2022-02-08T07:25:14Z</time>
      </trkpt>
      <trkpt lat="45.59403" lon="6.67072">
        <ele>1414</ele>
        <time>2022-02-08T07:25:19Z</time>
      </trkpt>
      <trkpt lat="45.59407" lon="6.67069">
        <ele>1413.4</ele>
        <time>2022-02-08T07:25:24Z</time>
      </trkpt>
      <trkpt lat="45.59412" lon="6.67066">
        <ele>1412.9</ele>
        <time>2022-02-08T07:25:29Z</time>
      </trkpt>
      <trkpt lat="45.59416" lon="6.67062">
        <ele>1413.8</ele>
        <time>2022-02-08T07:25:34Z</time>
      </trkpt>
      <trkpt lat="45.59421" lon="6.67059">
        <ele>1414.2</ele>
        <time>2022-02-08T07:25:39Z</time>
      </trkpt>
      <trkpt lat="45.59425" lon="6.67055">
        <ele>1414.1</ele>
        <time>2022-02-08T07:25:44Z</time>
      </trkpt>
      <trkpt lat="45.5943" lon="6.67051">
        <ele>1414.1</ele>
        <time>2022-02-08T07:25:49Z</time>
      </trkpt>
      <trkpt lat="45.59435" lon="6.67048">
        <ele>1414.6</ele>
        <time>2022-02-08T07:25:56Z</time>
      </trkpt>
      <trkpt lat="45.59439" lon="6.67045">
        <ele>1415.7</ele>
        <time>2022-02-08T07:26:02Z</time>
      </trkpt>
      <trkpt lat="45.59443" lon="6.67043">
        <ele>1416.2</ele>
        <time>2022-02-08T07:26:08Z</time>
      </trkpt>
      <trkpt lat="45.59448" lon="6.67042">
        <ele>1415.4</ele>
        <time>2022-02-08T07:26:13Z</time>
      </trkpt>
      <trkpt lat="45.59453" lon="6.67039">
        <ele>1413.1</ele>
        <time>2022-02-08T07:26:16Z</time>
      </trkpt>
      <trkpt lat="45.59457" lon="6.67037">
        <ele>1410.1</ele>
        <time>2022-02-08T07:26:19Z</time>
      </trkpt>
      <trkpt lat="45.59462" lon="6.67037">
        <ele>1408.8</ele>
        <time>2022-02-08T07:26:26Z</time>
      </trkpt>
      <trkpt lat="45.59466" lon="6.67037">
        <ele>1411.5</ele>
        <time>2022-02-08T07:26:33Z</time>
      </trkpt>
      <trkpt lat="45.59471" lon="6.67034">
        <ele>1413.9</ele>
        <time>2022-02-08T07:26:40Z</time>
      </trkpt>
      <trkpt lat="45.59474" lon="6.6703">
        <ele>1417.1</ele>
        <time>2022-02-08T07:26:46Z</time>
      </trkpt>
      <trkpt lat="45.59479" lon="6.67027">
        <ele>1419.8</ele>
        <time>2022-02-08T07:26:52Z</time>
      </trkpt>
      <trkpt lat="45.59483" lon="6.67023">
        <ele>1421.1</ele>
        <time>2022-02-08T07:26:58Z</time>
      </trkpt>
      <trkpt lat="45.59487" lon="6.67018">
        <ele>1422</ele>
        <time>2022-02-08T07:27:04Z</time>
      </trkpt>
      <trkpt lat="45.59491" lon="6.67015">
        <ele>1423.1</ele>
        <time>2022-02-08T07:27:09Z</time>
      </trkpt>
      <trkpt lat="45.59495" lon="6.67012">
        <ele>1424.4</ele>
        <time>2022-02-08T07:27:14Z</time>
      </trkpt>
      <trkpt lat="45.595" lon="6.67009">
        <ele>1424.6</ele>
        <time>2022-02-08T07:27:20Z</time>
      </trkpt>
      <trkpt lat="45.59505" lon="6.67006">
        <ele>1424.4</ele>
        <time>2022-02-08T07:27:25Z</time>
      </trkpt>
      <trkpt lat="45.59509" lon="6.67004">
        <ele>1424.8</ele>
        <time>2022-02-08T07:27:31Z</time>
      </trkpt>
      <trkpt lat="45.59513" lon="6.67001">
        <ele>1425.4</ele>
        <time>2022-02-08T07:27:37Z</time>
      </trkpt>
      <trkpt lat="45.59518" lon="6.67001">
        <ele>1426.5</ele>
        <time>2022-02-08T07:27:43Z</time>
      </trkpt>
      <trkpt lat="45.59523" lon="6.67001">
        <ele>1426.7</ele>
        <time>2022-02-08T07:27:48Z</time>
      </trkpt>
      <trkpt lat="45.59528" lon="6.67">
        <ele>1426.3</ele>
        <time>2022-02-08T07:27:53Z</time>
      </trkpt>
      <trkpt lat="45.59533" lon="6.67">
        <ele>1425.2</ele>
        <time>2022-02-08T07:27:58Z</time>
      </trkpt>
      <trkpt lat="45.59538" lon="6.67001">
        <ele>1423.7</ele>
        <time>2022-02-08T07:28:03Z</time>
      </trkpt>
      <trkpt lat="45.59543" lon="6.67002">
        <ele>1422.6</ele>
        <time>2022-02-08T07:28:08Z</time>
      </trkpt>
      <trkpt lat="45.59548" lon="6.67003">
        <ele>1422</ele>
        <time>2022-02-08T07:28:13Z</time>
      </trkpt>
      <trkpt lat="45.59552" lon="6.67005">
        <ele>1423.4</ele>
        <time>2022-02-08T07:28:20Z</time>
      </trkpt>
      <trkpt lat="45.59557" lon="6.67006">
        <ele>1425.7</ele>
        <time>2022-02-08T07:28:27Z</time>
      </trkpt>
      <trkpt lat="45.59563" lon="6.67006">
        <ele>1426.7</ele>
        <time>2022-02-08T07:28:33Z</time>
      </trkpt>
      <trkpt lat="45.59568" lon="6.67007">
        <ele>1427</ele>
        <time>2022-02-08T07:28:39Z</time>
      </trkpt>
      <trkpt lat="45.59573" lon="6.67006">
        <ele>1427.8</ele>
        <time>2022-02-08T07:28:45Z</time>
      </trkpt>
      <trkpt lat="45.59578" lon="6.67006">
        <ele>1429.3</ele>
        <time>2022-02-08T07:28:51Z</time>
      </trkpt>
      <trkpt lat="45.59583" lon="6.67006">
        <ele>1430.9</ele>
        <time>2022-02-08T07:28:57Z</time>
      </trkpt>
      <trkpt lat="45.59588" lon="6.67007">
        <ele>1431.8</ele>
        <time>2022-02-08T07:29:02Z</time>
      </trkpt>
      <trkpt lat="45.59593" lon="6.67008">
        <ele>1431.8</ele>
        <time>2022-02-08T07:29:07Z</time>
      </trkpt>
      <trkpt lat="45.59597" lon="6.67009">
        <ele>1431.4</ele>
        <time>2022-02-08T07:29:12Z</time>
      </trkpt>
      <trkpt lat="45.59602" lon="6.67011">
        <ele>1431.4</ele>
        <time>2022-02-08T07:29:17Z</time>
      </trkpt>
      <trkpt lat="45.59606" lon="6.67013">
        <ele>1430.6</ele>
        <time>2022-02-08T07:29:23Z</time>
      </trkpt>
      <trkpt lat="45.5961" lon="6.67015">
        <ele>1429.8</ele>
        <time>2022-02-08T07:29:29Z</time>
      </trkpt>
      <trkpt lat="45.59615" lon="6.67018">
        <ele>1430</ele>
        <time>2022-02-08T07:29:35Z</time>
      </trkpt>
      <trkpt lat="45.5962" lon="6.6702">
        <ele>1430.2</ele>
        <time>2022-02-08T07:29:41Z</time>
      </trkpt>
      <trkpt lat="45.59625" lon="6.67022">
        <ele>1429.8</ele>
        <time>2022-02-08T07:29:47Z</time>
      </trkpt>
      <trkpt lat="45.5963" lon="6.67022">
        <ele>1429.6</ele>
        <time>2022-02-08T07:29:53Z</time>
      </trkpt>
      <trkpt lat="45.59635" lon="6.67021">
        <ele>1429.6</ele>
        <time>2022-02-08T07:29:58Z</time>
      </trkpt>
      <trkpt lat="45.59639" lon="6.67017">
        <ele>1429.3</ele>
        <time>2022-02-08T07:30:03Z</time>
      </trkpt>
      <trkpt lat="45.59642" lon="6.67011">
        <ele>1430.1</ele>
        <time>2022-02-08T07:30:09Z</time>
      </trkpt>
      <trkpt lat="45.59644" lon="6.67005">
        <ele>1430.6</ele>
        <time>2022-02-08T07:30:15Z</time>
      </trkpt>
      <trkpt lat="45.59646" lon="6.66999">
        <ele>1431.7</ele>
        <time>2022-02-08T07:30:21Z</time>
      </trkpt>
      <trkpt lat="45.59645" lon="6.66992">
        <ele>1433</ele>
        <time>2022-02-08T07:30:28Z</time>
      </trkpt>
      <trkpt lat="45.59645" lon="6.66985">
        <ele>1433.2</ele>
        <time>2022-02-08T07:30:35Z</time>
      </trkpt>
      <trkpt lat="45.59645" lon="6.66978">
        <ele>1432.6</ele>
        <time>2022-02-08T07:30:43Z</time>
      </trkpt>
      <trkpt lat="45.59648" lon="6.66974">
        <ele>1432.9</ele>
        <time>2022-02-08T07:30:51Z</time>
      </trkpt>
      <trkpt lat="45.59653" lon="6.66971">
        <ele>1434.9</ele>
        <time>2022-02-08T07:31:02Z</time>
      </trkpt>
      <trkpt lat="45.59658" lon="6.66973">
        <ele>1436.9</ele>
        <time>2022-02-08T07:31:15Z</time>
      </trkpt>
      <trkpt lat="45.59661" lon="6.66977">
        <ele>1439.3</ele>
        <time>2022-02-08T07:31:27Z</time>
      </trkpt>
      <trkpt lat="45.59666" lon="6.66975">
        <ele>1441</ele>
        <time>2022-02-08T07:31:37Z</time>
      </trkpt>
      <trkpt lat="45.59668" lon="6.66968">
        <ele>1442.1</ele>
        <time>2022-02-08T07:31:47Z</time>
      </trkpt>
      <trkpt lat="45.5967" lon="6.66962">
        <ele>1443.2</ele>
        <time>2022-02-08T07:31:57Z</time>
      </trkpt>
      <trkpt lat="45.59674" lon="6.66958">
        <ele>1444.9</ele>
        <time>2022-02-08T07:32:07Z</time>
      </trkpt>
      <trkpt lat="45.59678" lon="6.66955">
        <ele>1446.8</ele>
        <time>2022-02-08T07:32:17Z</time>
      </trkpt>
      <trkpt lat="45.59682" lon="6.66951">
        <ele>1449.7</ele>
        <time>2022-02-08T07:32:34Z</time>
      </trkpt>
      <trkpt lat="45.59683" lon="6.66944">
        <ele>1450.3</ele>
        <time>2022-02-08T07:32:41Z</time>
      </trkpt>
      <trkpt lat="45.59685" lon="6.66938">
        <ele>1450.7</ele>
        <time>2022-02-08T07:32:48Z</time>
      </trkpt>
      <trkpt lat="45.5969" lon="6.66941">
        <ele>1454.7</ele>
        <time>2022-02-08T07:33:09Z</time>
      </trkpt>
      <trkpt lat="45.59694" lon="6.66936">
        <ele>1456.2</ele>
        <time>2022-02-08T07:33:18Z</time>
      </trkpt>
      <trkpt lat="45.59698" lon="6.66936">
        <ele>1457.2</ele>
        <time>2022-02-08T07:33:24Z</time>
      </trkpt>
      <trkpt lat="45.597" lon="6.6693">
        <ele>1459.3</ele>
        <time>2022-02-08T07:33:34Z</time>
      </trkpt>
      <trkpt lat="45.59704" lon="6.66927">
        <ele>1459.1</ele>
        <time>2022-02-08T07:33:47Z</time>
      </trkpt>
      <trkpt lat="45.59709" lon="6.66926">
        <ele>1460.5</ele>
        <time>2022-02-08T07:34:01Z</time>
      </trkpt>
      <trkpt lat="45.59711" lon="6.6692">
        <ele>1462.7</ele>
        <time>2022-02-08T07:34:13Z</time>
      </trkpt>
      <trkpt lat="45.59714" lon="6.66914">
        <ele>1464.1</ele>
        <time>2022-02-08T07:34:18Z</time>
      </trkpt>
      <trkpt lat="45.59717" lon="6.66908">
        <ele>1466.1</ele>
        <time>2022-02-08T07:34:26Z</time>
      </trkpt>
      <trkpt lat="45.59718" lon="6.66901">
        <ele>1466.7</ele>
        <time>2022-02-08T07:34:36Z</time>
      </trkpt>
      <trkpt lat="45.59721" lon="6.66896">
        <ele>1467.2</ele>
        <time>2022-02-08T07:34:47Z</time>
      </trkpt>
      <trkpt lat="45.59725" lon="6.66892">
        <ele>1468.7</ele>
        <time>2022-02-08T07:34:59Z</time>
      </trkpt>
      <trkpt lat="45.59729" lon="6.66887">
        <ele>1470.2</ele>
        <time>2022-02-08T07:35:12Z</time>
      </trkpt>
      <trkpt lat="45.59733" lon="6.66889">
        <ele>1471.8</ele>
        <time>2022-02-08T07:35:26Z</time>
      </trkpt>
      <trkpt lat="45.59732" lon="6.66896">
        <ele>1473.9</ele>
        <time>2022-02-08T07:35:33Z</time>
      </trkpt>
      <trkpt lat="45.59731" lon="6.66903">
        <ele>1475</ele>
        <time>2022-02-08T07:35:39Z</time>
      </trkpt>
      <trkpt lat="45.59731" lon="6.66911">
        <ele>1477.7</ele>
        <time>2022-02-08T07:35:46Z</time>
      </trkpt>
      <trkpt lat="45.59732" lon="6.66918">
        <ele>1477.9</ele>
        <time>2022-02-08T07:35:52Z</time>
      </trkpt>
      <trkpt lat="45.59734" lon="6.66924">
        <ele>1477.7</ele>
        <time>2022-02-08T07:35:57Z</time>
      </trkpt>
      <trkpt lat="45.59736" lon="6.6693">
        <ele>1477.2</ele>
        <time>2022-02-08T07:36:03Z</time>
      </trkpt>
      <trkpt lat="45.59739" lon="6.66937">
        <ele>1477.1</ele>
        <time>2022-02-08T07:36:09Z</time>
      </trkpt>
      <trkpt lat="45.59741" lon="6.66943">
        <ele>1477.9</ele>
        <time>2022-02-08T07:36:15Z</time>
      </trkpt>
      <trkpt lat="45.59745" lon="6.66948">
        <ele>1478.8</ele>
        <time>2022-02-08T07:36:21Z</time>
      </trkpt>
      <trkpt lat="45.59749" lon="6.66951">
        <ele>1479.7</ele>
        <time>2022-02-08T07:36:27Z</time>
      </trkpt>
      <trkpt lat="45.59754" lon="6.66954">
        <ele>1479.9</ele>
        <time>2022-02-08T07:36:33Z</time>
      </trkpt>
      <trkpt lat="45.59759" lon="6.66952">
        <ele>1479.3</ele>
        <time>2022-02-08T07:36:47Z</time>
      </trkpt>
      <trkpt lat="45.59763" lon="6.66951">
        <ele>1479.2</ele>
        <time>2022-02-08T07:37:00Z</time>
      </trkpt>
      <trkpt lat="45.59766" lon="6.66946">
        <ele>1480.1</ele>
        <time>2022-02-08T07:37:15Z</time>
      </trkpt>
      <trkpt lat="45.59769" lon="6.66941">
        <ele>1480.1</ele>
        <time>2022-02-08T07:37:22Z</time>
      </trkpt>
      <trkpt lat="45.59772" lon="6.66936">
        <ele>1480.4</ele>
        <time>2022-02-08T07:37:29Z</time>
      </trkpt>
      <trkpt lat="45.59775" lon="6.66929">
        <ele>1482.2</ele>
        <time>2022-02-08T07:37:38Z</time>
      </trkpt>
      <trkpt lat="45.59777" lon="6.66923">
        <ele>1483.8</ele>
        <time>2022-02-08T07:37:49Z</time>
      </trkpt>
      <trkpt lat="45.59779" lon="6.66917">
        <ele>1484.9</ele>
        <time>2022-02-08T07:37:58Z</time>
      </trkpt>
      <trkpt lat="45.5978" lon="6.66911">
        <ele>1486</ele>
        <time>2022-02-08T07:38:05Z</time>
      </trkpt>
      <trkpt lat="45.59782" lon="6.66905">
        <ele>1487.2</ele>
        <time>2022-02-08T07:38:16Z</time>
      </trkpt>
      <trkpt lat="45.59785" lon="6.669">
        <ele>1487.4</ele>
        <time>2022-02-08T07:38:24Z</time>
      </trkpt>
      <trkpt lat="45.59789" lon="6.66894">
        <ele>1488.9</ele>
        <time>2022-02-08T07:38:33Z</time>
      </trkpt>
      <trkpt lat="45.59791" lon="6.66888">
        <ele>1490</ele>
        <time>2022-02-08T07:38:45Z</time>
      </trkpt>
      <trkpt lat="45.59792" lon="6.66882">
        <ele>1490.4</ele>
        <time>2022-02-08T07:38:54Z</time>
      </trkpt>
      <trkpt lat="45.59796" lon="6.66878">
        <ele>1491.9</ele>
        <time>2022-02-08T07:39:05Z</time>
      </trkpt>
      <trkpt lat="45.59799" lon="6.66873">
        <ele>1493</ele>
        <time>2022-02-08T07:39:13Z</time>
      </trkpt>
      <trkpt lat="45.59803" lon="6.66868">
        <ele>1494.1</ele>
        <time>2022-02-08T07:39:22Z</time>
      </trkpt>
      <trkpt lat="45.59805" lon="6.66863">
        <ele>1494.6</ele>
        <time>2022-02-08T07:39:30Z</time>
      </trkpt>
      <trkpt lat="45.59808" lon="6.66857">
        <ele>1496.1</ele>
        <time>2022-02-08T07:39:38Z</time>
      </trkpt>
      <trkpt lat="45.5981" lon="6.66851">
        <ele>1498</ele>
        <time>2022-02-08T07:39:46Z</time>
      </trkpt>
      <trkpt lat="45.59812" lon="6.66846">
        <ele>1498.8</ele>
        <time>2022-02-08T07:39:54Z</time>
      </trkpt>
      <trkpt lat="45.59815" lon="6.66841">
        <ele>1500</ele>
        <time>2022-02-08T07:40:03Z</time>
      </trkpt>
      <trkpt lat="45.59819" lon="6.66837">
        <ele>1502</ele>
        <time>2022-02-08T07:40:14Z</time>
      </trkpt>
      <trkpt lat="45.59823" lon="6.66833">
        <ele>1504.5</ele>
        <time>2022-02-08T07:40:24Z</time>
      </trkpt>
      <trkpt lat="45.59826" lon="6.66828">
        <ele>1506</ele>
        <time>2022-02-08T07:40:34Z</time>
      </trkpt>
      <trkpt lat="45.59829" lon="6.66823">
        <ele>1507.3</ele>
        <time>2022-02-08T07:40:42Z</time>
      </trkpt>
      <trkpt lat="45.59832" lon="6.66818">
        <ele>1508.2</ele>
        <time>2022-02-08T07:40:51Z</time>
      </trkpt>
      <trkpt lat="45.59832" lon="6.66811">
        <ele>1509.4</ele>
        <time>2022-02-08T07:41:01Z</time>
      </trkpt>
      <trkpt lat="45.59833" lon="6.66804">
        <ele>1510.4</ele>
        <time>2022-02-08T07:41:09Z</time>
      </trkpt>
      <trkpt lat="45.59835" lon="6.66798">
        <ele>1511.2</ele>
        <time>2022-02-08T07:41:20Z</time>
      </trkpt>
      <trkpt lat="45.59837" lon="6.66792">
        <ele>1512.4</ele>
        <time>2022-02-08T07:41:29Z</time>
      </trkpt>
      <trkpt lat="45.59839" lon="6.66786">
        <ele>1513.6</ele>
        <time>2022-02-08T07:41:36Z</time>
      </trkpt>
      <trkpt lat="45.5984" lon="6.66779">
        <ele>1514.8</ele>
        <time>2022-02-08T07:41:49Z</time>
      </trkpt>
      <trkpt lat="45.59844" lon="6.66774">
        <ele>1516.8</ele>
        <time>2022-02-08T07:41:59Z</time>
      </trkpt>
      <trkpt lat="45.59845" lon="6.66767">
        <ele>1518.8</ele>
        <time>2022-02-08T07:44:16Z</time>
      </trkpt>
      <trkpt lat="45.59845" lon="6.6676">
        <ele>1519.6</ele>
        <time>2022-02-08T07:44:24Z</time>
      </trkpt>
      <trkpt lat="45.59845" lon="6.66754">
        <ele>1520.9</ele>
        <time>2022-02-08T07:44:31Z</time>
      </trkpt>
      <trkpt lat="45.59845" lon="6.66747">
        <ele>1521.6</ele>
        <time>2022-02-08T07:44:38Z</time>
      </trkpt>
      <trkpt lat="45.59847" lon="6.66741">
        <ele>1525.1</ele>
        <time>2022-02-08T07:44:53Z</time>
      </trkpt>
      <trkpt lat="45.59852" lon="6.6674">
        <ele>1527.2</ele>
        <time>2022-02-08T07:45:06Z</time>
      </trkpt>
      <trkpt lat="45.59856" lon="6.66738">
        <ele>1528.3</ele>
        <time>2022-02-08T07:45:16Z</time>
      </trkpt>
      <trkpt lat="45.59861" lon="6.6674">
        <ele>1530.3</ele>
        <time>2022-02-08T07:45:25Z</time>
      </trkpt>
      <trkpt lat="45.59865" lon="6.66741">
        <ele>1532.2</ele>
        <time>2022-02-08T07:45:35Z</time>
      </trkpt>
      <trkpt lat="45.5987" lon="6.66742">
        <ele>1533.7</ele>
        <time>2022-02-08T07:45:44Z</time>
      </trkpt>
      <trkpt lat="45.59875" lon="6.66743">
        <ele>1535.5</ele>
        <time>2022-02-08T07:45:55Z</time>
      </trkpt>
      <trkpt lat="45.59878" lon="6.66738">
        <ele>1536.4</ele>
        <time>2022-02-08T07:46:06Z</time>
      </trkpt>
      <trkpt lat="45.5988" lon="6.66731">
        <ele>1536.7</ele>
        <time>2022-02-08T07:46:13Z</time>
      </trkpt>
      <trkpt lat="45.59881" lon="6.66725">
        <ele>1537.6</ele>
        <time>2022-02-08T07:46:21Z</time>
      </trkpt>
      <trkpt lat="45.59881" lon="6.66717">
        <ele>1539.7</ele>
        <time>2022-02-08T07:46:30Z</time>
      </trkpt>
      <trkpt lat="45.59881" lon="6.66711">
        <ele>1541.3</ele>
        <time>2022-02-08T07:46:38Z</time>
      </trkpt>
      <trkpt lat="45.59886" lon="6.6671">
        <ele>1544.4</ele>
        <time>2022-02-08T07:46:56Z</time>
      </trkpt>
      <trkpt lat="45.59891" lon="6.6671">
        <ele>1545.7</ele>
        <time>2022-02-08T07:47:06Z</time>
      </trkpt>
      <trkpt lat="45.59895" lon="6.66712">
        <ele>1547</ele>
        <time>2022-02-08T07:47:19Z</time>
      </trkpt>
      <trkpt lat="45.599" lon="6.66714">
        <ele>1548.1</ele>
        <time>2022-02-08T07:47:32Z</time>
      </trkpt>
      <trkpt lat="45.59904" lon="6.66716">
        <ele>1549.5</ele>
        <time>2022-02-08T07:47:43Z</time>
      </trkpt>
      <trkpt lat="45.59909" lon="6.66715">
        <ele>1551</ele>
        <time>2022-02-08T07:47:53Z</time>
      </trkpt>
      <trkpt lat="45.59913" lon="6.66712">
        <ele>1552.2</ele>
        <time>2022-02-08T07:48:05Z</time>
      </trkpt>
      <trkpt lat="45.59918" lon="6.6671">
        <ele>1553.7</ele>
        <time>2022-02-08T07:48:14Z</time>
      </trkpt>
      <trkpt lat="45.59922" lon="6.66709">
        <ele>1554.9</ele>
        <time>2022-02-08T07:48:23Z</time>
      </trkpt>
      <trkpt lat="45.59927" lon="6.6671">
        <ele>1556.7</ele>
        <time>2022-02-08T07:48:34Z</time>
      </trkpt>
      <trkpt lat="45.59932" lon="6.6671">
        <ele>1558.3</ele>
        <time>2022-02-08T07:48:44Z</time>
      </trkpt>
      <trkpt lat="45.59936" lon="6.66709">
        <ele>1559.7</ele>
        <time>2022-02-08T07:48:52Z</time>
      </trkpt>
      <trkpt lat="45.59941" lon="6.6671">
        <ele>1562.4</ele>
        <time>2022-02-08T07:49:01Z</time>
      </trkpt>
      <trkpt lat="45.59944" lon="6.66706">
        <ele>1565.3</ele>
        <time>2022-02-08T07:49:19Z</time>
      </trkpt>
      <trkpt lat="45.59944" lon="6.66698">
        <ele>1566.2</ele>
        <time>2022-02-08T07:49:27Z</time>
      </trkpt>
      <trkpt lat="45.59945" lon="6.66691">
        <ele>1568</ele>
        <time>2022-02-08T07:49:36Z</time>
      </trkpt>
      <trkpt lat="45.59948" lon="6.66686">
        <ele>1570.9</ele>
        <time>2022-02-08T07:49:52Z</time>
      </trkpt>
      <trkpt lat="45.59952" lon="6.66688">
        <ele>1573.8</ele>
        <time>2022-02-08T07:50:02Z</time>
      </trkpt>
      <trkpt lat="45.59956" lon="6.6669">
        <ele>1575</ele>
        <time>2022-02-08T07:50:10Z</time>
      </trkpt>
      <trkpt lat="45.59961" lon="6.66692">
        <ele>1576.2</ele>
        <time>2022-02-08T07:50:19Z</time>
      </trkpt>
      <trkpt lat="45.59966" lon="6.66693">
        <ele>1577.2</ele>
        <time>2022-02-08T07:50:29Z</time>
      </trkpt>
      <trkpt lat="45.5997" lon="6.66695">
        <ele>1578.7</ele>
        <time>2022-02-08T07:50:39Z</time>
      </trkpt>
      <trkpt lat="45.59975" lon="6.66697">
        <ele>1579.8</ele>
        <time>2022-02-08T07:50:50Z</time>
      </trkpt>
      <trkpt lat="45.59979" lon="6.66697">
        <ele>1580.9</ele>
        <time>2022-02-08T07:51:02Z</time>
      </trkpt>
      <trkpt lat="45.5998" lon="6.66691">
        <ele>1581.2</ele>
        <time>2022-02-08T07:51:10Z</time>
      </trkpt>
      <trkpt lat="45.5998" lon="6.66684">
        <ele>1582.1</ele>
        <time>2022-02-08T07:51:18Z</time>
      </trkpt>
      <trkpt lat="45.5998" lon="6.66677">
        <ele>1583.1</ele>
        <time>2022-02-08T07:51:26Z</time>
      </trkpt>
      <trkpt lat="45.59979" lon="6.6667">
        <ele>1584.8</ele>
        <time>2022-02-08T07:51:36Z</time>
      </trkpt>
      <trkpt lat="45.59978" lon="6.66664">
        <ele>1586.6</ele>
        <time>2022-02-08T07:51:45Z</time>
      </trkpt>
      <trkpt lat="45.59977" lon="6.66657">
        <ele>1587.9</ele>
        <time>2022-02-08T07:51:56Z</time>
      </trkpt>
      <trkpt lat="45.59976" lon="6.6665">
        <ele>1588.5</ele>
        <time>2022-02-08T07:52:06Z</time>
      </trkpt>
      <trkpt lat="45.59977" lon="6.66643">
        <ele>1589.6</ele>
        <time>2022-02-08T07:52:22Z</time>
      </trkpt>
      <trkpt lat="45.59976" lon="6.66636">
        <ele>1590.3</ele>
        <time>2022-02-08T07:52:31Z</time>
      </trkpt>
      <trkpt lat="45.59976" lon="6.66629">
        <ele>1592.5</ele>
        <time>2022-02-08T07:52:39Z</time>
      </trkpt>
      <trkpt lat="45.59975" lon="6.66623">
        <ele>1594.6</ele>
        <time>2022-02-08T07:52:47Z</time>
      </trkpt>
      <trkpt lat="45.59973" lon="6.66616">
        <ele>1597.1</ele>
        <time>2022-02-08T07:52:59Z</time>
      </trkpt>
      <trkpt lat="45.59972" lon="6.6661">
        <ele>1597.2</ele>
        <time>2022-02-08T07:53:06Z</time>
      </trkpt>
      <trkpt lat="45.59971" lon="6.66604">
        <ele>1597.9</ele>
        <time>2022-02-08T07:53:18Z</time>
      </trkpt>
      <trkpt lat="45.59968" lon="6.66598">
        <ele>1599.3</ele>
        <time>2022-02-08T07:53:27Z</time>
      </trkpt>
      <trkpt lat="45.59966" lon="6.66592">
        <ele>1603.9</ele>
        <time>2022-02-08T07:53:36Z</time>
      </trkpt>
      <trkpt lat="45.59966" lon="6.66585">
        <ele>1606.5</ele>
        <time>2022-02-08T07:53:45Z</time>
      </trkpt>
      <trkpt lat="45.59965" lon="6.66579">
        <ele>1606.7</ele>
        <time>2022-02-08T07:53:53Z</time>
      </trkpt>
      <trkpt lat="45.59964" lon="6.66573">
        <ele>1607.1</ele>
        <time>2022-02-08T07:54:01Z</time>
      </trkpt>
      <trkpt lat="45.59963" lon="6.66566">
        <ele>1607.6</ele>
        <time>2022-02-08T07:54:11Z</time>
      </trkpt>
      <trkpt lat="45.59963" lon="6.6656">
        <ele>1608.5</ele>
        <time>2022-02-08T07:54:24Z</time>
      </trkpt>
      <trkpt lat="45.59964" lon="6.66553">
        <ele>1609.5</ele>
        <time>2022-02-08T07:54:31Z</time>
      </trkpt>
      <trkpt lat="45.59965" lon="6.66547">
        <ele>1611.5</ele>
        <time>2022-02-08T07:54:40Z</time>
      </trkpt>
      <trkpt lat="45.59964" lon="6.6654">
        <ele>1612.8</ele>
        <time>2022-02-08T07:54:48Z</time>
      </trkpt>
      <trkpt lat="45.59964" lon="6.66533">
        <ele>1614.5</ele>
        <time>2022-02-08T07:54:55Z</time>
      </trkpt>
      <trkpt lat="45.59965" lon="6.66526">
        <ele>1615.6</ele>
        <time>2022-02-08T07:55:02Z</time>
      </trkpt>
      <trkpt lat="45.59966" lon="6.6652">
        <ele>1616.5</ele>
        <time>2022-02-08T07:55:09Z</time>
      </trkpt>
      <trkpt lat="45.59966" lon="6.66514">
        <ele>1618.2</ele>
        <time>2022-02-08T07:55:18Z</time>
      </trkpt>
      <trkpt lat="45.59966" lon="6.66507">
        <ele>1621</ele>
        <time>2022-02-08T07:55:30Z</time>
      </trkpt>
      <trkpt lat="45.59966" lon="6.665">
        <ele>1621.9</ele>
        <time>2022-02-08T07:55:36Z</time>
      </trkpt>
      <trkpt lat="45.59964" lon="6.66493">
        <ele>1621.9</ele>
        <time>2022-02-08T07:55:44Z</time>
      </trkpt>
      <trkpt lat="45.59964" lon="6.66486">
        <ele>1623.5</ele>
        <time>2022-02-08T07:55:54Z</time>
      </trkpt>
      <trkpt lat="45.59964" lon="6.66478">
        <ele>1625.4</ele>
        <time>2022-02-08T07:56:02Z</time>
      </trkpt>
      <trkpt lat="45.59965" lon="6.66472">
        <ele>1626.2</ele>
        <time>2022-02-08T07:56:09Z</time>
      </trkpt>
      <trkpt lat="45.59966" lon="6.66466">
        <ele>1625.9</ele>
        <time>2022-02-08T07:56:16Z</time>
      </trkpt>
      <trkpt lat="45.59966" lon="6.66459">
        <ele>1626.3</ele>
        <time>2022-02-08T07:56:22Z</time>
      </trkpt>
      <trkpt lat="45.59967" lon="6.66453">
        <ele>1628.5</ele>
        <time>2022-02-08T07:56:32Z</time>
      </trkpt>
      <trkpt lat="45.59968" lon="6.66446">
        <ele>1631.5</ele>
        <time>2022-02-08T07:56:44Z</time>
      </trkpt>
      <trkpt lat="45.5997" lon="6.6644">
        <ele>1632.5</ele>
        <time>2022-02-08T07:56:52Z</time>
      </trkpt>
      <trkpt lat="45.59972" lon="6.66435">
        <ele>1634.7</ele>
        <time>2022-02-08T07:57:02Z</time>
      </trkpt>
      <trkpt lat="45.59973" lon="6.66428">
        <ele>1635.7</ele>
        <time>2022-02-08T07:57:08Z</time>
      </trkpt>
      <trkpt lat="45.59975" lon="6.6642">
        <ele>1636.3</ele>
        <time>2022-02-08T07:57:16Z</time>
      </trkpt>
      <trkpt lat="45.59975" lon="6.66413">
        <ele>1637.7</ele>
        <time>2022-02-08T07:57:22Z</time>
      </trkpt>
      <trkpt lat="45.59976" lon="6.66407">
        <ele>1639.5</ele>
        <time>2022-02-08T07:57:31Z</time>
      </trkpt>
      <trkpt lat="45.59979" lon="6.66401">
        <ele>1642.5</ele>
        <time>2022-02-08T07:57:41Z</time>
      </trkpt>
      <trkpt lat="45.5998" lon="6.66395">
        <ele>1644.7</ele>
        <time>2022-02-08T07:57:52Z</time>
      </trkpt>
      <trkpt lat="45.59982" lon="6.66389">
        <ele>1645.3</ele>
        <time>2022-02-08T07:58:07Z</time>
      </trkpt>
      <trkpt lat="45.59983" lon="6.66382">
        <ele>1645.8</ele>
        <time>2022-02-08T07:58:13Z</time>
      </trkpt>
      <trkpt lat="45.59985" lon="6.66376">
        <ele>1646.2</ele>
        <time>2022-02-08T07:58:22Z</time>
      </trkpt>
      <trkpt lat="45.59986" lon="6.66369">
        <ele>1647</ele>
        <time>2022-02-08T07:58:29Z</time>
      </trkpt>
      <trkpt lat="45.59988" lon="6.66363">
        <ele>1649</ele>
        <time>2022-02-08T07:58:39Z</time>
      </trkpt>
      <trkpt lat="45.59991" lon="6.66358">
        <ele>1650.3</ele>
        <time>2022-02-08T07:58:48Z</time>
      </trkpt>
      <trkpt lat="45.59994" lon="6.66353">
        <ele>1651.3</ele>
        <time>2022-02-08T07:58:58Z</time>
      </trkpt>
      <trkpt lat="45.59999" lon="6.66353">
        <ele>1652.5</ele>
        <time>2022-02-08T07:59:11Z</time>
      </trkpt>
      <trkpt lat="45.60001" lon="6.66347">
        <ele>1654.1</ele>
        <time>2022-02-08T07:59:20Z</time>
      </trkpt>
      <trkpt lat="45.60002" lon="6.6634">
        <ele>1654.8</ele>
        <time>2022-02-08T07:59:27Z</time>
      </trkpt>
      <trkpt lat="45.60003" lon="6.66333">
        <ele>1655.6</ele>
        <time>2022-02-08T07:59:34Z</time>
      </trkpt>
      <trkpt lat="45.60003" lon="6.66326">
        <ele>1657.3</ele>
        <time>2022-02-08T07:59:41Z</time>
      </trkpt>
      <trkpt lat="45.60002" lon="6.66319">
        <ele>1658.4</ele>
        <time>2022-02-08T07:59:47Z</time>
      </trkpt>
      <trkpt lat="45.60003" lon="6.66313">
        <ele>1658.7</ele>
        <time>2022-02-08T07:59:52Z</time>
      </trkpt>
      <trkpt lat="45.60003" lon="6.66305">
        <ele>1661.4</ele>
        <time>2022-02-08T07:59:58Z</time>
      </trkpt>
      <trkpt lat="45.60003" lon="6.66298">
        <ele>1660.2</ele>
        <time>2022-02-08T08:00:03Z</time>
      </trkpt>
      <trkpt lat="45.60003" lon="6.66291">
        <ele>1658.9</ele>
        <time>2022-02-08T08:00:08Z</time>
      </trkpt>
      <trkpt lat="45.60004" lon="6.66284">
        <ele>1659.2</ele>
        <time>2022-02-08T08:00:14Z</time>
      </trkpt>
      <trkpt lat="45.60006" lon="6.66277">
        <ele>1658.6</ele>
        <time>2022-02-08T08:00:21Z</time>
      </trkpt>
      <trkpt lat="45.60007" lon="6.66271">
        <ele>1658.4</ele>
        <time>2022-02-08T08:00:29Z</time>
      </trkpt>
      <trkpt lat="45.60011" lon="6.66267">
        <ele>1659.7</ele>
        <time>2022-02-08T08:00:40Z</time>
      </trkpt>
      <trkpt lat="45.60016" lon="6.66265">
        <ele>1661.9</ele>
        <time>2022-02-08T08:00:51Z</time>
      </trkpt>
      <trkpt lat="45.6002" lon="6.66265">
        <ele>1664.3</ele>
        <time>2022-02-08T08:01:01Z</time>
      </trkpt>
      <trkpt lat="45.60024" lon="6.6626">
        <ele>1667.1</ele>
        <time>2022-02-08T08:01:12Z</time>
      </trkpt>
      <trkpt lat="45.60028" lon="6.66256">
        <ele>1668.9</ele>
        <time>2022-02-08T08:01:23Z</time>
      </trkpt>
      <trkpt lat="45.60032" lon="6.66254">
        <ele>1670</ele>
        <time>2022-02-08T08:01:34Z</time>
      </trkpt>
      <trkpt lat="45.60037" lon="6.66256">
        <ele>1672.9</ele>
        <time>2022-02-08T08:01:49Z</time>
      </trkpt>
      <trkpt lat="45.60041" lon="6.66256">
        <ele>1674.4</ele>
        <time>2022-02-08T08:01:59Z</time>
      </trkpt>
      <trkpt lat="45.60044" lon="6.66249">
        <ele>1674.4</ele>
        <time>2022-02-08T08:02:06Z</time>
      </trkpt>
      <trkpt lat="45.60045" lon="6.66243">
        <ele>1673.4</ele>
        <time>2022-02-08T08:02:13Z</time>
      </trkpt>
      <trkpt lat="45.60046" lon="6.66236">
        <ele>1674.6</ele>
        <time>2022-02-08T08:02:21Z</time>
      </trkpt>
      <trkpt lat="45.60048" lon="6.6623">
        <ele>1676.5</ele>
        <time>2022-02-08T08:02:31Z</time>
      </trkpt>
      <trkpt lat="45.60052" lon="6.66226">
        <ele>1679.2</ele>
        <time>2022-02-08T08:02:42Z</time>
      </trkpt>
      <trkpt lat="45.60055" lon="6.6622">
        <ele>1681.2</ele>
        <time>2022-02-08T08:02:52Z</time>
      </trkpt>
      <trkpt lat="45.60056" lon="6.66214">
        <ele>1681.5</ele>
        <time>2022-02-08T08:02:59Z</time>
      </trkpt>
      <trkpt lat="45.60058" lon="6.66208">
        <ele>1681.9</ele>
        <time>2022-02-08T08:03:09Z</time>
      </trkpt>
      <trkpt lat="45.6006" lon="6.66202">
        <ele>1683.5</ele>
        <time>2022-02-08T08:03:19Z</time>
      </trkpt>
      <trkpt lat="45.60063" lon="6.66197">
        <ele>1685.2</ele>
        <time>2022-02-08T08:03:29Z</time>
      </trkpt>
      <trkpt lat="45.60066" lon="6.66191">
        <ele>1687.1</ele>
        <time>2022-02-08T08:03:40Z</time>
      </trkpt>
      <trkpt lat="45.60067" lon="6.66185">
        <ele>1687.6</ele>
        <time>2022-02-08T08:03:48Z</time>
      </trkpt>
      <trkpt lat="45.60068" lon="6.66178">
        <ele>1688.1</ele>
        <time>2022-02-08T08:03:56Z</time>
      </trkpt>
      <trkpt lat="45.60069" lon="6.66172">
        <ele>1689.7</ele>
        <time>2022-02-08T08:04:05Z</time>
      </trkpt>
      <trkpt lat="45.60072" lon="6.66166">
        <ele>1692.8</ele>
        <time>2022-02-08T08:04:17Z</time>
      </trkpt>
      <trkpt lat="45.60076" lon="6.66163">
        <ele>1695.5</ele>
        <time>2022-02-08T08:04:30Z</time>
      </trkpt>
      <trkpt lat="45.60081" lon="6.66166">
        <ele>1698.2</ele>
        <time>2022-02-08T08:04:40Z</time>
      </trkpt>
      <trkpt lat="45.60085" lon="6.66169">
        <ele>1700.5</ele>
        <time>2022-02-08T08:04:49Z</time>
      </trkpt>
      <trkpt lat="45.60089" lon="6.66166">
        <ele>1702.3</ele>
        <time>2022-02-08T08:04:59Z</time>
      </trkpt>
      <trkpt lat="45.60091" lon="6.6616">
        <ele>1703.9</ele>
        <time>2022-02-08T08:05:09Z</time>
      </trkpt>
      <trkpt lat="45.60092" lon="6.66153">
        <ele>1705</ele>
        <time>2022-02-08T08:05:20Z</time>
      </trkpt>
      <trkpt lat="45.60093" lon="6.66146">
        <ele>1706.1</ele>
        <time>2022-02-08T08:05:30Z</time>
      </trkpt>
      <trkpt lat="45.60093" lon="6.6614">
        <ele>1706.4</ele>
        <time>2022-02-08T08:05:37Z</time>
      </trkpt>
      <trkpt lat="45.60094" lon="6.66133">
        <ele>1707.5</ele>
        <time>2022-02-08T08:05:44Z</time>
      </trkpt>
      <trkpt lat="45.60093" lon="6.66127">
        <ele>1707.8</ele>
        <time>2022-02-08T08:05:54Z</time>
      </trkpt>
      <trkpt lat="45.60095" lon="6.6612">
        <ele>1710.5</ele>
        <time>2022-02-08T08:06:06Z</time>
      </trkpt>
      <trkpt lat="45.60096" lon="6.66113">
        <ele>1712.6</ele>
        <time>2022-02-08T08:06:15Z</time>
      </trkpt>
      <trkpt lat="45.60097" lon="6.66106">
        <ele>1714</ele>
        <time>2022-02-08T08:06:22Z</time>
      </trkpt>
      <trkpt lat="45.60096" lon="6.66099">
        <ele>1715.5</ele>
        <time>2022-02-08T08:06:32Z</time>
      </trkpt>
      <trkpt lat="45.60097" lon="6.66093">
        <ele>1718.1</ele>
        <time>2022-02-08T08:06:44Z</time>
      </trkpt>
      <trkpt lat="45.60098" lon="6.66086">
        <ele>1719.8</ele>
        <time>2022-02-08T08:06:55Z</time>
      </trkpt>
      <trkpt lat="45.601" lon="6.6608">
        <ele>1720.9</ele>
        <time>2022-02-08T08:07:04Z</time>
      </trkpt>
      <trkpt lat="45.60103" lon="6.66075">
        <ele>1724.5</ele>
        <time>2022-02-08T08:07:14Z</time>
      </trkpt>
      <trkpt lat="45.60106" lon="6.6607">
        <ele>1725.9</ele>
        <time>2022-02-08T08:07:27Z</time>
      </trkpt>
      <trkpt lat="45.60106" lon="6.66062">
        <ele>1728.3</ele>
        <time>2022-02-08T08:07:36Z</time>
      </trkpt>
      <trkpt lat="45.60105" lon="6.66056">
        <ele>1730.1</ele>
        <time>2022-02-08T08:07:42Z</time>
      </trkpt>
      <trkpt lat="45.60104" lon="6.66049">
        <ele>1730.6</ele>
        <time>2022-02-08T08:07:49Z</time>
      </trkpt>
      <trkpt lat="45.60103" lon="6.66042">
        <ele>1730.7</ele>
        <time>2022-02-08T08:07:55Z</time>
      </trkpt>
      <trkpt lat="45.60104" lon="6.66035">
        <ele>1731.1</ele>
        <time>2022-02-08T08:08:01Z</time>
      </trkpt>
      <trkpt lat="45.60104" lon="6.66028">
        <ele>1732.2</ele>
        <time>2022-02-08T08:08:07Z</time>
      </trkpt>
      <trkpt lat="45.60103" lon="6.66021">
        <ele>1732.2</ele>
        <time>2022-02-08T08:08:12Z</time>
      </trkpt>
      <trkpt lat="45.60102" lon="6.66015">
        <ele>1731.8</ele>
        <time>2022-02-08T08:08:17Z</time>
      </trkpt>
      <trkpt lat="45.601" lon="6.66009">
        <ele>1732.1</ele>
        <time>2022-02-08T08:08:22Z</time>
      </trkpt>
      <trkpt lat="45.60099" lon="6.66003">
        <ele>1733.3</ele>
        <time>2022-02-08T08:08:28Z</time>
      </trkpt>
      <trkpt lat="45.60096" lon="6.65997">
        <ele>1733.7</ele>
        <time>2022-02-08T08:08:34Z</time>
      </trkpt>
      <trkpt lat="45.60093" lon="6.65991">
        <ele>1734</ele>
        <time>2022-02-08T08:08:40Z</time>
      </trkpt>
      <trkpt lat="45.60091" lon="6.65985">
        <ele>1734.6</ele>
        <time>2022-02-08T08:08:46Z</time>
      </trkpt>
      <trkpt lat="45.60088" lon="6.6598">
        <ele>1734.6</ele>
        <time>2022-02-08T08:08:51Z</time>
      </trkpt>
      <trkpt lat="45.60085" lon="6.65975">
        <ele>1735.1</ele>
        <time>2022-02-08T08:08:56Z</time>
      </trkpt>
      <trkpt lat="45.60083" lon="6.65969">
        <ele>1735.6</ele>
        <time>2022-02-08T08:09:01Z</time>
      </trkpt>
      <trkpt lat="45.6008" lon="6.65962">
        <ele>1737.2</ele>
        <time>2022-02-08T08:09:07Z</time>
      </trkpt>
      <trkpt lat="45.60079" lon="6.65956">
        <ele>1737.8</ele>
        <time>2022-02-08T08:09:13Z</time>
      </trkpt>
      <trkpt lat="45.60081" lon="6.65949">
        <ele>1737.8</ele>
        <time>2022-02-08T08:09:25Z</time>
      </trkpt>
      <trkpt lat="45.6008" lon="6.65942">
        <ele>1736.9</ele>
        <time>2022-02-08T08:09:31Z</time>
      </trkpt>
      <trkpt lat="45.60081" lon="6.65935">
        <ele>1737.9</ele>
        <time>2022-02-08T08:09:39Z</time>
      </trkpt>
      <trkpt lat="45.60082" lon="6.65929">
        <ele>1739.2</ele>
        <time>2022-02-08T08:09:47Z</time>
      </trkpt>
      <trkpt lat="45.60082" lon="6.65922">
        <ele>1739.6</ele>
        <time>2022-02-08T08:09:55Z</time>
      </trkpt>
      <trkpt lat="45.60083" lon="6.65915">
        <ele>1740.4</ele>
        <time>2022-02-08T08:10:03Z</time>
      </trkpt>
      <trkpt lat="45.60085" lon="6.65909">
        <ele>1741.5</ele>
        <time>2022-02-08T08:10:14Z</time>
      </trkpt>
      <trkpt lat="45.60089" lon="6.65905">
        <ele>1743.2</ele>
        <time>2022-02-08T08:10:24Z</time>
      </trkpt>
      <trkpt lat="45.60093" lon="6.65903">
        <ele>1745.4</ele>
        <time>2022-02-08T08:10:35Z</time>
      </trkpt>
      <trkpt lat="45.60096" lon="6.65897">
        <ele>1748.5</ele>
        <time>2022-02-08T08:10:48Z</time>
      </trkpt>
      <trkpt lat="45.60096" lon="6.65891">
        <ele>1748.4</ele>
        <time>2022-02-08T08:10:55Z</time>
      </trkpt>
      <trkpt lat="45.60096" lon="6.65884">
        <ele>1749.5</ele>
        <time>2022-02-08T08:11:01Z</time>
      </trkpt>
      <trkpt lat="45.60096" lon="6.65877">
        <ele>1750.8</ele>
        <time>2022-02-08T08:11:08Z</time>
      </trkpt>
      <trkpt lat="45.60097" lon="6.6587">
        <ele>1752.7</ele>
        <time>2022-02-08T08:11:16Z</time>
      </trkpt>
      <trkpt lat="45.60099" lon="6.65864">
        <ele>1754.3</ele>
        <time>2022-02-08T08:11:27Z</time>
      </trkpt>
      <trkpt lat="45.601" lon="6.65857">
        <ele>1755</ele>
        <time>2022-02-08T08:11:35Z</time>
      </trkpt>
      <trkpt lat="45.60101" lon="6.65849">
        <ele>1755.9</ele>
        <time>2022-02-08T08:11:44Z</time>
      </trkpt>
      <trkpt lat="45.60102" lon="6.65843">
        <ele>1755.8</ele>
        <time>2022-02-08T08:11:51Z</time>
      </trkpt>
      <trkpt lat="45.60103" lon="6.65836">
        <ele>1756.3</ele>
        <time>2022-02-08T08:11:59Z</time>
      </trkpt>
      <trkpt lat="45.60104" lon="6.65829">
        <ele>1756.4</ele>
        <time>2022-02-08T08:12:05Z</time>
      </trkpt>
      <trkpt lat="45.60104" lon="6.65822">
        <ele>1756.5</ele>
        <time>2022-02-08T08:12:12Z</time>
      </trkpt>
      <trkpt lat="45.60105" lon="6.65815">
        <ele>1757.3</ele>
        <time>2022-02-08T08:12:21Z</time>
      </trkpt>
      <trkpt lat="45.60106" lon="6.65809">
        <ele>1758.5</ele>
        <time>2022-02-08T08:12:29Z</time>
      </trkpt>
      <trkpt lat="45.6011" lon="6.65807">
        <ele>1760.5</ele>
        <time>2022-02-08T08:12:42Z</time>
      </trkpt>
      <trkpt lat="45.60115" lon="6.65808">
        <ele>1763.4</ele>
        <time>2022-02-08T08:12:52Z</time>
      </trkpt>
      <trkpt lat="45.60118" lon="6.65803">
        <ele>1765.7</ele>
        <time>2022-02-08T08:13:01Z</time>
      </trkpt>
      <trkpt lat="45.60122" lon="6.65798">
        <ele>1767.8</ele>
        <time>2022-02-08T08:13:12Z</time>
      </trkpt>
      <trkpt lat="45.60125" lon="6.65792">
        <ele>1769.8</ele>
        <time>2022-02-08T08:13:20Z</time>
      </trkpt>
      <trkpt lat="45.60128" lon="6.65787">
        <ele>1770.5</ele>
        <time>2022-02-08T08:13:29Z</time>
      </trkpt>
      <trkpt lat="45.60129" lon="6.6578">
        <ele>1771.1</ele>
        <time>2022-02-08T08:13:37Z</time>
      </trkpt>
      <trkpt lat="45.6013" lon="6.65773">
        <ele>1772</ele>
        <time>2022-02-08T08:13:45Z</time>
      </trkpt>
      <trkpt lat="45.60132" lon="6.65766">
        <ele>1772.9</ele>
        <time>2022-02-08T08:13:53Z</time>
      </trkpt>
      <trkpt lat="45.60134" lon="6.6576">
        <ele>1774.7</ele>
        <time>2022-02-08T08:14:01Z</time>
      </trkpt>
      <trkpt lat="45.60136" lon="6.65754">
        <ele>1776</ele>
        <time>2022-02-08T08:14:09Z</time>
      </trkpt>
      <trkpt lat="45.60138" lon="6.65747">
        <ele>1776.8</ele>
        <time>2022-02-08T08:14:17Z</time>
      </trkpt>
      <trkpt lat="45.6014" lon="6.6574">
        <ele>1778.3</ele>
        <time>2022-02-08T08:14:25Z</time>
      </trkpt>
      <trkpt lat="45.60141" lon="6.65733">
        <ele>1779.7</ele>
        <time>2022-02-08T08:14:32Z</time>
      </trkpt>
      <trkpt lat="45.60142" lon="6.65727">
        <ele>1780.6</ele>
        <time>2022-02-08T08:14:39Z</time>
      </trkpt>
      <trkpt lat="45.60144" lon="6.6572">
        <ele>1781.7</ele>
        <time>2022-02-08T08:14:48Z</time>
      </trkpt>
      <trkpt lat="45.60145" lon="6.65713">
        <ele>1782.3</ele>
        <time>2022-02-08T08:14:56Z</time>
      </trkpt>
      <trkpt lat="45.60147" lon="6.65707">
        <ele>1783.8</ele>
        <time>2022-02-08T08:15:04Z</time>
      </trkpt>
      <trkpt lat="45.6015" lon="6.65701">
        <ele>1785.7</ele>
        <time>2022-02-08T08:15:14Z</time>
      </trkpt>
      <trkpt lat="45.60152" lon="6.65695">
        <ele>1787.2</ele>
        <time>2022-02-08T08:15:23Z</time>
      </trkpt>
      <trkpt lat="45.60154" lon="6.65688">
        <ele>1787.8</ele>
        <time>2022-02-08T08:15:30Z</time>
      </trkpt>
      <trkpt lat="45.60157" lon="6.65683">
        <ele>1788.9</ele>
        <time>2022-02-08T08:15:38Z</time>
      </trkpt>
      <trkpt lat="45.60159" lon="6.65677">
        <ele>1790</ele>
        <time>2022-02-08T08:15:45Z</time>
      </trkpt>
      <trkpt lat="45.60161" lon="6.6567">
        <ele>1790.7</ele>
        <time>2022-02-08T08:15:52Z</time>
      </trkpt>
      <trkpt lat="45.60164" lon="6.65664">
        <ele>1791.5</ele>
        <time>2022-02-08T08:15:59Z</time>
      </trkpt>
      <trkpt lat="45.60166" lon="6.65658">
        <ele>1793</ele>
        <time>2022-02-08T08:16:07Z</time>
      </trkpt>
      <trkpt lat="45.60168" lon="6.65652">
        <ele>1794.2</ele>
        <time>2022-02-08T08:16:20Z</time>
      </trkpt>
      <trkpt lat="45.6017" lon="6.65646">
        <ele>1795.1</ele>
        <time>2022-02-08T08:16:30Z</time>
      </trkpt>
      <trkpt lat="45.60172" lon="6.6564">
        <ele>1796.2</ele>
        <time>2022-02-08T08:16:38Z</time>
      </trkpt>
      <trkpt lat="45.60175" lon="6.65634">
        <ele>1797.2</ele>
        <time>2022-02-08T08:16:44Z</time>
      </trkpt>
      <trkpt lat="45.60177" lon="6.65628">
        <ele>1798.7</ele>
        <time>2022-02-08T08:16:51Z</time>
      </trkpt>
      <trkpt lat="45.60179" lon="6.65623">
        <ele>1799.4</ele>
        <time>2022-02-08T08:16:56Z</time>
      </trkpt>
      <trkpt lat="45.60181" lon="6.65616">
        <ele>1800.1</ele>
        <time>2022-02-08T08:17:02Z</time>
      </trkpt>
      <trkpt lat="45.60182" lon="6.65609">
        <ele>1800.5</ele>
        <time>2022-02-08T08:17:08Z</time>
      </trkpt>
      <trkpt lat="45.60184" lon="6.65602">
        <ele>1800.4</ele>
        <time>2022-02-08T08:17:14Z</time>
      </trkpt>
      <trkpt lat="45.60186" lon="6.65596">
        <ele>1800.4</ele>
        <time>2022-02-08T08:17:21Z</time>
      </trkpt>
      <trkpt lat="45.60187" lon="6.65589">
        <ele>1801.1</ele>
        <time>2022-02-08T08:17:28Z</time>
      </trkpt>
      <trkpt lat="45.6019" lon="6.65583">
        <ele>1802.1</ele>
        <time>2022-02-08T08:17:35Z</time>
      </trkpt>
      <trkpt lat="45.60191" lon="6.65576">
        <ele>1802.5</ele>
        <time>2022-02-08T08:17:41Z</time>
      </trkpt>
      <trkpt lat="45.60193" lon="6.65569">
        <ele>1803.3</ele>
        <time>2022-02-08T08:17:48Z</time>
      </trkpt>
      <trkpt lat="45.60195" lon="6.65564">
        <ele>1804.7</ele>
        <time>2022-02-08T08:17:54Z</time>
      </trkpt>
      <trkpt lat="45.60193" lon="6.65558">
        <ele>1805.4</ele>
        <time>2022-02-08T08:18:01Z</time>
      </trkpt>
      <trkpt lat="45.60191" lon="6.65552">
        <ele>1805.4</ele>
        <time>2022-02-08T08:18:11Z</time>
      </trkpt>
      <trkpt lat="45.60188" lon="6.65546">
        <ele>1806.3</ele>
        <time>2022-02-08T08:18:19Z</time>
      </trkpt>
      <trkpt lat="45.60186" lon="6.6554">
        <ele>1807.3</ele>
        <time>2022-02-08T08:18:25Z</time>
      </trkpt>
      <trkpt lat="45.60187" lon="6.65534">
        <ele>1808.4</ele>
        <time>2022-02-08T08:18:37Z</time>
      </trkpt>
      <trkpt lat="45.60191" lon="6.6553">
        <ele>1810.6</ele>
        <time>2022-02-08T08:18:47Z</time>
      </trkpt>
      <trkpt lat="45.60195" lon="6.65526">
        <ele>1812.6</ele>
        <time>2022-02-08T08:18:55Z</time>
      </trkpt>
      <trkpt lat="45.60199" lon="6.65521">
        <ele>1814.1</ele>
        <time>2022-02-08T08:19:02Z</time>
      </trkpt>
      <trkpt lat="45.60203" lon="6.65517">
        <ele>1816.2</ele>
        <time>2022-02-08T08:19:10Z</time>
      </trkpt>
      <trkpt lat="45.60207" lon="6.65515">
        <ele>1817.7</ele>
        <time>2022-02-08T08:19:18Z</time>
      </trkpt>
      <trkpt lat="45.6021" lon="6.6551">
        <ele>1819.1</ele>
        <time>2022-02-08T08:19:26Z</time>
      </trkpt>
      <trkpt lat="45.60211" lon="6.65503">
        <ele>1821.2</ele>
        <time>2022-02-08T08:20:44Z</time>
      </trkpt>
      <trkpt lat="45.60208" lon="6.65498">
        <ele>1822.8</ele>
        <time>2022-02-08T08:28:08Z</time>
      </trkpt>
      <trkpt lat="45.60204" lon="6.65494">
        <ele>1823.7</ele>
        <time>2022-02-08T08:28:17Z</time>
      </trkpt>
      <trkpt lat="45.60202" lon="6.65488">
        <ele>1826.6</ele>
        <time>2022-02-08T08:28:28Z</time>
      </trkpt>
      <trkpt lat="45.60205" lon="6.65482">
        <ele>1828.6</ele>
        <time>2022-02-08T08:28:42Z</time>
      </trkpt>
      <trkpt lat="45.60208" lon="6.65479">
        <ele>1830.1</ele>
        <time>2022-02-08T08:28:54Z</time>
      </trkpt>
      <trkpt lat="45.60212" lon="6.65474">
        <ele>1831.2</ele>
        <time>2022-02-08T08:29:02Z</time>
      </trkpt>
      <trkpt lat="45.60216" lon="6.65469">
        <ele>1832.1</ele>
        <time>2022-02-08T08:29:11Z</time>
      </trkpt>
      <trkpt lat="45.6022" lon="6.65465">
        <ele>1833.3</ele>
        <time>2022-02-08T08:29:19Z</time>
      </trkpt>
      <trkpt lat="45.60223" lon="6.6546">
        <ele>1833.8</ele>
        <time>2022-02-08T08:29:27Z</time>
      </trkpt>
      <trkpt lat="45.60227" lon="6.65457">
        <ele>1834.6</ele>
        <time>2022-02-08T08:29:36Z</time>
      </trkpt>
      <trkpt lat="45.60231" lon="6.65453">
        <ele>1835.4</ele>
        <time>2022-02-08T08:29:44Z</time>
      </trkpt>
      <trkpt lat="45.60234" lon="6.65448">
        <ele>1837.4</ele>
        <time>2022-02-08T08:29:55Z</time>
      </trkpt>
      <trkpt lat="45.60234" lon="6.65441">
        <ele>1839</ele>
        <time>2022-02-08T08:30:03Z</time>
      </trkpt>
      <trkpt lat="45.60232" lon="6.65435">
        <ele>1839.9</ele>
        <time>2022-02-08T08:30:11Z</time>
      </trkpt>
      <trkpt lat="45.6023" lon="6.65429">
        <ele>1840.8</ele>
        <time>2022-02-08T08:30:20Z</time>
      </trkpt>
      <trkpt lat="45.60233" lon="6.65424">
        <ele>1844.1</ele>
        <time>2022-02-08T08:30:37Z</time>
      </trkpt>
      <trkpt lat="45.60238" lon="6.65422">
        <ele>1845.9</ele>
        <time>2022-02-08T08:30:47Z</time>
      </trkpt>
      <trkpt lat="45.60242" lon="6.65418">
        <ele>1847.3</ele>
        <time>2022-02-08T08:30:56Z</time>
      </trkpt>
      <trkpt lat="45.60246" lon="6.65415">
        <ele>1848.4</ele>
        <time>2022-02-08T08:31:04Z</time>
      </trkpt>
      <trkpt lat="45.6025" lon="6.65412">
        <ele>1849.5</ele>
        <time>2022-02-08T08:31:12Z</time>
      </trkpt>
      <trkpt lat="45.60254" lon="6.65409">
        <ele>1851.1</ele>
        <time>2022-02-08T08:31:21Z</time>
      </trkpt>
      <trkpt lat="45.60258" lon="6.65406">
        <ele>1853.4</ele>
        <time>2022-02-08T08:31:30Z</time>
      </trkpt>
      <trkpt lat="45.60262" lon="6.65403">
        <ele>1855.2</ele>
        <time>2022-02-08T08:31:39Z</time>
      </trkpt>
      <trkpt lat="45.60267" lon="6.654">
        <ele>1856.1</ele>
        <time>2022-02-08T08:31:47Z</time>
      </trkpt>
      <trkpt lat="45.60271" lon="6.65396">
        <ele>1857.1</ele>
        <time>2022-02-08T08:31:55Z</time>
      </trkpt>
      <trkpt lat="45.60274" lon="6.65392">
        <ele>1857.5</ele>
        <time>2022-02-08T08:32:04Z</time>
      </trkpt>
      <trkpt lat="45.60278" lon="6.65389">
        <ele>1858.5</ele>
        <time>2022-02-08T08:32:12Z</time>
      </trkpt>
      <trkpt lat="45.60282" lon="6.65385">
        <ele>1860.3</ele>
        <time>2022-02-08T08:32:21Z</time>
      </trkpt>
      <trkpt lat="45.60287" lon="6.65382">
        <ele>1861.8</ele>
        <time>2022-02-08T08:32:31Z</time>
      </trkpt>
      <trkpt lat="45.60291" lon="6.65378">
        <ele>1863.4</ele>
        <time>2022-02-08T08:32:39Z</time>
      </trkpt>
      <trkpt lat="45.60295" lon="6.65376">
        <ele>1865.1</ele>
        <time>2022-02-08T08:32:48Z</time>
      </trkpt>
      <trkpt lat="45.603" lon="6.65374">
        <ele>1866.1</ele>
        <time>2022-02-08T08:32:56Z</time>
      </trkpt>
      <trkpt lat="45.60305" lon="6.65371">
        <ele>1867.7</ele>
        <time>2022-02-08T08:33:05Z</time>
      </trkpt>
      <trkpt lat="45.60309" lon="6.65368">
        <ele>1868.8</ele>
        <time>2022-02-08T08:33:13Z</time>
      </trkpt>
      <trkpt lat="45.60313" lon="6.65365">
        <ele>1870.4</ele>
        <time>2022-02-08T08:33:23Z</time>
      </trkpt>
      <trkpt lat="45.60317" lon="6.65362">
        <ele>1871.5</ele>
        <time>2022-02-08T08:33:32Z</time>
      </trkpt>
      <trkpt lat="45.60318" lon="6.65355">
        <ele>1873.2</ele>
        <time>2022-02-08T08:33:42Z</time>
      </trkpt>
      <trkpt lat="45.60317" lon="6.65349">
        <ele>1874.6</ele>
        <time>2022-02-08T08:33:51Z</time>
      </trkpt>
      <trkpt lat="45.60314" lon="6.65343">
        <ele>1875.1</ele>
        <time>2022-02-08T08:33:59Z</time>
      </trkpt>
      <trkpt lat="45.60311" lon="6.65338">
        <ele>1876.2</ele>
        <time>2022-02-08T08:34:08Z</time>
      </trkpt>
      <trkpt lat="45.60314" lon="6.65332">
        <ele>1879.8</ele>
        <time>2022-02-08T08:34:25Z</time>
      </trkpt>
      <trkpt lat="45.60318" lon="6.65331">
        <ele>1881.7</ele>
        <time>2022-02-08T08:34:35Z</time>
      </trkpt>
      <trkpt lat="45.60323" lon="6.6533">
        <ele>1883.3</ele>
        <time>2022-02-08T08:34:44Z</time>
      </trkpt>
      <trkpt lat="45.60328" lon="6.65329">
        <ele>1884.4</ele>
        <time>2022-02-08T08:34:52Z</time>
      </trkpt>
      <trkpt lat="45.6033" lon="6.65322">
        <ele>1885.9</ele>
        <time>2022-02-08T08:35:02Z</time>
      </trkpt>
      <trkpt lat="45.60328" lon="6.65315">
        <ele>1887.4</ele>
        <time>2022-02-08T08:35:11Z</time>
      </trkpt>
      <trkpt lat="45.60326" lon="6.6531">
        <ele>1888.1</ele>
        <time>2022-02-08T08:35:19Z</time>
      </trkpt>
      <trkpt lat="45.60323" lon="6.65304">
        <ele>1888.4</ele>
        <time>2022-02-08T08:35:27Z</time>
      </trkpt>
      <trkpt lat="45.60321" lon="6.65299">
        <ele>1889.1</ele>
        <time>2022-02-08T08:35:36Z</time>
      </trkpt>
      <trkpt lat="45.60319" lon="6.65293">
        <ele>1890.5</ele>
        <time>2022-02-08T08:35:45Z</time>
      </trkpt>
      <trkpt lat="45.60322" lon="6.65288">
        <ele>1894.3</ele>
        <time>2022-02-08T08:36:05Z</time>
      </trkpt>
      <trkpt lat="45.60327" lon="6.65287">
        <ele>1895.8</ele>
        <time>2022-02-08T08:36:14Z</time>
      </trkpt>
      <trkpt lat="45.60331" lon="6.65287">
        <ele>1897.3</ele>
        <time>2022-02-08T08:36:23Z</time>
      </trkpt>
      <trkpt lat="45.60333" lon="6.65281">
        <ele>1898.6</ele>
        <time>2022-02-08T08:36:32Z</time>
      </trkpt>
      <trkpt lat="45.60332" lon="6.65274">
        <ele>1899.1</ele>
        <time>2022-02-08T08:36:40Z</time>
      </trkpt>
      <trkpt lat="45.60329" lon="6.65268">
        <ele>1900.5</ele>
        <time>2022-02-08T08:36:49Z</time>
      </trkpt>
      <trkpt lat="45.60333" lon="6.65265">
        <ele>1904.1</ele>
        <time>2022-02-08T08:37:04Z</time>
      </trkpt>
      <trkpt lat="45.60338" lon="6.65263">
        <ele>1905.7</ele>
        <time>2022-02-08T08:37:14Z</time>
      </trkpt>
      <trkpt lat="45.60343" lon="6.65261">
        <ele>1906.9</ele>
        <time>2022-02-08T08:37:23Z</time>
      </trkpt>
      <trkpt lat="45.60348" lon="6.65262">
        <ele>1908.3</ele>
        <time>2022-02-08T08:37:32Z</time>
      </trkpt>
      <trkpt lat="45.60352" lon="6.65263">
        <ele>1909.8</ele>
        <time>2022-02-08T08:37:41Z</time>
      </trkpt>
      <trkpt lat="45.60357" lon="6.65262">
        <ele>1911.3</ele>
        <time>2022-02-08T08:37:50Z</time>
      </trkpt>
      <trkpt lat="45.60358" lon="6.65255">
        <ele>1913.3</ele>
        <time>2022-02-08T08:37:59Z</time>
      </trkpt>
      <trkpt lat="45.60358" lon="6.65249">
        <ele>1914.5</ele>
        <time>2022-02-08T08:38:08Z</time>
      </trkpt>
      <trkpt lat="45.60359" lon="6.65242">
        <ele>1915.9</ele>
        <time>2022-02-08T08:38:18Z</time>
      </trkpt>
      <trkpt lat="45.60364" lon="6.65243">
        <ele>1917.6</ele>
        <time>2022-02-08T08:38:27Z</time>
      </trkpt>
      <trkpt lat="45.60368" lon="6.65245">
        <ele>1919.3</ele>
        <time>2022-02-08T08:38:36Z</time>
      </trkpt>
      <trkpt lat="45.60373" lon="6.65247">
        <ele>1920.8</ele>
        <time>2022-02-08T08:38:44Z</time>
      </trkpt>
      <trkpt lat="45.60377" lon="6.65246">
        <ele>1922.3</ele>
        <time>2022-02-08T08:38:53Z</time>
      </trkpt>
      <trkpt lat="45.60382" lon="6.65246">
        <ele>1923.8</ele>
        <time>2022-02-08T08:39:03Z</time>
      </trkpt>
      <trkpt lat="45.60387" lon="6.65248">
        <ele>1925.6</ele>
        <time>2022-02-08T08:39:13Z</time>
      </trkpt>
      <trkpt lat="45.60391" lon="6.65248">
        <ele>1927.5</ele>
        <time>2022-02-08T08:39:22Z</time>
      </trkpt>
      <trkpt lat="45.60396" lon="6.65248">
        <ele>1928.9</ele>
        <time>2022-02-08T08:39:30Z</time>
      </trkpt>
      <trkpt lat="45.60401" lon="6.65249">
        <ele>1930.2</ele>
        <time>2022-02-08T08:39:38Z</time>
      </trkpt>
      <trkpt lat="45.60406" lon="6.65249">
        <ele>1931.3</ele>
        <time>2022-02-08T08:39:46Z</time>
      </trkpt>
      <trkpt lat="45.6041" lon="6.6525">
        <ele>1932.9</ele>
        <time>2022-02-08T08:39:55Z</time>
      </trkpt>
      <trkpt lat="45.60415" lon="6.65249">
        <ele>1933.8</ele>
        <time>2022-02-08T08:40:03Z</time>
      </trkpt>
      <trkpt lat="45.6042" lon="6.65248">
        <ele>1934.9</ele>
        <time>2022-02-08T08:40:14Z</time>
      </trkpt>
      <trkpt lat="45.60425" lon="6.65248">
        <ele>1935.5</ele>
        <time>2022-02-08T08:40:23Z</time>
      </trkpt>
      <trkpt lat="45.6043" lon="6.65247">
        <ele>1935.6</ele>
        <time>2022-02-08T08:40:29Z</time>
      </trkpt>
      <trkpt lat="45.60435" lon="6.65246">
        <ele>1935.3</ele>
        <time>2022-02-08T08:40:35Z</time>
      </trkpt>
      <trkpt lat="45.6044" lon="6.65244">
        <ele>1935</ele>
        <time>2022-02-08T08:40:39Z</time>
      </trkpt>
      <trkpt lat="45.60445" lon="6.65241">
        <ele>1934.7</ele>
        <time>2022-02-08T08:40:43Z</time>
      </trkpt>
      <trkpt lat="45.6045" lon="6.65239">
        <ele>1934.6</ele>
        <time>2022-02-08T08:40:48Z</time>
      </trkpt>
      <trkpt lat="45.60455" lon="6.65239">
        <ele>1935.4</ele>
        <time>2022-02-08T08:40:54Z</time>
      </trkpt>
      <trkpt lat="45.6046" lon="6.65239">
        <ele>1935.7</ele>
        <time>2022-02-08T08:41:00Z</time>
      </trkpt>
      <trkpt lat="45.60465" lon="6.65241">
        <ele>1935.3</ele>
        <time>2022-02-08T08:41:05Z</time>
      </trkpt>
      <trkpt lat="45.6047" lon="6.65244">
        <ele>1935.3</ele>
        <time>2022-02-08T08:41:09Z</time>
      </trkpt>
      <trkpt lat="45.60475" lon="6.65248">
        <ele>1935.4</ele>
        <time>2022-02-08T08:41:14Z</time>
      </trkpt>
      <trkpt lat="45.60478" lon="6.65252">
        <ele>1935.6</ele>
        <time>2022-02-08T08:41:18Z</time>
      </trkpt>
      <trkpt lat="45.60482" lon="6.65257">
        <ele>1936.2</ele>
        <time>2022-02-08T08:41:23Z</time>
      </trkpt>
      <trkpt lat="45.60486" lon="6.6526">
        <ele>1936.9</ele>
        <time>2022-02-08T08:41:29Z</time>
      </trkpt>
      <trkpt lat="45.6049" lon="6.65264">
        <ele>1937.3</ele>
        <time>2022-02-08T08:41:34Z</time>
      </trkpt>
      <trkpt lat="45.60495" lon="6.65268">
        <ele>1937.8</ele>
        <time>2022-02-08T08:41:40Z</time>
      </trkpt>
      <trkpt lat="45.60499" lon="6.65272">
        <ele>1937.9</ele>
        <time>2022-02-08T08:41:45Z</time>
      </trkpt>
      <trkpt lat="45.60503" lon="6.65275">
        <ele>1937.6</ele>
        <time>2022-02-08T08:41:49Z</time>
      </trkpt>
      <trkpt lat="45.60508" lon="6.65279">
        <ele>1937.3</ele>
        <time>2022-02-08T08:41:54Z</time>
      </trkpt>
      <trkpt lat="45.60512" lon="6.65282">
        <ele>1937.3</ele>
        <time>2022-02-08T08:41:59Z</time>
      </trkpt>
      <trkpt lat="45.60517" lon="6.65285">
        <ele>1937.3</ele>
        <time>2022-02-08T08:42:04Z</time>
      </trkpt>
      <trkpt lat="45.60521" lon="6.65287">
        <ele>1937.4</ele>
        <time>2022-02-08T08:42:09Z</time>
      </trkpt>
      <trkpt lat="45.60526" lon="6.65289">
        <ele>1937.4</ele>
        <time>2022-02-08T08:42:13Z</time>
      </trkpt>
      <trkpt lat="45.60531" lon="6.65291">
        <ele>1937.5</ele>
        <time>2022-02-08T08:42:17Z</time>
      </trkpt>
      <trkpt lat="45.60536" lon="6.65292">
        <ele>1937.2</ele>
        <time>2022-02-08T08:42:23Z</time>
      </trkpt>
      <trkpt lat="45.60541" lon="6.65294">
        <ele>1937.3</ele>
        <time>2022-02-08T08:42:29Z</time>
      </trkpt>
      <trkpt lat="45.60546" lon="6.65297">
        <ele>1937.5</ele>
        <time>2022-02-08T08:42:36Z</time>
      </trkpt>
      <trkpt lat="45.6055" lon="6.65297">
        <ele>1937.8</ele>
        <time>2022-02-08T08:43:33Z</time>
      </trkpt>
      <trkpt lat="45.60555" lon="6.65297">
        <ele>1938.3</ele>
        <time>2022-02-08T08:43:39Z</time>
      </trkpt>
      <trkpt lat="45.6056" lon="6.65298">
        <ele>1938.4</ele>
        <time>2022-02-08T08:43:44Z</time>
      </trkpt>
      <trkpt lat="45.60565" lon="6.65298">
        <ele>1938.6</ele>
        <time>2022-02-08T08:43:49Z</time>
      </trkpt>
      <trkpt lat="45.6057" lon="6.65298">
        <ele>1938.9</ele>
        <time>2022-02-08T08:43:54Z</time>
      </trkpt>
      <trkpt lat="45.60575" lon="6.65297">
        <ele>1939.6</ele>
        <time>2022-02-08T08:43:59Z</time>
      </trkpt>
      <trkpt lat="45.60581" lon="6.65297">
        <ele>1940.3</ele>
        <time>2022-02-08T08:44:04Z</time>
      </trkpt>
      <trkpt lat="45.60586" lon="6.65297">
        <ele>1940.9</ele>
        <time>2022-02-08T08:44:09Z</time>
      </trkpt>
      <trkpt lat="45.60591" lon="6.65297">
        <ele>1941.4</ele>
        <time>2022-02-08T08:44:14Z</time>
      </trkpt>
      <trkpt lat="45.60596" lon="6.65297">
        <ele>1942</ele>
        <time>2022-02-08T08:44:19Z</time>
      </trkpt>
      <trkpt lat="45.60601" lon="6.65298">
        <ele>1942.5</ele>
        <time>2022-02-08T08:44:24Z</time>
      </trkpt>
      <trkpt lat="45.60605" lon="6.653">
        <ele>1943.1</ele>
        <time>2022-02-08T08:44:30Z</time>
      </trkpt>
      <trkpt lat="45.6061" lon="6.65301">
        <ele>1943.9</ele>
        <time>2022-02-08T08:44:36Z</time>
      </trkpt>
      <trkpt lat="45.60615" lon="6.65303">
        <ele>1944.8</ele>
        <time>2022-02-08T08:44:42Z</time>
      </trkpt>
      <trkpt lat="45.6062" lon="6.65303">
        <ele>1944.9</ele>
        <time>2022-02-08T08:44:48Z</time>
      </trkpt>
      <trkpt lat="45.60626" lon="6.65303">
        <ele>1945.3</ele>
        <time>2022-02-08T08:44:54Z</time>
      </trkpt>
      <trkpt lat="45.60631" lon="6.65303">
        <ele>1945.9</ele>
        <time>2022-02-08T08:45:00Z</time>
      </trkpt>
      <trkpt lat="45.60636" lon="6.65304">
        <ele>1946.8</ele>
        <time>2022-02-08T08:45:06Z</time>
      </trkpt>
      <trkpt lat="45.60641" lon="6.65304">
        <ele>1947.6</ele>
        <time>2022-02-08T08:45:12Z</time>
      </trkpt>
      <trkpt lat="45.60645" lon="6.65306">
        <ele>1948.3</ele>
        <time>2022-02-08T08:45:19Z</time>
      </trkpt>
      <trkpt lat="45.6065" lon="6.65308">
        <ele>1949.2</ele>
        <time>2022-02-08T08:45:26Z</time>
      </trkpt>
      <trkpt lat="45.60654" lon="6.65309">
        <ele>1950.1</ele>
        <time>2022-02-08T08:45:32Z</time>
      </trkpt>
      <trkpt lat="45.60659" lon="6.65311">
        <ele>1951</ele>
        <time>2022-02-08T08:45:38Z</time>
      </trkpt>
      <trkpt lat="45.60664" lon="6.65313">
        <ele>1951.6</ele>
        <time>2022-02-08T08:45:43Z</time>
      </trkpt>
      <trkpt lat="45.60669" lon="6.65315">
        <ele>1952.6</ele>
        <time>2022-02-08T08:45:49Z</time>
      </trkpt>
      <trkpt lat="45.60674" lon="6.65315">
        <ele>1952.9</ele>
        <time>2022-02-08T08:45:54Z</time>
      </trkpt>
      <trkpt lat="45.60678" lon="6.65315">
        <ele>1953.3</ele>
        <time>2022-02-08T08:45:59Z</time>
      </trkpt>
      <trkpt lat="45.60683" lon="6.65317">
        <ele>1953.8</ele>
        <time>2022-02-08T08:46:05Z</time>
      </trkpt>
      <trkpt lat="45.60687" lon="6.65318">
        <ele>1954.2</ele>
        <time>2022-02-08T08:46:10Z</time>
      </trkpt>
      <trkpt lat="45.60692" lon="6.6532">
        <ele>1954.4</ele>
        <time>2022-02-08T08:46:15Z</time>
      </trkpt>
      <trkpt lat="45.60697" lon="6.65321">
        <ele>1954.7</ele>
        <time>2022-02-08T08:46:20Z</time>
      </trkpt>
      <trkpt lat="45.60702" lon="6.65322">
        <ele>1955.2</ele>
        <time>2022-02-08T08:46:26Z</time>
      </trkpt>
      <trkpt lat="45.60707" lon="6.65324">
        <ele>1955.7</ele>
        <time>2022-02-08T08:46:32Z</time>
      </trkpt>
      <trkpt lat="45.60712" lon="6.65326">
        <ele>1955.7</ele>
        <time>2022-02-08T08:46:37Z</time>
      </trkpt>
      <trkpt lat="45.60716" lon="6.6533">
        <ele>1956.1</ele>
        <time>2022-02-08T08:46:43Z</time>
      </trkpt>
      <trkpt lat="45.60718" lon="6.65335">
        <ele>1957</ele>
        <time>2022-02-08T08:46:49Z</time>
      </trkpt>
      <trkpt lat="45.60719" lon="6.65342">
        <ele>1958.3</ele>
        <time>2022-02-08T08:46:54Z</time>
      </trkpt>
      <trkpt lat="45.60723" lon="6.65347">
        <ele>1959.6</ele>
        <time>2022-02-08T08:47:00Z</time>
      </trkpt>
      <trkpt lat="45.60728" lon="6.65348">
        <ele>1960</ele>
        <time>2022-02-08T08:47:05Z</time>
      </trkpt>
      <trkpt lat="45.60733" lon="6.65349">
        <ele>1960.4</ele>
        <time>2022-02-08T08:47:11Z</time>
      </trkpt>
      <trkpt lat="45.60737" lon="6.65351">
        <ele>1961.7</ele>
        <time>2022-02-08T08:47:19Z</time>
      </trkpt>
      <trkpt lat="45.60742" lon="6.65355">
        <ele>1963</ele>
        <time>2022-02-08T08:47:26Z</time>
      </trkpt>
      <trkpt lat="45.60746" lon="6.65358">
        <ele>1964.7</ele>
        <time>2022-02-08T08:47:34Z</time>
      </trkpt>
      <trkpt lat="45.60751" lon="6.6536">
        <ele>1966.1</ele>
        <time>2022-02-08T08:47:42Z</time>
      </trkpt>
      <trkpt lat="45.60755" lon="6.65362">
        <ele>1967.3</ele>
        <time>2022-02-08T08:47:50Z</time>
      </trkpt>
      <trkpt lat="45.6076" lon="6.65365">
        <ele>1967.9</ele>
        <time>2022-02-08T08:47:57Z</time>
      </trkpt>
      <trkpt lat="45.60765" lon="6.65367">
        <ele>1968.7</ele>
        <time>2022-02-08T08:48:05Z</time>
      </trkpt>
      <trkpt lat="45.6077" lon="6.65369">
        <ele>1969.9</ele>
        <time>2022-02-08T08:48:13Z</time>
      </trkpt>
      <trkpt lat="45.60775" lon="6.6537">
        <ele>1970.7</ele>
        <time>2022-02-08T08:48:20Z</time>
      </trkpt>
      <trkpt lat="45.6078" lon="6.65369">
        <ele>1971.4</ele>
        <time>2022-02-08T08:48:27Z</time>
      </trkpt>
      <trkpt lat="45.60785" lon="6.65369">
        <ele>1972.2</ele>
        <time>2022-02-08T08:48:35Z</time>
      </trkpt>
      <trkpt lat="45.6079" lon="6.6537">
        <ele>1973</ele>
        <time>2022-02-08T08:48:42Z</time>
      </trkpt>
      <trkpt lat="45.60795" lon="6.65372">
        <ele>1974.1</ele>
        <time>2022-02-08T08:48:50Z</time>
      </trkpt>
      <trkpt lat="45.60799" lon="6.65373">
        <ele>1975</ele>
        <time>2022-02-08T08:48:56Z</time>
      </trkpt>
      <trkpt lat="45.60804" lon="6.65374">
        <ele>1975.7</ele>
        <time>2022-02-08T08:49:02Z</time>
      </trkpt>
      <trkpt lat="45.60809" lon="6.65374">
        <ele>1975.8</ele>
        <time>2022-02-08T08:49:08Z</time>
      </trkpt>
      <trkpt lat="45.60814" lon="6.65375">
        <ele>1976.6</ele>
        <time>2022-02-08T08:49:14Z</time>
      </trkpt>
      <trkpt lat="45.60819" lon="6.65375">
        <ele>1977.5</ele>
        <time>2022-02-08T08:49:20Z</time>
      </trkpt>
      <trkpt lat="45.60824" lon="6.65376">
        <ele>1978.1</ele>
        <time>2022-02-08T08:49:25Z</time>
      </trkpt>
      <trkpt lat="45.60828" lon="6.65377">
        <ele>1978.6</ele>
        <time>2022-02-08T08:49:30Z</time>
      </trkpt>
      <trkpt lat="45.60833" lon="6.65377">
        <ele>1978.7</ele>
        <time>2022-02-08T08:49:35Z</time>
      </trkpt>
      <trkpt lat="45.60838" lon="6.65377">
        <ele>1979.3</ele>
        <time>2022-02-08T08:49:41Z</time>
      </trkpt>
      <trkpt lat="45.60843" lon="6.65376">
        <ele>1979.5</ele>
        <time>2022-02-08T08:49:46Z</time>
      </trkpt>
      <trkpt lat="45.60849" lon="6.65377">
        <ele>1980.2</ele>
        <time>2022-02-08T08:49:51Z</time>
      </trkpt>
      <trkpt lat="45.60853" lon="6.65378">
        <ele>1980.5</ele>
        <time>2022-02-08T08:49:55Z</time>
      </trkpt>
      <trkpt lat="45.60858" lon="6.6538">
        <ele>1980.7</ele>
        <time>2022-02-08T08:49:59Z</time>
      </trkpt>
      <trkpt lat="45.60863" lon="6.65381">
        <ele>1980.7</ele>
        <time>2022-02-08T08:50:03Z</time>
      </trkpt>
      <trkpt lat="45.60868" lon="6.65381">
        <ele>1980.9</ele>
        <time>2022-02-08T08:50:08Z</time>
      </trkpt>
      <trkpt lat="45.60873" lon="6.65382">
        <ele>1981.2</ele>
        <time>2022-02-08T08:50:14Z</time>
      </trkpt>
      <trkpt lat="45.60879" lon="6.65382">
        <ele>1980.9</ele>
        <time>2022-02-08T08:50:20Z</time>
      </trkpt>
      <trkpt lat="45.60884" lon="6.65384">
        <ele>1981.1</ele>
        <time>2022-02-08T08:50:26Z</time>
      </trkpt>
      <trkpt lat="45.60888" lon="6.65387">
        <ele>1981.5</ele>
        <time>2022-02-08T08:50:32Z</time>
      </trkpt>
      <trkpt lat="45.60892" lon="6.65391">
        <ele>1982.1</ele>
        <time>2022-02-08T08:50:39Z</time>
      </trkpt>
      <trkpt lat="45.60896" lon="6.65394">
        <ele>1983</ele>
        <time>2022-02-08T08:50:45Z</time>
      </trkpt>
      <trkpt lat="45.609" lon="6.65398">
        <ele>1983.8</ele>
        <time>2022-02-08T08:50:51Z</time>
      </trkpt>
      <trkpt lat="45.60905" lon="6.65401">
        <ele>1984.5</ele>
        <time>2022-02-08T08:50:57Z</time>
      </trkpt>
      <trkpt lat="45.60909" lon="6.65401">
        <ele>1984.7</ele>
        <time>2022-02-08T08:51:04Z</time>
      </trkpt>
      <trkpt lat="45.60914" lon="6.65401">
        <ele>1986</ele>
        <time>2022-02-08T08:51:12Z</time>
      </trkpt>
      <trkpt lat="45.60919" lon="6.65401">
        <ele>1987.1</ele>
        <time>2022-02-08T08:51:19Z</time>
      </trkpt>
      <trkpt lat="45.60924" lon="6.65402">
        <ele>1988.2</ele>
        <time>2022-02-08T08:51:27Z</time>
      </trkpt>
      <trkpt lat="45.60928" lon="6.65404">
        <ele>1989.1</ele>
        <time>2022-02-08T08:51:35Z</time>
      </trkpt>
      <trkpt lat="45.60933" lon="6.65405">
        <ele>1990.3</ele>
        <time>2022-02-08T08:51:43Z</time>
      </trkpt>
      <trkpt lat="45.60937" lon="6.65408">
        <ele>1992</ele>
        <time>2022-02-08T08:51:51Z</time>
      </trkpt>
      <trkpt lat="45.60942" lon="6.6541">
        <ele>1993.5</ele>
        <time>2022-02-08T08:51:59Z</time>
      </trkpt>
      <trkpt lat="45.60947" lon="6.65411">
        <ele>1994.1</ele>
        <time>2022-02-08T08:52:06Z</time>
      </trkpt>
      <trkpt lat="45.60952" lon="6.65413">
        <ele>1995</ele>
        <time>2022-02-08T08:52:14Z</time>
      </trkpt>
      <trkpt lat="45.60956" lon="6.65415">
        <ele>1996.1</ele>
        <time>2022-02-08T08:52:22Z</time>
      </trkpt>
      <trkpt lat="45.60961" lon="6.65416">
        <ele>1997.5</ele>
        <time>2022-02-08T08:52:30Z</time>
      </trkpt>
      <trkpt lat="45.60965" lon="6.65416">
        <ele>1998.5</ele>
        <time>2022-02-08T08:52:38Z</time>
      </trkpt>
      <trkpt lat="45.6097" lon="6.65418">
        <ele>1999.4</ele>
        <time>2022-02-08T08:52:46Z</time>
      </trkpt>
      <trkpt lat="45.60975" lon="6.65419">
        <ele>2000.9</ele>
        <time>2022-02-08T08:52:55Z</time>
      </trkpt>
      <trkpt lat="45.6098" lon="6.65419">
        <ele>2002.1</ele>
        <time>2022-02-08T08:53:03Z</time>
      </trkpt>
      <trkpt lat="45.60984" lon="6.6542">
        <ele>2003.7</ele>
        <time>2022-02-08T08:53:12Z</time>
      </trkpt>
      <trkpt lat="45.60989" lon="6.65422">
        <ele>2006.1</ele>
        <time>2022-02-08T08:53:22Z</time>
      </trkpt>
      <trkpt lat="45.60994" lon="6.65422">
        <ele>2006.8</ele>
        <time>2022-02-08T08:53:29Z</time>
      </trkpt>
      <trkpt lat="45.60999" lon="6.65421">
        <ele>2007.6</ele>
        <time>2022-02-08T08:53:36Z</time>
      </trkpt>
      <trkpt lat="45.61004" lon="6.65421">
        <ele>2008.5</ele>
        <time>2022-02-08T08:53:44Z</time>
      </trkpt>
      <trkpt lat="45.61009" lon="6.65422">
        <ele>2009.6</ele>
        <time>2022-02-08T08:53:51Z</time>
      </trkpt>
      <trkpt lat="45.61014" lon="6.65424">
        <ele>2010.4</ele>
        <time>2022-02-08T08:53:58Z</time>
      </trkpt>
      <trkpt lat="45.61018" lon="6.65424">
        <ele>2011.5</ele>
        <time>2022-02-08T08:54:05Z</time>
      </trkpt>
      <trkpt lat="45.61023" lon="6.65424">
        <ele>2012.7</ele>
        <time>2022-02-08T08:54:12Z</time>
      </trkpt>
      <trkpt lat="45.61029" lon="6.65423">
        <ele>2013.8</ele>
        <time>2022-02-08T08:54:19Z</time>
      </trkpt>
      <trkpt lat="45.61034" lon="6.65422">
        <ele>2015</ele>
        <time>2022-02-08T08:54:26Z</time>
      </trkpt>
      <trkpt lat="45.61039" lon="6.6542">
        <ele>2015.8</ele>
        <time>2022-02-08T08:54:33Z</time>
      </trkpt>
      <trkpt lat="45.61043" lon="6.65418">
        <ele>2016.5</ele>
        <time>2022-02-08T08:54:40Z</time>
      </trkpt>
      <trkpt lat="45.61048" lon="6.65415">
        <ele>2017.1</ele>
        <time>2022-02-08T08:54:47Z</time>
      </trkpt>
      <trkpt lat="45.61052" lon="6.65413">
        <ele>2018</ele>
        <time>2022-02-08T08:54:54Z</time>
      </trkpt>
      <trkpt lat="45.61056" lon="6.65411">
        <ele>2019.5</ele>
        <time>2022-02-08T08:55:01Z</time>
      </trkpt>
      <trkpt lat="45.61061" lon="6.6541">
        <ele>2021</ele>
        <time>2022-02-08T08:55:09Z</time>
      </trkpt>
      <trkpt lat="45.61066" lon="6.65408">
        <ele>2022.3</ele>
        <time>2022-02-08T08:55:16Z</time>
      </trkpt>
      <trkpt lat="45.6107" lon="6.65406">
        <ele>2023.3</ele>
        <time>2022-02-08T08:55:23Z</time>
      </trkpt>
      <trkpt lat="45.61075" lon="6.65405">
        <ele>2024.1</ele>
        <time>2022-02-08T08:55:30Z</time>
      </trkpt>
      <trkpt lat="45.6108" lon="6.65402">
        <ele>2025.6</ele>
        <time>2022-02-08T08:55:38Z</time>
      </trkpt>
      <trkpt lat="45.61084" lon="6.654">
        <ele>2027</ele>
        <time>2022-02-08T08:55:45Z</time>
      </trkpt>
      <trkpt lat="45.61089" lon="6.65398">
        <ele>2027.8</ele>
        <time>2022-02-08T08:55:52Z</time>
      </trkpt>
      <trkpt lat="45.61094" lon="6.65399">
        <ele>2028.8</ele>
        <time>2022-02-08T08:56:00Z</time>
      </trkpt>
      <trkpt lat="45.61095" lon="6.65405">
        <ele>2030.2</ele>
        <time>2022-02-08T08:56:17Z</time>
      </trkpt>
      <trkpt lat="45.61096" lon="6.65412">
        <ele>2031.7</ele>
        <time>2022-02-08T08:56:25Z</time>
      </trkpt>
      <trkpt lat="45.611" lon="6.65415">
        <ele>2034.3</ele>
        <time>2022-02-08T08:56:33Z</time>
      </trkpt>
      <trkpt lat="45.61104" lon="6.65416">
        <ele>2036.2</ele>
        <time>2022-02-08T08:56:40Z</time>
      </trkpt>
      <trkpt lat="45.61109" lon="6.65418">
        <ele>2037.7</ele>
        <time>2022-02-08T08:56:48Z</time>
      </trkpt>
      <trkpt lat="45.61114" lon="6.65417">
        <ele>2042.1</ele>
        <time>2022-02-08T08:58:07Z</time>
      </trkpt>
      <trkpt lat="45.6111" lon="6.65422">
        <ele>2042.5</ele>
        <time>2022-02-08T09:02:59Z</time>
      </trkpt>
      <trkpt lat="45.61115" lon="6.65425">
        <ele>2044</ele>
        <time>2022-02-08T09:03:19Z</time>
      </trkpt>
      <trkpt lat="45.61119" lon="6.65424">
        <ele>2043.9</ele>
        <time>2022-02-08T09:03:23Z</time>
      </trkpt>
      <trkpt lat="45.61123" lon="6.65427">
        <ele>2043.5</ele>
        <time>2022-02-08T09:03:30Z</time>
      </trkpt>
      <trkpt lat="45.61128" lon="6.65429">
        <ele>2042.9</ele>
        <time>2022-02-08T09:03:39Z</time>
      </trkpt>
      <trkpt lat="45.61132" lon="6.65431">
        <ele>2043.2</ele>
        <time>2022-02-08T09:03:50Z</time>
      </trkpt>
      <trkpt lat="45.61137" lon="6.65435">
        <ele>2044.2</ele>
        <time>2022-02-08T09:03:57Z</time>
      </trkpt>
      <trkpt lat="45.61141" lon="6.65438">
        <ele>2045.1</ele>
        <time>2022-02-08T09:04:02Z</time>
      </trkpt>
      <trkpt lat="45.61145" lon="6.65441">
        <ele>2046.2</ele>
        <time>2022-02-08T09:04:07Z</time>
      </trkpt>
      <trkpt lat="45.6115" lon="6.65444">
        <ele>2047.2</ele>
        <time>2022-02-08T09:04:12Z</time>
      </trkpt>
      <trkpt lat="45.61155" lon="6.65446">
        <ele>2048.3</ele>
        <time>2022-02-08T09:04:18Z</time>
      </trkpt>
      <trkpt lat="45.61159" lon="6.65448">
        <ele>2049.7</ele>
        <time>2022-02-08T09:04:24Z</time>
      </trkpt>
      <trkpt lat="45.61164" lon="6.65451">
        <ele>2051.3</ele>
        <time>2022-02-08T09:04:30Z</time>
      </trkpt>
      <trkpt lat="45.61168" lon="6.65454">
        <ele>2052.8</ele>
        <time>2022-02-08T09:04:36Z</time>
      </trkpt>
      <trkpt lat="45.61173" lon="6.65455">
        <ele>2053.9</ele>
        <time>2022-02-08T09:04:42Z</time>
      </trkpt>
      <trkpt lat="45.61178" lon="6.65458">
        <ele>2055.1</ele>
        <time>2022-02-08T09:04:48Z</time>
      </trkpt>
      <trkpt lat="45.61182" lon="6.65461">
        <ele>2056.5</ele>
        <time>2022-02-08T09:04:54Z</time>
      </trkpt>
      <trkpt lat="45.61184" lon="6.65467">
        <ele>2058.1</ele>
        <time>2022-02-08T09:05:01Z</time>
      </trkpt>
      <trkpt lat="45.61188" lon="6.65471">
        <ele>2059.9</ele>
        <time>2022-02-08T09:05:08Z</time>
      </trkpt>
      <trkpt lat="45.61193" lon="6.65473">
        <ele>2060.8</ele>
        <time>2022-02-08T09:05:15Z</time>
      </trkpt>
      <trkpt lat="45.61197" lon="6.65474">
        <ele>2061.2</ele>
        <time>2022-02-08T09:05:21Z</time>
      </trkpt>
      <trkpt lat="45.61202" lon="6.65474">
        <ele>2061.2</ele>
        <time>2022-02-08T09:05:26Z</time>
      </trkpt>
      <trkpt lat="45.61207" lon="6.65475">
        <ele>2061.8</ele>
        <time>2022-02-08T09:05:32Z</time>
      </trkpt>
      <trkpt lat="45.61212" lon="6.65471">
        <ele>2063</ele>
        <time>2022-02-08T09:05:39Z</time>
      </trkpt>
      <trkpt lat="45.61217" lon="6.65469">
        <ele>2064.8</ele>
        <time>2022-02-08T09:05:46Z</time>
      </trkpt>
      <trkpt lat="45.61222" lon="6.6547">
        <ele>2066.5</ele>
        <time>2022-02-08T09:05:53Z</time>
      </trkpt>
      <trkpt lat="45.61227" lon="6.65471">
        <ele>2068.2</ele>
        <time>2022-02-08T09:06:00Z</time>
      </trkpt>
      <trkpt lat="45.61231" lon="6.6547">
        <ele>2070.1</ele>
        <time>2022-02-08T09:06:07Z</time>
      </trkpt>
      <trkpt lat="45.61236" lon="6.65471">
        <ele>2071.7</ele>
        <time>2022-02-08T09:06:15Z</time>
      </trkpt>
      <trkpt lat="45.61241" lon="6.65474">
        <ele>2073.5</ele>
        <time>2022-02-08T09:06:23Z</time>
      </trkpt>
      <trkpt lat="45.61245" lon="6.65477">
        <ele>2074.6</ele>
        <time>2022-02-08T09:06:30Z</time>
      </trkpt>
      <trkpt lat="45.6125" lon="6.65478">
        <ele>2075.5</ele>
        <time>2022-02-08T09:06:36Z</time>
      </trkpt>
      <trkpt lat="45.61255" lon="6.65477">
        <ele>2076.8</ele>
        <time>2022-02-08T09:06:43Z</time>
      </trkpt>
      <trkpt lat="45.6126" lon="6.65478">
        <ele>2078.1</ele>
        <time>2022-02-08T09:06:51Z</time>
      </trkpt>
      <trkpt lat="45.61264" lon="6.6548">
        <ele>2079.3</ele>
        <time>2022-02-08T09:07:07Z</time>
      </trkpt>
      <trkpt lat="45.61267" lon="6.65486">
        <ele>2080.6</ele>
        <time>2022-02-08T09:07:16Z</time>
      </trkpt>
      <trkpt lat="45.61271" lon="6.65491">
        <ele>2082.4</ele>
        <time>2022-02-08T09:07:24Z</time>
      </trkpt>
      <trkpt lat="45.61273" lon="6.65497">
        <ele>2084.3</ele>
        <time>2022-02-08T09:07:33Z</time>
      </trkpt>
      <trkpt lat="45.61275" lon="6.65503">
        <ele>2085.5</ele>
        <time>2022-02-08T09:07:40Z</time>
      </trkpt>
      <trkpt lat="45.61277" lon="6.65509">
        <ele>2086.6</ele>
        <time>2022-02-08T09:07:47Z</time>
      </trkpt>
      <trkpt lat="45.6128" lon="6.65515">
        <ele>2087.8</ele>
        <time>2022-02-08T09:07:55Z</time>
      </trkpt>
      <trkpt lat="45.61283" lon="6.6552">
        <ele>2088.7</ele>
        <time>2022-02-08T09:08:03Z</time>
      </trkpt>
      <trkpt lat="45.61286" lon="6.65525">
        <ele>2089.9</ele>
        <time>2022-02-08T09:08:11Z</time>
      </trkpt>
      <trkpt lat="45.61289" lon="6.6553">
        <ele>2090.7</ele>
        <time>2022-02-08T09:08:19Z</time>
      </trkpt>
      <trkpt lat="45.61292" lon="6.65536">
        <ele>2092.2</ele>
        <time>2022-02-08T09:08:28Z</time>
      </trkpt>
      <trkpt lat="45.61294" lon="6.65542">
        <ele>2094.2</ele>
        <time>2022-02-08T09:08:37Z</time>
      </trkpt>
      <trkpt lat="45.61297" lon="6.65548">
        <ele>2096</ele>
        <time>2022-02-08T09:08:46Z</time>
      </trkpt>
      <trkpt lat="45.613" lon="6.65553">
        <ele>2097.1</ele>
        <time>2022-02-08T09:08:53Z</time>
      </trkpt>
      <trkpt lat="45.61304" lon="6.65557">
        <ele>2097.2</ele>
        <time>2022-02-08T09:09:00Z</time>
      </trkpt>
      <trkpt lat="45.61308" lon="6.6556">
        <ele>2097.6</ele>
        <time>2022-02-08T09:09:07Z</time>
      </trkpt>
      <trkpt lat="45.61313" lon="6.65562">
        <ele>2097.8</ele>
        <time>2022-02-08T09:09:14Z</time>
      </trkpt>
      <trkpt lat="45.61318" lon="6.65563">
        <ele>2097.8</ele>
        <time>2022-02-08T09:09:21Z</time>
      </trkpt>
      <trkpt lat="45.61323" lon="6.65565">
        <ele>2098.7</ele>
        <time>2022-02-08T09:09:27Z</time>
      </trkpt>
      <trkpt lat="45.61328" lon="6.65565">
        <ele>2099.1</ele>
        <time>2022-02-08T09:09:34Z</time>
      </trkpt>
      <trkpt lat="45.61332" lon="6.65566">
        <ele>2099.5</ele>
        <time>2022-02-08T09:09:40Z</time>
      </trkpt>
      <trkpt lat="45.61337" lon="6.65566">
        <ele>2100.4</ele>
        <time>2022-02-08T09:09:47Z</time>
      </trkpt>
      <trkpt lat="45.61342" lon="6.65568">
        <ele>2101.7</ele>
        <time>2022-02-08T09:09:54Z</time>
      </trkpt>
      <trkpt lat="45.61347" lon="6.6557">
        <ele>2103.3</ele>
        <time>2022-02-08T09:10:01Z</time>
      </trkpt>
      <trkpt lat="45.61352" lon="6.65572">
        <ele>2103.8</ele>
        <time>2022-02-08T09:10:07Z</time>
      </trkpt>
      <trkpt lat="45.61356" lon="6.65574">
        <ele>2104.3</ele>
        <time>2022-02-08T09:10:12Z</time>
      </trkpt>
      <trkpt lat="45.61361" lon="6.65575">
        <ele>2104.9</ele>
        <time>2022-02-08T09:10:18Z</time>
      </trkpt>
      <trkpt lat="45.61366" lon="6.65577">
        <ele>2105.1</ele>
        <time>2022-02-08T09:10:24Z</time>
      </trkpt>
      <trkpt lat="45.61371" lon="6.65578">
        <ele>2106.1</ele>
        <time>2022-02-08T09:10:30Z</time>
      </trkpt>
      <trkpt lat="45.61376" lon="6.65578">
        <ele>2106.5</ele>
        <time>2022-02-08T09:10:36Z</time>
      </trkpt>
      <trkpt lat="45.6138" lon="6.65579">
        <ele>2106.5</ele>
        <time>2022-02-08T09:10:41Z</time>
      </trkpt>
      <trkpt lat="45.61385" lon="6.65581">
        <ele>2106.6</ele>
        <time>2022-02-08T09:10:47Z</time>
      </trkpt>
      <trkpt lat="45.6139" lon="6.65582">
        <ele>2107.3</ele>
        <time>2022-02-08T09:10:54Z</time>
      </trkpt>
      <trkpt lat="45.61394" lon="6.65584">
        <ele>2108.7</ele>
        <time>2022-02-08T09:11:01Z</time>
      </trkpt>
      <trkpt lat="45.61398" lon="6.65588">
        <ele>2110.6</ele>
        <time>2022-02-08T09:11:08Z</time>
      </trkpt>
      <trkpt lat="45.61402" lon="6.65592">
        <ele>2112.2</ele>
        <time>2022-02-08T09:11:15Z</time>
      </trkpt>
      <trkpt lat="45.61406" lon="6.65595">
        <ele>2113.3</ele>
        <time>2022-02-08T09:11:21Z</time>
      </trkpt>
      <trkpt lat="45.61411" lon="6.65598">
        <ele>2113.4</ele>
        <time>2022-02-08T09:11:26Z</time>
      </trkpt>
      <trkpt lat="45.61415" lon="6.656">
        <ele>2113.5</ele>
        <time>2022-02-08T09:11:31Z</time>
      </trkpt>
      <trkpt lat="45.6142" lon="6.65602">
        <ele>2114.8</ele>
        <time>2022-02-08T09:11:38Z</time>
      </trkpt>
      <trkpt lat="45.61424" lon="6.65604">
        <ele>2116</ele>
        <time>2022-02-08T09:11:44Z</time>
      </trkpt>
      <trkpt lat="45.61429" lon="6.65605">
        <ele>2116</ele>
        <time>2022-02-08T09:11:50Z</time>
      </trkpt>
      <trkpt lat="45.61434" lon="6.65606">
        <ele>2116</ele>
        <time>2022-02-08T09:11:56Z</time>
      </trkpt>
      <trkpt lat="45.61439" lon="6.65609">
        <ele>2116.4</ele>
        <time>2022-02-08T09:12:02Z</time>
      </trkpt>
      <trkpt lat="45.61444" lon="6.65611">
        <ele>2117.6</ele>
        <time>2022-02-08T09:12:09Z</time>
      </trkpt>
      <trkpt lat="45.61449" lon="6.65613">
        <ele>2118.2</ele>
        <time>2022-02-08T09:12:15Z</time>
      </trkpt>
      <trkpt lat="45.61454" lon="6.65615">
        <ele>2119.2</ele>
        <time>2022-02-08T09:12:21Z</time>
      </trkpt>
      <trkpt lat="45.61458" lon="6.65618">
        <ele>2120.2</ele>
        <time>2022-02-08T09:12:27Z</time>
      </trkpt>
      <trkpt lat="45.61463" lon="6.65618">
        <ele>2120.2</ele>
        <time>2022-02-08T09:12:33Z</time>
      </trkpt>
      <trkpt lat="45.61468" lon="6.65619">
        <ele>2121</ele>
        <time>2022-02-08T09:12:39Z</time>
      </trkpt>
      <trkpt lat="45.61473" lon="6.6562">
        <ele>2122.2</ele>
        <time>2022-02-08T09:12:45Z</time>
      </trkpt>
      <trkpt lat="45.61478" lon="6.65621">
        <ele>2124.2</ele>
        <time>2022-02-08T09:12:52Z</time>
      </trkpt>
      <trkpt lat="45.61483" lon="6.65621">
        <ele>2125.1</ele>
        <time>2022-02-08T09:12:59Z</time>
      </trkpt>
      <trkpt lat="45.61488" lon="6.65621">
        <ele>2125.2</ele>
        <time>2022-02-08T09:13:06Z</time>
      </trkpt>
      <trkpt lat="45.61493" lon="6.65622">
        <ele>2126</ele>
        <time>2022-02-08T09:13:13Z</time>
      </trkpt>
      <trkpt lat="45.61498" lon="6.65621">
        <ele>2127.4</ele>
        <time>2022-02-08T09:13:20Z</time>
      </trkpt>
      <trkpt lat="45.61502" lon="6.6562">
        <ele>2127.9</ele>
        <time>2022-02-08T09:13:26Z</time>
      </trkpt>
      <trkpt lat="45.61507" lon="6.65619">
        <ele>2128.6</ele>
        <time>2022-02-08T09:13:33Z</time>
      </trkpt>
      <trkpt lat="45.61512" lon="6.65619">
        <ele>2128.9</ele>
        <time>2022-02-08T09:13:40Z</time>
      </trkpt>
      <trkpt lat="45.61517" lon="6.65619">
        <ele>2129.1</ele>
        <time>2022-02-08T09:13:47Z</time>
      </trkpt>
      <trkpt lat="45.61522" lon="6.65618">
        <ele>2128.7</ele>
        <time>2022-02-08T09:13:55Z</time>
      </trkpt>
      <trkpt lat="45.61527" lon="6.65619">
        <ele>2129.8</ele>
        <time>2022-02-08T09:14:03Z</time>
      </trkpt>
      <trkpt lat="45.61532" lon="6.65619">
        <ele>2131.2</ele>
        <time>2022-02-08T09:14:10Z</time>
      </trkpt>
      <trkpt lat="45.61537" lon="6.6562">
        <ele>2132.2</ele>
        <time>2022-02-08T09:14:17Z</time>
      </trkpt>
      <trkpt lat="45.61541" lon="6.6562">
        <ele>2132.4</ele>
        <time>2022-02-08T09:14:23Z</time>
      </trkpt>
      <trkpt lat="45.61546" lon="6.65618">
        <ele>2132.8</ele>
        <time>2022-02-08T09:14:29Z</time>
      </trkpt>
      <trkpt lat="45.61551" lon="6.65617">
        <ele>2132.9</ele>
        <time>2022-02-08T09:14:36Z</time>
      </trkpt>
      <trkpt lat="45.61556" lon="6.65616">
        <ele>2133</ele>
        <time>2022-02-08T09:14:43Z</time>
      </trkpt>
      <trkpt lat="45.61561" lon="6.65615">
        <ele>2133.9</ele>
        <time>2022-02-08T09:14:51Z</time>
      </trkpt>
      <trkpt lat="45.61565" lon="6.65614">
        <ele>2135</ele>
        <time>2022-02-08T09:14:59Z</time>
      </trkpt>
      <trkpt lat="45.6157" lon="6.65613">
        <ele>2137.3</ele>
        <time>2022-02-08T09:15:06Z</time>
      </trkpt>
      <trkpt lat="45.61574" lon="6.65612">
        <ele>2140.4</ele>
        <time>2022-02-08T09:15:14Z</time>
      </trkpt>
      <trkpt lat="45.6158" lon="6.65613">
        <ele>2141.7</ele>
        <time>2022-02-08T09:15:22Z</time>
      </trkpt>
      <trkpt lat="45.61584" lon="6.65614">
        <ele>2142.2</ele>
        <time>2022-02-08T09:15:28Z</time>
      </trkpt>
      <trkpt lat="45.61589" lon="6.65612">
        <ele>2141.4</ele>
        <time>2022-02-08T09:15:34Z</time>
      </trkpt>
      <trkpt lat="45.61594" lon="6.6561">
        <ele>2141.2</ele>
        <time>2022-02-08T09:15:41Z</time>
      </trkpt>
      <trkpt lat="45.61598" lon="6.65609">
        <ele>2141.3</ele>
        <time>2022-02-08T09:15:49Z</time>
      </trkpt>
      <trkpt lat="45.61603" lon="6.65607">
        <ele>2141.6</ele>
        <time>2022-02-08T09:15:57Z</time>
      </trkpt>
      <trkpt lat="45.61607" lon="6.65606">
        <ele>2142.6</ele>
        <time>2022-02-08T09:16:05Z</time>
      </trkpt>
      <trkpt lat="45.61612" lon="6.65603">
        <ele>2143.8</ele>
        <time>2022-02-08T09:16:13Z</time>
      </trkpt>
      <trkpt lat="45.61616" lon="6.65602">
        <ele>2144.7</ele>
        <time>2022-02-08T09:16:20Z</time>
      </trkpt>
      <trkpt lat="45.61621" lon="6.65601">
        <ele>2145.8</ele>
        <time>2022-02-08T09:16:28Z</time>
      </trkpt>
      <trkpt lat="45.61626" lon="6.65599">
        <ele>2147.2</ele>
        <time>2022-02-08T09:16:36Z</time>
      </trkpt>
      <trkpt lat="45.6163" lon="6.65597">
        <ele>2148.3</ele>
        <time>2022-02-08T09:16:44Z</time>
      </trkpt>
      <trkpt lat="45.61635" lon="6.65596">
        <ele>2149.7</ele>
        <time>2022-02-08T09:16:52Z</time>
      </trkpt>
      <trkpt lat="45.61639" lon="6.65593">
        <ele>2150.8</ele>
        <time>2022-02-08T09:17:07Z</time>
      </trkpt>
      <trkpt lat="45.61643" lon="6.6559">
        <ele>2151.2</ele>
        <time>2022-02-08T09:17:15Z</time>
      </trkpt>
      <trkpt lat="45.61647" lon="6.65586">
        <ele>2153.3</ele>
        <time>2022-02-08T09:17:22Z</time>
      </trkpt>
      <trkpt lat="45.61651" lon="6.65584">
        <ele>2157.1</ele>
        <time>2022-02-08T09:17:33Z</time>
      </trkpt>
      <trkpt lat="45.61655" lon="6.65587">
        <ele>2161.3</ele>
        <time>2022-02-08T09:17:49Z</time>
      </trkpt>
      <trkpt lat="45.6166" lon="6.65589">
        <ele>2163.6</ele>
        <time>2022-02-08T09:18:01Z</time>
      </trkpt>
      <trkpt lat="45.61665" lon="6.65588">
        <ele>2163.8</ele>
        <time>2022-02-08T09:18:09Z</time>
      </trkpt>
      <trkpt lat="45.61669" lon="6.65586">
        <ele>2164.1</ele>
        <time>2022-02-08T09:18:17Z</time>
      </trkpt>
      <trkpt lat="45.61673" lon="6.65582">
        <ele>2164.9</ele>
        <time>2022-02-08T09:18:27Z</time>
      </trkpt>
      <trkpt lat="45.61676" lon="6.65588">
        <ele>2166.9</ele>
        <time>2022-02-08T09:18:53Z</time>
      </trkpt>
      <trkpt lat="45.61678" lon="6.65594">
        <ele>2169.7</ele>
        <time>2022-02-08T09:19:04Z</time>
      </trkpt>
      <trkpt lat="45.61683" lon="6.65593">
        <ele>2169.8</ele>
        <time>2022-02-08T09:19:12Z</time>
      </trkpt>
      <trkpt lat="45.61686" lon="6.65589">
        <ele>2171.3</ele>
        <time>2022-02-08T09:19:22Z</time>
      </trkpt>
      <trkpt lat="45.6169" lon="6.65586">
        <ele>2172.7</ele>
        <time>2022-02-08T09:19:32Z</time>
      </trkpt>
      <trkpt lat="45.61695" lon="6.65584">
        <ele>2175</ele>
        <time>2022-02-08T09:19:44Z</time>
      </trkpt>
      <trkpt lat="45.61699" lon="6.65579">
        <ele>2176.8</ele>
        <time>2022-02-08T09:19:53Z</time>
      </trkpt>
      <trkpt lat="45.61698" lon="6.65586">
        <ele>2180.5</ele>
        <time>2022-02-08T09:20:13Z</time>
      </trkpt>
      <trkpt lat="45.61698" lon="6.65593">
        <ele>2182.1</ele>
        <time>2022-02-08T09:20:22Z</time>
      </trkpt>
      <trkpt lat="45.61698" lon="6.656">
        <ele>2183.9</ele>
        <time>2022-02-08T09:20:32Z</time>
      </trkpt>
      <trkpt lat="45.61698" lon="6.65606">
        <ele>2185.5</ele>
        <time>2022-02-08T09:20:41Z</time>
      </trkpt>
      <trkpt lat="45.61697" lon="6.65613">
        <ele>2187.3</ele>
        <time>2022-02-08T09:20:50Z</time>
      </trkpt>
      <trkpt lat="45.61702" lon="6.65615">
        <ele>2187.4</ele>
        <time>2022-02-08T09:21:06Z</time>
      </trkpt>
      <trkpt lat="45.61706" lon="6.65613">
        <ele>2186.5</ele>
        <time>2022-02-08T09:21:13Z</time>
      </trkpt>
      <trkpt lat="45.61711" lon="6.6561">
        <ele>2187.2</ele>
        <time>2022-02-08T09:21:22Z</time>
      </trkpt>
      <trkpt lat="45.61714" lon="6.65605">
        <ele>2188.4</ele>
        <time>2022-02-08T09:21:31Z</time>
      </trkpt>
      <trkpt lat="45.61718" lon="6.65602">
        <ele>2189.9</ele>
        <time>2022-02-08T09:21:40Z</time>
      </trkpt>
      <trkpt lat="45.61721" lon="6.65598">
        <ele>2191.3</ele>
        <time>2022-02-08T09:21:51Z</time>
      </trkpt>
      <trkpt lat="45.61723" lon="6.65605">
        <ele>2194.5</ele>
        <time>2022-02-08T09:22:10Z</time>
      </trkpt>
      <trkpt lat="45.61723" lon="6.65611">
        <ele>2196.2</ele>
        <time>2022-02-08T09:22:19Z</time>
      </trkpt>
      <trkpt lat="45.61727" lon="6.65614">
        <ele>2198</ele>
        <time>2022-02-08T09:22:31Z</time>
      </trkpt>
      <trkpt lat="45.61732" lon="6.65613">
        <ele>2199.2</ele>
        <time>2022-02-08T09:22:40Z</time>
      </trkpt>
      <trkpt lat="45.61736" lon="6.6561">
        <ele>2201</ele>
        <time>2022-02-08T09:22:50Z</time>
      </trkpt>
      <trkpt lat="45.61741" lon="6.65607">
        <ele>2203.4</ele>
        <time>2022-02-08T09:22:59Z</time>
      </trkpt>
      <trkpt lat="45.61745" lon="6.65604">
        <ele>2204.9</ele>
        <time>2022-02-08T09:23:07Z</time>
      </trkpt>
      <trkpt lat="45.61749" lon="6.656">
        <ele>2206</ele>
        <time>2022-02-08T09:23:18Z</time>
      </trkpt>
      <trkpt lat="45.61753" lon="6.65596">
        <ele>2207</ele>
        <time>2022-02-08T09:23:27Z</time>
      </trkpt>
      <trkpt lat="45.61757" lon="6.65592">
        <ele>2208</ele>
        <time>2022-02-08T09:23:36Z</time>
      </trkpt>
      <trkpt lat="45.61761" lon="6.65589">
        <ele>2208.6</ele>
        <time>2022-02-08T09:23:43Z</time>
      </trkpt>
      <trkpt lat="45.61765" lon="6.65584">
        <ele>2209.8</ele>
        <time>2022-02-08T09:23:52Z</time>
      </trkpt>
      <trkpt lat="45.61767" lon="6.65579">
        <ele>2211.4</ele>
        <time>2022-02-08T09:24:04Z</time>
      </trkpt>
      <trkpt lat="45.6177" lon="6.65573">
        <ele>2213.1</ele>
        <time>2022-02-08T09:24:15Z</time>
      </trkpt>
      <trkpt lat="45.61773" lon="6.65568">
        <ele>2213.7</ele>
        <time>2022-02-08T09:24:23Z</time>
      </trkpt>
      <trkpt lat="45.61778" lon="6.65566">
        <ele>2215.2</ele>
        <time>2022-02-08T09:24:33Z</time>
      </trkpt>
      <trkpt lat="45.61782" lon="6.65564">
        <ele>2216.8</ele>
        <time>2022-02-08T09:24:43Z</time>
      </trkpt>
      <trkpt lat="45.61787" lon="6.65562">
        <ele>2218.9</ele>
        <time>2022-02-08T09:24:53Z</time>
      </trkpt>
      <trkpt lat="45.61792" lon="6.6556">
        <ele>2219.8</ele>
        <time>2022-02-08T09:25:01Z</time>
      </trkpt>
      <trkpt lat="45.61796" lon="6.65558">
        <ele>2220.9</ele>
        <time>2022-02-08T09:25:09Z</time>
      </trkpt>
      <trkpt lat="45.618" lon="6.65555">
        <ele>2222</ele>
        <time>2022-02-08T09:25:19Z</time>
      </trkpt>
      <trkpt lat="45.61804" lon="6.65552">
        <ele>2222.5</ele>
        <time>2022-02-08T09:25:27Z</time>
      </trkpt>
      <trkpt lat="45.61809" lon="6.65549">
        <ele>2223.1</ele>
        <time>2022-02-08T09:25:37Z</time>
      </trkpt>
      <trkpt lat="45.61813" lon="6.65547">
        <ele>2224.5</ele>
        <time>2022-02-08T09:25:48Z</time>
      </trkpt>
      <trkpt lat="45.61818" lon="6.65545">
        <ele>2227.4</ele>
        <time>2022-02-08T09:25:59Z</time>
      </trkpt>
      <trkpt lat="45.6182" lon="6.65551">
        <ele>2229.5</ele>
        <time>2022-02-08T09:26:20Z</time>
      </trkpt>
      <trkpt lat="45.61821" lon="6.65557">
        <ele>2230.3</ele>
        <time>2022-02-08T09:26:30Z</time>
      </trkpt>
      <trkpt lat="45.61822" lon="6.65564">
        <ele>2231.7</ele>
        <time>2022-02-08T09:26:41Z</time>
      </trkpt>
      <trkpt lat="45.61823" lon="6.65571">
        <ele>2233.2</ele>
        <time>2022-02-08T09:26:51Z</time>
      </trkpt>
      <trkpt lat="45.61824" lon="6.65577">
        <ele>2234.6</ele>
        <time>2022-02-08T09:27:01Z</time>
      </trkpt>
      <trkpt lat="45.61828" lon="6.65581">
        <ele>2235.8</ele>
        <time>2022-02-08T09:27:10Z</time>
      </trkpt>
      <trkpt lat="45.61832" lon="6.65583">
        <ele>2237.1</ele>
        <time>2022-02-08T09:27:19Z</time>
      </trkpt>
      <trkpt lat="45.61837" lon="6.65585">
        <ele>2238.8</ele>
        <time>2022-02-08T09:27:29Z</time>
      </trkpt>
      <trkpt lat="45.61841" lon="6.65586">
        <ele>2240.6</ele>
        <time>2022-02-08T09:27:37Z</time>
      </trkpt>
      <trkpt lat="45.61846" lon="6.65586">
        <ele>2242.4</ele>
        <time>2022-02-08T09:27:46Z</time>
      </trkpt>
      <trkpt lat="45.61851" lon="6.65586">
        <ele>2244.4</ele>
        <time>2022-02-08T09:27:55Z</time>
      </trkpt>
      <trkpt lat="45.61855" lon="6.65587">
        <ele>2245.7</ele>
        <time>2022-02-08T09:28:04Z</time>
      </trkpt>
      <trkpt lat="45.6186" lon="6.65589">
        <ele>2247.1</ele>
        <time>2022-02-08T09:28:13Z</time>
      </trkpt>
      <trkpt lat="45.61864" lon="6.65589">
        <ele>2249.1</ele>
        <time>2022-02-08T09:28:22Z</time>
      </trkpt>
      <trkpt lat="45.61869" lon="6.6559">
        <ele>2250.4</ele>
        <time>2022-02-08T09:28:34Z</time>
      </trkpt>
      <trkpt lat="45.61873" lon="6.65593">
        <ele>2251.4</ele>
        <time>2022-02-08T09:28:46Z</time>
      </trkpt>
      <trkpt lat="45.61878" lon="6.65594">
        <ele>2252.5</ele>
        <time>2022-02-08T09:28:55Z</time>
      </trkpt>
      <trkpt lat="45.61883" lon="6.65594">
        <ele>2253.5</ele>
        <time>2022-02-08T09:29:03Z</time>
      </trkpt>
      <trkpt lat="45.61887" lon="6.65594">
        <ele>2254.4</ele>
        <time>2022-02-08T09:29:11Z</time>
      </trkpt>
      <trkpt lat="45.61892" lon="6.65591">
        <ele>2256.1</ele>
        <time>2022-02-08T09:29:21Z</time>
      </trkpt>
      <trkpt lat="45.61893" lon="6.65584">
        <ele>2257.9</ele>
        <time>2022-02-08T09:29:33Z</time>
      </trkpt>
      <trkpt lat="45.61894" lon="6.65578">
        <ele>2259.7</ele>
        <time>2022-02-08T09:29:45Z</time>
      </trkpt>
      <trkpt lat="45.61899" lon="6.65577">
        <ele>2261</ele>
        <time>2022-02-08T09:29:55Z</time>
      </trkpt>
      <trkpt lat="45.61904" lon="6.65576">
        <ele>2261.7</ele>
        <time>2022-02-08T09:30:04Z</time>
      </trkpt>
      <trkpt lat="45.61907" lon="6.65572">
        <ele>2262.2</ele>
        <time>2022-02-08T09:30:13Z</time>
      </trkpt>
      <trkpt lat="45.61909" lon="6.65566">
        <ele>2262.7</ele>
        <time>2022-02-08T09:30:21Z</time>
      </trkpt>
      <trkpt lat="45.61911" lon="6.65559">
        <ele>2263.1</ele>
        <time>2022-02-08T09:30:29Z</time>
      </trkpt>
      <trkpt lat="45.61914" lon="6.65554">
        <ele>2264</ele>
        <time>2022-02-08T09:30:40Z</time>
      </trkpt>
      <trkpt lat="45.61918" lon="6.65551">
        <ele>2264.9</ele>
        <time>2022-02-08T09:30:47Z</time>
      </trkpt>
      <trkpt lat="45.61923" lon="6.6555">
        <ele>2265.9</ele>
        <time>2022-02-08T09:30:54Z</time>
      </trkpt>
      <trkpt lat="45.61928" lon="6.65549">
        <ele>2267.5</ele>
        <time>2022-02-08T09:31:01Z</time>
      </trkpt>
      <trkpt lat="45.61933" lon="6.65547">
        <ele>2268.7</ele>
        <time>2022-02-08T09:31:08Z</time>
      </trkpt>
      <trkpt lat="45.61937" lon="6.65546">
        <ele>2270.4</ele>
        <time>2022-02-08T09:31:15Z</time>
      </trkpt>
      <trkpt lat="45.61942" lon="6.65544">
        <ele>2271.9</ele>
        <time>2022-02-08T09:31:23Z</time>
      </trkpt>
      <trkpt lat="45.61946" lon="6.65542">
        <ele>2273.3</ele>
        <time>2022-02-08T09:31:31Z</time>
      </trkpt>
      <trkpt lat="45.61951" lon="6.65539">
        <ele>2274.8</ele>
        <time>2022-02-08T09:31:38Z</time>
      </trkpt>
      <trkpt lat="45.61955" lon="6.65537">
        <ele>2276.1</ele>
        <time>2022-02-08T09:31:45Z</time>
      </trkpt>
      <trkpt lat="45.6196" lon="6.65535">
        <ele>2276.9</ele>
        <time>2022-02-08T09:31:52Z</time>
      </trkpt>
      <trkpt lat="45.61965" lon="6.65533">
        <ele>2277.4</ele>
        <time>2022-02-08T09:31:59Z</time>
      </trkpt>
      <trkpt lat="45.61969" lon="6.65531">
        <ele>2277.3</ele>
        <time>2022-02-08T09:32:06Z</time>
      </trkpt>
      <trkpt lat="45.61975" lon="6.6553">
        <ele>2278</ele>
        <time>2022-02-08T09:32:14Z</time>
      </trkpt>
      <trkpt lat="45.61979" lon="6.65528">
        <ele>2279.1</ele>
        <time>2022-02-08T09:32:23Z</time>
      </trkpt>
      <trkpt lat="45.61982" lon="6.65523">
        <ele>2279.9</ele>
        <time>2022-02-08T09:32:31Z</time>
      </trkpt>
      <trkpt lat="45.61984" lon="6.65517">
        <ele>2280.1</ele>
        <time>2022-02-08T09:32:39Z</time>
      </trkpt>
      <trkpt lat="45.61986" lon="6.6551">
        <ele>2280.3</ele>
        <time>2022-02-08T09:32:46Z</time>
      </trkpt>
      <trkpt lat="45.61987" lon="6.65504">
        <ele>2280.4</ele>
        <time>2022-02-08T09:32:54Z</time>
      </trkpt>
      <trkpt lat="45.61988" lon="6.65497">
        <ele>2281.5</ele>
        <time>2022-02-08T09:33:04Z</time>
      </trkpt>
      <trkpt lat="45.61988" lon="6.65491">
        <ele>2282.3</ele>
        <time>2022-02-08T09:33:14Z</time>
      </trkpt>
      <trkpt lat="45.61992" lon="6.65487">
        <ele>2283.2</ele>
        <time>2022-02-08T09:33:25Z</time>
      </trkpt>
      <trkpt lat="45.61997" lon="6.65488">
        <ele>2284.1</ele>
        <time>2022-02-08T09:33:35Z</time>
      </trkpt>
      <trkpt lat="45.62001" lon="6.65491">
        <ele>2285.7</ele>
        <time>2022-02-08T09:33:44Z</time>
      </trkpt>
      <trkpt lat="45.62005" lon="6.65494">
        <ele>2287.4</ele>
        <time>2022-02-08T09:33:52Z</time>
      </trkpt>
      <trkpt lat="45.6201" lon="6.65494">
        <ele>2288.6</ele>
        <time>2022-02-08T09:34:00Z</time>
      </trkpt>
      <trkpt lat="45.62015" lon="6.65496">
        <ele>2289.3</ele>
        <time>2022-02-08T09:34:08Z</time>
      </trkpt>
      <trkpt lat="45.62019" lon="6.65499">
        <ele>2290</ele>
        <time>2022-02-08T09:34:17Z</time>
      </trkpt>
      <trkpt lat="45.62021" lon="6.65505">
        <ele>2291.6</ele>
        <time>2022-02-08T09:34:26Z</time>
      </trkpt>
      <trkpt lat="45.62023" lon="6.65512">
        <ele>2293.8</ele>
        <time>2022-02-08T09:34:37Z</time>
      </trkpt>
      <trkpt lat="45.62026" lon="6.65517">
        <ele>2296.4</ele>
        <time>2022-02-08T09:34:48Z</time>
      </trkpt>
      <trkpt lat="45.62029" lon="6.65523">
        <ele>2298.5</ele>
        <time>2022-02-08T09:34:58Z</time>
      </trkpt>
      <trkpt lat="45.62032" lon="6.65527">
        <ele>2300.2</ele>
        <time>2022-02-08T09:35:08Z</time>
      </trkpt>
      <trkpt lat="45.62036" lon="6.65524">
        <ele>2300.9</ele>
        <time>2022-02-08T09:35:19Z</time>
      </trkpt>
      <trkpt lat="45.6204" lon="6.65519">
        <ele>2301</ele>
        <time>2022-02-08T09:35:29Z</time>
      </trkpt>
      <trkpt lat="45.62043" lon="6.65515">
        <ele>2301.8</ele>
        <time>2022-02-08T09:35:39Z</time>
      </trkpt>
      <trkpt lat="45.62047" lon="6.65512">
        <ele>2302.9</ele>
        <time>2022-02-08T09:35:49Z</time>
      </trkpt>
      <trkpt lat="45.62051" lon="6.65507">
        <ele>2304.2</ele>
        <time>2022-02-08T09:36:00Z</time>
      </trkpt>
      <trkpt lat="45.62054" lon="6.65503">
        <ele>2305</ele>
        <time>2022-02-08T09:36:10Z</time>
      </trkpt>
      <trkpt lat="45.62058" lon="6.655">
        <ele>2305.7</ele>
        <time>2022-02-08T09:36:20Z</time>
      </trkpt>
      <trkpt lat="45.62062" lon="6.65496">
        <ele>2307.9</ele>
        <time>2022-02-08T09:36:32Z</time>
      </trkpt>
      <trkpt lat="45.62065" lon="6.65491">
        <ele>2309.2</ele>
        <time>2022-02-08T09:36:42Z</time>
      </trkpt>
      <trkpt lat="45.62069" lon="6.65487">
        <ele>2309.5</ele>
        <time>2022-02-08T09:36:52Z</time>
      </trkpt>
      <trkpt lat="45.62072" lon="6.65482">
        <ele>2310.4</ele>
        <time>2022-02-08T09:37:01Z</time>
      </trkpt>
      <trkpt lat="45.62075" lon="6.65476">
        <ele>2311.1</ele>
        <time>2022-02-08T09:37:11Z</time>
      </trkpt>
      <trkpt lat="45.62077" lon="6.6547">
        <ele>2311.4</ele>
        <time>2022-02-08T09:37:21Z</time>
      </trkpt>
      <trkpt lat="45.62079" lon="6.65464">
        <ele>2311.9</ele>
        <time>2022-02-08T09:37:30Z</time>
      </trkpt>
      <trkpt lat="45.62082" lon="6.65459">
        <ele>2313</ele>
        <time>2022-02-08T09:37:39Z</time>
      </trkpt>
      <trkpt lat="45.62087" lon="6.65458">
        <ele>2318.4</ele>
        <time>2022-02-08T09:38:12Z</time>
      </trkpt>
      <trkpt lat="45.62091" lon="6.65462">
        <ele>2320.7</ele>
        <time>2022-02-08T09:38:23Z</time>
      </trkpt>
      <trkpt lat="45.62095" lon="6.65466">
        <ele>2322.9</ele>
        <time>2022-02-08T09:38:34Z</time>
      </trkpt>
      <trkpt lat="45.62098" lon="6.65471">
        <ele>2325</ele>
        <time>2022-02-08T09:38:43Z</time>
      </trkpt>
      <trkpt lat="45.62101" lon="6.65476">
        <ele>2327.1</ele>
        <time>2022-02-08T09:38:52Z</time>
      </trkpt>
      <trkpt lat="45.62105" lon="6.65479">
        <ele>2329</ele>
        <time>2022-02-08T09:39:02Z</time>
      </trkpt>
      <trkpt lat="45.6211" lon="6.65479">
        <ele>2330.1</ele>
        <time>2022-02-08T09:39:11Z</time>
      </trkpt>
      <trkpt lat="45.62114" lon="6.65475">
        <ele>2330.2</ele>
        <time>2022-02-08T09:39:19Z</time>
      </trkpt>
      <trkpt lat="45.62118" lon="6.65471">
        <ele>2329.9</ele>
        <time>2022-02-08T09:39:26Z</time>
      </trkpt>
      <trkpt lat="45.62122" lon="6.65467">
        <ele>2330.5</ele>
        <time>2022-02-08T09:39:33Z</time>
      </trkpt>
      <trkpt lat="45.62125" lon="6.65463">
        <ele>2331.3</ele>
        <time>2022-02-08T09:39:40Z</time>
      </trkpt>
      <trkpt lat="45.62129" lon="6.6546">
        <ele>2332.6</ele>
        <time>2022-02-08T09:39:46Z</time>
      </trkpt>
      <trkpt lat="45.62133" lon="6.65455">
        <ele>2333.1</ele>
        <time>2022-02-08T09:39:52Z</time>
      </trkpt>
      <trkpt lat="45.62136" lon="6.6545">
        <ele>2333.7</ele>
        <time>2022-02-08T09:39:58Z</time>
      </trkpt>
      <trkpt lat="45.6214" lon="6.65445">
        <ele>2333.8</ele>
        <time>2022-02-08T09:40:04Z</time>
      </trkpt>
      <trkpt lat="45.62144" lon="6.6544">
        <ele>2334.6</ele>
        <time>2022-02-08T09:40:10Z</time>
      </trkpt>
      <trkpt lat="45.62147" lon="6.65435">
        <ele>2334.2</ele>
        <time>2022-02-08T09:40:16Z</time>
      </trkpt>
      <trkpt lat="45.62151" lon="6.6543">
        <ele>2333.6</ele>
        <time>2022-02-08T09:40:23Z</time>
      </trkpt>
      <trkpt lat="45.62154" lon="6.65424">
        <ele>2332.8</ele>
        <time>2022-02-08T09:40:31Z</time>
      </trkpt>
      <trkpt lat="45.62157" lon="6.65419">
        <ele>2332.5</ele>
        <time>2022-02-08T09:40:39Z</time>
      </trkpt>
      <trkpt lat="45.62161" lon="6.6542">
        <ele>2334.8</ele>
        <time>2022-02-08T09:40:51Z</time>
      </trkpt>
      <trkpt lat="45.62166" lon="6.65423">
        <ele>2336.1</ele>
        <time>2022-02-08T09:41:01Z</time>
      </trkpt>
      <trkpt lat="45.6217" lon="6.65426">
        <ele>2337.2</ele>
        <time>2022-02-08T09:41:11Z</time>
      </trkpt>
      <trkpt lat="45.62173" lon="6.65432">
        <ele>2340</ele>
        <time>2022-02-08T09:41:23Z</time>
      </trkpt>
      <trkpt lat="45.62178" lon="6.65432">
        <ele>2341.7</ele>
        <time>2022-02-08T09:41:32Z</time>
      </trkpt>
      <trkpt lat="45.62182" lon="6.6543">
        <ele>2342.8</ele>
        <time>2022-02-08T09:41:40Z</time>
      </trkpt>
      <trkpt lat="45.62186" lon="6.65426">
        <ele>2343.9</ele>
        <time>2022-02-08T09:41:50Z</time>
      </trkpt>
      <trkpt lat="45.6219" lon="6.65427">
        <ele>2346.1</ele>
        <time>2022-02-08T09:42:08Z</time>
      </trkpt>
      <trkpt lat="45.62193" lon="6.65433">
        <ele>2348.4</ele>
        <time>2022-02-08T09:42:22Z</time>
      </trkpt>
      <trkpt lat="45.62196" lon="6.65438">
        <ele>2351.7</ele>
        <time>2022-02-08T09:42:35Z</time>
      </trkpt>
      <trkpt lat="45.622" lon="6.65442">
        <ele>2354.8</ele>
        <time>2022-02-08T09:42:48Z</time>
      </trkpt>
      <trkpt lat="45.62205" lon="6.6544">
        <ele>2356.1</ele>
        <time>2022-02-08T09:42:57Z</time>
      </trkpt>
      <trkpt lat="45.62207" lon="6.65434">
        <ele>2355.7</ele>
        <time>2022-02-08T09:43:07Z</time>
      </trkpt>
      <trkpt lat="45.62208" lon="6.65428">
        <ele>2355</ele>
        <time>2022-02-08T09:43:18Z</time>
      </trkpt>
      <trkpt lat="45.6221" lon="6.65422">
        <ele>2356</ele>
        <time>2022-02-08T09:43:25Z</time>
      </trkpt>
      <trkpt lat="45.62214" lon="6.65418">
        <ele>2357.8</ele>
        <time>2022-02-08T09:43:34Z</time>
      </trkpt>
      <trkpt lat="45.62218" lon="6.65415">
        <ele>2359.6</ele>
        <time>2022-02-08T09:43:43Z</time>
      </trkpt>
      <trkpt lat="45.62222" lon="6.65414">
        <ele>2361</ele>
        <time>2022-02-08T09:43:50Z</time>
      </trkpt>
      <trkpt lat="45.62227" lon="6.65413">
        <ele>2363</ele>
        <time>2022-02-08T09:43:58Z</time>
      </trkpt>
      <trkpt lat="45.62232" lon="6.65413">
        <ele>2364.3</ele>
        <time>2022-02-08T09:44:05Z</time>
      </trkpt>
      <trkpt lat="45.62237" lon="6.65412">
        <ele>2366</ele>
        <time>2022-02-08T09:44:14Z</time>
      </trkpt>
      <trkpt lat="45.62241" lon="6.65411">
        <ele>2368</ele>
        <time>2022-02-08T09:44:23Z</time>
      </trkpt>
      <trkpt lat="45.62243" lon="6.65417">
        <ele>2370.3</ele>
        <time>2022-02-08T09:44:43Z</time>
      </trkpt>
      <trkpt lat="45.62244" lon="6.65423">
        <ele>2371.9</ele>
        <time>2022-02-08T09:44:55Z</time>
      </trkpt>
      <trkpt lat="45.62246" lon="6.65429">
        <ele>2373.2</ele>
        <time>2022-02-08T09:45:05Z</time>
      </trkpt>
      <trkpt lat="45.62251" lon="6.65428">
        <ele>2374.4</ele>
        <time>2022-02-08T09:45:15Z</time>
      </trkpt>
      <trkpt lat="45.62256" lon="6.65428">
        <ele>2375.2</ele>
        <time>2022-02-08T09:45:24Z</time>
      </trkpt>
      <trkpt lat="45.6226" lon="6.65426">
        <ele>2376.5</ele>
        <time>2022-02-08T09:45:34Z</time>
      </trkpt>
      <trkpt lat="45.62265" lon="6.65424">
        <ele>2376.9</ele>
        <time>2022-02-08T09:45:42Z</time>
      </trkpt>
      <trkpt lat="45.62269" lon="6.65425">
        <ele>2377.9</ele>
        <time>2022-02-08T09:45:49Z</time>
      </trkpt>
      <trkpt lat="45.62274" lon="6.65424">
        <ele>2378.7</ele>
        <time>2022-02-08T09:45:56Z</time>
      </trkpt>
      <trkpt lat="45.62278" lon="6.65421">
        <ele>2379.2</ele>
        <time>2022-02-08T09:46:03Z</time>
      </trkpt>
      <trkpt lat="45.62282" lon="6.65417">
        <ele>2378.8</ele>
        <time>2022-02-08T09:46:09Z</time>
      </trkpt>
      <trkpt lat="45.62287" lon="6.65413">
        <ele>2379.4</ele>
        <time>2022-02-08T09:46:16Z</time>
      </trkpt>
      <trkpt lat="45.62291" lon="6.6541">
        <ele>2380</ele>
        <time>2022-02-08T09:46:23Z</time>
      </trkpt>
      <trkpt lat="45.62295" lon="6.65407">
        <ele>2380.3</ele>
        <time>2022-02-08T09:46:30Z</time>
      </trkpt>
      <trkpt lat="45.623" lon="6.65405">
        <ele>2379.9</ele>
        <time>2022-02-08T09:46:38Z</time>
      </trkpt>
      <trkpt lat="45.62305" lon="6.65404">
        <ele>2380.2</ele>
        <time>2022-02-08T09:46:47Z</time>
      </trkpt>
      <trkpt lat="45.62309" lon="6.65402">
        <ele>2380.2</ele>
        <time>2022-02-08T09:46:56Z</time>
      </trkpt>
      <trkpt lat="45.62314" lon="6.654">
        <ele>2380.2</ele>
        <time>2022-02-08T09:47:04Z</time>
      </trkpt>
      <trkpt lat="45.62318" lon="6.65398">
        <ele>2381</ele>
        <time>2022-02-08T09:47:13Z</time>
      </trkpt>
      <trkpt lat="45.62323" lon="6.65397">
        <ele>2381.4</ele>
        <time>2022-02-08T09:47:23Z</time>
      </trkpt>
      <trkpt lat="45.62327" lon="6.654">
        <ele>2383.2</ele>
        <time>2022-02-08T09:47:42Z</time>
      </trkpt>
      <trkpt lat="45.62331" lon="6.65403">
        <ele>2385.8</ele>
        <time>2022-02-08T09:47:58Z</time>
      </trkpt>
      <trkpt lat="45.62335" lon="6.654">
        <ele>2386.6</ele>
        <time>2022-02-08T09:48:08Z</time>
      </trkpt>
      <trkpt lat="45.62339" lon="6.65396">
        <ele>2387.8</ele>
        <time>2022-02-08T09:48:18Z</time>
      </trkpt>
      <trkpt lat="45.62342" lon="6.65391">
        <ele>2389</ele>
        <time>2022-02-08T09:48:31Z</time>
      </trkpt>
      <trkpt lat="45.62345" lon="6.65386">
        <ele>2391</ele>
        <time>2022-02-08T09:48:42Z</time>
      </trkpt>
      <trkpt lat="45.6235" lon="6.65388">
        <ele>2393.4</ele>
        <time>2022-02-08T09:48:56Z</time>
      </trkpt>
      <trkpt lat="45.6235" lon="6.65395">
        <ele>2396.7</ele>
        <time>2022-02-08T09:49:40Z</time>
      </trkpt>
      <trkpt lat="45.6235" lon="6.65388">
        <ele>2397.5</ele>
        <time>2022-02-08T09:50:14Z</time>
      </trkpt>
      <trkpt lat="45.6235" lon="6.65382">
        <ele>2396.9</ele>
        <time>2022-02-08T09:50:19Z</time>
      </trkpt>
      <trkpt lat="45.62351" lon="6.65374">
        <ele>2396.5</ele>
        <time>2022-02-08T09:50:25Z</time>
      </trkpt>
      <trkpt lat="45.62351" lon="6.65367">
        <ele>2395.5</ele>
        <time>2022-02-08T09:50:31Z</time>
      </trkpt>
      <trkpt lat="45.62352" lon="6.6536">
        <ele>2395.1</ele>
        <time>2022-02-08T09:50:36Z</time>
      </trkpt>
      <trkpt lat="45.62351" lon="6.65354">
        <ele>2394.6</ele>
        <time>2022-02-08T09:50:41Z</time>
      </trkpt>
      <trkpt lat="45.6235" lon="6.65346">
        <ele>2395.5</ele>
        <time>2022-02-08T09:50:47Z</time>
      </trkpt>
      <trkpt lat="45.62349" lon="6.6534">
        <ele>2396.8</ele>
        <time>2022-02-08T09:50:52Z</time>
      </trkpt>
      <trkpt lat="45.62347" lon="6.65333">
        <ele>2397.6</ele>
        <time>2022-02-08T09:50:58Z</time>
      </trkpt>
      <trkpt lat="45.62344" lon="6.65327">
        <ele>2399.1</ele>
        <time>2022-02-08T09:51:04Z</time>
      </trkpt>
      <trkpt lat="45.62342" lon="6.6532">
        <ele>2401.2</ele>
        <time>2022-02-08T09:51:11Z</time>
      </trkpt>
      <trkpt lat="45.6234" lon="6.65314">
        <ele>2402.8</ele>
        <time>2022-02-08T09:51:19Z</time>
      </trkpt>
      <trkpt lat="45.62339" lon="6.65307">
        <ele>2404.8</ele>
        <time>2022-02-08T09:51:27Z</time>
      </trkpt>
      <trkpt lat="45.62341" lon="6.653">
        <ele>2406.5</ele>
        <time>2022-02-08T09:51:36Z</time>
      </trkpt>
      <trkpt lat="45.62344" lon="6.65294">
        <ele>2407.8</ele>
        <time>2022-02-08T09:51:44Z</time>
      </trkpt>
      <trkpt lat="45.62347" lon="6.65288">
        <ele>2408.6</ele>
        <time>2022-02-08T09:51:51Z</time>
      </trkpt>
      <trkpt lat="45.6235" lon="6.65283">
        <ele>2409.2</ele>
        <time>2022-02-08T09:51:57Z</time>
      </trkpt>
      <trkpt lat="45.62353" lon="6.65278">
        <ele>2409.7</ele>
        <time>2022-02-08T09:52:04Z</time>
      </trkpt>
      <trkpt lat="45.62357" lon="6.65274">
        <ele>2410.3</ele>
        <time>2022-02-08T09:52:11Z</time>
      </trkpt>
      <trkpt lat="45.62361" lon="6.6527">
        <ele>2411</ele>
        <time>2022-02-08T09:52:18Z</time>
      </trkpt>
      <trkpt lat="45.62362" lon="6.65263">
        <ele>2410.8</ele>
        <time>2022-02-08T09:52:25Z</time>
      </trkpt>
      <trkpt lat="45.62364" lon="6.65257">
        <ele>2411.4</ele>
        <time>2022-02-08T09:52:33Z</time>
      </trkpt>
      <trkpt lat="45.62368" lon="6.65253">
        <ele>2412.9</ele>
        <time>2022-02-08T09:52:41Z</time>
      </trkpt>
      <trkpt lat="45.62371" lon="6.65248">
        <ele>2414.7</ele>
        <time>2022-02-08T09:52:48Z</time>
      </trkpt>
      <trkpt lat="45.62375" lon="6.65244">
        <ele>2416.4</ele>
        <time>2022-02-08T09:52:55Z</time>
      </trkpt>
      <trkpt lat="45.62379" lon="6.65238">
        <ele>2417.4</ele>
        <time>2022-02-08T09:53:01Z</time>
      </trkpt>
      <trkpt lat="45.62383" lon="6.65234">
        <ele>2417.2</ele>
        <time>2022-02-08T09:53:07Z</time>
      </trkpt>
      <trkpt lat="45.62387" lon="6.6523">
        <ele>2417.6</ele>
        <time>2022-02-08T09:53:13Z</time>
      </trkpt>
      <trkpt lat="45.62391" lon="6.65226">
        <ele>2418.9</ele>
        <time>2022-02-08T09:53:18Z</time>
      </trkpt>
      <trkpt lat="45.62395" lon="6.65223">
        <ele>2420.1</ele>
        <time>2022-02-08T09:53:23Z</time>
      </trkpt>
      <trkpt lat="45.62398" lon="6.65219">
        <ele>2420.7</ele>
        <time>2022-02-08T09:53:28Z</time>
      </trkpt>
      <trkpt lat="45.62402" lon="6.65214">
        <ele>2420.8</ele>
        <time>2022-02-08T09:53:33Z</time>
      </trkpt>
      <trkpt lat="45.62406" lon="6.6521">
        <ele>2420.7</ele>
        <time>2022-02-08T09:53:38Z</time>
      </trkpt>
      <trkpt lat="45.6241" lon="6.65204">
        <ele>2420.8</ele>
        <time>2022-02-08T09:53:44Z</time>
      </trkpt>
      <trkpt lat="45.62413" lon="6.65199">
        <ele>2421.1</ele>
        <time>2022-02-08T09:53:50Z</time>
      </trkpt>
      <trkpt lat="45.62415" lon="6.65194">
        <ele>2421.3</ele>
        <time>2022-02-08T09:53:56Z</time>
      </trkpt>
      <trkpt lat="45.62418" lon="6.65188">
        <ele>2420.8</ele>
        <time>2022-02-08T09:54:02Z</time>
      </trkpt>
      <trkpt lat="45.62421" lon="6.65183">
        <ele>2420.1</ele>
        <time>2022-02-08T09:54:08Z</time>
      </trkpt>
      <trkpt lat="45.62424" lon="6.65177">
        <ele>2420.4</ele>
        <time>2022-02-08T09:54:14Z</time>
      </trkpt>
      <trkpt lat="45.62426" lon="6.65172">
        <ele>2420.9</ele>
        <time>2022-02-08T09:54:20Z</time>
      </trkpt>
      <trkpt lat="45.62429" lon="6.65166">
        <ele>2421.8</ele>
        <time>2022-02-08T09:54:27Z</time>
      </trkpt>
      <trkpt lat="45.62432" lon="6.65161">
        <ele>2422</ele>
        <time>2022-02-08T09:54:33Z</time>
      </trkpt>
      <trkpt lat="45.62435" lon="6.65156">
        <ele>2422.6</ele>
        <time>2022-02-08T09:54:40Z</time>
      </trkpt>
      <trkpt lat="45.62438" lon="6.65151">
        <ele>2422.4</ele>
        <time>2022-02-08T09:54:46Z</time>
      </trkpt>
      <trkpt lat="45.62441" lon="6.65145">
        <ele>2423.1</ele>
        <time>2022-02-08T09:54:52Z</time>
      </trkpt>
      <trkpt lat="45.62444" lon="6.65141">
        <ele>2424.2</ele>
        <time>2022-02-08T09:54:58Z</time>
      </trkpt>
      <trkpt lat="45.62448" lon="6.65135">
        <ele>2424.4</ele>
        <time>2022-02-08T09:55:04Z</time>
      </trkpt>
      <trkpt lat="45.6245" lon="6.65129">
        <ele>2424.3</ele>
        <time>2022-02-08T09:55:10Z</time>
      </trkpt>
      <trkpt lat="45.62452" lon="6.65123">
        <ele>2424.5</ele>
        <time>2022-02-08T09:55:17Z</time>
      </trkpt>
      <trkpt lat="45.62452" lon="6.65116">
        <ele>2425.5</ele>
        <time>2022-02-08T09:55:24Z</time>
      </trkpt>
      <trkpt lat="45.62453" lon="6.65108">
        <ele>2425.9</ele>
        <time>2022-02-08T09:55:31Z</time>
      </trkpt>
      <trkpt lat="45.62455" lon="6.65102">
        <ele>2425.2</ele>
        <time>2022-02-08T09:55:38Z</time>
      </trkpt>
      <trkpt lat="45.62456" lon="6.65095">
        <ele>2425.5</ele>
        <time>2022-02-08T09:55:44Z</time>
      </trkpt>
      <trkpt lat="45.62456" lon="6.65088">
        <ele>2425.9</ele>
        <time>2022-02-08T09:55:52Z</time>
      </trkpt>
      <trkpt lat="45.62456" lon="6.65081">
        <ele>2426.8</ele>
        <time>2022-02-08T09:56:00Z</time>
      </trkpt>
      <trkpt lat="45.62457" lon="6.65075">
        <ele>2427.6</ele>
        <time>2022-02-08T09:56:08Z</time>
      </trkpt>
      <trkpt lat="45.62458" lon="6.65068">
        <ele>2428</ele>
        <time>2022-02-08T09:56:16Z</time>
      </trkpt>
      <trkpt lat="45.62459" lon="6.65061">
        <ele>2429</ele>
        <time>2022-02-08T09:56:26Z</time>
      </trkpt>
      <trkpt lat="45.6246" lon="6.65054">
        <ele>2429</ele>
        <time>2022-02-08T09:56:35Z</time>
      </trkpt>
      <trkpt lat="45.6246" lon="6.65047">
        <ele>2428.8</ele>
        <time>2022-02-08T09:56:44Z</time>
      </trkpt>
      <trkpt lat="45.62462" lon="6.65041">
        <ele>2429.2</ele>
        <time>2022-02-08T09:56:53Z</time>
      </trkpt>
      <trkpt lat="45.62462" lon="6.65034">
        <ele>2430.1</ele>
        <time>2022-02-08T09:57:01Z</time>
      </trkpt>
      <trkpt lat="45.62463" lon="6.65028">
        <ele>2431.1</ele>
        <time>2022-02-08T09:57:09Z</time>
      </trkpt>
      <trkpt lat="45.62464" lon="6.65021">
        <ele>2432.5</ele>
        <time>2022-02-08T09:57:18Z</time>
      </trkpt>
      <trkpt lat="45.62464" lon="6.65014">
        <ele>2433.9</ele>
        <time>2022-02-08T09:57:27Z</time>
      </trkpt>
      <trkpt lat="45.62462" lon="6.65007">
        <ele>2435.9</ele>
        <time>2022-02-08T09:57:34Z</time>
      </trkpt>
      <trkpt lat="45.62463" lon="6.65">
        <ele>2437.7</ele>
        <time>2022-02-08T09:57:43Z</time>
      </trkpt>
      <trkpt lat="45.62464" lon="6.64994">
        <ele>2438.7</ele>
        <time>2022-02-08T09:57:51Z</time>
      </trkpt>
      <trkpt lat="45.62466" lon="6.64988">
        <ele>2441.6</ele>
        <time>2022-02-08T09:58:00Z</time>
      </trkpt>
      <trkpt lat="45.62468" lon="6.64982">
        <ele>2442.7</ele>
        <time>2022-02-08T09:58:08Z</time>
      </trkpt>
      <trkpt lat="45.62471" lon="6.64976">
        <ele>2443.2</ele>
        <time>2022-02-08T09:58:15Z</time>
      </trkpt>
      <trkpt lat="45.62474" lon="6.6497">
        <ele>2443.4</ele>
        <time>2022-02-08T09:58:22Z</time>
      </trkpt>
      <trkpt lat="45.62477" lon="6.64965">
        <ele>2444.4</ele>
        <time>2022-02-08T09:58:29Z</time>
      </trkpt>
      <trkpt lat="45.6248" lon="6.6496">
        <ele>2444.7</ele>
        <time>2022-02-08T09:58:35Z</time>
      </trkpt>
      <trkpt lat="45.62484" lon="6.64955">
        <ele>2445.7</ele>
        <time>2022-02-08T09:58:42Z</time>
      </trkpt>
      <trkpt lat="45.62487" lon="6.6495">
        <ele>2445.9</ele>
        <time>2022-02-08T09:58:48Z</time>
      </trkpt>
      <trkpt lat="45.62491" lon="6.64946">
        <ele>2446.6</ele>
        <time>2022-02-08T09:58:54Z</time>
      </trkpt>
      <trkpt lat="45.62494" lon="6.64941">
        <ele>2447.1</ele>
        <time>2022-02-08T09:59:01Z</time>
      </trkpt>
      <trkpt lat="45.62498" lon="6.64935">
        <ele>2447.7</ele>
        <time>2022-02-08T09:59:08Z</time>
      </trkpt>
      <trkpt lat="45.62501" lon="6.6493">
        <ele>2448.3</ele>
        <time>2022-02-08T09:59:14Z</time>
      </trkpt>
      <trkpt lat="45.62504" lon="6.64924">
        <ele>2448.4</ele>
        <time>2022-02-08T09:59:20Z</time>
      </trkpt>
      <trkpt lat="45.62507" lon="6.64918">
        <ele>2450</ele>
        <time>2022-02-08T09:59:27Z</time>
      </trkpt>
      <trkpt lat="45.62511" lon="6.64914">
        <ele>2452</ele>
        <time>2022-02-08T09:59:34Z</time>
      </trkpt>
      <trkpt lat="45.62514" lon="6.6491">
        <ele>2452.4</ele>
        <time>2022-02-08T09:59:40Z</time>
      </trkpt>
      <trkpt lat="45.62518" lon="6.64905">
        <ele>2452.4</ele>
        <time>2022-02-08T09:59:46Z</time>
      </trkpt>
      <trkpt lat="45.62522" lon="6.64901">
        <ele>2453.4</ele>
        <time>2022-02-08T09:59:53Z</time>
      </trkpt>
      <trkpt lat="45.62525" lon="6.64897">
        <ele>2454</ele>
        <time>2022-02-08T09:59:59Z</time>
      </trkpt>
      <trkpt lat="45.62529" lon="6.64893">
        <ele>2454.1</ele>
        <time>2022-02-08T10:00:05Z</time>
      </trkpt>
      <trkpt lat="45.62533" lon="6.64889">
        <ele>2453.5</ele>
        <time>2022-02-08T10:00:11Z</time>
      </trkpt>
      <trkpt lat="45.62537" lon="6.64884">
        <ele>2454.2</ele>
        <time>2022-02-08T10:00:18Z</time>
      </trkpt>
      <trkpt lat="45.6254" lon="6.64877">
        <ele>2455.1</ele>
        <time>2022-02-08T10:00:25Z</time>
      </trkpt>
      <trkpt lat="45.62542" lon="6.64872">
        <ele>2456</ele>
        <time>2022-02-08T10:00:31Z</time>
      </trkpt>
      <trkpt lat="45.62545" lon="6.64866">
        <ele>2457.2</ele>
        <time>2022-02-08T10:00:37Z</time>
      </trkpt>
      <trkpt lat="45.62549" lon="6.64861">
        <ele>2458</ele>
        <time>2022-02-08T10:00:43Z</time>
      </trkpt>
      <trkpt lat="45.62552" lon="6.64856">
        <ele>2458</ele>
        <time>2022-02-08T10:00:48Z</time>
      </trkpt>
      <trkpt lat="45.62556" lon="6.64852">
        <ele>2457.8</ele>
        <time>2022-02-08T10:00:53Z</time>
      </trkpt>
      <trkpt lat="45.6256" lon="6.64848">
        <ele>2457.6</ele>
        <time>2022-02-08T10:00:59Z</time>
      </trkpt>
      <trkpt lat="45.62564" lon="6.64843">
        <ele>2457.4</ele>
        <time>2022-02-08T10:01:05Z</time>
      </trkpt>
      <trkpt lat="45.62568" lon="6.6484">
        <ele>2457.8</ele>
        <time>2022-02-08T10:01:11Z</time>
      </trkpt>
      <trkpt lat="45.62572" lon="6.64835">
        <ele>2457.9</ele>
        <time>2022-02-08T10:01:17Z</time>
      </trkpt>
      <trkpt lat="45.62575" lon="6.6483">
        <ele>2458.5</ele>
        <time>2022-02-08T10:01:23Z</time>
      </trkpt>
      <trkpt lat="45.62579" lon="6.64826">
        <ele>2459.7</ele>
        <time>2022-02-08T10:01:29Z</time>
      </trkpt>
      <trkpt lat="45.62583" lon="6.64823">
        <ele>2459.9</ele>
        <time>2022-02-08T10:01:34Z</time>
      </trkpt>
      <trkpt lat="45.62587" lon="6.6482">
        <ele>2459.1</ele>
        <time>2022-02-08T10:01:39Z</time>
      </trkpt>
      <trkpt lat="45.62591" lon="6.64815">
        <ele>2458.3</ele>
        <time>2022-02-08T10:01:44Z</time>
      </trkpt>
      <trkpt lat="45.62593" lon="6.64809">
        <ele>2457.8</ele>
        <time>2022-02-08T10:01:50Z</time>
      </trkpt>
      <trkpt lat="45.62595" lon="6.64803">
        <ele>2458</ele>
        <time>2022-02-08T10:01:57Z</time>
      </trkpt>
      <trkpt lat="45.62596" lon="6.64796">
        <ele>2458.1</ele>
        <time>2022-02-08T10:02:08Z</time>
      </trkpt>
      <trkpt lat="45.62596" lon="6.6479">
        <ele>2458.6</ele>
        <time>2022-02-08T10:02:17Z</time>
      </trkpt>
      <trkpt lat="45.62599" lon="6.64784">
        <ele>2459.1</ele>
        <time>2022-02-08T10:02:23Z</time>
      </trkpt>
      <trkpt lat="45.62603" lon="6.64779">
        <ele>2460.5</ele>
        <time>2022-02-08T10:02:31Z</time>
      </trkpt>
      <trkpt lat="45.62608" lon="6.64777">
        <ele>2461.1</ele>
        <time>2022-02-08T10:02:40Z</time>
      </trkpt>
      <trkpt lat="45.62612" lon="6.64778">
        <ele>2463.5</ele>
        <time>2022-02-08T10:02:51Z</time>
      </trkpt>
      <trkpt lat="45.62617" lon="6.64779">
        <ele>2464.3</ele>
        <time>2022-02-08T10:02:59Z</time>
      </trkpt>
      <trkpt lat="45.62622" lon="6.64779">
        <ele>2464.9</ele>
        <time>2022-02-08T10:03:05Z</time>
      </trkpt>
      <trkpt lat="45.62626" lon="6.6478">
        <ele>2466</ele>
        <time>2022-02-08T10:03:13Z</time>
      </trkpt>
      <trkpt lat="45.62631" lon="6.64779">
        <ele>2466.7</ele>
        <time>2022-02-08T10:03:22Z</time>
      </trkpt>
      <trkpt lat="45.62636" lon="6.64778">
        <ele>2468.1</ele>
        <time>2022-02-08T10:03:32Z</time>
      </trkpt>
      <trkpt lat="45.6264" lon="6.64775">
        <ele>2469.6</ele>
        <time>2022-02-08T10:03:42Z</time>
      </trkpt>
      <trkpt lat="45.62644" lon="6.64772">
        <ele>2470.9</ele>
        <time>2022-02-08T10:03:53Z</time>
      </trkpt>
      <trkpt lat="45.62649" lon="6.6477">
        <ele>2472.3</ele>
        <time>2022-02-08T10:04:04Z</time>
      </trkpt>
      <trkpt lat="45.62653" lon="6.64769">
        <ele>2474</ele>
        <time>2022-02-08T10:04:16Z</time>
      </trkpt>
      <trkpt lat="45.62658" lon="6.64768">
        <ele>2475.8</ele>
        <time>2022-02-08T10:04:27Z</time>
      </trkpt>
      <trkpt lat="45.62663" lon="6.64767">
        <ele>2478</ele>
        <time>2022-02-08T10:04:39Z</time>
      </trkpt>
      <trkpt lat="45.62667" lon="6.64766">
        <ele>2479.8</ele>
        <time>2022-02-08T10:04:50Z</time>
      </trkpt>
      <trkpt lat="45.62672" lon="6.64765">
        <ele>2480.9</ele>
        <time>2022-02-08T10:05:00Z</time>
      </trkpt>
      <trkpt lat="45.62676" lon="6.64765">
        <ele>2482.2</ele>
        <time>2022-02-08T10:05:10Z</time>
      </trkpt>
      <trkpt lat="45.62681" lon="6.64765">
        <ele>2483.9</ele>
        <time>2022-02-08T10:05:20Z</time>
      </trkpt>
      <trkpt lat="45.62686" lon="6.64764">
        <ele>2485.4</ele>
        <time>2022-02-08T10:05:29Z</time>
      </trkpt>
      <trkpt lat="45.6269" lon="6.6476">
        <ele>2485.9</ele>
        <time>2022-02-08T10:05:37Z</time>
      </trkpt>
      <trkpt lat="45.62694" lon="6.64756">
        <ele>2487.1</ele>
        <time>2022-02-08T10:05:46Z</time>
      </trkpt>
      <trkpt lat="45.62697" lon="6.64751">
        <ele>2488.2</ele>
        <time>2022-02-08T10:05:56Z</time>
      </trkpt>
      <trkpt lat="45.62701" lon="6.64754">
        <ele>2490.2</ele>
        <time>2022-02-08T10:06:06Z</time>
      </trkpt>
      <trkpt lat="45.62704" lon="6.6476">
        <ele>2491.7</ele>
        <time>2022-02-08T10:06:16Z</time>
      </trkpt>
      <trkpt lat="45.62709" lon="6.64762">
        <ele>2492.7</ele>
        <time>2022-02-08T10:06:25Z</time>
      </trkpt>
      <trkpt lat="45.62709" lon="6.64768">
        <ele>2494.6</ele>
        <time>2022-02-08T10:06:38Z</time>
      </trkpt>
      <trkpt lat="45.62709" lon="6.64775">
        <ele>2495.8</ele>
        <time>2022-02-08T10:06:46Z</time>
      </trkpt>
      <trkpt lat="45.62707" lon="6.64769">
        <ele>2496.9</ele>
        <time>2022-02-08T10:09:34Z</time>
      </trkpt>
      <trkpt lat="45.62705" lon="6.64761">
        <ele>2496.9</ele>
        <time>2022-02-08T10:14:35Z</time>
      </trkpt>
      <trkpt lat="45.62702" lon="6.64753">
        <ele>2498.8</ele>
        <time>2022-02-08T10:14:38Z</time>
      </trkpt>
      <trkpt lat="45.627" lon="6.64747">
        <ele>2499.8</ele>
        <time>2022-02-08T10:14:40Z</time>
      </trkpt>
      <trkpt lat="45.62696" lon="6.64739">
        <ele>2500.7</ele>
        <time>2022-02-08T10:14:43Z</time>
      </trkpt>
      <trkpt lat="45.62693" lon="6.64732">
        <ele>2500.5</ele>
        <time>2022-02-08T10:14:46Z</time>
      </trkpt>
      <trkpt lat="45.62689" lon="6.64727">
        <ele>2499.2</ele>
        <time>2022-02-08T10:14:49Z</time>
      </trkpt>
      <trkpt lat="45.62687" lon="6.64721">
        <ele>2497</ele>
        <time>2022-02-08T10:14:54Z</time>
      </trkpt>
      <trkpt lat="45.62684" lon="6.64715">
        <ele>2493.6</ele>
        <time>2022-02-08T10:15:12Z</time>
      </trkpt>
      <trkpt lat="45.62681" lon="6.6471">
        <ele>2492.7</ele>
        <time>2022-02-08T10:15:36Z</time>
      </trkpt>
      <trkpt lat="45.62677" lon="6.64706">
        <ele>2495.5</ele>
        <time>2022-02-08T10:16:51Z</time>
      </trkpt>
      <trkpt lat="45.62681" lon="6.64712">
        <ele>2496.4</ele>
        <time>2022-02-08T10:17:14Z</time>
      </trkpt>
      <trkpt lat="45.62683" lon="6.64718">
        <ele>2496</ele>
        <time>2022-02-08T10:17:17Z</time>
      </trkpt>
      <trkpt lat="45.62686" lon="6.64725">
        <ele>2495.5</ele>
        <time>2022-02-08T10:17:20Z</time>
      </trkpt>
      <trkpt lat="45.62689" lon="6.64732">
        <ele>2495.1</ele>
        <time>2022-02-08T10:17:23Z</time>
      </trkpt>
      <trkpt lat="45.62692" lon="6.64738">
        <ele>2494.6</ele>
        <time>2022-02-08T10:17:26Z</time>
      </trkpt>
      <trkpt lat="45.62696" lon="6.64744">
        <ele>2494.2</ele>
        <time>2022-02-08T10:17:29Z</time>
      </trkpt>
      <trkpt lat="45.62697" lon="6.64751">
        <ele>2493.8</ele>
        <time>2022-02-08T10:17:34Z</time>
      </trkpt>
      <trkpt lat="45.627" lon="6.64756">
        <ele>2493.9</ele>
        <time>2022-02-08T10:20:08Z</time>
      </trkpt>
      <trkpt lat="45.62704" lon="6.64761">
        <ele>2495.2</ele>
        <time>2022-02-08T10:20:19Z</time>
      </trkpt>
      <trkpt lat="45.62708" lon="6.64763">
        <ele>2495.6</ele>
        <time>2022-02-08T10:20:33Z</time>
      </trkpt>
      <trkpt lat="45.62713" lon="6.64764">
        <ele>2495.3</ele>
        <time>2022-02-08T10:22:52Z</time>
      </trkpt>
      <trkpt lat="45.62716" lon="6.64769">
        <ele>2496.6</ele>
        <time>2022-02-08T10:23:05Z</time>
      </trkpt>
      <trkpt lat="45.62718" lon="6.64776">
        <ele>2497.2</ele>
        <time>2022-02-08T10:25:15Z</time>
      </trkpt>
      <trkpt lat="45.62723" lon="6.64773">
        <ele>2496.5</ele>
        <time>2022-02-08T10:25:22Z</time>
      </trkpt>
      <trkpt lat="45.62727" lon="6.64765">
        <ele>2495.5</ele>
        <time>2022-02-08T10:25:24Z</time>
      </trkpt>
      <trkpt lat="45.62732" lon="6.64763">
        <ele>2494.3</ele>
        <time>2022-02-08T10:25:26Z</time>
      </trkpt>
      <trkpt lat="45.62733" lon="6.64771">
        <ele>2493.4</ele>
        <time>2022-02-08T10:25:28Z</time>
      </trkpt>
      <trkpt lat="45.62735" lon="6.64783">
        <ele>2490.7</ele>
        <time>2022-02-08T10:25:30Z</time>
      </trkpt>
      <trkpt lat="45.62738" lon="6.64793">
        <ele>2487.8</ele>
        <time>2022-02-08T10:25:32Z</time>
      </trkpt>
      <trkpt lat="45.62741" lon="6.64803">
        <ele>2487.8</ele>
        <time>2022-02-08T10:25:34Z</time>
      </trkpt>
      <trkpt lat="45.62744" lon="6.64812">
        <ele>2484.6</ele>
        <time>2022-02-08T10:25:36Z</time>
      </trkpt>
      <trkpt lat="45.62743" lon="6.64823">
        <ele>2481.3</ele>
        <time>2022-02-08T10:25:38Z</time>
      </trkpt>
      <trkpt lat="45.6274" lon="6.64838">
        <ele>2477.9</ele>
        <time>2022-02-08T10:25:40Z</time>
      </trkpt>
      <trkpt lat="45.62741" lon="6.64853">
        <ele>2474.1</ele>
        <time>2022-02-08T10:25:42Z</time>
      </trkpt>
      <trkpt lat="45.62746" lon="6.6487">
        <ele>2469.6</ele>
        <time>2022-02-08T10:25:44Z</time>
      </trkpt>
      <trkpt lat="45.62752" lon="6.64884">
        <ele>2464.6</ele>
        <time>2022-02-08T10:25:46Z</time>
      </trkpt>
      <trkpt lat="45.62757" lon="6.649">
        <ele>2457.7</ele>
        <time>2022-02-08T10:25:48Z</time>
      </trkpt>
      <trkpt lat="45.62771" lon="6.64913">
        <ele>2450.6</ele>
        <time>2022-02-08T10:25:50Z</time>
      </trkpt>
      <trkpt lat="45.62782" lon="6.64928">
        <ele>2444.1</ele>
        <time>2022-02-08T10:25:52Z</time>
      </trkpt>
      <trkpt lat="45.62792" lon="6.64943">
        <ele>2438.7</ele>
        <time>2022-02-08T10:25:54Z</time>
      </trkpt>
      <trkpt lat="45.628" lon="6.64956">
        <ele>2433.9</ele>
        <time>2022-02-08T10:25:56Z</time>
      </trkpt>
      <trkpt lat="45.62809" lon="6.6497">
        <ele>2429.3</ele>
        <time>2022-02-08T10:25:58Z</time>
      </trkpt>
      <trkpt lat="45.62818" lon="6.64984">
        <ele>2425.1</ele>
        <time>2022-02-08T10:26:00Z</time>
      </trkpt>
      <trkpt lat="45.62826" lon="6.64997">
        <ele>2420.7</ele>
        <time>2022-02-08T10:26:02Z</time>
      </trkpt>
      <trkpt lat="45.62834" lon="6.65012">
        <ele>2416</ele>
        <time>2022-02-08T10:26:04Z</time>
      </trkpt>
      <trkpt lat="45.62842" lon="6.65027">
        <ele>2410.9</ele>
        <time>2022-02-08T10:26:06Z</time>
      </trkpt>
      <trkpt lat="45.62849" lon="6.65042">
        <ele>2406.2</ele>
        <time>2022-02-08T10:26:08Z</time>
      </trkpt>
      <trkpt lat="45.62856" lon="6.65056">
        <ele>2401.9</ele>
        <time>2022-02-08T10:26:10Z</time>
      </trkpt>
      <trkpt lat="45.62859" lon="6.65061">
        <ele>2398.5</ele>
        <time>2022-02-08T10:26:12Z</time>
      </trkpt>
      <trkpt lat="45.62862" lon="6.65066">
        <ele>2389.9</ele>
        <time>2022-02-08T10:26:28Z</time>
      </trkpt>
      <trkpt lat="45.62867" lon="6.65071">
        <ele>2387.8</ele>
        <time>2022-02-08T10:27:07Z</time>
      </trkpt>
      <trkpt lat="45.62872" lon="6.6508">
        <ele>2386.8</ele>
        <time>2022-02-08T10:27:09Z</time>
      </trkpt>
      <trkpt lat="45.62876" lon="6.65091">
        <ele>2385.3</ele>
        <time>2022-02-08T10:27:11Z</time>
      </trkpt>
      <trkpt lat="45.62881" lon="6.65102">
        <ele>2382.9</ele>
        <time>2022-02-08T10:27:13Z</time>
      </trkpt>
      <trkpt lat="45.62884" lon="6.65114">
        <ele>2380.1</ele>
        <time>2022-02-08T10:27:15Z</time>
      </trkpt>
      <trkpt lat="45.62888" lon="6.65127">
        <ele>2377.2</ele>
        <time>2022-02-08T10:27:17Z</time>
      </trkpt>
      <trkpt lat="45.62896" lon="6.65148">
        <ele>2371.8</ele>
        <time>2022-02-08T10:27:20Z</time>
      </trkpt>
      <trkpt lat="45.629" lon="6.65163">
        <ele>2367.7</ele>
        <time>2022-02-08T10:27:22Z</time>
      </trkpt>
      <trkpt lat="45.62904" lon="6.6518">
        <ele>2362.7</ele>
        <time>2022-02-08T10:27:24Z</time>
      </trkpt>
      <trkpt lat="45.62911" lon="6.65197">
        <ele>2356.3</ele>
        <time>2022-02-08T10:27:26Z</time>
      </trkpt>
      <trkpt lat="45.62919" lon="6.65213">
        <ele>2350.7</ele>
        <time>2022-02-08T10:27:28Z</time>
      </trkpt>
      <trkpt lat="45.62934" lon="6.65234">
        <ele>2342</ele>
        <time>2022-02-08T10:27:31Z</time>
      </trkpt>
      <trkpt lat="45.62946" lon="6.65249">
        <ele>2336</ele>
        <time>2022-02-08T10:27:33Z</time>
      </trkpt>
      <trkpt lat="45.62956" lon="6.65264">
        <ele>2330.7</ele>
        <time>2022-02-08T10:27:35Z</time>
      </trkpt>
      <trkpt lat="45.62966" lon="6.65279">
        <ele>2325.6</ele>
        <time>2022-02-08T10:27:37Z</time>
      </trkpt>
      <trkpt lat="45.62976" lon="6.65294">
        <ele>2320.2</ele>
        <time>2022-02-08T10:27:39Z</time>
      </trkpt>
      <trkpt lat="45.62985" lon="6.65307">
        <ele>2315</ele>
        <time>2022-02-08T10:27:41Z</time>
      </trkpt>
      <trkpt lat="45.62995" lon="6.6532">
        <ele>2309.9</ele>
        <time>2022-02-08T10:27:43Z</time>
      </trkpt>
      <trkpt lat="45.63006" lon="6.65329">
        <ele>2305.3</ele>
        <time>2022-02-08T10:27:45Z</time>
      </trkpt>
      <trkpt lat="45.63013" lon="6.65341">
        <ele>2300.8</ele>
        <time>2022-02-08T10:27:47Z</time>
      </trkpt>
      <trkpt lat="45.63023" lon="6.6535">
        <ele>2296.9</ele>
        <time>2022-02-08T10:27:49Z</time>
      </trkpt>
      <trkpt lat="45.63033" lon="6.65361">
        <ele>2293.2</ele>
        <time>2022-02-08T10:27:51Z</time>
      </trkpt>
      <trkpt lat="45.63039" lon="6.65371">
        <ele>2289.2</ele>
        <time>2022-02-08T10:27:54Z</time>
      </trkpt>
      <trkpt lat="45.63036" lon="6.65375">
        <ele>2282.9</ele>
        <time>2022-02-08T10:28:13Z</time>
      </trkpt>
      <trkpt lat="45.63037" lon="6.65382">
        <ele>2280.9</ele>
        <time>2022-02-08T10:28:17Z</time>
      </trkpt>
      <trkpt lat="45.63041" lon="6.65394">
        <ele>2279.2</ele>
        <time>2022-02-08T10:28:19Z</time>
      </trkpt>
      <trkpt lat="45.63046" lon="6.65411">
        <ele>2277</ele>
        <time>2022-02-08T10:28:21Z</time>
      </trkpt>
      <trkpt lat="45.63053" lon="6.65431">
        <ele>2274.3</ele>
        <time>2022-02-08T10:28:23Z</time>
      </trkpt>
      <trkpt lat="45.63057" lon="6.6545">
        <ele>2271.3</ele>
        <time>2022-02-08T10:28:25Z</time>
      </trkpt>
      <trkpt lat="45.63063" lon="6.65468">
        <ele>2268.4</ele>
        <time>2022-02-08T10:28:27Z</time>
      </trkpt>
      <trkpt lat="45.63071" lon="6.65483">
        <ele>2265</ele>
        <time>2022-02-08T10:28:29Z</time>
      </trkpt>
      <trkpt lat="45.63079" lon="6.65496">
        <ele>2261.7</ele>
        <time>2022-02-08T10:28:31Z</time>
      </trkpt>
      <trkpt lat="45.63089" lon="6.65503">
        <ele>2257.8</ele>
        <time>2022-02-08T10:28:33Z</time>
      </trkpt>
      <trkpt lat="45.63095" lon="6.65516">
        <ele>2253</ele>
        <time>2022-02-08T10:28:35Z</time>
      </trkpt>
      <trkpt lat="45.63101" lon="6.65532">
        <ele>2248.3</ele>
        <time>2022-02-08T10:28:37Z</time>
      </trkpt>
      <trkpt lat="45.63109" lon="6.65551">
        <ele>2243.8</ele>
        <time>2022-02-08T10:28:39Z</time>
      </trkpt>
      <trkpt lat="45.63112" lon="6.65561">
        <ele>2241.2</ele>
        <time>2022-02-08T10:28:41Z</time>
      </trkpt>
      <trkpt lat="45.63128" lon="6.65579">
        <ele>2235.5</ele>
        <time>2022-02-08T10:28:43Z</time>
      </trkpt>
      <trkpt lat="45.63134" lon="6.65581">
        <ele>2233.9</ele>
        <time>2022-02-08T10:28:45Z</time>
      </trkpt>
      <trkpt lat="45.6315" lon="6.65585">
        <ele>2225</ele>
        <time>2022-02-08T10:28:47Z</time>
      </trkpt>
      <trkpt lat="45.63161" lon="6.65592">
        <ele>2220.1</ele>
        <time>2022-02-08T10:28:49Z</time>
      </trkpt>
      <trkpt lat="45.63168" lon="6.65603">
        <ele>2215.6</ele>
        <time>2022-02-08T10:28:51Z</time>
      </trkpt>
      <trkpt lat="45.6317" lon="6.6561">
        <ele>2213.8</ele>
        <time>2022-02-08T10:28:53Z</time>
      </trkpt>
      <trkpt lat="45.6317" lon="6.65625">
        <ele>2210.2</ele>
        <time>2022-02-08T10:28:55Z</time>
      </trkpt>
      <trkpt lat="45.63167" lon="6.65651">
        <ele>2205</ele>
        <time>2022-02-08T10:28:57Z</time>
      </trkpt>
      <trkpt lat="45.63163" lon="6.65665">
        <ele>2201.9</ele>
        <time>2022-02-08T10:28:59Z</time>
      </trkpt>
      <trkpt lat="45.63158" lon="6.65678">
        <ele>2198.8</ele>
        <time>2022-02-08T10:29:01Z</time>
      </trkpt>
      <trkpt lat="45.63154" lon="6.65692">
        <ele>2196.2</ele>
        <time>2022-02-08T10:29:03Z</time>
      </trkpt>
      <trkpt lat="45.63155" lon="6.65705">
        <ele>2193.1</ele>
        <time>2022-02-08T10:29:05Z</time>
      </trkpt>
      <trkpt lat="45.63161" lon="6.65715">
        <ele>2189.2</ele>
        <time>2022-02-08T10:29:08Z</time>
      </trkpt>
      <trkpt lat="45.63169" lon="6.65735">
        <ele>2182.4</ele>
        <time>2022-02-08T10:29:10Z</time>
      </trkpt>
      <trkpt lat="45.63176" lon="6.65749">
        <ele>2178.5</ele>
        <time>2022-02-08T10:29:12Z</time>
      </trkpt>
      <trkpt lat="45.63185" lon="6.65761">
        <ele>2174.9</ele>
        <time>2022-02-08T10:29:14Z</time>
      </trkpt>
      <trkpt lat="45.63196" lon="6.65764">
        <ele>2170.6</ele>
        <time>2022-02-08T10:29:16Z</time>
      </trkpt>
      <trkpt lat="45.63207" lon="6.65765">
        <ele>2166.8</ele>
        <time>2022-02-08T10:29:18Z</time>
      </trkpt>
      <trkpt lat="45.6322" lon="6.65768">
        <ele>2163.2</ele>
        <time>2022-02-08T10:29:20Z</time>
      </trkpt>
      <trkpt lat="45.63232" lon="6.65775">
        <ele>2159.9</ele>
        <time>2022-02-08T10:29:22Z</time>
      </trkpt>
      <trkpt lat="45.63243" lon="6.65786">
        <ele>2156.9</ele>
        <time>2022-02-08T10:29:24Z</time>
      </trkpt>
      <trkpt lat="45.63252" lon="6.65812">
        <ele>2151.7</ele>
        <time>2022-02-08T10:29:27Z</time>
      </trkpt>
      <trkpt lat="45.63256" lon="6.65831">
        <ele>2149.3</ele>
        <time>2022-02-08T10:29:29Z</time>
      </trkpt>
      <trkpt lat="45.63265" lon="6.65842">
        <ele>2146.3</ele>
        <time>2022-02-08T10:29:31Z</time>
      </trkpt>
      <trkpt lat="45.63278" lon="6.65859">
        <ele>2142.9</ele>
        <time>2022-02-08T10:29:33Z</time>
      </trkpt>
      <trkpt lat="45.63283" lon="6.65867">
        <ele>2140.9</ele>
        <time>2022-02-08T10:29:35Z</time>
      </trkpt>
      <trkpt lat="45.63283" lon="6.65883">
        <ele>2135.9</ele>
        <time>2022-02-08T10:29:37Z</time>
      </trkpt>
      <trkpt lat="45.63283" lon="6.65889">
        <ele>2128.3</ele>
        <time>2022-02-08T10:29:47Z</time>
      </trkpt>
      <trkpt lat="45.63284" lon="6.65899">
        <ele>2123.8</ele>
        <time>2022-02-08T10:29:53Z</time>
      </trkpt>
      <trkpt lat="45.63287" lon="6.6591">
        <ele>2122.2</ele>
        <time>2022-02-08T10:29:55Z</time>
      </trkpt>
      <trkpt lat="45.63291" lon="6.65925">
        <ele>2120.8</ele>
        <time>2022-02-08T10:29:58Z</time>
      </trkpt>
      <trkpt lat="45.63298" lon="6.65949">
        <ele>2119.6</ele>
        <time>2022-02-08T10:30:00Z</time>
      </trkpt>
      <trkpt lat="45.63307" lon="6.65958">
        <ele>2119.1</ele>
        <time>2022-02-08T10:30:02Z</time>
      </trkpt>
      <trkpt lat="45.63317" lon="6.65963">
        <ele>2116.8</ele>
        <time>2022-02-08T10:30:04Z</time>
      </trkpt>
      <trkpt lat="45.63328" lon="6.65972">
        <ele>2114.3</ele>
        <time>2022-02-08T10:30:06Z</time>
      </trkpt>
      <trkpt lat="45.63339" lon="6.65984">
        <ele>2112</ele>
        <time>2022-02-08T10:30:08Z</time>
      </trkpt>
      <trkpt lat="45.63348" lon="6.65998">
        <ele>2109.4</ele>
        <time>2022-02-08T10:30:10Z</time>
      </trkpt>
      <trkpt lat="45.63355" lon="6.66014">
        <ele>2106.8</ele>
        <time>2022-02-08T10:30:12Z</time>
      </trkpt>
      <trkpt lat="45.63361" lon="6.66031">
        <ele>2104.4</ele>
        <time>2022-02-08T10:30:15Z</time>
      </trkpt>
      <trkpt lat="45.63367" lon="6.66057">
        <ele>2100.8</ele>
        <time>2022-02-08T10:30:17Z</time>
      </trkpt>
      <trkpt lat="45.63369" lon="6.66072">
        <ele>2099</ele>
        <time>2022-02-08T10:30:19Z</time>
      </trkpt>
      <trkpt lat="45.6337" lon="6.66087">
        <ele>2097.1</ele>
        <time>2022-02-08T10:30:21Z</time>
      </trkpt>
      <trkpt lat="45.6337" lon="6.66101">
        <ele>2095.5</ele>
        <time>2022-02-08T10:30:23Z</time>
      </trkpt>
      <trkpt lat="45.63369" lon="6.66122">
        <ele>2093.1</ele>
        <time>2022-02-08T10:30:26Z</time>
      </trkpt>
      <trkpt lat="45.63368" lon="6.66136">
        <ele>2091.5</ele>
        <time>2022-02-08T10:30:29Z</time>
      </trkpt>
      <trkpt lat="45.63368" lon="6.66157">
        <ele>2089.3</ele>
        <time>2022-02-08T10:30:31Z</time>
      </trkpt>
      <trkpt lat="45.63367" lon="6.6617">
        <ele>2087.9</ele>
        <time>2022-02-08T10:30:33Z</time>
      </trkpt>
      <trkpt lat="45.63366" lon="6.66181">
        <ele>2086.7</ele>
        <time>2022-02-08T10:30:35Z</time>
      </trkpt>
      <trkpt lat="45.63365" lon="6.66192">
        <ele>2085.4</ele>
        <time>2022-02-08T10:30:37Z</time>
      </trkpt>
      <trkpt lat="45.63365" lon="6.66201">
        <ele>2084.3</ele>
        <time>2022-02-08T10:30:39Z</time>
      </trkpt>
      <trkpt lat="45.63364" lon="6.66211">
        <ele>2083.3</ele>
        <time>2022-02-08T10:30:41Z</time>
      </trkpt>
      <trkpt lat="45.63362" lon="6.66222">
        <ele>2082.6</ele>
        <time>2022-02-08T10:30:43Z</time>
      </trkpt>
      <trkpt lat="45.63361" lon="6.66231">
        <ele>2082</ele>
        <time>2022-02-08T10:30:45Z</time>
      </trkpt>
      <trkpt lat="45.6336" lon="6.66237">
        <ele>2081.6</ele>
        <time>2022-02-08T10:30:48Z</time>
      </trkpt>
      <trkpt lat="45.63359" lon="6.66245">
        <ele>2080.8</ele>
        <time>2022-02-08T10:30:53Z</time>
      </trkpt>
      <trkpt lat="45.63357" lon="6.66255">
        <ele>2080.5</ele>
        <time>2022-02-08T10:30:55Z</time>
      </trkpt>
      <trkpt lat="45.63355" lon="6.66261">
        <ele>2080.3</ele>
        <time>2022-02-08T10:30:57Z</time>
      </trkpt>
      <trkpt lat="45.63353" lon="6.66268">
        <ele>2080</ele>
        <time>2022-02-08T10:31:00Z</time>
      </trkpt>
      <trkpt lat="45.6335" lon="6.66277">
        <ele>2079.5</ele>
        <time>2022-02-08T10:31:02Z</time>
      </trkpt>
      <trkpt lat="45.63347" lon="6.66283">
        <ele>2078.8</ele>
        <time>2022-02-08T10:31:05Z</time>
      </trkpt>
      <trkpt lat="45.63344" lon="6.66289">
        <ele>2078.2</ele>
        <time>2022-02-08T10:31:09Z</time>
      </trkpt>
      <trkpt lat="45.63343" lon="6.66296">
        <ele>2078.6</ele>
        <time>2022-02-08T10:31:18Z</time>
      </trkpt>
      <trkpt lat="45.63342" lon="6.66303">
        <ele>2080.1</ele>
        <time>2022-02-08T10:31:25Z</time>
      </trkpt>
      <trkpt lat="45.6334" lon="6.6631">
        <ele>2082.3</ele>
        <time>2022-02-08T10:31:35Z</time>
      </trkpt>
      <trkpt lat="45.63337" lon="6.66315">
        <ele>2082.3</ele>
        <time>2022-02-08T10:31:41Z</time>
      </trkpt>
      <trkpt lat="45.63334" lon="6.66321">
        <ele>2082.4</ele>
        <time>2022-02-08T10:31:45Z</time>
      </trkpt>
      <trkpt lat="45.6333" lon="6.66327">
        <ele>2082.8</ele>
        <time>2022-02-08T10:31:49Z</time>
      </trkpt>
      <trkpt lat="45.63326" lon="6.66332">
        <ele>2082.9</ele>
        <time>2022-02-08T10:31:52Z</time>
      </trkpt>
      <trkpt lat="45.63322" lon="6.66336">
        <ele>2083</ele>
        <time>2022-02-08T10:31:55Z</time>
      </trkpt>
      <trkpt lat="45.63317" lon="6.6634">
        <ele>2082.8</ele>
        <time>2022-02-08T10:31:58Z</time>
      </trkpt>
      <trkpt lat="45.63314" lon="6.66345">
        <ele>2082.7</ele>
        <time>2022-02-08T10:32:01Z</time>
      </trkpt>
      <trkpt lat="45.6331" lon="6.66351">
        <ele>2082.2</ele>
        <time>2022-02-08T10:32:05Z</time>
      </trkpt>
      <trkpt lat="45.63307" lon="6.66357">
        <ele>2081.7</ele>
        <time>2022-02-08T10:32:08Z</time>
      </trkpt>
      <trkpt lat="45.63303" lon="6.66363">
        <ele>2080.8</ele>
        <time>2022-02-08T10:32:10Z</time>
      </trkpt>
      <trkpt lat="45.63292" lon="6.66373">
        <ele>2078.6</ele>
        <time>2022-02-08T10:32:13Z</time>
      </trkpt>
      <trkpt lat="45.63281" lon="6.66375">
        <ele>2076.9</ele>
        <time>2022-02-08T10:32:15Z</time>
      </trkpt>
      <trkpt lat="45.63268" lon="6.66378">
        <ele>2074.4</ele>
        <time>2022-02-08T10:32:17Z</time>
      </trkpt>
      <trkpt lat="45.63255" lon="6.66381">
        <ele>2072.5</ele>
        <time>2022-02-08T10:32:19Z</time>
      </trkpt>
      <trkpt lat="45.63245" lon="6.66386">
        <ele>2070.8</ele>
        <time>2022-02-08T10:32:21Z</time>
      </trkpt>
      <trkpt lat="45.63237" lon="6.66393">
        <ele>2069.2</ele>
        <time>2022-02-08T10:32:23Z</time>
      </trkpt>
      <trkpt lat="45.6323" lon="6.66402">
        <ele>2067.4</ele>
        <time>2022-02-08T10:32:25Z</time>
      </trkpt>
      <trkpt lat="45.63222" lon="6.66414">
        <ele>2065.5</ele>
        <time>2022-02-08T10:32:27Z</time>
      </trkpt>
      <trkpt lat="45.63213" lon="6.66427">
        <ele>2063.4</ele>
        <time>2022-02-08T10:32:29Z</time>
      </trkpt>
      <trkpt lat="45.63204" lon="6.66436">
        <ele>2062</ele>
        <time>2022-02-08T10:32:31Z</time>
      </trkpt>
      <trkpt lat="45.63199" lon="6.6644">
        <ele>2060.7</ele>
        <time>2022-02-08T10:32:33Z</time>
      </trkpt>
      <trkpt lat="45.63204" lon="6.66438">
        <ele>2057.4</ele>
        <time>2022-02-08T10:40:19Z</time>
      </trkpt>
      <trkpt lat="45.63209" lon="6.66436">
        <ele>2057.4</ele>
        <time>2022-02-08T10:40:25Z</time>
      </trkpt>
      <trkpt lat="45.63213" lon="6.66431">
        <ele>2057.6</ele>
        <time>2022-02-08T10:40:32Z</time>
      </trkpt>
      <trkpt lat="45.63216" lon="6.66426">
        <ele>2058.3</ele>
        <time>2022-02-08T10:40:40Z</time>
      </trkpt>
      <trkpt lat="45.6322" lon="6.66422">
        <ele>2059.3</ele>
        <time>2022-02-08T10:40:48Z</time>
      </trkpt>
      <trkpt lat="45.63225" lon="6.66419">
        <ele>2061</ele>
        <time>2022-02-08T10:40:56Z</time>
      </trkpt>
      <trkpt lat="45.63228" lon="6.66415">
        <ele>2062.6</ele>
        <time>2022-02-08T10:41:04Z</time>
      </trkpt>
      <trkpt lat="45.63232" lon="6.6641">
        <ele>2063.8</ele>
        <time>2022-02-08T10:41:12Z</time>
      </trkpt>
      <trkpt lat="45.63234" lon="6.66404">
        <ele>2063.6</ele>
        <time>2022-02-08T10:41:20Z</time>
      </trkpt>
      <trkpt lat="45.63236" lon="6.66398">
        <ele>2063.9</ele>
        <time>2022-02-08T10:41:29Z</time>
      </trkpt>
      <trkpt lat="45.63239" lon="6.66393">
        <ele>2064.3</ele>
        <time>2022-02-08T10:41:36Z</time>
      </trkpt>
      <trkpt lat="45.63243" lon="6.66389">
        <ele>2064.8</ele>
        <time>2022-02-08T10:41:44Z</time>
      </trkpt>
      <trkpt lat="45.63247" lon="6.66385">
        <ele>2065.4</ele>
        <time>2022-02-08T10:41:51Z</time>
      </trkpt>
      <trkpt lat="45.63252" lon="6.66383">
        <ele>2066.1</ele>
        <time>2022-02-08T10:41:59Z</time>
      </trkpt>
      <trkpt lat="45.63257" lon="6.66381">
        <ele>2066.3</ele>
        <time>2022-02-08T10:42:05Z</time>
      </trkpt>
      <trkpt lat="45.63262" lon="6.66382">
        <ele>2067.1</ele>
        <time>2022-02-08T10:42:13Z</time>
      </trkpt>
      <trkpt lat="45.63266" lon="6.66381">
        <ele>2068</ele>
        <time>2022-02-08T10:42:21Z</time>
      </trkpt>
      <trkpt lat="45.63271" lon="6.6638">
        <ele>2069.8</ele>
        <time>2022-02-08T10:42:30Z</time>
      </trkpt>
      <trkpt lat="45.63276" lon="6.6638">
        <ele>2071.3</ele>
        <time>2022-02-08T10:42:39Z</time>
      </trkpt>
      <trkpt lat="45.6328" lon="6.6638">
        <ele>2071.7</ele>
        <time>2022-02-08T10:42:47Z</time>
      </trkpt>
      <trkpt lat="45.63285" lon="6.66378">
        <ele>2071.7</ele>
        <time>2022-02-08T10:42:56Z</time>
      </trkpt>
      <trkpt lat="45.63289" lon="6.66376">
        <ele>2072.5</ele>
        <time>2022-02-08T10:43:08Z</time>
      </trkpt>
      <trkpt lat="45.63294" lon="6.66374">
        <ele>2073.5</ele>
        <time>2022-02-08T10:43:26Z</time>
      </trkpt>
      <trkpt lat="45.63298" lon="6.66371">
        <ele>2074.9</ele>
        <time>2022-02-08T10:43:37Z</time>
      </trkpt>
      <trkpt lat="45.63302" lon="6.66368">
        <ele>2076.2</ele>
        <time>2022-02-08T10:43:46Z</time>
      </trkpt>
      <trkpt lat="45.63307" lon="6.66365">
        <ele>2077.9</ele>
        <time>2022-02-08T10:43:56Z</time>
      </trkpt>
      <trkpt lat="45.63311" lon="6.66363">
        <ele>2079</ele>
        <time>2022-02-08T10:44:04Z</time>
      </trkpt>
      <trkpt lat="45.63316" lon="6.66362">
        <ele>2080.3</ele>
        <time>2022-02-08T10:44:14Z</time>
      </trkpt>
      <trkpt lat="45.63321" lon="6.6636">
        <ele>2080.7</ele>
        <time>2022-02-08T10:44:21Z</time>
      </trkpt>
      <trkpt lat="45.63325" lon="6.66357">
        <ele>2080.8</ele>
        <time>2022-02-08T10:44:29Z</time>
      </trkpt>
      <trkpt lat="45.6333" lon="6.66356">
        <ele>2081.3</ele>
        <time>2022-02-08T10:44:36Z</time>
      </trkpt>
      <trkpt lat="45.63334" lon="6.66355">
        <ele>2082.5</ele>
        <time>2022-02-08T10:44:44Z</time>
      </trkpt>
      <trkpt lat="45.63339" lon="6.66355">
        <ele>2084</ele>
        <time>2022-02-08T10:44:54Z</time>
      </trkpt>
      <trkpt lat="45.63343" lon="6.66351">
        <ele>2085.1</ele>
        <time>2022-02-08T10:45:05Z</time>
      </trkpt>
      <trkpt lat="45.63346" lon="6.66345">
        <ele>2085.5</ele>
        <time>2022-02-08T10:45:13Z</time>
      </trkpt>
      <trkpt lat="45.63349" lon="6.66341">
        <ele>2087.1</ele>
        <time>2022-02-08T10:45:21Z</time>
      </trkpt>
      <trkpt lat="45.63352" lon="6.66335">
        <ele>2088.1</ele>
        <time>2022-02-08T10:45:30Z</time>
      </trkpt>
      <trkpt lat="45.63355" lon="6.6633">
        <ele>2089.9</ele>
        <time>2022-02-08T10:45:40Z</time>
      </trkpt>
      <trkpt lat="45.63358" lon="6.66325">
        <ele>2090.2</ele>
        <time>2022-02-08T10:45:48Z</time>
      </trkpt>
      <trkpt lat="45.63362" lon="6.66321">
        <ele>2090.7</ele>
        <time>2022-02-08T10:45:56Z</time>
      </trkpt>
      <trkpt lat="45.63365" lon="6.66316">
        <ele>2091.8</ele>
        <time>2022-02-08T10:46:05Z</time>
      </trkpt>
      <trkpt lat="45.63369" lon="6.66311">
        <ele>2093.7</ele>
        <time>2022-02-08T10:46:15Z</time>
      </trkpt>
      <trkpt lat="45.63372" lon="6.66307">
        <ele>2095</ele>
        <time>2022-02-08T10:46:25Z</time>
      </trkpt>
      <trkpt lat="45.63375" lon="6.66302">
        <ele>2096.1</ele>
        <time>2022-02-08T10:46:35Z</time>
      </trkpt>
      <trkpt lat="45.63378" lon="6.66297">
        <ele>2096.9</ele>
        <time>2022-02-08T10:46:44Z</time>
      </trkpt>
      <trkpt lat="45.63381" lon="6.66292">
        <ele>2098</ele>
        <time>2022-02-08T10:46:54Z</time>
      </trkpt>
      <trkpt lat="45.63385" lon="6.66287">
        <ele>2099.2</ele>
        <time>2022-02-08T10:47:05Z</time>
      </trkpt>
      <trkpt lat="45.63388" lon="6.66282">
        <ele>2100.2</ele>
        <time>2022-02-08T10:47:15Z</time>
      </trkpt>
      <trkpt lat="45.63391" lon="6.66277">
        <ele>2101.5</ele>
        <time>2022-02-08T10:47:26Z</time>
      </trkpt>
      <trkpt lat="45.63394" lon="6.66272">
        <ele>2102.1</ele>
        <time>2022-02-08T10:47:35Z</time>
      </trkpt>
      <trkpt lat="45.63398" lon="6.66267">
        <ele>2103.6</ele>
        <time>2022-02-08T10:47:49Z</time>
      </trkpt>
      <trkpt lat="45.63402" lon="6.66265">
        <ele>2106</ele>
        <time>2022-02-08T10:48:00Z</time>
      </trkpt>
      <trkpt lat="45.63407" lon="6.66263">
        <ele>2108.3</ele>
        <time>2022-02-08T10:48:10Z</time>
      </trkpt>
      <trkpt lat="45.6341" lon="6.66259">
        <ele>2109.1</ele>
        <time>2022-02-08T10:48:18Z</time>
      </trkpt>
      <trkpt lat="45.63414" lon="6.66254">
        <ele>2109.9</ele>
        <time>2022-02-08T10:48:27Z</time>
      </trkpt>
      <trkpt lat="45.63417" lon="6.66249">
        <ele>2111.3</ele>
        <time>2022-02-08T10:48:37Z</time>
      </trkpt>
      <trkpt lat="45.6342" lon="6.66243">
        <ele>2111.8</ele>
        <time>2022-02-08T10:48:46Z</time>
      </trkpt>
      <trkpt lat="45.63423" lon="6.66238">
        <ele>2112.9</ele>
        <time>2022-02-08T10:48:55Z</time>
      </trkpt>
      <trkpt lat="45.63427" lon="6.66233">
        <ele>2114.1</ele>
        <time>2022-02-08T10:49:02Z</time>
      </trkpt>
      <trkpt lat="45.63431" lon="6.6623">
        <ele>2117</ele>
        <time>2022-02-08T10:49:11Z</time>
      </trkpt>
      <trkpt lat="45.63435" lon="6.66226">
        <ele>2118.3</ele>
        <time>2022-02-08T10:49:19Z</time>
      </trkpt>
      <trkpt lat="45.63439" lon="6.66222">
        <ele>2119.6</ele>
        <time>2022-02-08T10:49:27Z</time>
      </trkpt>
      <trkpt lat="45.63444" lon="6.6622">
        <ele>2120.9</ele>
        <time>2022-02-08T10:49:35Z</time>
      </trkpt>
      <trkpt lat="45.63448" lon="6.66217">
        <ele>2121.7</ele>
        <time>2022-02-08T10:49:42Z</time>
      </trkpt>
      <trkpt lat="45.63452" lon="6.66214">
        <ele>2122.6</ele>
        <time>2022-02-08T10:49:48Z</time>
      </trkpt>
      <trkpt lat="45.63456" lon="6.66211">
        <ele>2123.4</ele>
        <time>2022-02-08T10:49:54Z</time>
      </trkpt>
      <trkpt lat="45.63461" lon="6.66208">
        <ele>2123.6</ele>
        <time>2022-02-08T10:50:00Z</time>
      </trkpt>
      <trkpt lat="45.63465" lon="6.66206">
        <ele>2124.4</ele>
        <time>2022-02-08T10:50:07Z</time>
      </trkpt>
      <trkpt lat="45.6347" lon="6.66204">
        <ele>2124.4</ele>
        <time>2022-02-08T10:50:13Z</time>
      </trkpt>
      <trkpt lat="45.63475" lon="6.66201">
        <ele>2125.5</ele>
        <time>2022-02-08T10:50:20Z</time>
      </trkpt>
      <trkpt lat="45.63479" lon="6.66198">
        <ele>2125.9</ele>
        <time>2022-02-08T10:50:27Z</time>
      </trkpt>
      <trkpt lat="45.63484" lon="6.66196">
        <ele>2126.5</ele>
        <time>2022-02-08T10:50:36Z</time>
      </trkpt>
      <trkpt lat="45.63489" lon="6.66195">
        <ele>2128.1</ele>
        <time>2022-02-08T10:50:46Z</time>
      </trkpt>
      <trkpt lat="45.63494" lon="6.66196">
        <ele>2128.7</ele>
        <time>2022-02-08T10:50:55Z</time>
      </trkpt>
      <trkpt lat="45.63498" lon="6.66197">
        <ele>2129</ele>
        <time>2022-02-08T10:51:04Z</time>
      </trkpt>
      <trkpt lat="45.63503" lon="6.66197">
        <ele>2129.3</ele>
        <time>2022-02-08T10:51:15Z</time>
      </trkpt>
      <trkpt lat="45.63508" lon="6.66198">
        <ele>2130.3</ele>
        <time>2022-02-08T10:51:26Z</time>
      </trkpt>
      <trkpt lat="45.6351" lon="6.66192">
        <ele>2130.7</ele>
        <time>2022-02-08T10:51:35Z</time>
      </trkpt>
      <trkpt lat="45.63512" lon="6.66186">
        <ele>2131.3</ele>
        <time>2022-02-08T10:51:44Z</time>
      </trkpt>
      <trkpt lat="45.63513" lon="6.66179">
        <ele>2132.2</ele>
        <time>2022-02-08T10:51:53Z</time>
      </trkpt>
      <trkpt lat="45.63518" lon="6.66176">
        <ele>2134.4</ele>
        <time>2022-02-08T10:52:05Z</time>
      </trkpt>
      <trkpt lat="45.63522" lon="6.66176">
        <ele>2136.1</ele>
        <time>2022-02-08T10:52:15Z</time>
      </trkpt>
      <trkpt lat="45.63527" lon="6.6618">
        <ele>2138.5</ele>
        <time>2022-02-08T10:52:26Z</time>
      </trkpt>
      <trkpt lat="45.6353" lon="6.66185">
        <ele>2140.3</ele>
        <time>2022-02-08T10:52:37Z</time>
      </trkpt>
      <trkpt lat="45.63533" lon="6.66189">
        <ele>2141.8</ele>
        <time>2022-02-08T10:52:47Z</time>
      </trkpt>
      <trkpt lat="45.63537" lon="6.66194">
        <ele>2143.3</ele>
        <time>2022-02-08T10:52:58Z</time>
      </trkpt>
      <trkpt lat="45.6354" lon="6.66199">
        <ele>2146.5</ele>
        <time>2022-02-08T10:53:09Z</time>
      </trkpt>
      <trkpt lat="45.63544" lon="6.66201">
        <ele>2148.7</ele>
        <time>2022-02-08T10:53:18Z</time>
      </trkpt>
      <trkpt lat="45.63549" lon="6.66201">
        <ele>2148.8</ele>
        <time>2022-02-08T10:53:25Z</time>
      </trkpt>
      <trkpt lat="45.63554" lon="6.66201">
        <ele>2148.9</ele>
        <time>2022-02-08T10:53:32Z</time>
      </trkpt>
      <trkpt lat="45.63558" lon="6.662">
        <ele>2149.4</ele>
        <time>2022-02-08T10:53:38Z</time>
      </trkpt>
      <trkpt lat="45.63563" lon="6.66197">
        <ele>2150.6</ele>
        <time>2022-02-08T10:53:44Z</time>
      </trkpt>
      <trkpt lat="45.63567" lon="6.66196">
        <ele>2152.3</ele>
        <time>2022-02-08T10:53:50Z</time>
      </trkpt>
      <trkpt lat="45.63572" lon="6.66193">
        <ele>2153.4</ele>
        <time>2022-02-08T10:53:56Z</time>
      </trkpt>
      <trkpt lat="45.63577" lon="6.66192">
        <ele>2154.1</ele>
        <time>2022-02-08T10:54:02Z</time>
      </trkpt>
      <trkpt lat="45.63581" lon="6.6619">
        <ele>2154.6</ele>
        <time>2022-02-08T10:54:08Z</time>
      </trkpt>
      <trkpt lat="45.63586" lon="6.6619">
        <ele>2154.9</ele>
        <time>2022-02-08T10:54:14Z</time>
      </trkpt>
      <trkpt lat="45.63591" lon="6.66191">
        <ele>2155.4</ele>
        <time>2022-02-08T10:54:20Z</time>
      </trkpt>
      <trkpt lat="45.63596" lon="6.66191">
        <ele>2156.6</ele>
        <time>2022-02-08T10:54:26Z</time>
      </trkpt>
      <trkpt lat="45.63601" lon="6.66192">
        <ele>2156.7</ele>
        <time>2022-02-08T10:54:31Z</time>
      </trkpt>
      <trkpt lat="45.63605" lon="6.66192">
        <ele>2156.4</ele>
        <time>2022-02-08T10:54:36Z</time>
      </trkpt>
      <trkpt lat="45.6361" lon="6.66191">
        <ele>2156</ele>
        <time>2022-02-08T10:54:41Z</time>
      </trkpt>
      <trkpt lat="45.63616" lon="6.66189">
        <ele>2155.9</ele>
        <time>2022-02-08T10:54:47Z</time>
      </trkpt>
      <trkpt lat="45.63621" lon="6.66187">
        <ele>2156.2</ele>
        <time>2022-02-08T10:54:53Z</time>
      </trkpt>
      <trkpt lat="45.63625" lon="6.66184">
        <ele>2157.6</ele>
        <time>2022-02-08T10:55:00Z</time>
      </trkpt>
      <trkpt lat="45.6363" lon="6.66181">
        <ele>2158.2</ele>
        <time>2022-02-08T10:55:06Z</time>
      </trkpt>
      <trkpt lat="45.63634" lon="6.66179">
        <ele>2158.6</ele>
        <time>2022-02-08T10:55:12Z</time>
      </trkpt>
      <trkpt lat="45.63639" lon="6.66178">
        <ele>2159.3</ele>
        <time>2022-02-08T10:55:20Z</time>
      </trkpt>
      <trkpt lat="45.63644" lon="6.66177">
        <ele>2159.9</ele>
        <time>2022-02-08T10:55:27Z</time>
      </trkpt>
      <trkpt lat="45.63649" lon="6.66176">
        <ele>2161</ele>
        <time>2022-02-08T10:55:34Z</time>
      </trkpt>
      <trkpt lat="45.63654" lon="6.66175">
        <ele>2161.8</ele>
        <time>2022-02-08T10:55:42Z</time>
      </trkpt>
      <trkpt lat="45.63658" lon="6.66177">
        <ele>2162.1</ele>
        <time>2022-02-08T10:55:50Z</time>
      </trkpt>
      <trkpt lat="45.63662" lon="6.66181">
        <ele>2162.8</ele>
        <time>2022-02-08T10:55:59Z</time>
      </trkpt>
      <trkpt lat="45.63665" lon="6.66186">
        <ele>2164</ele>
        <time>2022-02-08T10:56:08Z</time>
      </trkpt>
      <trkpt lat="45.63669" lon="6.66189">
        <ele>2164.4</ele>
        <time>2022-02-08T10:56:16Z</time>
      </trkpt>
      <trkpt lat="45.63674" lon="6.66192">
        <ele>2165.6</ele>
        <time>2022-02-08T10:56:24Z</time>
      </trkpt>
      <trkpt lat="45.63678" lon="6.66193">
        <ele>2166.1</ele>
        <time>2022-02-08T10:56:31Z</time>
      </trkpt>
      <trkpt lat="45.63683" lon="6.66193">
        <ele>2166.6</ele>
        <time>2022-02-08T10:56:38Z</time>
      </trkpt>
      <trkpt lat="45.63688" lon="6.66195">
        <ele>2167.8</ele>
        <time>2022-02-08T10:56:47Z</time>
      </trkpt>
      <trkpt lat="45.63692" lon="6.66199">
        <ele>2168.5</ele>
        <time>2022-02-08T10:56:56Z</time>
      </trkpt>
      <trkpt lat="45.63696" lon="6.66203">
        <ele>2169.3</ele>
        <time>2022-02-08T10:57:05Z</time>
      </trkpt>
      <trkpt lat="45.63701" lon="6.66206">
        <ele>2170</ele>
        <time>2022-02-08T10:57:13Z</time>
      </trkpt>
      <trkpt lat="45.63704" lon="6.6621">
        <ele>2170.9</ele>
        <time>2022-02-08T10:57:20Z</time>
      </trkpt>
      <trkpt lat="45.63708" lon="6.66215">
        <ele>2172.2</ele>
        <time>2022-02-08T10:57:28Z</time>
      </trkpt>
      <trkpt lat="45.63712" lon="6.66219">
        <ele>2173.3</ele>
        <time>2022-02-08T10:57:36Z</time>
      </trkpt>
      <trkpt lat="45.63715" lon="6.66223">
        <ele>2174.3</ele>
        <time>2022-02-08T10:57:43Z</time>
      </trkpt>
      <trkpt lat="45.63719" lon="6.66227">
        <ele>2175.5</ele>
        <time>2022-02-08T10:57:50Z</time>
      </trkpt>
      <trkpt lat="45.63723" lon="6.6623">
        <ele>2176.7</ele>
        <time>2022-02-08T10:57:57Z</time>
      </trkpt>
      <trkpt lat="45.63728" lon="6.66233">
        <ele>2177.1</ele>
        <time>2022-02-08T10:58:03Z</time>
      </trkpt>
      <trkpt lat="45.63732" lon="6.66237">
        <ele>2177.8</ele>
        <time>2022-02-08T10:58:11Z</time>
      </trkpt>
      <trkpt lat="45.63736" lon="6.66239">
        <ele>2178.1</ele>
        <time>2022-02-08T10:58:18Z</time>
      </trkpt>
      <trkpt lat="45.63741" lon="6.66241">
        <ele>2178.7</ele>
        <time>2022-02-08T10:58:25Z</time>
      </trkpt>
      <trkpt lat="45.63746" lon="6.66243">
        <ele>2180.4</ele>
        <time>2022-02-08T10:58:33Z</time>
      </trkpt>
      <trkpt lat="45.6375" lon="6.66246">
        <ele>2181.3</ele>
        <time>2022-02-08T10:58:40Z</time>
      </trkpt>
      <trkpt lat="45.63753" lon="6.66251">
        <ele>2182.7</ele>
        <time>2022-02-08T10:58:48Z</time>
      </trkpt>
      <trkpt lat="45.63758" lon="6.66253">
        <ele>2183.5</ele>
        <time>2022-02-08T10:58:56Z</time>
      </trkpt>
      <trkpt lat="45.63762" lon="6.66253">
        <ele>2183.3</ele>
        <time>2022-02-08T10:59:03Z</time>
      </trkpt>
      <trkpt lat="45.63767" lon="6.66253">
        <ele>2182.9</ele>
        <time>2022-02-08T10:59:11Z</time>
      </trkpt>
      <trkpt lat="45.63772" lon="6.66256">
        <ele>2184.3</ele>
        <time>2022-02-08T10:59:21Z</time>
      </trkpt>
      <trkpt lat="45.63776" lon="6.66258">
        <ele>2185.6</ele>
        <time>2022-02-08T10:59:29Z</time>
      </trkpt>
      <trkpt lat="45.63781" lon="6.66257">
        <ele>2186.4</ele>
        <time>2022-02-08T10:59:37Z</time>
      </trkpt>
      <trkpt lat="45.63786" lon="6.66258">
        <ele>2187.5</ele>
        <time>2022-02-08T10:59:45Z</time>
      </trkpt>
      <trkpt lat="45.63791" lon="6.66259">
        <ele>2188.2</ele>
        <time>2022-02-08T10:59:54Z</time>
      </trkpt>
      <trkpt lat="45.63796" lon="6.6626">
        <ele>2188.4</ele>
        <time>2022-02-08T11:00:01Z</time>
      </trkpt>
      <trkpt lat="45.638" lon="6.66263">
        <ele>2189.5</ele>
        <time>2022-02-08T11:00:09Z</time>
      </trkpt>
      <trkpt lat="45.63805" lon="6.66265">
        <ele>2190.2</ele>
        <time>2022-02-08T11:00:17Z</time>
      </trkpt>
      <trkpt lat="45.6381" lon="6.66265">
        <ele>2191.3</ele>
        <time>2022-02-08T11:00:25Z</time>
      </trkpt>
      <trkpt lat="45.63815" lon="6.66265">
        <ele>2192.4</ele>
        <time>2022-02-08T11:00:33Z</time>
      </trkpt>
      <trkpt lat="45.6382" lon="6.66265">
        <ele>2193.9</ele>
        <time>2022-02-08T11:00:41Z</time>
      </trkpt>
      <trkpt lat="45.63825" lon="6.66266">
        <ele>2194.9</ele>
        <time>2022-02-08T11:00:49Z</time>
      </trkpt>
      <trkpt lat="45.63829" lon="6.66264">
        <ele>2195.8</ele>
        <time>2022-02-08T11:00:56Z</time>
      </trkpt>
      <trkpt lat="45.63832" lon="6.6626">
        <ele>2197.3</ele>
        <time>2022-02-08T11:01:05Z</time>
      </trkpt>
      <trkpt lat="45.63835" lon="6.66254">
        <ele>2199.5</ele>
        <time>2022-02-08T11:01:14Z</time>
      </trkpt>
      <trkpt lat="45.63839" lon="6.66251">
        <ele>2200.8</ele>
        <time>2022-02-08T11:01:23Z</time>
      </trkpt>
      <trkpt lat="45.63844" lon="6.66251">
        <ele>2202.4</ele>
        <time>2022-02-08T11:01:32Z</time>
      </trkpt>
      <trkpt lat="45.63849" lon="6.66252">
        <ele>2203.8</ele>
        <time>2022-02-08T11:01:41Z</time>
      </trkpt>
      <trkpt lat="45.63853" lon="6.66252">
        <ele>2204.8</ele>
        <time>2022-02-08T11:01:50Z</time>
      </trkpt>
      <trkpt lat="45.63858" lon="6.66252">
        <ele>2205.9</ele>
        <time>2022-02-08T11:01:58Z</time>
      </trkpt>
      <trkpt lat="45.63863" lon="6.66252">
        <ele>2206.9</ele>
        <time>2022-02-08T11:02:06Z</time>
      </trkpt>
      <trkpt lat="45.63868" lon="6.66253">
        <ele>2208.5</ele>
        <time>2022-02-08T11:02:15Z</time>
      </trkpt>
      <trkpt lat="45.63873" lon="6.66254">
        <ele>2209.5</ele>
        <time>2022-02-08T11:02:23Z</time>
      </trkpt>
      <trkpt lat="45.63877" lon="6.66251">
        <ele>2211.1</ele>
        <time>2022-02-08T11:02:29Z</time>
      </trkpt>
      <trkpt lat="45.63881" lon="6.66247">
        <ele>2212.6</ele>
        <time>2022-02-08T11:02:37Z</time>
      </trkpt>
      <trkpt lat="45.63886" lon="6.66245">
        <ele>2213</ele>
        <time>2022-02-08T11:02:44Z</time>
      </trkpt>
      <trkpt lat="45.63891" lon="6.66246">
        <ele>2213.9</ele>
        <time>2022-02-08T11:02:53Z</time>
      </trkpt>
      <trkpt lat="45.63895" lon="6.66247">
        <ele>2214.9</ele>
        <time>2022-02-08T11:03:01Z</time>
      </trkpt>
      <trkpt lat="45.639" lon="6.66247">
        <ele>2216.2</ele>
        <time>2022-02-08T11:03:09Z</time>
      </trkpt>
      <trkpt lat="45.63904" lon="6.66248">
        <ele>2217.4</ele>
        <time>2022-02-08T11:03:16Z</time>
      </trkpt>
      <trkpt lat="45.63909" lon="6.66249">
        <ele>2218.1</ele>
        <time>2022-02-08T11:03:23Z</time>
      </trkpt>
      <trkpt lat="45.63914" lon="6.66251">
        <ele>2219.3</ele>
        <time>2022-02-08T11:03:32Z</time>
      </trkpt>
      <trkpt lat="45.63919" lon="6.6625">
        <ele>2219.7</ele>
        <time>2022-02-08T11:03:39Z</time>
      </trkpt>
      <trkpt lat="45.63923" lon="6.6625">
        <ele>2220.3</ele>
        <time>2022-02-08T11:03:47Z</time>
      </trkpt>
      <trkpt lat="45.63928" lon="6.66249">
        <ele>2221.3</ele>
        <time>2022-02-08T11:03:55Z</time>
      </trkpt>
      <trkpt lat="45.63933" lon="6.66249">
        <ele>2223.5</ele>
        <time>2022-02-08T11:04:03Z</time>
      </trkpt>
      <trkpt lat="45.63938" lon="6.66249">
        <ele>2225.4</ele>
        <time>2022-02-08T11:04:11Z</time>
      </trkpt>
      <trkpt lat="45.63943" lon="6.66248">
        <ele>2228.2</ele>
        <time>2022-02-08T11:04:20Z</time>
      </trkpt>
      <trkpt lat="45.63947" lon="6.66248">
        <ele>2230.5</ele>
        <time>2022-02-08T11:04:29Z</time>
      </trkpt>
      <trkpt lat="45.63953" lon="6.66248">
        <ele>2231.4</ele>
        <time>2022-02-08T11:04:38Z</time>
      </trkpt>
      <trkpt lat="45.63957" lon="6.66251">
        <ele>2233.1</ele>
        <time>2022-02-08T11:04:47Z</time>
      </trkpt>
      <trkpt lat="45.63961" lon="6.66253">
        <ele>2233.7</ele>
        <time>2022-02-08T11:04:55Z</time>
      </trkpt>
      <trkpt lat="45.63966" lon="6.66256">
        <ele>2233.7</ele>
        <time>2022-02-08T11:05:03Z</time>
      </trkpt>
      <trkpt lat="45.6397" lon="6.66257">
        <ele>2233.6</ele>
        <time>2022-02-08T11:05:11Z</time>
      </trkpt>
      <trkpt lat="45.63975" lon="6.66257">
        <ele>2234.6</ele>
        <time>2022-02-08T11:05:18Z</time>
      </trkpt>
      <trkpt lat="45.6398" lon="6.66258">
        <ele>2235.5</ele>
        <time>2022-02-08T11:05:27Z</time>
      </trkpt>
      <trkpt lat="45.63985" lon="6.66259">
        <ele>2236.9</ele>
        <time>2022-02-08T11:05:36Z</time>
      </trkpt>
      <trkpt lat="45.6399" lon="6.6626">
        <ele>2237.8</ele>
        <time>2022-02-08T11:05:44Z</time>
      </trkpt>
      <trkpt lat="45.63994" lon="6.66259">
        <ele>2238.2</ele>
        <time>2022-02-08T11:05:51Z</time>
      </trkpt>
      <trkpt lat="45.63999" lon="6.6626">
        <ele>2238.5</ele>
        <time>2022-02-08T11:06:00Z</time>
      </trkpt>
      <trkpt lat="45.64004" lon="6.6626">
        <ele>2240</ele>
        <time>2022-02-08T11:06:07Z</time>
      </trkpt>
      <trkpt lat="45.64008" lon="6.66262">
        <ele>2240.7</ele>
        <time>2022-02-08T11:06:16Z</time>
      </trkpt>
      <trkpt lat="45.64013" lon="6.66261">
        <ele>2241.5</ele>
        <time>2022-02-08T11:06:24Z</time>
      </trkpt>
      <trkpt lat="45.64018" lon="6.66261">
        <ele>2241.5</ele>
        <time>2022-02-08T11:06:32Z</time>
      </trkpt>
      <trkpt lat="45.64022" lon="6.66264">
        <ele>2243.7</ele>
        <time>2022-02-08T11:06:42Z</time>
      </trkpt>
      <trkpt lat="45.64027" lon="6.66266">
        <ele>2245.5</ele>
        <time>2022-02-08T11:06:51Z</time>
      </trkpt>
      <trkpt lat="45.64031" lon="6.66267">
        <ele>2247.7</ele>
        <time>2022-02-08T11:07:01Z</time>
      </trkpt>
      <trkpt lat="45.64036" lon="6.66268">
        <ele>2248.9</ele>
        <time>2022-02-08T11:07:10Z</time>
      </trkpt>
      <trkpt lat="45.64041" lon="6.66269">
        <ele>2249.8</ele>
        <time>2022-02-08T11:07:18Z</time>
      </trkpt>
      <trkpt lat="45.64046" lon="6.66268">
        <ele>2250.9</ele>
        <time>2022-02-08T11:07:26Z</time>
      </trkpt>
      <trkpt lat="45.64051" lon="6.6627">
        <ele>2253.6</ele>
        <time>2022-02-08T11:07:38Z</time>
      </trkpt>
      <trkpt lat="45.64056" lon="6.66271">
        <ele>2254.7</ele>
        <time>2022-02-08T11:07:47Z</time>
      </trkpt>
      <trkpt lat="45.64061" lon="6.66273">
        <ele>2256.1</ele>
        <time>2022-02-08T11:07:56Z</time>
      </trkpt>
      <trkpt lat="45.64066" lon="6.66273">
        <ele>2257.2</ele>
        <time>2022-02-08T11:08:06Z</time>
      </trkpt>
      <trkpt lat="45.6407" lon="6.66276">
        <ele>2258.1</ele>
        <time>2022-02-08T11:08:13Z</time>
      </trkpt>
      <trkpt lat="45.64074" lon="6.6628">
        <ele>2259.2</ele>
        <time>2022-02-08T11:08:20Z</time>
      </trkpt>
      <trkpt lat="45.64078" lon="6.66283">
        <ele>2260.5</ele>
        <time>2022-02-08T11:08:28Z</time>
      </trkpt>
      <trkpt lat="45.64082" lon="6.66287">
        <ele>2262.4</ele>
        <time>2022-02-08T11:08:36Z</time>
      </trkpt>
      <trkpt lat="45.64086" lon="6.66291">
        <ele>2264.2</ele>
        <time>2022-02-08T11:08:43Z</time>
      </trkpt>
      <trkpt lat="45.64091" lon="6.66293">
        <ele>2265.4</ele>
        <time>2022-02-08T11:08:51Z</time>
      </trkpt>
      <trkpt lat="45.64095" lon="6.66292">
        <ele>2265.8</ele>
        <time>2022-02-08T11:08:58Z</time>
      </trkpt>
      <trkpt lat="45.641" lon="6.66291">
        <ele>2266.1</ele>
        <time>2022-02-08T11:09:06Z</time>
      </trkpt>
      <trkpt lat="45.64105" lon="6.6629">
        <ele>2267.4</ele>
        <time>2022-02-08T11:09:16Z</time>
      </trkpt>
      <trkpt lat="45.6411" lon="6.66289">
        <ele>2268.6</ele>
        <time>2022-02-08T11:09:26Z</time>
      </trkpt>
      <trkpt lat="45.64114" lon="6.66288">
        <ele>2268.6</ele>
        <time>2022-02-08T11:09:34Z</time>
      </trkpt>
      <trkpt lat="45.64119" lon="6.66287">
        <ele>2268.5</ele>
        <time>2022-02-08T11:09:44Z</time>
      </trkpt>
      <trkpt lat="45.64124" lon="6.66285">
        <ele>2268.8</ele>
        <time>2022-02-08T11:09:53Z</time>
      </trkpt>
      <trkpt lat="45.64129" lon="6.66285">
        <ele>2270.5</ele>
        <time>2022-02-08T11:10:03Z</time>
      </trkpt>
      <trkpt lat="45.64134" lon="6.66284">
        <ele>2272.9</ele>
        <time>2022-02-08T11:10:13Z</time>
      </trkpt>
      <trkpt lat="45.64139" lon="6.66284">
        <ele>2273.4</ele>
        <time>2022-02-08T11:10:22Z</time>
      </trkpt>
      <trkpt lat="45.64143" lon="6.66286">
        <ele>2274.7</ele>
        <time>2022-02-08T11:10:32Z</time>
      </trkpt>
      <trkpt lat="45.64148" lon="6.66286">
        <ele>2276.5</ele>
        <time>2022-02-08T11:10:42Z</time>
      </trkpt>
      <trkpt lat="45.64152" lon="6.66288">
        <ele>2278.9</ele>
        <time>2022-02-08T11:10:53Z</time>
      </trkpt>
      <trkpt lat="45.64157" lon="6.6629">
        <ele>2279.7</ele>
        <time>2022-02-08T11:11:01Z</time>
      </trkpt>
      <trkpt lat="45.64161" lon="6.66291">
        <ele>2280.8</ele>
        <time>2022-02-08T11:11:09Z</time>
      </trkpt>
      <trkpt lat="45.64166" lon="6.66293">
        <ele>2281.7</ele>
        <time>2022-02-08T11:11:17Z</time>
      </trkpt>
      <trkpt lat="45.6417" lon="6.66295">
        <ele>2283.3</ele>
        <time>2022-02-08T11:11:25Z</time>
      </trkpt>
      <trkpt lat="45.64175" lon="6.66297">
        <ele>2284.6</ele>
        <time>2022-02-08T11:11:33Z</time>
      </trkpt>
      <trkpt lat="45.64179" lon="6.663">
        <ele>2286.6</ele>
        <time>2022-02-08T11:11:42Z</time>
      </trkpt>
      <trkpt lat="45.64183" lon="6.66304">
        <ele>2288.6</ele>
        <time>2022-02-08T11:11:53Z</time>
      </trkpt>
      <trkpt lat="45.64188" lon="6.66307">
        <ele>2290</ele>
        <time>2022-02-08T11:12:03Z</time>
      </trkpt>
      <trkpt lat="45.64192" lon="6.66309">
        <ele>2290.9</ele>
        <time>2022-02-08T11:12:11Z</time>
      </trkpt>
      <trkpt lat="45.64197" lon="6.66311">
        <ele>2291.7</ele>
        <time>2022-02-08T11:12:21Z</time>
      </trkpt>
      <trkpt lat="45.64202" lon="6.66312">
        <ele>2292.8</ele>
        <time>2022-02-08T11:12:30Z</time>
      </trkpt>
      <trkpt lat="45.64207" lon="6.66313">
        <ele>2293.4</ele>
        <time>2022-02-08T11:12:39Z</time>
      </trkpt>
      <trkpt lat="45.6421" lon="6.66307">
        <ele>2293.7</ele>
        <time>2022-02-08T11:12:49Z</time>
      </trkpt>
      <trkpt lat="45.64212" lon="6.66301">
        <ele>2293.1</ele>
        <time>2022-02-08T11:12:58Z</time>
      </trkpt>
      <trkpt lat="45.64217" lon="6.66303">
        <ele>2295.8</ele>
        <time>2022-02-08T11:13:12Z</time>
      </trkpt>
      <trkpt lat="45.64221" lon="6.66307">
        <ele>2299.1</ele>
        <time>2022-02-08T11:13:24Z</time>
      </trkpt>
      <trkpt lat="45.64225" lon="6.66311">
        <ele>2302</ele>
        <time>2022-02-08T11:13:36Z</time>
      </trkpt>
      <trkpt lat="45.64228" lon="6.66314">
        <ele>2303.5</ele>
        <time>2022-02-08T11:13:47Z</time>
      </trkpt>
      <trkpt lat="45.64232" lon="6.66319">
        <ele>2305.3</ele>
        <time>2022-02-08T11:13:57Z</time>
      </trkpt>
      <trkpt lat="45.64236" lon="6.66322">
        <ele>2306.9</ele>
        <time>2022-02-08T11:14:07Z</time>
      </trkpt>
      <trkpt lat="45.6424" lon="6.66323">
        <ele>2308.7</ele>
        <time>2022-02-08T11:14:19Z</time>
      </trkpt>
      <trkpt lat="45.64245" lon="6.66324">
        <ele>2310.2</ele>
        <time>2022-02-08T11:14:28Z</time>
      </trkpt>
      <trkpt lat="45.6425" lon="6.66324">
        <ele>2310.9</ele>
        <time>2022-02-08T11:14:36Z</time>
      </trkpt>
      <trkpt lat="45.64254" lon="6.66324">
        <ele>2311.3</ele>
        <time>2022-02-08T11:14:45Z</time>
      </trkpt>
      <trkpt lat="45.64259" lon="6.66323">
        <ele>2312.1</ele>
        <time>2022-02-08T11:14:54Z</time>
      </trkpt>
      <trkpt lat="45.64263" lon="6.66323">
        <ele>2312.9</ele>
        <time>2022-02-08T11:15:02Z</time>
      </trkpt>
      <trkpt lat="45.64268" lon="6.66322">
        <ele>2315</ele>
        <time>2022-02-08T11:15:12Z</time>
      </trkpt>
      <trkpt lat="45.64273" lon="6.66322">
        <ele>2316.3</ele>
        <time>2022-02-08T11:15:23Z</time>
      </trkpt>
      <trkpt lat="45.64277" lon="6.66321">
        <ele>2318.3</ele>
        <time>2022-02-08T11:15:35Z</time>
      </trkpt>
      <trkpt lat="45.64282" lon="6.6632">
        <ele>2318.9</ele>
        <time>2022-02-08T11:15:45Z</time>
      </trkpt>
      <trkpt lat="45.64287" lon="6.66319">
        <ele>2320.3</ele>
        <time>2022-02-08T11:15:54Z</time>
      </trkpt>
      <trkpt lat="45.64292" lon="6.66319">
        <ele>2321.6</ele>
        <time>2022-02-08T11:16:03Z</time>
      </trkpt>
      <trkpt lat="45.64297" lon="6.66319">
        <ele>2322.4</ele>
        <time>2022-02-08T11:16:12Z</time>
      </trkpt>
      <trkpt lat="45.64301" lon="6.66319">
        <ele>2322.8</ele>
        <time>2022-02-08T11:16:20Z</time>
      </trkpt>
      <trkpt lat="45.64306" lon="6.66319">
        <ele>2323.5</ele>
        <time>2022-02-08T11:16:28Z</time>
      </trkpt>
      <trkpt lat="45.64311" lon="6.66321">
        <ele>2324.7</ele>
        <time>2022-02-08T11:16:36Z</time>
      </trkpt>
      <trkpt lat="45.64316" lon="6.66321">
        <ele>2326</ele>
        <time>2022-02-08T11:16:44Z</time>
      </trkpt>
      <trkpt lat="45.6432" lon="6.66321">
        <ele>2327.2</ele>
        <time>2022-02-08T11:16:52Z</time>
      </trkpt>
      <trkpt lat="45.64325" lon="6.66322">
        <ele>2328.4</ele>
        <time>2022-02-08T11:16:59Z</time>
      </trkpt>
      <trkpt lat="45.6433" lon="6.66323">
        <ele>2330.1</ele>
        <time>2022-02-08T11:17:07Z</time>
      </trkpt>
      <trkpt lat="45.64334" lon="6.66324">
        <ele>2331.4</ele>
        <time>2022-02-08T11:17:16Z</time>
      </trkpt>
      <trkpt lat="45.64339" lon="6.66324">
        <ele>2331.7</ele>
        <time>2022-02-08T11:17:25Z</time>
      </trkpt>
      <trkpt lat="45.64344" lon="6.66324">
        <ele>2331.9</ele>
        <time>2022-02-08T11:17:32Z</time>
      </trkpt>
      <trkpt lat="45.64349" lon="6.66325">
        <ele>2332.1</ele>
        <time>2022-02-08T11:17:40Z</time>
      </trkpt>
      <trkpt lat="45.64353" lon="6.66326">
        <ele>2332.7</ele>
        <time>2022-02-08T11:17:48Z</time>
      </trkpt>
      <trkpt lat="45.64358" lon="6.66327">
        <ele>2333.2</ele>
        <time>2022-02-08T11:17:55Z</time>
      </trkpt>
      <trkpt lat="45.64363" lon="6.66328">
        <ele>2333.7</ele>
        <time>2022-02-08T11:18:02Z</time>
      </trkpt>
      <trkpt lat="45.64367" lon="6.6633">
        <ele>2334.6</ele>
        <time>2022-02-08T11:18:09Z</time>
      </trkpt>
      <trkpt lat="45.64372" lon="6.66332">
        <ele>2335.1</ele>
        <time>2022-02-08T11:18:17Z</time>
      </trkpt>
      <trkpt lat="45.64376" lon="6.66335">
        <ele>2336.9</ele>
        <time>2022-02-08T11:18:26Z</time>
      </trkpt>
      <trkpt lat="45.6438" lon="6.66338">
        <ele>2338.2</ele>
        <time>2022-02-08T11:18:35Z</time>
      </trkpt>
      <trkpt lat="45.64384" lon="6.66342">
        <ele>2339.5</ele>
        <time>2022-02-08T11:18:45Z</time>
      </trkpt>
      <trkpt lat="45.64388" lon="6.66345">
        <ele>2340.4</ele>
        <time>2022-02-08T11:18:55Z</time>
      </trkpt>
      <trkpt lat="45.64393" lon="6.66347">
        <ele>2341.2</ele>
        <time>2022-02-08T11:19:04Z</time>
      </trkpt>
      <trkpt lat="45.64397" lon="6.6635">
        <ele>2342.1</ele>
        <time>2022-02-08T11:19:12Z</time>
      </trkpt>
      <trkpt lat="45.64401" lon="6.66352">
        <ele>2342.7</ele>
        <time>2022-02-08T11:19:20Z</time>
      </trkpt>
      <trkpt lat="45.64406" lon="6.66355">
        <ele>2344.4</ele>
        <time>2022-02-08T11:19:29Z</time>
      </trkpt>
      <trkpt lat="45.6441" lon="6.66356">
        <ele>2345.3</ele>
        <time>2022-02-08T11:19:38Z</time>
      </trkpt>
      <trkpt lat="45.64415" lon="6.66359">
        <ele>2347</ele>
        <time>2022-02-08T11:19:47Z</time>
      </trkpt>
      <trkpt lat="45.64419" lon="6.66362">
        <ele>2348.6</ele>
        <time>2022-02-08T11:19:57Z</time>
      </trkpt>
      <trkpt lat="45.64424" lon="6.66364">
        <ele>2349.9</ele>
        <time>2022-02-08T11:20:06Z</time>
      </trkpt>
      <trkpt lat="45.64428" lon="6.66366">
        <ele>2351.2</ele>
        <time>2022-02-08T11:20:15Z</time>
      </trkpt>
      <trkpt lat="45.64433" lon="6.66369">
        <ele>2351.7</ele>
        <time>2022-02-08T11:20:24Z</time>
      </trkpt>
      <trkpt lat="45.64437" lon="6.6637">
        <ele>2352.7</ele>
        <time>2022-02-08T11:20:33Z</time>
      </trkpt>
      <trkpt lat="45.64442" lon="6.66371">
        <ele>2354.4</ele>
        <time>2022-02-08T11:20:44Z</time>
      </trkpt>
      <trkpt lat="45.64446" lon="6.66375">
        <ele>2357.1</ele>
        <time>2022-02-08T11:20:56Z</time>
      </trkpt>
      <trkpt lat="45.64447" lon="6.66382">
        <ele>2359.3</ele>
        <time>2022-02-08T11:21:08Z</time>
      </trkpt>
      <trkpt lat="45.64451" lon="6.66386">
        <ele>2360.5</ele>
        <time>2022-02-08T11:21:18Z</time>
      </trkpt>
      <trkpt lat="45.64455" lon="6.66389">
        <ele>2362.2</ele>
        <time>2022-02-08T11:21:27Z</time>
      </trkpt>
      <trkpt lat="45.6446" lon="6.6639">
        <ele>2362.9</ele>
        <time>2022-02-08T11:21:36Z</time>
      </trkpt>
      <trkpt lat="45.64465" lon="6.66389">
        <ele>2363.6</ele>
        <time>2022-02-08T11:21:45Z</time>
      </trkpt>
      <trkpt lat="45.64467" lon="6.66383">
        <ele>2366.1</ele>
        <time>2022-02-08T11:21:53Z</time>
      </trkpt>
      <trkpt lat="45.64469" lon="6.66377">
        <ele>2367.7</ele>
        <time>2022-02-08T11:22:03Z</time>
      </trkpt>
      <trkpt lat="45.64473" lon="6.66372">
        <ele>2369</ele>
        <time>2022-02-08T11:22:13Z</time>
      </trkpt>
      <trkpt lat="45.64476" lon="6.66367">
        <ele>2370.5</ele>
        <time>2022-02-08T11:22:23Z</time>
      </trkpt>
      <trkpt lat="45.64481" lon="6.66364">
        <ele>2371.5</ele>
        <time>2022-02-08T11:22:32Z</time>
      </trkpt>
      <trkpt lat="45.64486" lon="6.66364">
        <ele>2372.1</ele>
        <time>2022-02-08T11:22:40Z</time>
      </trkpt>
      <trkpt lat="45.64491" lon="6.66363">
        <ele>2372.4</ele>
        <time>2022-02-08T11:22:49Z</time>
      </trkpt>
      <trkpt lat="45.64496" lon="6.66364">
        <ele>2372.9</ele>
        <time>2022-02-08T11:22:58Z</time>
      </trkpt>
      <trkpt lat="45.64501" lon="6.66363">
        <ele>2373.6</ele>
        <time>2022-02-08T11:23:08Z</time>
      </trkpt>
      <trkpt lat="45.64505" lon="6.66364">
        <ele>2374.5</ele>
        <time>2022-02-08T11:23:17Z</time>
      </trkpt>
      <trkpt lat="45.64511" lon="6.66364">
        <ele>2375.4</ele>
        <time>2022-02-08T11:23:26Z</time>
      </trkpt>
      <trkpt lat="45.64515" lon="6.66364">
        <ele>2376.8</ele>
        <time>2022-02-08T11:23:35Z</time>
      </trkpt>
      <trkpt lat="45.6452" lon="6.66364">
        <ele>2378</ele>
        <time>2022-02-08T11:23:44Z</time>
      </trkpt>
      <trkpt lat="45.64525" lon="6.66364">
        <ele>2379.5</ele>
        <time>2022-02-08T11:23:54Z</time>
      </trkpt>
      <trkpt lat="45.6453" lon="6.66363">
        <ele>2380.2</ele>
        <time>2022-02-08T11:24:03Z</time>
      </trkpt>
      <trkpt lat="45.64534" lon="6.66363">
        <ele>2380.9</ele>
        <time>2022-02-08T11:24:11Z</time>
      </trkpt>
      <trkpt lat="45.64539" lon="6.66362">
        <ele>2381.7</ele>
        <time>2022-02-08T11:24:19Z</time>
      </trkpt>
      <trkpt lat="45.64544" lon="6.66361">
        <ele>2382.4</ele>
        <time>2022-02-08T11:24:28Z</time>
      </trkpt>
      <trkpt lat="45.64548" lon="6.66361">
        <ele>2383</ele>
        <time>2022-02-08T11:24:38Z</time>
      </trkpt>
      <trkpt lat="45.64553" lon="6.66361">
        <ele>2384.2</ele>
        <time>2022-02-08T11:24:47Z</time>
      </trkpt>
      <trkpt lat="45.64558" lon="6.66361">
        <ele>2385.6</ele>
        <time>2022-02-08T11:24:55Z</time>
      </trkpt>
      <trkpt lat="45.64562" lon="6.66363">
        <ele>2387.5</ele>
        <time>2022-02-08T11:25:06Z</time>
      </trkpt>
      <trkpt lat="45.64567" lon="6.66363">
        <ele>2388.6</ele>
        <time>2022-02-08T11:25:15Z</time>
      </trkpt>
      <trkpt lat="45.64572" lon="6.66364">
        <ele>2389.8</ele>
        <time>2022-02-08T11:25:24Z</time>
      </trkpt>
      <trkpt lat="45.64576" lon="6.66365">
        <ele>2390.9</ele>
        <time>2022-02-08T11:25:33Z</time>
      </trkpt>
      <trkpt lat="45.64581" lon="6.66365">
        <ele>2392.6</ele>
        <time>2022-02-08T11:25:42Z</time>
      </trkpt>
      <trkpt lat="45.64586" lon="6.66366">
        <ele>2394.4</ele>
        <time>2022-02-08T11:25:51Z</time>
      </trkpt>
      <trkpt lat="45.6459" lon="6.66367">
        <ele>2395.3</ele>
        <time>2022-02-08T11:25:59Z</time>
      </trkpt>
      <trkpt lat="45.64595" lon="6.66367">
        <ele>2396.1</ele>
        <time>2022-02-08T11:26:07Z</time>
      </trkpt>
      <trkpt lat="45.646" lon="6.66369">
        <ele>2397.5</ele>
        <time>2022-02-08T11:26:15Z</time>
      </trkpt>
      <trkpt lat="45.64605" lon="6.66369">
        <ele>2397.7</ele>
        <time>2022-02-08T11:26:24Z</time>
      </trkpt>
      <trkpt lat="45.64609" lon="6.6637">
        <ele>2398.7</ele>
        <time>2022-02-08T11:26:33Z</time>
      </trkpt>
      <trkpt lat="45.64614" lon="6.66371">
        <ele>2399.6</ele>
        <time>2022-02-08T11:26:41Z</time>
      </trkpt>
      <trkpt lat="45.64619" lon="6.66371">
        <ele>2401.3</ele>
        <time>2022-02-08T11:26:51Z</time>
      </trkpt>
      <trkpt lat="45.64623" lon="6.66372">
        <ele>2402.6</ele>
        <time>2022-02-08T11:27:01Z</time>
      </trkpt>
      <trkpt lat="45.64628" lon="6.66372">
        <ele>2404.6</ele>
        <time>2022-02-08T11:27:12Z</time>
      </trkpt>
      <trkpt lat="45.64633" lon="6.66373">
        <ele>2405.8</ele>
        <time>2022-02-08T11:27:22Z</time>
      </trkpt>
      <trkpt lat="45.64637" lon="6.66374">
        <ele>2407</ele>
        <time>2022-02-08T11:27:32Z</time>
      </trkpt>
      <trkpt lat="45.64642" lon="6.66375">
        <ele>2408.1</ele>
        <time>2022-02-08T11:27:42Z</time>
      </trkpt>
      <trkpt lat="45.64647" lon="6.66375">
        <ele>2409.4</ele>
        <time>2022-02-08T11:27:52Z</time>
      </trkpt>
      <trkpt lat="45.64652" lon="6.66376">
        <ele>2410.5</ele>
        <time>2022-02-08T11:28:03Z</time>
      </trkpt>
      <trkpt lat="45.64656" lon="6.66375">
        <ele>2411.9</ele>
        <time>2022-02-08T11:28:13Z</time>
      </trkpt>
      <trkpt lat="45.64661" lon="6.66373">
        <ele>2413.2</ele>
        <time>2022-02-08T11:28:22Z</time>
      </trkpt>
      <trkpt lat="45.64664" lon="6.66368">
        <ele>2414.3</ele>
        <time>2022-02-08T11:28:30Z</time>
      </trkpt>
      <trkpt lat="45.64668" lon="6.66365">
        <ele>2415.3</ele>
        <time>2022-02-08T11:28:45Z</time>
      </trkpt>
      <trkpt lat="45.64668" lon="6.66372">
        <ele>2418.8</ele>
        <time>2022-02-08T11:29:12Z</time>
      </trkpt>
      <trkpt lat="45.64669" lon="6.66378">
        <ele>2419.8</ele>
        <time>2022-02-08T11:29:21Z</time>
      </trkpt>
      <trkpt lat="45.6467" lon="6.66385">
        <ele>2420.2</ele>
        <time>2022-02-08T11:29:31Z</time>
      </trkpt>
      <trkpt lat="45.64667" lon="6.6639">
        <ele>2422</ele>
        <time>2022-02-08T11:29:44Z</time>
      </trkpt>
      <trkpt lat="45.64665" lon="6.66396">
        <ele>2424.4</ele>
        <time>2022-02-08T11:30:17Z</time>
      </trkpt>
      <trkpt lat="45.64668" lon="6.664">
        <ele>2425.3</ele>
        <time>2022-02-08T11:30:29Z</time>
      </trkpt>
      <trkpt lat="45.64673" lon="6.66402">
        <ele>2426.3</ele>
        <time>2022-02-08T11:30:38Z</time>
      </trkpt>
      <trkpt lat="45.64678" lon="6.66404">
        <ele>2427.7</ele>
        <time>2022-02-08T11:30:49Z</time>
      </trkpt>
      <trkpt lat="45.6468" lon="6.6641">
        <ele>2430.6</ele>
        <time>2022-02-08T11:31:09Z</time>
      </trkpt>
      <trkpt lat="45.64685" lon="6.66413">
        <ele>2431.5</ele>
        <time>2022-02-08T11:31:20Z</time>
      </trkpt>
      <trkpt lat="45.64689" lon="6.66413">
        <ele>2433.4</ele>
        <time>2022-02-08T11:31:31Z</time>
      </trkpt>
      <trkpt lat="45.64694" lon="6.66416">
        <ele>2435.1</ele>
        <time>2022-02-08T11:31:44Z</time>
      </trkpt>
      <trkpt lat="45.64698" lon="6.66419">
        <ele>2436.5</ele>
        <time>2022-02-08T11:31:53Z</time>
      </trkpt>
      <trkpt lat="45.64701" lon="6.66424">
        <ele>2437.8</ele>
        <time>2022-02-08T11:32:03Z</time>
      </trkpt>
      <trkpt lat="45.64706" lon="6.66422">
        <ele>2439.6</ele>
        <time>2022-02-08T11:32:13Z</time>
      </trkpt>
      <trkpt lat="45.64708" lon="6.66416">
        <ele>2440.9</ele>
        <time>2022-02-08T11:32:23Z</time>
      </trkpt>
      <trkpt lat="45.64711" lon="6.6641">
        <ele>2442</ele>
        <time>2022-02-08T11:32:33Z</time>
      </trkpt>
      <trkpt lat="45.64713" lon="6.66404">
        <ele>2444</ele>
        <time>2022-02-08T11:32:45Z</time>
      </trkpt>
      <trkpt lat="45.64717" lon="6.66401">
        <ele>2447.2</ele>
        <time>2022-02-08T11:32:56Z</time>
      </trkpt>
      <trkpt lat="45.64722" lon="6.664">
        <ele>2449.9</ele>
        <time>2022-02-08T11:33:07Z</time>
      </trkpt>
      <trkpt lat="45.64727" lon="6.66401">
        <ele>2452.5</ele>
        <time>2022-02-08T11:33:19Z</time>
      </trkpt>
      <trkpt lat="45.6473" lon="6.66405">
        <ele>2454.1</ele>
        <time>2022-02-08T11:33:30Z</time>
      </trkpt>
      <trkpt lat="45.64732" lon="6.66411">
        <ele>2455.9</ele>
        <time>2022-02-08T11:33:40Z</time>
      </trkpt>
      <trkpt lat="45.64733" lon="6.66418">
        <ele>2457.5</ele>
        <time>2022-02-08T11:33:49Z</time>
      </trkpt>
      <trkpt lat="45.64734" lon="6.66425">
        <ele>2460.2</ele>
        <time>2022-02-08T11:34:00Z</time>
      </trkpt>
      <trkpt lat="45.64735" lon="6.66431">
        <ele>2461.9</ele>
        <time>2022-02-08T11:34:09Z</time>
      </trkpt>
      <trkpt lat="45.64736" lon="6.66438">
        <ele>2463.6</ele>
        <time>2022-02-08T11:34:19Z</time>
      </trkpt>
      <trkpt lat="45.64738" lon="6.66444">
        <ele>2464.7</ele>
        <time>2022-02-08T11:34:29Z</time>
      </trkpt>
      <trkpt lat="45.64739" lon="6.66451">
        <ele>2467</ele>
        <time>2022-02-08T11:34:40Z</time>
      </trkpt>
      <trkpt lat="45.64742" lon="6.66456">
        <ele>2468.3</ele>
        <time>2022-02-08T11:34:57Z</time>
      </trkpt>
      <trkpt lat="45.64746" lon="6.66453">
        <ele>2468.9</ele>
        <time>2022-02-08T11:35:07Z</time>
      </trkpt>
      <trkpt lat="45.64751" lon="6.66449">
        <ele>2469.1</ele>
        <time>2022-02-08T11:35:18Z</time>
      </trkpt>
      <trkpt lat="45.64755" lon="6.66447">
        <ele>2470.5</ele>
        <time>2022-02-08T11:35:34Z</time>
      </trkpt>
      <trkpt lat="45.64759" lon="6.66452">
        <ele>2472.8</ele>
        <time>2022-02-08T11:35:46Z</time>
      </trkpt>
      <trkpt lat="45.64762" lon="6.66457">
        <ele>2474</ele>
        <time>2022-02-08T11:35:57Z</time>
      </trkpt>
      <trkpt lat="45.64766" lon="6.66459">
        <ele>2475.8</ele>
        <time>2022-02-08T11:36:10Z</time>
      </trkpt>
      <trkpt lat="45.64771" lon="6.6646">
        <ele>2477.4</ele>
        <time>2022-02-08T11:36:21Z</time>
      </trkpt>
      <trkpt lat="45.64776" lon="6.6646">
        <ele>2478.6</ele>
        <time>2022-02-08T11:36:32Z</time>
      </trkpt>
      <trkpt lat="45.64781" lon="6.66461">
        <ele>2480.4</ele>
        <time>2022-02-08T11:36:44Z</time>
      </trkpt>
      <trkpt lat="45.64785" lon="6.66462">
        <ele>2481.4</ele>
        <time>2022-02-08T11:36:55Z</time>
      </trkpt>
      <trkpt lat="45.6479" lon="6.66464">
        <ele>2483.2</ele>
        <time>2022-02-08T11:37:05Z</time>
      </trkpt>
      <trkpt lat="45.64794" lon="6.66467">
        <ele>2484.9</ele>
        <time>2022-02-08T11:37:16Z</time>
      </trkpt>
      <trkpt lat="45.64799" lon="6.66468">
        <ele>2486.4</ele>
        <time>2022-02-08T11:37:26Z</time>
      </trkpt>
      <trkpt lat="45.64804" lon="6.6647">
        <ele>2488</ele>
        <time>2022-02-08T11:37:34Z</time>
      </trkpt>
      <trkpt lat="45.64809" lon="6.66471">
        <ele>2489.7</ele>
        <time>2022-02-08T11:37:43Z</time>
      </trkpt>
      <trkpt lat="45.64813" lon="6.66469">
        <ele>2490.6</ele>
        <time>2022-02-08T11:37:51Z</time>
      </trkpt>
      <trkpt lat="45.64818" lon="6.6647">
        <ele>2492.1</ele>
        <time>2022-02-08T11:39:03Z</time>
      </trkpt>
      <trkpt lat="45.64819" lon="6.66463">
        <ele>2492.1</ele>
        <time>2022-02-08T11:39:15Z</time>
      </trkpt>
      <trkpt lat="45.64821" lon="6.66457">
        <ele>2492.8</ele>
        <time>2022-02-08T11:39:23Z</time>
      </trkpt>
      <trkpt lat="45.64822" lon="6.66451">
        <ele>2494.5</ele>
        <time>2022-02-08T11:39:32Z</time>
      </trkpt>
      <trkpt lat="45.64822" lon="6.66444">
        <ele>2495.9</ele>
        <time>2022-02-08T11:39:40Z</time>
      </trkpt>
      <trkpt lat="45.64823" lon="6.66437">
        <ele>2497</ele>
        <time>2022-02-08T11:39:49Z</time>
      </trkpt>
      <trkpt lat="45.64825" lon="6.6643">
        <ele>2498.2</ele>
        <time>2022-02-08T11:40:00Z</time>
      </trkpt>
      <trkpt lat="45.64827" lon="6.66424">
        <ele>2499.1</ele>
        <time>2022-02-08T11:40:10Z</time>
      </trkpt>
      <trkpt lat="45.64828" lon="6.66418">
        <ele>2500.2</ele>
        <time>2022-02-08T11:40:19Z</time>
      </trkpt>
      <trkpt lat="45.64831" lon="6.66412">
        <ele>2501.7</ele>
        <time>2022-02-08T11:40:29Z</time>
      </trkpt>
      <trkpt lat="45.64835" lon="6.66407">
        <ele>2503.7</ele>
        <time>2022-02-08T11:40:41Z</time>
      </trkpt>
      <trkpt lat="45.64836" lon="6.66401">
        <ele>2506.6</ele>
        <time>2022-02-08T11:40:56Z</time>
      </trkpt>
      <trkpt lat="45.64834" lon="6.66395">
        <ele>2508.4</ele>
        <time>2022-02-08T11:41:37Z</time>
      </trkpt>
      <trkpt lat="45.64833" lon="6.66388">
        <ele>2507.6</ele>
        <time>2022-02-08T11:41:47Z</time>
      </trkpt>
      <trkpt lat="45.64829" lon="6.66386">
        <ele>2506.3</ele>
        <time>2022-02-08T11:41:54Z</time>
      </trkpt>
      <trkpt lat="45.64824" lon="6.66386">
        <ele>2506.6</ele>
        <time>2022-02-08T11:42:03Z</time>
      </trkpt>
      <trkpt lat="45.64828" lon="6.66388">
        <ele>2512.1</ele>
        <time>2022-02-08T11:44:38Z</time>
      </trkpt>
      <trkpt lat="45.64824" lon="6.66392">
        <ele>2512</ele>
        <time>2022-02-08T11:45:42Z</time>
      </trkpt>
      <trkpt lat="45.64826" lon="6.66386">
        <ele>2511.4</ele>
        <time>2022-02-08T11:45:54Z</time>
      </trkpt>
      <trkpt lat="45.64827" lon="6.66392">
        <ele>2511</ele>
        <time>2022-02-08T11:46:35Z</time>
      </trkpt>
      <trkpt lat="45.64825" lon="6.66386">
        <ele>2512.8</ele>
        <time>2022-02-08T11:49:13Z</time>
      </trkpt>
      <trkpt lat="45.64821" lon="6.6639">
        <ele>2512.3</ele>
        <time>2022-02-08T11:51:45Z</time>
      </trkpt>
      <trkpt lat="45.64825" lon="6.66388">
        <ele>2511.6</ele>
        <time>2022-02-08T11:51:55Z</time>
      </trkpt>
      <trkpt lat="45.64824" lon="6.66381">
        <ele>2513.3</ele>
        <time>2022-02-08T11:56:22Z</time>
      </trkpt>
      <trkpt lat="45.64822" lon="6.66387">
        <ele>2513.9</ele>
        <time>2022-02-08T11:56:47Z</time>
      </trkpt>
      <trkpt lat="45.64827" lon="6.66387">
        <ele>2512.9</ele>
        <time>2022-02-08T11:59:04Z</time>
      </trkpt>
      <trkpt lat="45.64825" lon="6.66393">
        <ele>2509.4</ele>
        <time>2022-02-08T12:02:11Z</time>
      </trkpt>
      <trkpt lat="45.6483" lon="6.66395">
        <ele>2507.5</ele>
        <time>2022-02-08T12:02:26Z</time>
      </trkpt>
      <trkpt lat="45.64834" lon="6.66396">
        <ele>2505.2</ele>
        <time>2022-02-08T12:02:34Z</time>
      </trkpt>
      <trkpt lat="45.64838" lon="6.66402">
        <ele>2508.3</ele>
        <time>2022-02-08T12:03:50Z</time>
      </trkpt>
      <trkpt lat="45.64841" lon="6.66406">
        <ele>2508</ele>
        <time>2022-02-08T12:03:52Z</time>
      </trkpt>
      <trkpt lat="45.64846" lon="6.66411">
        <ele>2507.2</ele>
        <time>2022-02-08T12:03:54Z</time>
      </trkpt>
      <trkpt lat="45.64853" lon="6.66417">
        <ele>2506</ele>
        <time>2022-02-08T12:03:56Z</time>
      </trkpt>
      <trkpt lat="45.64861" lon="6.66424">
        <ele>2504.4</ele>
        <time>2022-02-08T12:03:58Z</time>
      </trkpt>
      <trkpt lat="45.64868" lon="6.66432">
        <ele>2503.4</ele>
        <time>2022-02-08T12:04:00Z</time>
      </trkpt>
      <trkpt lat="45.64872" lon="6.66437">
        <ele>2502.4</ele>
        <time>2022-02-08T12:04:02Z</time>
      </trkpt>
      <trkpt lat="45.64875" lon="6.66442">
        <ele>2501.5</ele>
        <time>2022-02-08T12:04:05Z</time>
      </trkpt>
      <trkpt lat="45.64878" lon="6.66448">
        <ele>2500.9</ele>
        <time>2022-02-08T12:04:10Z</time>
      </trkpt>
      <trkpt lat="45.64881" lon="6.66454">
        <ele>2500.8</ele>
        <time>2022-02-08T12:04:15Z</time>
      </trkpt>
      <trkpt lat="45.64883" lon="6.6646">
        <ele>2501.2</ele>
        <time>2022-02-08T12:04:21Z</time>
      </trkpt>
      <trkpt lat="45.64886" lon="6.66467">
        <ele>2502.3</ele>
        <time>2022-02-08T12:04:27Z</time>
      </trkpt>
      <trkpt lat="45.64888" lon="6.66473">
        <ele>2502.8</ele>
        <time>2022-02-08T12:04:32Z</time>
      </trkpt>
      <trkpt lat="45.64891" lon="6.66479">
        <ele>2503.1</ele>
        <time>2022-02-08T12:04:37Z</time>
      </trkpt>
      <trkpt lat="45.64893" lon="6.66485">
        <ele>2503.4</ele>
        <time>2022-02-08T12:04:41Z</time>
      </trkpt>
      <trkpt lat="45.64896" lon="6.66491">
        <ele>2503.4</ele>
        <time>2022-02-08T12:04:46Z</time>
      </trkpt>
      <trkpt lat="45.64898" lon="6.66497">
        <ele>2503.6</ele>
        <time>2022-02-08T12:04:51Z</time>
      </trkpt>
      <trkpt lat="45.64901" lon="6.66502">
        <ele>2504</ele>
        <time>2022-02-08T12:04:56Z</time>
      </trkpt>
      <trkpt lat="45.64903" lon="6.66508">
        <ele>2504.4</ele>
        <time>2022-02-08T12:05:02Z</time>
      </trkpt>
      <trkpt lat="45.64905" lon="6.66515">
        <ele>2505.2</ele>
        <time>2022-02-08T12:05:08Z</time>
      </trkpt>
      <trkpt lat="45.64907" lon="6.66521">
        <ele>2506.1</ele>
        <time>2022-02-08T12:05:14Z</time>
      </trkpt>
      <trkpt lat="45.6491" lon="6.66527">
        <ele>2506.6</ele>
        <time>2022-02-08T12:05:20Z</time>
      </trkpt>
      <trkpt lat="45.64913" lon="6.66532">
        <ele>2507.4</ele>
        <time>2022-02-08T12:05:26Z</time>
      </trkpt>
      <trkpt lat="45.64916" lon="6.66538">
        <ele>2508.1</ele>
        <time>2022-02-08T12:05:32Z</time>
      </trkpt>
      <trkpt lat="45.6492" lon="6.66543">
        <ele>2509</ele>
        <time>2022-02-08T12:05:39Z</time>
      </trkpt>
      <trkpt lat="45.64923" lon="6.66549">
        <ele>2508.8</ele>
        <time>2022-02-08T12:05:46Z</time>
      </trkpt>
      <trkpt lat="45.64925" lon="6.66554">
        <ele>2509.5</ele>
        <time>2022-02-08T12:05:53Z</time>
      </trkpt>
      <trkpt lat="45.64928" lon="6.6656">
        <ele>2510.7</ele>
        <time>2022-02-08T12:06:01Z</time>
      </trkpt>
      <trkpt lat="45.6493" lon="6.66566">
        <ele>2512.1</ele>
        <time>2022-02-08T12:06:09Z</time>
      </trkpt>
      <trkpt lat="45.64932" lon="6.66572">
        <ele>2513.4</ele>
        <time>2022-02-08T12:06:16Z</time>
      </trkpt>
      <trkpt lat="45.64934" lon="6.66577">
        <ele>2514.6</ele>
        <time>2022-02-08T12:06:23Z</time>
      </trkpt>
      <trkpt lat="45.64936" lon="6.66584">
        <ele>2515.9</ele>
        <time>2022-02-08T12:06:30Z</time>
      </trkpt>
      <trkpt lat="45.64938" lon="6.6659">
        <ele>2517</ele>
        <time>2022-02-08T12:06:37Z</time>
      </trkpt>
      <trkpt lat="45.64941" lon="6.66596">
        <ele>2517.8</ele>
        <time>2022-02-08T12:06:43Z</time>
      </trkpt>
      <trkpt lat="45.64944" lon="6.66601">
        <ele>2518.7</ele>
        <time>2022-02-08T12:06:49Z</time>
      </trkpt>
      <trkpt lat="45.64947" lon="6.66605">
        <ele>2519.3</ele>
        <time>2022-02-08T12:06:55Z</time>
      </trkpt>
      <trkpt lat="45.64952" lon="6.6661">
        <ele>2519.9</ele>
        <time>2022-02-08T12:07:01Z</time>
      </trkpt>
      <trkpt lat="45.64956" lon="6.66615">
        <ele>2520.1</ele>
        <time>2022-02-08T12:07:07Z</time>
      </trkpt>
      <trkpt lat="45.6496" lon="6.66618">
        <ele>2519.9</ele>
        <time>2022-02-08T12:07:12Z</time>
      </trkpt>
      <trkpt lat="45.64965" lon="6.66621">
        <ele>2519.4</ele>
        <time>2022-02-08T12:07:18Z</time>
      </trkpt>
      <trkpt lat="45.64969" lon="6.66625">
        <ele>2519.4</ele>
        <time>2022-02-08T12:07:24Z</time>
      </trkpt>
      <trkpt lat="45.64974" lon="6.66627">
        <ele>2519.1</ele>
        <time>2022-02-08T12:07:29Z</time>
      </trkpt>
      <trkpt lat="45.64979" lon="6.66628">
        <ele>2519.1</ele>
        <time>2022-02-08T12:07:35Z</time>
      </trkpt>
      <trkpt lat="45.64984" lon="6.6663">
        <ele>2519.1</ele>
        <time>2022-02-08T12:07:41Z</time>
      </trkpt>
      <trkpt lat="45.64988" lon="6.66631">
        <ele>2518.8</ele>
        <time>2022-02-08T12:07:48Z</time>
      </trkpt>
      <trkpt lat="45.64993" lon="6.66632">
        <ele>2519.1</ele>
        <time>2022-02-08T12:07:55Z</time>
      </trkpt>
      <trkpt lat="45.64998" lon="6.66632">
        <ele>2519.5</ele>
        <time>2022-02-08T12:08:02Z</time>
      </trkpt>
      <trkpt lat="45.65003" lon="6.66633">
        <ele>2520.6</ele>
        <time>2022-02-08T12:08:10Z</time>
      </trkpt>
      <trkpt lat="45.65007" lon="6.66635">
        <ele>2521.6</ele>
        <time>2022-02-08T12:08:18Z</time>
      </trkpt>
      <trkpt lat="45.65012" lon="6.66636">
        <ele>2523.8</ele>
        <time>2022-02-08T12:08:27Z</time>
      </trkpt>
      <trkpt lat="45.65016" lon="6.66637">
        <ele>2525.2</ele>
        <time>2022-02-08T12:08:35Z</time>
      </trkpt>
      <trkpt lat="45.65021" lon="6.66636">
        <ele>2526.5</ele>
        <time>2022-02-08T12:08:43Z</time>
      </trkpt>
      <trkpt lat="45.65026" lon="6.66636">
        <ele>2527.8</ele>
        <time>2022-02-08T12:08:51Z</time>
      </trkpt>
      <trkpt lat="45.6503" lon="6.66634">
        <ele>2528.9</ele>
        <time>2022-02-08T12:08:59Z</time>
      </trkpt>
      <trkpt lat="45.65035" lon="6.66633">
        <ele>2530</ele>
        <time>2022-02-08T12:09:07Z</time>
      </trkpt>
      <trkpt lat="45.6504" lon="6.66631">
        <ele>2530.8</ele>
        <time>2022-02-08T12:09:15Z</time>
      </trkpt>
      <trkpt lat="45.65044" lon="6.66628">
        <ele>2532.3</ele>
        <time>2022-02-08T12:09:23Z</time>
      </trkpt>
      <trkpt lat="45.65049" lon="6.66625">
        <ele>2533.4</ele>
        <time>2022-02-08T12:09:31Z</time>
      </trkpt>
      <trkpt lat="45.65053" lon="6.66621">
        <ele>2534.5</ele>
        <time>2022-02-08T12:09:40Z</time>
      </trkpt>
      <trkpt lat="45.65057" lon="6.66618">
        <ele>2536</ele>
        <time>2022-02-08T12:09:50Z</time>
      </trkpt>
      <trkpt lat="45.6506" lon="6.66613">
        <ele>2537.6</ele>
        <time>2022-02-08T12:10:00Z</time>
      </trkpt>
      <trkpt lat="45.65065" lon="6.66612">
        <ele>2538.8</ele>
        <time>2022-02-08T12:10:08Z</time>
      </trkpt>
      <trkpt lat="45.6507" lon="6.66611">
        <ele>2539.9</ele>
        <time>2022-02-08T12:10:19Z</time>
      </trkpt>
      <trkpt lat="45.65075" lon="6.66611">
        <ele>2540.7</ele>
        <time>2022-02-08T12:10:32Z</time>
      </trkpt>
      <trkpt lat="45.65079" lon="6.66612">
        <ele>2541.8</ele>
        <time>2022-02-08T12:10:41Z</time>
      </trkpt>
      <trkpt lat="45.65084" lon="6.66615">
        <ele>2543.2</ele>
        <time>2022-02-08T12:10:52Z</time>
      </trkpt>
      <trkpt lat="45.65088" lon="6.6662">
        <ele>2545.7</ele>
        <time>2022-02-08T12:11:02Z</time>
      </trkpt>
      <trkpt lat="45.65091" lon="6.66625">
        <ele>2548.2</ele>
        <time>2022-02-08T12:11:13Z</time>
      </trkpt>
      <trkpt lat="45.65095" lon="6.66629">
        <ele>2549</ele>
        <time>2022-02-08T12:11:21Z</time>
      </trkpt>
      <trkpt lat="45.651" lon="6.66631">
        <ele>2549.9</ele>
        <time>2022-02-08T12:11:30Z</time>
      </trkpt>
      <trkpt lat="45.65104" lon="6.66632">
        <ele>2551.3</ele>
        <time>2022-02-08T12:11:39Z</time>
      </trkpt>
      <trkpt lat="45.65109" lon="6.66633">
        <ele>2552.7</ele>
        <time>2022-02-08T12:11:48Z</time>
      </trkpt>
      <trkpt lat="45.65113" lon="6.66631">
        <ele>2554.1</ele>
        <time>2022-02-08T12:11:58Z</time>
      </trkpt>
      <trkpt lat="45.65118" lon="6.66629">
        <ele>2554.8</ele>
        <time>2022-02-08T12:12:07Z</time>
      </trkpt>
      <trkpt lat="45.65122" lon="6.66629">
        <ele>2555.7</ele>
        <time>2022-02-08T12:12:14Z</time>
      </trkpt>
      <trkpt lat="45.65127" lon="6.6663">
        <ele>2556.5</ele>
        <time>2022-02-08T12:12:22Z</time>
      </trkpt>
      <trkpt lat="45.65132" lon="6.66633">
        <ele>2556.9</ele>
        <time>2022-02-08T12:12:30Z</time>
      </trkpt>
      <trkpt lat="45.65137" lon="6.66635">
        <ele>2557.7</ele>
        <time>2022-02-08T12:12:37Z</time>
      </trkpt>
      <trkpt lat="45.65141" lon="6.66637">
        <ele>2558.5</ele>
        <time>2022-02-08T12:12:44Z</time>
      </trkpt>
      <trkpt lat="45.65146" lon="6.66638">
        <ele>2559.3</ele>
        <time>2022-02-08T12:12:52Z</time>
      </trkpt>
      <trkpt lat="45.65151" lon="6.66639">
        <ele>2560.5</ele>
        <time>2022-02-08T12:12:59Z</time>
      </trkpt>
      <trkpt lat="45.65156" lon="6.66639">
        <ele>2561.3</ele>
        <time>2022-02-08T12:13:07Z</time>
      </trkpt>
      <trkpt lat="45.6516" lon="6.66642">
        <ele>2563</ele>
        <time>2022-02-08T12:13:16Z</time>
      </trkpt>
      <trkpt lat="45.65164" lon="6.66646">
        <ele>2564.5</ele>
        <time>2022-02-08T12:13:24Z</time>
      </trkpt>
      <trkpt lat="45.65168" lon="6.66647">
        <ele>2566.8</ele>
        <time>2022-02-08T12:13:33Z</time>
      </trkpt>
      <trkpt lat="45.65173" lon="6.66648">
        <ele>2569.1</ele>
        <time>2022-02-08T12:13:43Z</time>
      </trkpt>
      <trkpt lat="45.65178" lon="6.66647">
        <ele>2570.4</ele>
        <time>2022-02-08T12:13:54Z</time>
      </trkpt>
      <trkpt lat="45.65183" lon="6.66646">
        <ele>2571.4</ele>
        <time>2022-02-08T12:14:02Z</time>
      </trkpt>
      <trkpt lat="45.65187" lon="6.66645">
        <ele>2571.9</ele>
        <time>2022-02-08T12:14:12Z</time>
      </trkpt>
      <trkpt lat="45.65192" lon="6.66646">
        <ele>2572.1</ele>
        <time>2022-02-08T12:14:20Z</time>
      </trkpt>
      <trkpt lat="45.65197" lon="6.66647">
        <ele>2573.1</ele>
        <time>2022-02-08T12:14:29Z</time>
      </trkpt>
      <trkpt lat="45.65201" lon="6.66648">
        <ele>2574.5</ele>
        <time>2022-02-08T12:14:37Z</time>
      </trkpt>
      <trkpt lat="45.65206" lon="6.6665">
        <ele>2575.7</ele>
        <time>2022-02-08T12:14:46Z</time>
      </trkpt>
      <trkpt lat="45.65211" lon="6.6665">
        <ele>2576.8</ele>
        <time>2022-02-08T12:14:55Z</time>
      </trkpt>
      <trkpt lat="45.65216" lon="6.6665">
        <ele>2577.1</ele>
        <time>2022-02-08T12:15:02Z</time>
      </trkpt>
      <trkpt lat="45.6522" lon="6.66651">
        <ele>2577.9</ele>
        <time>2022-02-08T12:15:11Z</time>
      </trkpt>
      <trkpt lat="45.65225" lon="6.66652">
        <ele>2579</ele>
        <time>2022-02-08T12:15:19Z</time>
      </trkpt>
      <trkpt lat="45.6523" lon="6.66652">
        <ele>2580</ele>
        <time>2022-02-08T12:15:27Z</time>
      </trkpt>
      <trkpt lat="45.65235" lon="6.66653">
        <ele>2581.4</ele>
        <time>2022-02-08T12:15:36Z</time>
      </trkpt>
      <trkpt lat="45.65239" lon="6.66653">
        <ele>2583.1</ele>
        <time>2022-02-08T12:15:45Z</time>
      </trkpt>
      <trkpt lat="45.65244" lon="6.66653">
        <ele>2583.8</ele>
        <time>2022-02-08T12:15:53Z</time>
      </trkpt>
      <trkpt lat="45.65249" lon="6.66654">
        <ele>2584.9</ele>
        <time>2022-02-08T12:16:01Z</time>
      </trkpt>
      <trkpt lat="45.65254" lon="6.66656">
        <ele>2585.6</ele>
        <time>2022-02-08T12:16:10Z</time>
      </trkpt>
      <trkpt lat="45.65259" lon="6.66658">
        <ele>2586.4</ele>
        <time>2022-02-08T12:16:18Z</time>
      </trkpt>
      <trkpt lat="45.65263" lon="6.6666">
        <ele>2587.9</ele>
        <time>2022-02-08T12:16:27Z</time>
      </trkpt>
      <trkpt lat="45.65268" lon="6.66661">
        <ele>2589</ele>
        <time>2022-02-08T12:16:35Z</time>
      </trkpt>
      <trkpt lat="45.65273" lon="6.66664">
        <ele>2590.3</ele>
        <time>2022-02-08T12:16:43Z</time>
      </trkpt>
      <trkpt lat="45.65278" lon="6.66665">
        <ele>2592.2</ele>
        <time>2022-02-08T12:16:51Z</time>
      </trkpt>
      <trkpt lat="45.65283" lon="6.66665">
        <ele>2593.8</ele>
        <time>2022-02-08T12:16:59Z</time>
      </trkpt>
      <trkpt lat="45.65288" lon="6.66664">
        <ele>2595.5</ele>
        <time>2022-02-08T12:17:07Z</time>
      </trkpt>
      <trkpt lat="45.65293" lon="6.66663">
        <ele>2597.4</ele>
        <time>2022-02-08T12:17:15Z</time>
      </trkpt>
      <trkpt lat="45.65297" lon="6.6666">
        <ele>2598.2</ele>
        <time>2022-02-08T12:17:22Z</time>
      </trkpt>
      <trkpt lat="45.65301" lon="6.66657">
        <ele>2598.5</ele>
        <time>2022-02-08T12:17:28Z</time>
      </trkpt>
      <trkpt lat="45.65305" lon="6.66653">
        <ele>2598.1</ele>
        <time>2022-02-08T12:17:47Z</time>
      </trkpt>
      <trkpt lat="45.65309" lon="6.66652">
        <ele>2598.2</ele>
        <time>2022-02-08T12:17:54Z</time>
      </trkpt>
      <trkpt lat="45.65314" lon="6.66651">
        <ele>2598.6</ele>
        <time>2022-02-08T12:18:01Z</time>
      </trkpt>
      <trkpt lat="45.65318" lon="6.66648">
        <ele>2598.6</ele>
        <time>2022-02-08T12:18:08Z</time>
      </trkpt>
      <trkpt lat="45.65322" lon="6.66643">
        <ele>2598</ele>
        <time>2022-02-08T12:18:16Z</time>
      </trkpt>
      <trkpt lat="45.65325" lon="6.66639">
        <ele>2598.2</ele>
        <time>2022-02-08T12:18:23Z</time>
      </trkpt>
      <trkpt lat="45.65329" lon="6.66643">
        <ele>2600.2</ele>
        <time>2022-02-08T12:18:35Z</time>
      </trkpt>
      <trkpt lat="45.65331" lon="6.66649">
        <ele>2602.4</ele>
        <time>2022-02-08T12:18:46Z</time>
      </trkpt>
      <trkpt lat="45.65332" lon="6.66656">
        <ele>2605.3</ele>
        <time>2022-02-08T12:18:57Z</time>
      </trkpt>
      <trkpt lat="45.6533" lon="6.66662">
        <ele>2608</ele>
        <time>2022-02-08T12:19:06Z</time>
      </trkpt>
      <trkpt lat="45.65332" lon="6.66668">
        <ele>2610.4</ele>
        <time>2022-02-08T12:19:24Z</time>
      </trkpt>
      <trkpt lat="45.65337" lon="6.6667">
        <ele>2610.7</ele>
        <time>2022-02-08T12:19:34Z</time>
      </trkpt>
      <trkpt lat="45.65341" lon="6.66666">
        <ele>2611</ele>
        <time>2022-02-08T12:19:42Z</time>
      </trkpt>
      <trkpt lat="45.65344" lon="6.66661">
        <ele>2611.9</ele>
        <time>2022-02-08T12:19:49Z</time>
      </trkpt>
      <trkpt lat="45.65347" lon="6.66656">
        <ele>2613.8</ele>
        <time>2022-02-08T12:19:59Z</time>
      </trkpt>
      <trkpt lat="45.65349" lon="6.6665">
        <ele>2615.7</ele>
        <time>2022-02-08T12:20:10Z</time>
      </trkpt>
      <trkpt lat="45.65353" lon="6.66644">
        <ele>2616.2</ele>
        <time>2022-02-08T12:20:20Z</time>
      </trkpt>
      <trkpt lat="45.65357" lon="6.66645">
        <ele>2618.6</ele>
        <time>2022-02-08T12:20:43Z</time>
      </trkpt>
      <trkpt lat="45.6536" lon="6.6665">
        <ele>2620</ele>
        <time>2022-02-08T12:20:54Z</time>
      </trkpt>
      <trkpt lat="45.6536" lon="6.66657">
        <ele>2620.9</ele>
        <time>2022-02-08T12:21:01Z</time>
      </trkpt>
      <trkpt lat="45.6536" lon="6.66664">
        <ele>2624.1</ele>
        <time>2022-02-08T12:21:11Z</time>
      </trkpt>
      <trkpt lat="45.65359" lon="6.6667">
        <ele>2632.1</ele>
        <time>2022-02-08T12:21:24Z</time>
      </trkpt>
      <trkpt lat="45.65359" lon="6.66677">
        <ele>2635.2</ele>
        <time>2022-02-08T12:21:35Z</time>
      </trkpt>
      <trkpt lat="45.65362" lon="6.66683">
        <ele>2635.3</ele>
        <time>2022-02-08T12:21:48Z</time>
      </trkpt>
      <trkpt lat="45.65366" lon="6.66682">
        <ele>2634.6</ele>
        <time>2022-02-08T12:21:57Z</time>
      </trkpt>
      <trkpt lat="45.65371" lon="6.66679">
        <ele>2633.8</ele>
        <time>2022-02-08T12:22:03Z</time>
      </trkpt>
      <trkpt lat="45.65374" lon="6.66674">
        <ele>2634.6</ele>
        <time>2022-02-08T12:22:18Z</time>
      </trkpt>
      <trkpt lat="45.65376" lon="6.66668">
        <ele>2635.2</ele>
        <time>2022-02-08T12:22:28Z</time>
      </trkpt>
      <trkpt lat="45.65379" lon="6.66663">
        <ele>2635.1</ele>
        <time>2022-02-08T12:22:37Z</time>
      </trkpt>
      <trkpt lat="45.65381" lon="6.66657">
        <ele>2636</ele>
        <time>2022-02-08T12:22:47Z</time>
      </trkpt>
      <trkpt lat="45.65386" lon="6.66657">
        <ele>2639.4</ele>
        <time>2022-02-08T12:23:16Z</time>
      </trkpt>
      <trkpt lat="45.65388" lon="6.66664">
        <ele>2641.2</ele>
        <time>2022-02-08T12:23:26Z</time>
      </trkpt>
      <trkpt lat="45.6539" lon="6.6667">
        <ele>2644.1</ele>
        <time>2022-02-08T12:23:37Z</time>
      </trkpt>
      <trkpt lat="45.65391" lon="6.66676">
        <ele>2646</ele>
        <time>2022-02-08T12:23:47Z</time>
      </trkpt>
      <trkpt lat="45.65392" lon="6.66683">
        <ele>2648</ele>
        <time>2022-02-08T12:23:58Z</time>
      </trkpt>
      <trkpt lat="45.65393" lon="6.6669">
        <ele>2650.2</ele>
        <time>2022-02-08T12:24:08Z</time>
      </trkpt>
      <trkpt lat="45.65393" lon="6.66697">
        <ele>2653.3</ele>
        <time>2022-02-08T12:24:19Z</time>
      </trkpt>
      <trkpt lat="45.65397" lon="6.667">
        <ele>2654.3</ele>
        <time>2022-02-08T12:24:31Z</time>
      </trkpt>
      <trkpt lat="45.654" lon="6.66695">
        <ele>2653.8</ele>
        <time>2022-02-08T12:24:39Z</time>
      </trkpt>
      <trkpt lat="45.65402" lon="6.66689">
        <ele>2653.9</ele>
        <time>2022-02-08T12:24:49Z</time>
      </trkpt>
      <trkpt lat="45.65404" lon="6.66683">
        <ele>2654.5</ele>
        <time>2022-02-08T12:25:00Z</time>
      </trkpt>
      <trkpt lat="45.65406" lon="6.66677">
        <ele>2655.3</ele>
        <time>2022-02-08T12:25:10Z</time>
      </trkpt>
      <trkpt lat="45.65409" lon="6.66671">
        <ele>2657.6</ele>
        <time>2022-02-08T12:25:23Z</time>
      </trkpt>
      <trkpt lat="45.65411" lon="6.66666">
        <ele>2660.2</ele>
        <time>2022-02-08T12:25:35Z</time>
      </trkpt>
      <trkpt lat="45.65414" lon="6.6666">
        <ele>2662.3</ele>
        <time>2022-02-08T12:25:45Z</time>
      </trkpt>
      <trkpt lat="45.65417" lon="6.66664">
        <ele>2664.7</ele>
        <time>2022-02-08T12:26:06Z</time>
      </trkpt>
      <trkpt lat="45.65416" lon="6.66671">
        <ele>2666.2</ele>
        <time>2022-02-08T12:26:14Z</time>
      </trkpt>
      <trkpt lat="45.65417" lon="6.66678">
        <ele>2667.1</ele>
        <time>2022-02-08T12:26:21Z</time>
      </trkpt>
      <trkpt lat="45.65418" lon="6.66684">
        <ele>2667.9</ele>
        <time>2022-02-08T12:26:28Z</time>
      </trkpt>
      <trkpt lat="45.65417" lon="6.66691">
        <ele>2670.4</ele>
        <time>2022-02-08T12:28:14Z</time>
      </trkpt>
      <trkpt lat="45.65417" lon="6.66698">
        <ele>2669.6</ele>
        <time>2022-02-08T12:32:16Z</time>
      </trkpt>
      <trkpt lat="45.65415" lon="6.66704">
        <ele>2670.7</ele>
        <time>2022-02-08T12:32:23Z</time>
      </trkpt>
      <trkpt lat="45.65413" lon="6.6671">
        <ele>2672</ele>
        <time>2022-02-08T12:32:29Z</time>
      </trkpt>
      <trkpt lat="45.65412" lon="6.66717">
        <ele>2673.2</ele>
        <time>2022-02-08T12:32:36Z</time>
      </trkpt>
      <trkpt lat="45.6541" lon="6.66723">
        <ele>2675.3</ele>
        <time>2022-02-08T12:32:44Z</time>
      </trkpt>
      <trkpt lat="45.65408" lon="6.6673">
        <ele>2677.5</ele>
        <time>2022-02-08T12:32:53Z</time>
      </trkpt>
      <trkpt lat="45.65407" lon="6.66736">
        <ele>2678.9</ele>
        <time>2022-02-08T12:33:01Z</time>
      </trkpt>
      <trkpt lat="45.65406" lon="6.66743">
        <ele>2680.5</ele>
        <time>2022-02-08T12:33:11Z</time>
      </trkpt>
      <trkpt lat="45.65408" lon="6.66749">
        <ele>2681.3</ele>
        <time>2022-02-08T12:33:24Z</time>
      </trkpt>
      <trkpt lat="45.65409" lon="6.66756">
        <ele>2681.2</ele>
        <time>2022-02-08T12:33:39Z</time>
      </trkpt>
      <trkpt lat="45.6541" lon="6.66763">
        <ele>2681.5</ele>
        <time>2022-02-08T12:33:48Z</time>
      </trkpt>
      <trkpt lat="45.65408" lon="6.6677">
        <ele>2681.8</ele>
        <time>2022-02-08T12:33:57Z</time>
      </trkpt>
      <trkpt lat="45.65406" lon="6.66776">
        <ele>2683.6</ele>
        <time>2022-02-08T12:34:06Z</time>
      </trkpt>
      <trkpt lat="45.65402" lon="6.6678">
        <ele>2686.5</ele>
        <time>2022-02-08T12:34:22Z</time>
      </trkpt>
      <trkpt lat="45.65401" lon="6.66786">
        <ele>2687.5</ele>
        <time>2022-02-08T12:34:30Z</time>
      </trkpt>
      <trkpt lat="45.65398" lon="6.66781">
        <ele>2688.6</ele>
        <time>2022-02-08T12:34:41Z</time>
      </trkpt>
      <trkpt lat="45.65394" lon="6.66775">
        <ele>2688.8</ele>
        <time>2022-02-08T12:34:48Z</time>
      </trkpt>
      <trkpt lat="45.65392" lon="6.66769">
        <ele>2689.1</ele>
        <time>2022-02-08T12:34:55Z</time>
      </trkpt>
      <trkpt lat="45.65392" lon="6.66763">
        <ele>2689.6</ele>
        <time>2022-02-08T12:35:05Z</time>
      </trkpt>
      <trkpt lat="45.6539" lon="6.6677">
        <ele>2690.5</ele>
        <time>2022-02-08T12:38:04Z</time>
      </trkpt>
      <trkpt lat="45.65394" lon="6.66777">
        <ele>2689.6</ele>
        <time>2022-02-08T12:38:07Z</time>
      </trkpt>
      <trkpt lat="45.65398" lon="6.66782">
        <ele>2688.9</ele>
        <time>2022-02-08T12:38:10Z</time>
      </trkpt>
      <trkpt lat="45.65403" lon="6.6678">
        <ele>2687.4</ele>
        <time>2022-02-08T12:38:14Z</time>
      </trkpt>
      <trkpt lat="45.65405" lon="6.66775">
        <ele>2686.5</ele>
        <time>2022-02-08T12:38:16Z</time>
      </trkpt>
      <trkpt lat="45.65407" lon="6.66768">
        <ele>2685.2</ele>
        <time>2022-02-08T12:38:19Z</time>
      </trkpt>
      <trkpt lat="45.65407" lon="6.66762">
        <ele>2683</ele>
        <time>2022-02-08T12:38:35Z</time>
      </trkpt>
      <trkpt lat="45.65408" lon="6.66752">
        <ele>2680.8</ele>
        <time>2022-02-08T12:39:03Z</time>
      </trkpt>
      <trkpt lat="45.6541" lon="6.66736">
        <ele>2678.1</ele>
        <time>2022-02-08T12:39:05Z</time>
      </trkpt>
      <trkpt lat="45.65411" lon="6.66728">
        <ele>2676.2</ele>
        <time>2022-02-08T12:39:07Z</time>
      </trkpt>
      <trkpt lat="45.65411" lon="6.66722">
        <ele>2674</ele>
        <time>2022-02-08T12:39:09Z</time>
      </trkpt>
      <trkpt lat="45.65409" lon="6.66716">
        <ele>2671.9</ele>
        <time>2022-02-08T12:39:13Z</time>
      </trkpt>
      <trkpt lat="45.65409" lon="6.66708">
        <ele>2670.4</ele>
        <time>2022-02-08T12:39:29Z</time>
      </trkpt>
      <trkpt lat="45.65409" lon="6.66701">
        <ele>2670.8</ele>
        <time>2022-02-08T12:39:34Z</time>
      </trkpt>
      <trkpt lat="45.65409" lon="6.66695">
        <ele>2669.5</ele>
        <time>2022-02-08T12:39:44Z</time>
      </trkpt>
      <trkpt lat="45.65405" lon="6.66689">
        <ele>2657.6</ele>
        <time>2022-02-08T12:39:49Z</time>
      </trkpt>
      <trkpt lat="45.65401" lon="6.66686">
        <ele>2642</ele>
        <time>2022-02-08T12:39:52Z</time>
      </trkpt>
      <trkpt lat="45.65396" lon="6.66683">
        <ele>2617.6</ele>
        <time>2022-02-08T12:39:56Z</time>
      </trkpt>
      <trkpt lat="45.65391" lon="6.66679">
        <ele>2591.4</ele>
        <time>2022-02-08T12:40:00Z</time>
      </trkpt>
      <trkpt lat="45.65356" lon="6.6666">
        <ele>2597.2</ele>
        <time>2022-02-08T12:40:03Z</time>
      </trkpt>
      <trkpt lat="45.6533" lon="6.66647">
        <ele>2596.3</ele>
        <time>2022-02-08T12:40:05Z</time>
      </trkpt>
      <trkpt lat="45.65313" lon="6.66638">
        <ele>2599.2</ele>
        <time>2022-02-08T12:40:07Z</time>
      </trkpt>
      <trkpt lat="45.65302" lon="6.66621">
        <ele>2598.2</ele>
        <time>2022-02-08T12:40:09Z</time>
      </trkpt>
      <trkpt lat="45.65293" lon="6.66603">
        <ele>2597.3</ele>
        <time>2022-02-08T12:40:11Z</time>
      </trkpt>
      <trkpt lat="45.65285" lon="6.66585">
        <ele>2595.3</ele>
        <time>2022-02-08T12:40:13Z</time>
      </trkpt>
      <trkpt lat="45.65275" lon="6.66563">
        <ele>2592.8</ele>
        <time>2022-02-08T12:40:16Z</time>
      </trkpt>
      <trkpt lat="45.65268" lon="6.66551">
        <ele>2590.1</ele>
        <time>2022-02-08T12:40:18Z</time>
      </trkpt>
      <trkpt lat="45.65259" lon="6.66538">
        <ele>2586.5</ele>
        <time>2022-02-08T12:40:20Z</time>
      </trkpt>
      <trkpt lat="45.65252" lon="6.66522">
        <ele>2583</ele>
        <time>2022-02-08T12:40:22Z</time>
      </trkpt>
      <trkpt lat="45.65245" lon="6.66506">
        <ele>2579.9</ele>
        <time>2022-02-08T12:40:24Z</time>
      </trkpt>
      <trkpt lat="45.6524" lon="6.66487">
        <ele>2576.4</ele>
        <time>2022-02-08T12:40:26Z</time>
      </trkpt>
      <trkpt lat="45.65234" lon="6.66468">
        <ele>2573.4</ele>
        <time>2022-02-08T12:40:28Z</time>
      </trkpt>
      <trkpt lat="45.65228" lon="6.66449">
        <ele>2570.2</ele>
        <time>2022-02-08T12:40:30Z</time>
      </trkpt>
      <trkpt lat="45.65223" lon="6.66434">
        <ele>2567.8</ele>
        <time>2022-02-08T12:40:32Z</time>
      </trkpt>
      <trkpt lat="45.65219" lon="6.66418">
        <ele>2565.1</ele>
        <time>2022-02-08T12:40:34Z</time>
      </trkpt>
      <trkpt lat="45.65213" lon="6.66398">
        <ele>2561.8</ele>
        <time>2022-02-08T12:40:36Z</time>
      </trkpt>
      <trkpt lat="45.652" lon="6.66367">
        <ele>2555.4</ele>
        <time>2022-02-08T12:40:39Z</time>
      </trkpt>
      <trkpt lat="45.6519" lon="6.66345">
        <ele>2551.8</ele>
        <time>2022-02-08T12:40:41Z</time>
      </trkpt>
      <trkpt lat="45.65179" lon="6.66325">
        <ele>2548.5</ele>
        <time>2022-02-08T12:40:43Z</time>
      </trkpt>
      <trkpt lat="45.65167" lon="6.66307">
        <ele>2545.2</ele>
        <time>2022-02-08T12:40:45Z</time>
      </trkpt>
      <trkpt lat="45.65153" lon="6.66297">
        <ele>2542.6</ele>
        <time>2022-02-08T12:40:47Z</time>
      </trkpt>
      <trkpt lat="45.65138" lon="6.66291">
        <ele>2539.9</ele>
        <time>2022-02-08T12:40:49Z</time>
      </trkpt>
      <trkpt lat="45.65121" lon="6.6629">
        <ele>2537.6</ele>
        <time>2022-02-08T12:40:51Z</time>
      </trkpt>
      <trkpt lat="45.65104" lon="6.6629">
        <ele>2535.2</ele>
        <time>2022-02-08T12:40:53Z</time>
      </trkpt>
      <trkpt lat="45.65088" lon="6.66291">
        <ele>2533.3</ele>
        <time>2022-02-08T12:40:55Z</time>
      </trkpt>
      <trkpt lat="45.65073" lon="6.66294">
        <ele>2531.6</ele>
        <time>2022-02-08T12:40:57Z</time>
      </trkpt>
      <trkpt lat="45.65061" lon="6.66299">
        <ele>2529.6</ele>
        <time>2022-02-08T12:40:59Z</time>
      </trkpt>
      <trkpt lat="45.6505" lon="6.66304">
        <ele>2527.7</ele>
        <time>2022-02-08T12:41:01Z</time>
      </trkpt>
      <trkpt lat="45.65038" lon="6.66309">
        <ele>2525.6</ele>
        <time>2022-02-08T12:41:03Z</time>
      </trkpt>
      <trkpt lat="45.65027" lon="6.66313">
        <ele>2523.3</ele>
        <time>2022-02-08T12:41:05Z</time>
      </trkpt>
      <trkpt lat="45.65015" lon="6.66319">
        <ele>2521.2</ele>
        <time>2022-02-08T12:41:07Z</time>
      </trkpt>
      <trkpt lat="45.65004" lon="6.66326">
        <ele>2518.9</ele>
        <time>2022-02-08T12:41:09Z</time>
      </trkpt>
      <trkpt lat="45.64994" lon="6.66333">
        <ele>2517.2</ele>
        <time>2022-02-08T12:41:11Z</time>
      </trkpt>
      <trkpt lat="45.64985" lon="6.66339">
        <ele>2515.6</ele>
        <time>2022-02-08T12:41:13Z</time>
      </trkpt>
      <trkpt lat="45.64977" lon="6.66346">
        <ele>2514.3</ele>
        <time>2022-02-08T12:41:15Z</time>
      </trkpt>
      <trkpt lat="45.64969" lon="6.66351">
        <ele>2512.8</ele>
        <time>2022-02-08T12:41:17Z</time>
      </trkpt>
      <trkpt lat="45.64963" lon="6.66356">
        <ele>2511.6</ele>
        <time>2022-02-08T12:41:19Z</time>
      </trkpt>
      <trkpt lat="45.64957" lon="6.6636">
        <ele>2510.3</ele>
        <time>2022-02-08T12:41:21Z</time>
      </trkpt>
      <trkpt lat="45.64951" lon="6.66363">
        <ele>2509.6</ele>
        <time>2022-02-08T12:41:23Z</time>
      </trkpt>
      <trkpt lat="45.64945" lon="6.66366">
        <ele>2509.1</ele>
        <time>2022-02-08T12:41:25Z</time>
      </trkpt>
      <trkpt lat="45.64938" lon="6.66368">
        <ele>2508.4</ele>
        <time>2022-02-08T12:41:27Z</time>
      </trkpt>
      <trkpt lat="45.64928" lon="6.6637">
        <ele>2507.4</ele>
        <time>2022-02-08T12:41:29Z</time>
      </trkpt>
      <trkpt lat="45.64915" lon="6.66374">
        <ele>2505.9</ele>
        <time>2022-02-08T12:41:31Z</time>
      </trkpt>
      <trkpt lat="45.64901" lon="6.66379">
        <ele>2504.3</ele>
        <time>2022-02-08T12:41:33Z</time>
      </trkpt>
      <trkpt lat="45.64886" lon="6.66385">
        <ele>2502.7</ele>
        <time>2022-02-08T12:41:35Z</time>
      </trkpt>
      <trkpt lat="45.64869" lon="6.66394">
        <ele>2501.7</ele>
        <time>2022-02-08T12:41:38Z</time>
      </trkpt>
      <trkpt lat="45.64864" lon="6.66398">
        <ele>2501.5</ele>
        <time>2022-02-08T12:41:40Z</time>
      </trkpt>
      <trkpt lat="45.6486" lon="6.66402">
        <ele>2501.1</ele>
        <time>2022-02-08T12:41:44Z</time>
      </trkpt>
      <trkpt lat="45.64855" lon="6.66405">
        <ele>2501</ele>
        <time>2022-02-08T12:41:50Z</time>
      </trkpt>
      <trkpt lat="45.64851" lon="6.66407">
        <ele>2501.6</ele>
        <time>2022-02-08T12:41:56Z</time>
      </trkpt>
      <trkpt lat="45.64846" lon="6.66408">
        <ele>2503</ele>
        <time>2022-02-08T12:42:03Z</time>
      </trkpt>
      <trkpt lat="45.64842" lon="6.66407">
        <ele>2505.2</ele>
        <time>2022-02-08T12:42:11Z</time>
      </trkpt>
      <trkpt lat="45.64838" lon="6.66404">
        <ele>2506.8</ele>
        <time>2022-02-08T12:42:18Z</time>
      </trkpt>
      <trkpt lat="45.64834" lon="6.664">
        <ele>2507.4</ele>
        <time>2022-02-08T12:42:53Z</time>
      </trkpt>
      <trkpt lat="45.64829" lon="6.66397">
        <ele>2508.2</ele>
        <time>2022-02-08T12:43:05Z</time>
      </trkpt>
      <trkpt lat="45.64825" lon="6.66393">
        <ele>2508.8</ele>
        <time>2022-02-08T12:43:11Z</time>
      </trkpt>
      <trkpt lat="45.64824" lon="6.66386">
        <ele>2509.9</ele>
        <time>2022-02-08T12:43:21Z</time>
      </trkpt>
      <trkpt lat="45.64826" lon="6.66393">
        <ele>2507.8</ele>
        <time>2022-02-08T12:43:47Z</time>
      </trkpt>
      <trkpt lat="45.6483" lon="6.6639">
        <ele>2509.2</ele>
        <time>2022-02-08T12:44:04Z</time>
      </trkpt>
      <trkpt lat="45.64833" lon="6.66384">
        <ele>2505.8</ele>
        <time>2022-02-08T12:44:47Z</time>
      </trkpt>
      <trkpt lat="45.64837" lon="6.66387">
        <ele>2502.5</ele>
        <time>2022-02-08T12:44:54Z</time>
      </trkpt>
      <trkpt lat="45.64832" lon="6.66387">
        <ele>2501.4</ele>
        <time>2022-02-08T12:45:05Z</time>
      </trkpt>
      <trkpt lat="45.64827" lon="6.66386">
        <ele>2506.9</ele>
        <time>2022-02-08T12:45:34Z</time>
      </trkpt>
      <trkpt lat="45.64822" lon="6.66387">
        <ele>2509.1</ele>
        <time>2022-02-08T12:45:52Z</time>
      </trkpt>
      <trkpt lat="45.64824" lon="6.66394">
        <ele>2509.9</ele>
        <time>2022-02-08T12:45:59Z</time>
      </trkpt>
      <trkpt lat="45.64827" lon="6.66399">
        <ele>2510.2</ele>
        <time>2022-02-08T12:46:03Z</time>
      </trkpt>
      <trkpt lat="45.64831" lon="6.66403">
        <ele>2509.7</ele>
        <time>2022-02-08T12:46:08Z</time>
      </trkpt>
      <trkpt lat="45.64836" lon="6.66405">
        <ele>2508.9</ele>
        <time>2022-02-08T12:46:14Z</time>
      </trkpt>
      <trkpt lat="45.64838" lon="6.66399">
        <ele>2509.6</ele>
        <time>2022-02-08T12:47:37Z</time>
      </trkpt>
      <trkpt lat="45.64841" lon="6.66405">
        <ele>2508.8</ele>
        <time>2022-02-08T12:48:16Z</time>
      </trkpt>
      <trkpt lat="45.64846" lon="6.66405">
        <ele>2508.6</ele>
        <time>2022-02-08T12:48:46Z</time>
      </trkpt>
      <trkpt lat="45.64851" lon="6.66403">
        <ele>2506.7</ele>
        <time>2022-02-08T12:51:28Z</time>
      </trkpt>
      <trkpt lat="45.64852" lon="6.6641">
        <ele>2505.4</ele>
        <time>2022-02-08T12:51:32Z</time>
      </trkpt>
      <trkpt lat="45.64848" lon="6.66419">
        <ele>2504.4</ele>
        <time>2022-02-08T12:51:34Z</time>
      </trkpt>
      <trkpt lat="45.64839" lon="6.66427">
        <ele>2503</ele>
        <time>2022-02-08T12:51:36Z</time>
      </trkpt>
      <trkpt lat="45.64831" lon="6.66432">
        <ele>2501.4</ele>
        <time>2022-02-08T12:51:38Z</time>
      </trkpt>
      <trkpt lat="45.64822" lon="6.66437">
        <ele>2499.6</ele>
        <time>2022-02-08T12:51:40Z</time>
      </trkpt>
      <trkpt lat="45.64814" lon="6.66438">
        <ele>2498.3</ele>
        <time>2022-02-08T12:51:42Z</time>
      </trkpt>
      <trkpt lat="45.64807" lon="6.66442">
        <ele>2497</ele>
        <time>2022-02-08T12:51:45Z</time>
      </trkpt>
      <trkpt lat="45.64805" lon="6.6645">
        <ele>2495.6</ele>
        <time>2022-02-08T12:51:47Z</time>
      </trkpt>
      <trkpt lat="45.64798" lon="6.66463">
        <ele>2492.6</ele>
        <time>2022-02-08T12:51:49Z</time>
      </trkpt>
      <trkpt lat="45.64791" lon="6.6647">
        <ele>2490.9</ele>
        <time>2022-02-08T12:51:51Z</time>
      </trkpt>
      <trkpt lat="45.64783" lon="6.66474">
        <ele>2489.2</ele>
        <time>2022-02-08T12:51:53Z</time>
      </trkpt>
      <trkpt lat="45.6478" lon="6.6647">
        <ele>2488.1</ele>
        <time>2022-02-08T12:51:55Z</time>
      </trkpt>
      <trkpt lat="45.64768" lon="6.66461">
        <ele>2484.5</ele>
        <time>2022-02-08T12:51:57Z</time>
      </trkpt>
      <trkpt lat="45.64759" lon="6.66453">
        <ele>2481.2</ele>
        <time>2022-02-08T12:51:59Z</time>
      </trkpt>
      <trkpt lat="45.64754" lon="6.6644">
        <ele>2477.6</ele>
        <time>2022-02-08T12:52:02Z</time>
      </trkpt>
      <trkpt lat="45.64747" lon="6.6642">
        <ele>2472.6</ele>
        <time>2022-02-08T12:52:04Z</time>
      </trkpt>
      <trkpt lat="45.64736" lon="6.66411">
        <ele>2468.7</ele>
        <time>2022-02-08T12:52:06Z</time>
      </trkpt>
      <trkpt lat="45.64731" lon="6.66411">
        <ele>2466.5</ele>
        <time>2022-02-08T12:52:08Z</time>
      </trkpt>
      <trkpt lat="45.6472" lon="6.6641">
        <ele>2462.3</ele>
        <time>2022-02-08T12:52:10Z</time>
      </trkpt>
      <trkpt lat="45.64704" lon="6.66423">
        <ele>2455.2</ele>
        <time>2022-02-08T12:52:12Z</time>
      </trkpt>
      <trkpt lat="45.64692" lon="6.66425">
        <ele>2451</ele>
        <time>2022-02-08T12:52:14Z</time>
      </trkpt>
      <trkpt lat="45.64688" lon="6.66418">
        <ele>2438.8</ele>
        <time>2022-02-08T12:52:22Z</time>
      </trkpt>
      <trkpt lat="45.64685" lon="6.66411">
        <ele>2436.2</ele>
        <time>2022-02-08T12:52:25Z</time>
      </trkpt>
      <trkpt lat="45.64678" lon="6.66404">
        <ele>2433.8</ele>
        <time>2022-02-08T12:52:27Z</time>
      </trkpt>
      <trkpt lat="45.64667" lon="6.66388">
        <ele>2428.5</ele>
        <time>2022-02-08T12:52:29Z</time>
      </trkpt>
      <trkpt lat="45.64659" lon="6.66372">
        <ele>2423.3</ele>
        <time>2022-02-08T12:52:31Z</time>
      </trkpt>
      <trkpt lat="45.64654" lon="6.66365">
        <ele>2420.2</ele>
        <time>2022-02-08T12:52:33Z</time>
      </trkpt>
      <trkpt lat="45.64634" lon="6.66349">
        <ele>2411.6</ele>
        <time>2022-02-08T12:52:36Z</time>
      </trkpt>
      <trkpt lat="45.64611" lon="6.66337">
        <ele>2403.8</ele>
        <time>2022-02-08T12:52:38Z</time>
      </trkpt>
      <trkpt lat="45.64596" lon="6.66334">
        <ele>2399.4</ele>
        <time>2022-02-08T12:52:40Z</time>
      </trkpt>
      <trkpt lat="45.64589" lon="6.66333">
        <ele>2397.2</ele>
        <time>2022-02-08T12:52:42Z</time>
      </trkpt>
      <trkpt lat="45.64579" lon="6.66337">
        <ele>2394</ele>
        <time>2022-02-08T12:52:44Z</time>
      </trkpt>
      <trkpt lat="45.64573" lon="6.6634">
        <ele>2390.7</ele>
        <time>2022-02-08T12:52:46Z</time>
      </trkpt>
      <trkpt lat="45.64567" lon="6.66341">
        <ele>2385.7</ele>
        <time>2022-02-08T12:53:16Z</time>
      </trkpt>
      <trkpt lat="45.6456" lon="6.6634">
        <ele>2385</ele>
        <time>2022-02-08T12:53:18Z</time>
      </trkpt>
      <trkpt lat="45.64552" lon="6.66334">
        <ele>2383</ele>
        <time>2022-02-08T12:53:20Z</time>
      </trkpt>
      <trkpt lat="45.6454" lon="6.66332">
        <ele>2381</ele>
        <time>2022-02-08T12:53:22Z</time>
      </trkpt>
      <trkpt lat="45.64527" lon="6.66333">
        <ele>2378.9</ele>
        <time>2022-02-08T12:53:24Z</time>
      </trkpt>
      <trkpt lat="45.64513" lon="6.66333">
        <ele>2375.9</ele>
        <time>2022-02-08T12:53:26Z</time>
      </trkpt>
      <trkpt lat="45.645" lon="6.66331">
        <ele>2372.6</ele>
        <time>2022-02-08T12:53:28Z</time>
      </trkpt>
      <trkpt lat="45.64486" lon="6.66325">
        <ele>2369.8</ele>
        <time>2022-02-08T12:53:30Z</time>
      </trkpt>
      <trkpt lat="45.64471" lon="6.66319">
        <ele>2365.9</ele>
        <time>2022-02-08T12:53:32Z</time>
      </trkpt>
      <trkpt lat="45.64455" lon="6.66312">
        <ele>2362</ele>
        <time>2022-02-08T12:53:34Z</time>
      </trkpt>
      <trkpt lat="45.64438" lon="6.6631">
        <ele>2356.5</ele>
        <time>2022-02-08T12:53:36Z</time>
      </trkpt>
      <trkpt lat="45.64423" lon="6.6631">
        <ele>2352.2</ele>
        <time>2022-02-08T12:53:38Z</time>
      </trkpt>
      <trkpt lat="45.64411" lon="6.66309">
        <ele>2347.6</ele>
        <time>2022-02-08T12:53:40Z</time>
      </trkpt>
      <trkpt lat="45.64397" lon="6.66303">
        <ele>2343.9</ele>
        <time>2022-02-08T12:53:42Z</time>
      </trkpt>
      <trkpt lat="45.64384" lon="6.66296">
        <ele>2340.3</ele>
        <time>2022-02-08T12:53:44Z</time>
      </trkpt>
      <trkpt lat="45.64363" lon="6.66296">
        <ele>2335.5</ele>
        <time>2022-02-08T12:53:48Z</time>
      </trkpt>
      <trkpt lat="45.64343" lon="6.66307">
        <ele>2331.1</ele>
        <time>2022-02-08T12:53:50Z</time>
      </trkpt>
      <trkpt lat="45.64331" lon="6.66314">
        <ele>2328.2</ele>
        <time>2022-02-08T12:53:52Z</time>
      </trkpt>
      <trkpt lat="45.64327" lon="6.66311">
        <ele>2325.7</ele>
        <time>2022-02-08T12:53:55Z</time>
      </trkpt>
      <trkpt lat="45.64322" lon="6.66306">
        <ele>2320.7</ele>
        <time>2022-02-08T12:54:00Z</time>
      </trkpt>
      <trkpt lat="45.64319" lon="6.66301">
        <ele>2319.9</ele>
        <time>2022-02-08T12:54:03Z</time>
      </trkpt>
      <trkpt lat="45.64314" lon="6.66294">
        <ele>2334.2</ele>
        <time>2022-02-08T13:52:59Z</time>
      </trkpt>
      <trkpt lat="45.6431" lon="6.66299">
        <ele>2336</ele>
        <time>2022-02-08T13:53:58Z</time>
      </trkpt>
      <trkpt lat="45.64315" lon="6.66299">
        <ele>2330.9</ele>
        <time>2022-02-08T13:56:00Z</time>
      </trkpt>
      <trkpt lat="45.64309" lon="6.66298">
        <ele>2323.7</ele>
        <time>2022-02-08T13:59:57Z</time>
      </trkpt>
      <trkpt lat="45.64303" lon="6.66295">
        <ele>2322.7</ele>
        <time>2022-02-08T13:59:59Z</time>
      </trkpt>
      <trkpt lat="45.64293" lon="6.6629">
        <ele>2321</ele>
        <time>2022-02-08T14:00:01Z</time>
      </trkpt>
      <trkpt lat="45.64281" lon="6.66287">
        <ele>2319.5</ele>
        <time>2022-02-08T14:00:03Z</time>
      </trkpt>
      <trkpt lat="45.6427" lon="6.66284">
        <ele>2317.7</ele>
        <time>2022-02-08T14:00:05Z</time>
      </trkpt>
      <trkpt lat="45.64259" lon="6.66277">
        <ele>2315.8</ele>
        <time>2022-02-08T14:00:07Z</time>
      </trkpt>
      <trkpt lat="45.6425" lon="6.66269">
        <ele>2313.8</ele>
        <time>2022-02-08T14:00:09Z</time>
      </trkpt>
      <trkpt lat="45.64241" lon="6.66261">
        <ele>2312</ele>
        <time>2022-02-08T14:00:11Z</time>
      </trkpt>
      <trkpt lat="45.64233" lon="6.66252">
        <ele>2310.1</ele>
        <time>2022-02-08T14:00:13Z</time>
      </trkpt>
      <trkpt lat="45.64223" lon="6.66249">
        <ele>2307.8</ele>
        <time>2022-02-08T14:00:15Z</time>
      </trkpt>
      <trkpt lat="45.64214" lon="6.6625">
        <ele>2305.8</ele>
        <time>2022-02-08T14:00:17Z</time>
      </trkpt>
      <trkpt lat="45.64204" lon="6.66254">
        <ele>2303.2</ele>
        <time>2022-02-08T14:00:19Z</time>
      </trkpt>
      <trkpt lat="45.64192" lon="6.66257">
        <ele>2300.5</ele>
        <time>2022-02-08T14:00:21Z</time>
      </trkpt>
      <trkpt lat="45.6418" lon="6.6626">
        <ele>2297.5</ele>
        <time>2022-02-08T14:00:23Z</time>
      </trkpt>
      <trkpt lat="45.64171" lon="6.66263">
        <ele>2294.5</ele>
        <time>2022-02-08T14:00:25Z</time>
      </trkpt>
      <trkpt lat="45.64161" lon="6.66267">
        <ele>2290.7</ele>
        <time>2022-02-08T14:00:27Z</time>
      </trkpt>
      <trkpt lat="45.64149" lon="6.66272">
        <ele>2287.1</ele>
        <time>2022-02-08T14:00:29Z</time>
      </trkpt>
      <trkpt lat="45.64136" lon="6.66269">
        <ele>2283.5</ele>
        <time>2022-02-08T14:00:31Z</time>
      </trkpt>
      <trkpt lat="45.64123" lon="6.66265">
        <ele>2280.1</ele>
        <time>2022-02-08T14:00:33Z</time>
      </trkpt>
      <trkpt lat="45.6411" lon="6.66258">
        <ele>2276.8</ele>
        <time>2022-02-08T14:00:35Z</time>
      </trkpt>
      <trkpt lat="45.641" lon="6.6625">
        <ele>2273.4</ele>
        <time>2022-02-08T14:00:37Z</time>
      </trkpt>
      <trkpt lat="45.64092" lon="6.66242">
        <ele>2270.3</ele>
        <time>2022-02-08T14:00:39Z</time>
      </trkpt>
      <trkpt lat="45.64082" lon="6.66239">
        <ele>2266.9</ele>
        <time>2022-02-08T14:00:41Z</time>
      </trkpt>
      <trkpt lat="45.64071" lon="6.66241">
        <ele>2263.8</ele>
        <time>2022-02-08T14:00:43Z</time>
      </trkpt>
      <trkpt lat="45.6406" lon="6.66242">
        <ele>2259.9</ele>
        <time>2022-02-08T14:00:45Z</time>
      </trkpt>
      <trkpt lat="45.64051" lon="6.66253">
        <ele>2256.1</ele>
        <time>2022-02-08T14:00:47Z</time>
      </trkpt>
      <trkpt lat="45.6404" lon="6.66261">
        <ele>2252.4</ele>
        <time>2022-02-08T14:00:49Z</time>
      </trkpt>
      <trkpt lat="45.64029" lon="6.66262">
        <ele>2249.1</ele>
        <time>2022-02-08T14:00:51Z</time>
      </trkpt>
      <trkpt lat="45.64017" lon="6.6626">
        <ele>2245.8</ele>
        <time>2022-02-08T14:00:53Z</time>
      </trkpt>
      <trkpt lat="45.64004" lon="6.66257">
        <ele>2242.2</ele>
        <time>2022-02-08T14:00:55Z</time>
      </trkpt>
      <trkpt lat="45.6399" lon="6.66254">
        <ele>2239.2</ele>
        <time>2022-02-08T14:00:57Z</time>
      </trkpt>
      <trkpt lat="45.63976" lon="6.66252">
        <ele>2236</ele>
        <time>2022-02-08T14:00:59Z</time>
      </trkpt>
      <trkpt lat="45.63962" lon="6.66247">
        <ele>2232.8</ele>
        <time>2022-02-08T14:01:01Z</time>
      </trkpt>
      <trkpt lat="45.63947" lon="6.66245">
        <ele>2229.6</ele>
        <time>2022-02-08T14:01:03Z</time>
      </trkpt>
      <trkpt lat="45.63934" lon="6.66243">
        <ele>2226.7</ele>
        <time>2022-02-08T14:01:05Z</time>
      </trkpt>
      <trkpt lat="45.63921" lon="6.66243">
        <ele>2223.8</ele>
        <time>2022-02-08T14:01:07Z</time>
      </trkpt>
      <trkpt lat="45.63908" lon="6.66245">
        <ele>2221.2</ele>
        <time>2022-02-08T14:01:09Z</time>
      </trkpt>
      <trkpt lat="45.63889" lon="6.66242">
        <ele>2216.3</ele>
        <time>2022-02-08T14:01:12Z</time>
      </trkpt>
      <trkpt lat="45.63875" lon="6.66239">
        <ele>2213.4</ele>
        <time>2022-02-08T14:01:14Z</time>
      </trkpt>
      <trkpt lat="45.63861" lon="6.66237">
        <ele>2210.9</ele>
        <time>2022-02-08T14:01:16Z</time>
      </trkpt>
      <trkpt lat="45.63849" lon="6.66236">
        <ele>2208.4</ele>
        <time>2022-02-08T14:01:18Z</time>
      </trkpt>
      <trkpt lat="45.63837" lon="6.66236">
        <ele>2206.1</ele>
        <time>2022-02-08T14:01:20Z</time>
      </trkpt>
      <trkpt lat="45.63825" lon="6.66235">
        <ele>2203.2</ele>
        <time>2022-02-08T14:01:22Z</time>
      </trkpt>
      <trkpt lat="45.63812" lon="6.66237">
        <ele>2200.1</ele>
        <time>2022-02-08T14:01:24Z</time>
      </trkpt>
      <trkpt lat="45.63798" lon="6.66239">
        <ele>2197.3</ele>
        <time>2022-02-08T14:01:26Z</time>
      </trkpt>
      <trkpt lat="45.63784" lon="6.66243">
        <ele>2194.8</ele>
        <time>2022-02-08T14:01:28Z</time>
      </trkpt>
      <trkpt lat="45.6377" lon="6.66248">
        <ele>2192</ele>
        <time>2022-02-08T14:01:30Z</time>
      </trkpt>
      <trkpt lat="45.63757" lon="6.66249">
        <ele>2188.3</ele>
        <time>2022-02-08T14:01:32Z</time>
      </trkpt>
      <trkpt lat="45.63745" lon="6.66247">
        <ele>2185</ele>
        <time>2022-02-08T14:01:34Z</time>
      </trkpt>
      <trkpt lat="45.63733" lon="6.66242">
        <ele>2181.5</ele>
        <time>2022-02-08T14:01:36Z</time>
      </trkpt>
      <trkpt lat="45.63722" lon="6.66232">
        <ele>2178.5</ele>
        <time>2022-02-08T14:01:38Z</time>
      </trkpt>
      <trkpt lat="45.6371" lon="6.66224">
        <ele>2175.1</ele>
        <time>2022-02-08T14:01:40Z</time>
      </trkpt>
      <trkpt lat="45.63698" lon="6.66223">
        <ele>2172.8</ele>
        <time>2022-02-08T14:01:42Z</time>
      </trkpt>
      <trkpt lat="45.63687" lon="6.66224">
        <ele>2170.9</ele>
        <time>2022-02-08T14:01:44Z</time>
      </trkpt>
      <trkpt lat="45.63678" lon="6.66225">
        <ele>2169.2</ele>
        <time>2022-02-08T14:01:46Z</time>
      </trkpt>
      <trkpt lat="45.63669" lon="6.66226">
        <ele>2167.9</ele>
        <time>2022-02-08T14:01:48Z</time>
      </trkpt>
      <trkpt lat="45.63662" lon="6.66227">
        <ele>2166.8</ele>
        <time>2022-02-08T14:01:50Z</time>
      </trkpt>
      <trkpt lat="45.63657" lon="6.66227">
        <ele>2165.9</ele>
        <time>2022-02-08T14:01:52Z</time>
      </trkpt>
      <trkpt lat="45.63652" lon="6.66228">
        <ele>2165.2</ele>
        <time>2022-02-08T14:01:54Z</time>
      </trkpt>
      <trkpt lat="45.63647" lon="6.66228">
        <ele>2164.5</ele>
        <time>2022-02-08T14:01:56Z</time>
      </trkpt>
      <trkpt lat="45.63642" lon="6.6623">
        <ele>2163.6</ele>
        <time>2022-02-08T14:01:58Z</time>
      </trkpt>
      <trkpt lat="45.63637" lon="6.66233">
        <ele>2163</ele>
        <time>2022-02-08T14:02:00Z</time>
      </trkpt>
      <trkpt lat="45.63632" lon="6.66235">
        <ele>2162.3</ele>
        <time>2022-02-08T14:02:02Z</time>
      </trkpt>
      <trkpt lat="45.63623" lon="6.66239">
        <ele>2161.1</ele>
        <time>2022-02-08T14:02:04Z</time>
      </trkpt>
      <trkpt lat="45.63613" lon="6.66242">
        <ele>2160.2</ele>
        <time>2022-02-08T14:02:06Z</time>
      </trkpt>
      <trkpt lat="45.63604" lon="6.66244">
        <ele>2159.7</ele>
        <time>2022-02-08T14:02:08Z</time>
      </trkpt>
      <trkpt lat="45.63597" lon="6.66245">
        <ele>2158.9</ele>
        <time>2022-02-08T14:02:10Z</time>
      </trkpt>
      <trkpt lat="45.63588" lon="6.66245">
        <ele>2157.8</ele>
        <time>2022-02-08T14:02:12Z</time>
      </trkpt>
      <trkpt lat="45.6358" lon="6.66239">
        <ele>2156.4</ele>
        <time>2022-02-08T14:02:14Z</time>
      </trkpt>
      <trkpt lat="45.63571" lon="6.66235">
        <ele>2154.7</ele>
        <time>2022-02-08T14:02:16Z</time>
      </trkpt>
      <trkpt lat="45.63562" lon="6.66237">
        <ele>2153</ele>
        <time>2022-02-08T14:02:18Z</time>
      </trkpt>
      <trkpt lat="45.63552" lon="6.66242">
        <ele>2151.2</ele>
        <time>2022-02-08T14:02:20Z</time>
      </trkpt>
      <trkpt lat="45.63545" lon="6.66249">
        <ele>2149.8</ele>
        <time>2022-02-08T14:02:22Z</time>
      </trkpt>
      <trkpt lat="45.63537" lon="6.66256">
        <ele>2147.7</ele>
        <time>2022-02-08T14:02:24Z</time>
      </trkpt>
      <trkpt lat="45.63527" lon="6.66266">
        <ele>2145.2</ele>
        <time>2022-02-08T14:02:26Z</time>
      </trkpt>
      <trkpt lat="45.63516" lon="6.66269">
        <ele>2142.6</ele>
        <time>2022-02-08T14:02:28Z</time>
      </trkpt>
      <trkpt lat="45.63508" lon="6.66264">
        <ele>2140.1</ele>
        <time>2022-02-08T14:02:30Z</time>
      </trkpt>
      <trkpt lat="45.63499" lon="6.66258">
        <ele>2137.1</ele>
        <time>2022-02-08T14:02:32Z</time>
      </trkpt>
      <trkpt lat="45.63486" lon="6.66255">
        <ele>2132.6</ele>
        <time>2022-02-08T14:02:34Z</time>
      </trkpt>
      <trkpt lat="45.63474" lon="6.66254">
        <ele>2129.4</ele>
        <time>2022-02-08T14:02:36Z</time>
      </trkpt>
      <trkpt lat="45.63464" lon="6.66255">
        <ele>2126.1</ele>
        <time>2022-02-08T14:02:38Z</time>
      </trkpt>
      <trkpt lat="45.63454" lon="6.66257">
        <ele>2123.2</ele>
        <time>2022-02-08T14:02:40Z</time>
      </trkpt>
      <trkpt lat="45.63444" lon="6.6626">
        <ele>2120.6</ele>
        <time>2022-02-08T14:02:42Z</time>
      </trkpt>
      <trkpt lat="45.63434" lon="6.66264">
        <ele>2118.2</ele>
        <time>2022-02-08T14:02:44Z</time>
      </trkpt>
      <trkpt lat="45.63423" lon="6.66269">
        <ele>2115.8</ele>
        <time>2022-02-08T14:02:46Z</time>
      </trkpt>
      <trkpt lat="45.63411" lon="6.66276">
        <ele>2113.4</ele>
        <time>2022-02-08T14:02:48Z</time>
      </trkpt>
      <trkpt lat="45.63402" lon="6.66286">
        <ele>2111.2</ele>
        <time>2022-02-08T14:02:50Z</time>
      </trkpt>
      <trkpt lat="45.63395" lon="6.663">
        <ele>2108.8</ele>
        <time>2022-02-08T14:02:52Z</time>
      </trkpt>
      <trkpt lat="45.63388" lon="6.66315">
        <ele>2106.8</ele>
        <time>2022-02-08T14:02:54Z</time>
      </trkpt>
      <trkpt lat="45.63383" lon="6.66329">
        <ele>2105.3</ele>
        <time>2022-02-08T14:02:56Z</time>
      </trkpt>
      <trkpt lat="45.6338" lon="6.66338">
        <ele>2104.2</ele>
        <time>2022-02-08T14:02:58Z</time>
      </trkpt>
      <trkpt lat="45.63378" lon="6.66344">
        <ele>2102.5</ele>
        <time>2022-02-08T14:03:02Z</time>
      </trkpt>
      <trkpt lat="45.63376" lon="6.66337">
        <ele>2100.1</ele>
        <time>2022-02-08T14:03:07Z</time>
      </trkpt>
      <trkpt lat="45.63373" lon="6.66324">
        <ele>2098.6</ele>
        <time>2022-02-08T14:03:09Z</time>
      </trkpt>
      <trkpt lat="45.63371" lon="6.66309">
        <ele>2096.8</ele>
        <time>2022-02-08T14:03:11Z</time>
      </trkpt>
      <trkpt lat="45.63371" lon="6.66297">
        <ele>2095.4</ele>
        <time>2022-02-08T14:03:13Z</time>
      </trkpt>
      <trkpt lat="45.63367" lon="6.6629">
        <ele>2093.8</ele>
        <time>2022-02-08T14:03:15Z</time>
      </trkpt>
      <trkpt lat="45.63361" lon="6.66293">
        <ele>2091.9</ele>
        <time>2022-02-08T14:03:17Z</time>
      </trkpt>
      <trkpt lat="45.63353" lon="6.66301">
        <ele>2090.1</ele>
        <time>2022-02-08T14:03:19Z</time>
      </trkpt>
      <trkpt lat="45.63345" lon="6.66312">
        <ele>2088.2</ele>
        <time>2022-02-08T14:03:21Z</time>
      </trkpt>
      <trkpt lat="45.63332" lon="6.66329">
        <ele>2086.2</ele>
        <time>2022-02-08T14:03:24Z</time>
      </trkpt>
      <trkpt lat="45.63322" lon="6.66335">
        <ele>2084.7</ele>
        <time>2022-02-08T14:03:26Z</time>
      </trkpt>
      <trkpt lat="45.63312" lon="6.66333">
        <ele>2083.2</ele>
        <time>2022-02-08T14:03:28Z</time>
      </trkpt>
      <trkpt lat="45.63303" lon="6.66327">
        <ele>2081.8</ele>
        <time>2022-02-08T14:03:30Z</time>
      </trkpt>
      <trkpt lat="45.63289" lon="6.66318">
        <ele>2079.1</ele>
        <time>2022-02-08T14:03:33Z</time>
      </trkpt>
      <trkpt lat="45.63277" lon="6.66316">
        <ele>2077.3</ele>
        <time>2022-02-08T14:03:36Z</time>
      </trkpt>
      <trkpt lat="45.6327" lon="6.66321">
        <ele>2075.9</ele>
        <time>2022-02-08T14:03:38Z</time>
      </trkpt>
      <trkpt lat="45.63263" lon="6.66334">
        <ele>2073.7</ele>
        <time>2022-02-08T14:03:40Z</time>
      </trkpt>
      <trkpt lat="45.63258" lon="6.66346">
        <ele>2072</ele>
        <time>2022-02-08T14:03:42Z</time>
      </trkpt>
      <trkpt lat="45.63253" lon="6.6636">
        <ele>2070.7</ele>
        <time>2022-02-08T14:03:44Z</time>
      </trkpt>
      <trkpt lat="45.63249" lon="6.66374">
        <ele>2069.1</ele>
        <time>2022-02-08T14:03:46Z</time>
      </trkpt>
      <trkpt lat="45.63239" lon="6.66394">
        <ele>2066.3</ele>
        <time>2022-02-08T14:03:49Z</time>
      </trkpt>
      <trkpt lat="45.63236" lon="6.66399">
        <ele>2065.4</ele>
        <time>2022-02-08T14:03:51Z</time>
      </trkpt>
      <trkpt lat="45.63221" lon="6.66416">
        <ele>2061.9</ele>
        <time>2022-02-08T14:03:53Z</time>
      </trkpt>
      <trkpt lat="45.63212" lon="6.66428">
        <ele>2059.9</ele>
        <time>2022-02-08T14:03:56Z</time>
      </trkpt>
      <trkpt lat="45.63203" lon="6.66435">
        <ele>2058.1</ele>
        <time>2022-02-08T14:03:59Z</time>
      </trkpt>
      <trkpt lat="45.63198" lon="6.66436">
        <ele>2056.4</ele>
        <time>2022-02-08T14:04:06Z</time>
      </trkpt>
      <trkpt lat="45.63194" lon="6.66439">
        <ele>2050.9</ele>
        <time>2022-02-08T14:08:36Z</time>
      </trkpt>
      <trkpt lat="45.63189" lon="6.66436">
        <ele>2051.2</ele>
        <time>2022-02-08T14:08:43Z</time>
      </trkpt>
      <trkpt lat="45.63185" lon="6.66434">
        <ele>2052.7</ele>
        <time>2022-02-08T14:08:51Z</time>
      </trkpt>
      <trkpt lat="45.6318" lon="6.66434">
        <ele>2052.6</ele>
        <time>2022-02-08T14:08:58Z</time>
      </trkpt>
      <trkpt lat="45.63175" lon="6.66436">
        <ele>2051.4</ele>
        <time>2022-02-08T14:09:04Z</time>
      </trkpt>
      <trkpt lat="45.6317" lon="6.66436">
        <ele>2051.7</ele>
        <time>2022-02-08T14:09:12Z</time>
      </trkpt>
      <trkpt lat="45.63166" lon="6.6644">
        <ele>2054.3</ele>
        <time>2022-02-08T14:09:31Z</time>
      </trkpt>
      <trkpt lat="45.63162" lon="6.66443">
        <ele>2057</ele>
        <time>2022-02-08T14:09:43Z</time>
      </trkpt>
      <trkpt lat="45.63158" lon="6.66441">
        <ele>2059.5</ele>
        <time>2022-02-08T14:09:53Z</time>
      </trkpt>
      <trkpt lat="45.63154" lon="6.66436">
        <ele>2061.2</ele>
        <time>2022-02-08T14:10:02Z</time>
      </trkpt>
      <trkpt lat="45.63151" lon="6.66432">
        <ele>2062.5</ele>
        <time>2022-02-08T14:10:11Z</time>
      </trkpt>
      <trkpt lat="45.63149" lon="6.66426">
        <ele>2064</ele>
        <time>2022-02-08T14:10:21Z</time>
      </trkpt>
      <trkpt lat="45.63144" lon="6.66425">
        <ele>2064.8</ele>
        <time>2022-02-08T14:10:30Z</time>
      </trkpt>
      <trkpt lat="45.63139" lon="6.66424">
        <ele>2065.3</ele>
        <time>2022-02-08T14:10:37Z</time>
      </trkpt>
      <trkpt lat="45.63134" lon="6.66425">
        <ele>2065.7</ele>
        <time>2022-02-08T14:10:44Z</time>
      </trkpt>
      <trkpt lat="45.6313" lon="6.66427">
        <ele>2065.4</ele>
        <time>2022-02-08T14:10:51Z</time>
      </trkpt>
      <trkpt lat="45.63125" lon="6.66429">
        <ele>2065.8</ele>
        <time>2022-02-08T14:10:59Z</time>
      </trkpt>
      <trkpt lat="45.6312" lon="6.66431">
        <ele>2067.8</ele>
        <time>2022-02-08T14:11:08Z</time>
      </trkpt>
      <trkpt lat="45.63116" lon="6.66435">
        <ele>2070.4</ele>
        <time>2022-02-08T14:11:16Z</time>
      </trkpt>
      <trkpt lat="45.63112" lon="6.66438">
        <ele>2072.6</ele>
        <time>2022-02-08T14:11:25Z</time>
      </trkpt>
      <trkpt lat="45.63107" lon="6.66442">
        <ele>2074.1</ele>
        <time>2022-02-08T14:11:34Z</time>
      </trkpt>
      <trkpt lat="45.63103" lon="6.66445">
        <ele>2075.5</ele>
        <time>2022-02-08T14:11:43Z</time>
      </trkpt>
      <trkpt lat="45.63098" lon="6.66438">
        <ele>2077.2</ele>
        <time>2022-02-08T14:11:52Z</time>
      </trkpt>
      <trkpt lat="45.63094" lon="6.66436">
        <ele>2076.8</ele>
        <time>2022-02-08T14:11:56Z</time>
      </trkpt>
      <trkpt lat="45.6309" lon="6.66434">
        <ele>2075.7</ele>
        <time>2022-02-08T14:12:38Z</time>
      </trkpt>
      <trkpt lat="45.63085" lon="6.66436">
        <ele>2074.9</ele>
        <time>2022-02-08T14:12:42Z</time>
      </trkpt>
      <trkpt lat="45.6308" lon="6.66437">
        <ele>2074.2</ele>
        <time>2022-02-08T14:12:47Z</time>
      </trkpt>
      <trkpt lat="45.63075" lon="6.66438">
        <ele>2073.8</ele>
        <time>2022-02-08T14:12:52Z</time>
      </trkpt>
      <trkpt lat="45.63071" lon="6.66436">
        <ele>2074.2</ele>
        <time>2022-02-08T14:12:57Z</time>
      </trkpt>
      <trkpt lat="45.63066" lon="6.66435">
        <ele>2074.7</ele>
        <time>2022-02-08T14:13:03Z</time>
      </trkpt>
      <trkpt lat="45.6306" lon="6.66438">
        <ele>2074.1</ele>
        <time>2022-02-08T14:13:09Z</time>
      </trkpt>
      <trkpt lat="45.63056" lon="6.66439">
        <ele>2073.1</ele>
        <time>2022-02-08T14:13:14Z</time>
      </trkpt>
      <trkpt lat="45.63051" lon="6.6644">
        <ele>2071.8</ele>
        <time>2022-02-08T14:13:20Z</time>
      </trkpt>
      <trkpt lat="45.63046" lon="6.66443">
        <ele>2071.8</ele>
        <time>2022-02-08T14:13:26Z</time>
      </trkpt>
      <trkpt lat="45.63042" lon="6.66441">
        <ele>2073.6</ele>
        <time>2022-02-08T14:13:36Z</time>
      </trkpt>
      <trkpt lat="45.63037" lon="6.66437">
        <ele>2075.6</ele>
        <time>2022-02-08T14:13:45Z</time>
      </trkpt>
      <trkpt lat="45.63036" lon="6.66431">
        <ele>2076.8</ele>
        <time>2022-02-08T14:15:41Z</time>
      </trkpt>
      <trkpt lat="45.63031" lon="6.66428">
        <ele>2076.4</ele>
        <time>2022-02-08T14:15:46Z</time>
      </trkpt>
      <trkpt lat="45.63027" lon="6.66425">
        <ele>2076.8</ele>
        <time>2022-02-08T14:15:51Z</time>
      </trkpt>
      <trkpt lat="45.63023" lon="6.66421">
        <ele>2077.3</ele>
        <time>2022-02-08T14:15:56Z</time>
      </trkpt>
      <trkpt lat="45.63018" lon="6.66417">
        <ele>2077.7</ele>
        <time>2022-02-08T14:16:02Z</time>
      </trkpt>
      <trkpt lat="45.63015" lon="6.66412">
        <ele>2078.1</ele>
        <time>2022-02-08T14:16:07Z</time>
      </trkpt>
      <trkpt lat="45.63011" lon="6.66409">
        <ele>2078.2</ele>
        <time>2022-02-08T14:16:13Z</time>
      </trkpt>
      <trkpt lat="45.63007" lon="6.66405">
        <ele>2077.3</ele>
        <time>2022-02-08T14:16:19Z</time>
      </trkpt>
      <trkpt lat="45.63003" lon="6.66402">
        <ele>2076.9</ele>
        <time>2022-02-08T14:16:26Z</time>
      </trkpt>
      <trkpt lat="45.62999" lon="6.66398">
        <ele>2077.5</ele>
        <time>2022-02-08T14:16:33Z</time>
      </trkpt>
      <trkpt lat="45.62994" lon="6.66396">
        <ele>2079.4</ele>
        <time>2022-02-08T14:16:40Z</time>
      </trkpt>
      <trkpt lat="45.62989" lon="6.66394">
        <ele>2081.2</ele>
        <time>2022-02-08T14:16:47Z</time>
      </trkpt>
      <trkpt lat="45.62984" lon="6.66393">
        <ele>2084.1</ele>
        <time>2022-02-08T14:16:55Z</time>
      </trkpt>
      <trkpt lat="45.6298" lon="6.6639">
        <ele>2085.9</ele>
        <time>2022-02-08T14:17:03Z</time>
      </trkpt>
      <trkpt lat="45.62975" lon="6.66386">
        <ele>2086.4</ele>
        <time>2022-02-08T14:17:11Z</time>
      </trkpt>
      <trkpt lat="45.62971" lon="6.66386">
        <ele>2087.1</ele>
        <time>2022-02-08T14:17:18Z</time>
      </trkpt>
      <trkpt lat="45.62966" lon="6.66384">
        <ele>2087.7</ele>
        <time>2022-02-08T14:17:24Z</time>
      </trkpt>
      <trkpt lat="45.62962" lon="6.66382">
        <ele>2088.2</ele>
        <time>2022-02-08T14:17:31Z</time>
      </trkpt>
      <trkpt lat="45.62958" lon="6.66379">
        <ele>2088</ele>
        <time>2022-02-08T14:17:40Z</time>
      </trkpt>
      <trkpt lat="45.62955" lon="6.66374">
        <ele>2089.6</ele>
        <time>2022-02-08T14:17:49Z</time>
      </trkpt>
      <trkpt lat="45.62952" lon="6.66368">
        <ele>2091.3</ele>
        <time>2022-02-08T14:17:58Z</time>
      </trkpt>
      <trkpt lat="45.62948" lon="6.66365">
        <ele>2093</ele>
        <time>2022-02-08T14:18:06Z</time>
      </trkpt>
      <trkpt lat="45.62943" lon="6.66366">
        <ele>2093.7</ele>
        <time>2022-02-08T14:18:13Z</time>
      </trkpt>
      <trkpt lat="45.62939" lon="6.66368">
        <ele>2094.4</ele>
        <time>2022-02-08T14:18:21Z</time>
      </trkpt>
      <trkpt lat="45.62935" lon="6.66363">
        <ele>2096.1</ele>
        <time>2022-02-08T14:18:32Z</time>
      </trkpt>
      <trkpt lat="45.62933" lon="6.66357">
        <ele>2099</ele>
        <time>2022-02-08T14:18:42Z</time>
      </trkpt>
      <trkpt lat="45.62929" lon="6.66354">
        <ele>2099.8</ele>
        <time>2022-02-08T14:18:49Z</time>
      </trkpt>
      <trkpt lat="45.62925" lon="6.66353">
        <ele>2100.2</ele>
        <time>2022-02-08T14:18:57Z</time>
      </trkpt>
      <trkpt lat="45.6292" lon="6.66352">
        <ele>2099.9</ele>
        <time>2022-02-08T14:19:05Z</time>
      </trkpt>
      <trkpt lat="45.62915" lon="6.6635">
        <ele>2101.3</ele>
        <time>2022-02-08T14:19:15Z</time>
      </trkpt>
      <trkpt lat="45.6291" lon="6.66349">
        <ele>2104.7</ele>
        <time>2022-02-08T14:19:23Z</time>
      </trkpt>
      <trkpt lat="45.62906" lon="6.66349">
        <ele>2106.9</ele>
        <time>2022-02-08T14:19:31Z</time>
      </trkpt>
      <trkpt lat="45.62902" lon="6.66344">
        <ele>2109.3</ele>
        <time>2022-02-08T14:19:40Z</time>
      </trkpt>
      <trkpt lat="45.62899" lon="6.66339">
        <ele>2111.9</ele>
        <time>2022-02-08T14:19:50Z</time>
      </trkpt>
      <trkpt lat="45.62895" lon="6.66336">
        <ele>2113.5</ele>
        <time>2022-02-08T14:19:59Z</time>
      </trkpt>
      <trkpt lat="45.6289" lon="6.66334">
        <ele>2114.6</ele>
        <time>2022-02-08T14:20:06Z</time>
      </trkpt>
      <trkpt lat="45.62885" lon="6.66333">
        <ele>2114.8</ele>
        <time>2022-02-08T14:20:13Z</time>
      </trkpt>
      <trkpt lat="45.62881" lon="6.66331">
        <ele>2115.7</ele>
        <time>2022-02-08T14:20:22Z</time>
      </trkpt>
      <trkpt lat="45.62876" lon="6.6633">
        <ele>2117.2</ele>
        <time>2022-02-08T14:20:30Z</time>
      </trkpt>
      <trkpt lat="45.62872" lon="6.66326">
        <ele>2119.7</ele>
        <time>2022-02-08T14:20:38Z</time>
      </trkpt>
      <trkpt lat="45.62868" lon="6.66321">
        <ele>2121.4</ele>
        <time>2022-02-08T14:20:46Z</time>
      </trkpt>
      <trkpt lat="45.62864" lon="6.66317">
        <ele>2122.6</ele>
        <time>2022-02-08T14:20:53Z</time>
      </trkpt>
      <trkpt lat="45.62861" lon="6.66312">
        <ele>2123.6</ele>
        <time>2022-02-08T14:21:00Z</time>
      </trkpt>
      <trkpt lat="45.62858" lon="6.66307">
        <ele>2124.6</ele>
        <time>2022-02-08T14:21:06Z</time>
      </trkpt>
      <trkpt lat="45.62855" lon="6.66301">
        <ele>2126.5</ele>
        <time>2022-02-08T14:21:12Z</time>
      </trkpt>
      <trkpt lat="45.62852" lon="6.66296">
        <ele>2127.8</ele>
        <time>2022-02-08T14:21:18Z</time>
      </trkpt>
      <trkpt lat="45.6285" lon="6.6629">
        <ele>2129.5</ele>
        <time>2022-02-08T14:21:26Z</time>
      </trkpt>
      <trkpt lat="45.62846" lon="6.66285">
        <ele>2131.2</ele>
        <time>2022-02-08T14:21:36Z</time>
      </trkpt>
      <trkpt lat="45.62842" lon="6.66282">
        <ele>2132.5</ele>
        <time>2022-02-08T14:21:45Z</time>
      </trkpt>
      <trkpt lat="45.62838" lon="6.6628">
        <ele>2134.4</ele>
        <time>2022-02-08T14:21:53Z</time>
      </trkpt>
      <trkpt lat="45.62833" lon="6.6628">
        <ele>2135.6</ele>
        <time>2022-02-08T14:21:59Z</time>
      </trkpt>
      <trkpt lat="45.62829" lon="6.66282">
        <ele>2137.4</ele>
        <time>2022-02-08T14:22:06Z</time>
      </trkpt>
      <trkpt lat="45.62824" lon="6.66283">
        <ele>2139.2</ele>
        <time>2022-02-08T14:22:15Z</time>
      </trkpt>
      <trkpt lat="45.62819" lon="6.66279">
        <ele>2140.6</ele>
        <time>2022-02-08T14:22:23Z</time>
      </trkpt>
      <trkpt lat="45.62814" lon="6.66278">
        <ele>2141.1</ele>
        <time>2022-02-08T14:22:28Z</time>
      </trkpt>
      <trkpt lat="45.62809" lon="6.66278">
        <ele>2141.6</ele>
        <time>2022-02-08T14:22:33Z</time>
      </trkpt>
      <trkpt lat="45.62804" lon="6.66277">
        <ele>2141.6</ele>
        <time>2022-02-08T14:22:38Z</time>
      </trkpt>
      <trkpt lat="45.62799" lon="6.66276">
        <ele>2141.5</ele>
        <time>2022-02-08T14:22:42Z</time>
      </trkpt>
      <trkpt lat="45.62794" lon="6.66275">
        <ele>2141.3</ele>
        <time>2022-02-08T14:22:47Z</time>
      </trkpt>
      <trkpt lat="45.62789" lon="6.66274">
        <ele>2140.9</ele>
        <time>2022-02-08T14:22:52Z</time>
      </trkpt>
      <trkpt lat="45.62784" lon="6.66273">
        <ele>2140.7</ele>
        <time>2022-02-08T14:22:57Z</time>
      </trkpt>
      <trkpt lat="45.62779" lon="6.66271">
        <ele>2138.5</ele>
        <time>2022-02-08T14:23:03Z</time>
      </trkpt>
      <trkpt lat="45.62775" lon="6.66269">
        <ele>2136.9</ele>
        <time>2022-02-08T14:23:10Z</time>
      </trkpt>
      <trkpt lat="45.6277" lon="6.66266">
        <ele>2136</ele>
        <time>2022-02-08T14:23:17Z</time>
      </trkpt>
      <trkpt lat="45.62766" lon="6.66263">
        <ele>2137.2</ele>
        <time>2022-02-08T14:23:26Z</time>
      </trkpt>
      <trkpt lat="45.62763" lon="6.66259">
        <ele>2139.3</ele>
        <time>2022-02-08T14:23:37Z</time>
      </trkpt>
      <trkpt lat="45.62762" lon="6.66253">
        <ele>2142.3</ele>
        <time>2022-02-08T14:23:49Z</time>
      </trkpt>
      <trkpt lat="45.62762" lon="6.66246">
        <ele>2145</ele>
        <time>2022-02-08T14:24:01Z</time>
      </trkpt>
      <trkpt lat="45.62759" lon="6.66241">
        <ele>2147.9</ele>
        <time>2022-02-08T14:24:13Z</time>
      </trkpt>
      <trkpt lat="45.62755" lon="6.66239">
        <ele>2150.1</ele>
        <time>2022-02-08T14:24:26Z</time>
      </trkpt>
      <trkpt lat="45.6275" lon="6.66237">
        <ele>2152</ele>
        <time>2022-02-08T14:24:38Z</time>
      </trkpt>
      <trkpt lat="45.62746" lon="6.66235">
        <ele>2154.1</ele>
        <time>2022-02-08T14:24:52Z</time>
      </trkpt>
      <trkpt lat="45.62741" lon="6.66233">
        <ele>2154.5</ele>
        <time>2022-02-08T14:25:01Z</time>
      </trkpt>
      <trkpt lat="45.62737" lon="6.6623">
        <ele>2154.9</ele>
        <time>2022-02-08T14:25:11Z</time>
      </trkpt>
      <trkpt lat="45.62732" lon="6.6623">
        <ele>2156.2</ele>
        <time>2022-02-08T14:25:21Z</time>
      </trkpt>
      <trkpt lat="45.62728" lon="6.66229">
        <ele>2158.2</ele>
        <time>2022-02-08T14:25:32Z</time>
      </trkpt>
      <trkpt lat="45.62723" lon="6.66228">
        <ele>2159.2</ele>
        <time>2022-02-08T14:25:42Z</time>
      </trkpt>
      <trkpt lat="45.62718" lon="6.66226">
        <ele>2160</ele>
        <time>2022-02-08T14:25:53Z</time>
      </trkpt>
      <trkpt lat="45.62714" lon="6.66223">
        <ele>2162.6</ele>
        <time>2022-02-08T14:26:05Z</time>
      </trkpt>
      <trkpt lat="45.62709" lon="6.66222">
        <ele>2164.2</ele>
        <time>2022-02-08T14:26:15Z</time>
      </trkpt>
      <trkpt lat="45.62705" lon="6.6622">
        <ele>2167.4</ele>
        <time>2022-02-08T14:26:26Z</time>
      </trkpt>
      <trkpt lat="45.627" lon="6.66221">
        <ele>2168.2</ele>
        <time>2022-02-08T14:26:35Z</time>
      </trkpt>
      <trkpt lat="45.62695" lon="6.66221">
        <ele>2170.2</ele>
        <time>2022-02-08T14:26:45Z</time>
      </trkpt>
      <trkpt lat="45.6269" lon="6.6622">
        <ele>2172.8</ele>
        <time>2022-02-08T14:26:56Z</time>
      </trkpt>
      <trkpt lat="45.62685" lon="6.66221">
        <ele>2174.9</ele>
        <time>2022-02-08T14:27:06Z</time>
      </trkpt>
      <trkpt lat="45.62681" lon="6.66221">
        <ele>2175.7</ele>
        <time>2022-02-08T14:27:18Z</time>
      </trkpt>
      <trkpt lat="45.62676" lon="6.66218">
        <ele>2177.2</ele>
        <time>2022-02-08T14:27:30Z</time>
      </trkpt>
      <trkpt lat="45.62673" lon="6.66215">
        <ele>2178.5</ele>
        <time>2022-02-08T14:27:40Z</time>
      </trkpt>
      <trkpt lat="45.62669" lon="6.66211">
        <ele>2179.3</ele>
        <time>2022-02-08T14:27:49Z</time>
      </trkpt>
      <trkpt lat="45.62665" lon="6.66207">
        <ele>2180.5</ele>
        <time>2022-02-08T14:27:59Z</time>
      </trkpt>
      <trkpt lat="45.62661" lon="6.66203">
        <ele>2180.9</ele>
        <time>2022-02-08T14:28:07Z</time>
      </trkpt>
      <trkpt lat="45.62657" lon="6.662">
        <ele>2183.3</ele>
        <time>2022-02-08T14:28:17Z</time>
      </trkpt>
      <trkpt lat="45.62652" lon="6.66198">
        <ele>2184.2</ele>
        <time>2022-02-08T14:28:25Z</time>
      </trkpt>
      <trkpt lat="45.62648" lon="6.66194">
        <ele>2186.2</ele>
        <time>2022-02-08T14:28:33Z</time>
      </trkpt>
      <trkpt lat="45.62644" lon="6.66192">
        <ele>2188.2</ele>
        <time>2022-02-08T14:28:41Z</time>
      </trkpt>
      <trkpt lat="45.6264" lon="6.6619">
        <ele>2189</ele>
        <time>2022-02-08T14:28:47Z</time>
      </trkpt>
      <trkpt lat="45.62635" lon="6.66188">
        <ele>2189.1</ele>
        <time>2022-02-08T14:28:53Z</time>
      </trkpt>
      <trkpt lat="45.6263" lon="6.66186">
        <ele>2189.5</ele>
        <time>2022-02-08T14:29:01Z</time>
      </trkpt>
      <trkpt lat="45.62626" lon="6.66184">
        <ele>2190.5</ele>
        <time>2022-02-08T14:29:09Z</time>
      </trkpt>
      <trkpt lat="45.62621" lon="6.66184">
        <ele>2190.8</ele>
        <time>2022-02-08T14:29:17Z</time>
      </trkpt>
      <trkpt lat="45.62616" lon="6.66184">
        <ele>2192.4</ele>
        <time>2022-02-08T14:29:25Z</time>
      </trkpt>
      <trkpt lat="45.62612" lon="6.66184">
        <ele>2194.3</ele>
        <time>2022-02-08T14:29:34Z</time>
      </trkpt>
      <trkpt lat="45.62607" lon="6.66184">
        <ele>2196.4</ele>
        <time>2022-02-08T14:29:44Z</time>
      </trkpt>
      <trkpt lat="45.62602" lon="6.66183">
        <ele>2198.4</ele>
        <time>2022-02-08T14:29:53Z</time>
      </trkpt>
      <trkpt lat="45.62598" lon="6.6618">
        <ele>2199.8</ele>
        <time>2022-02-08T14:30:02Z</time>
      </trkpt>
      <trkpt lat="45.62593" lon="6.66177">
        <ele>2200.7</ele>
        <time>2022-02-08T14:30:12Z</time>
      </trkpt>
      <trkpt lat="45.62589" lon="6.66174">
        <ele>2201.7</ele>
        <time>2022-02-08T14:30:21Z</time>
      </trkpt>
      <trkpt lat="45.62585" lon="6.66173">
        <ele>2203.4</ele>
        <time>2022-02-08T14:30:29Z</time>
      </trkpt>
      <trkpt lat="45.6258" lon="6.66169">
        <ele>2204.6</ele>
        <time>2022-02-08T14:30:39Z</time>
      </trkpt>
      <trkpt lat="45.62577" lon="6.66165">
        <ele>2206.3</ele>
        <time>2022-02-08T14:30:48Z</time>
      </trkpt>
      <trkpt lat="45.62572" lon="6.66162">
        <ele>2207.2</ele>
        <time>2022-02-08T14:30:57Z</time>
      </trkpt>
      <trkpt lat="45.62568" lon="6.66159">
        <ele>2208.1</ele>
        <time>2022-02-08T14:31:05Z</time>
      </trkpt>
      <trkpt lat="45.62564" lon="6.66157">
        <ele>2209.8</ele>
        <time>2022-02-08T14:31:15Z</time>
      </trkpt>
      <trkpt lat="45.62559" lon="6.66155">
        <ele>2211</ele>
        <time>2022-02-08T14:31:25Z</time>
      </trkpt>
      <trkpt lat="45.62554" lon="6.66155">
        <ele>2212.8</ele>
        <time>2022-02-08T14:31:34Z</time>
      </trkpt>
      <trkpt lat="45.62549" lon="6.66153">
        <ele>2214.4</ele>
        <time>2022-02-08T14:31:45Z</time>
      </trkpt>
      <trkpt lat="45.62545" lon="6.66151">
        <ele>2215.9</ele>
        <time>2022-02-08T14:31:56Z</time>
      </trkpt>
      <trkpt lat="45.6254" lon="6.6615">
        <ele>2217.3</ele>
        <time>2022-02-08T14:32:05Z</time>
      </trkpt>
      <trkpt lat="45.62535" lon="6.66148">
        <ele>2219</ele>
        <time>2022-02-08T14:32:16Z</time>
      </trkpt>
      <trkpt lat="45.62532" lon="6.66144">
        <ele>2220.7</ele>
        <time>2022-02-08T14:32:26Z</time>
      </trkpt>
      <trkpt lat="45.6253" lon="6.66137">
        <ele>2222.4</ele>
        <time>2022-02-08T14:32:34Z</time>
      </trkpt>
      <trkpt lat="45.62527" lon="6.66132">
        <ele>2223.6</ele>
        <time>2022-02-08T14:32:43Z</time>
      </trkpt>
      <trkpt lat="45.62523" lon="6.66127">
        <ele>2224.5</ele>
        <time>2022-02-08T14:32:52Z</time>
      </trkpt>
      <trkpt lat="45.6252" lon="6.66124">
        <ele>2225</ele>
        <time>2022-02-08T14:33:00Z</time>
      </trkpt>
      <trkpt lat="45.62516" lon="6.6612">
        <ele>2226.2</ele>
        <time>2022-02-08T14:33:09Z</time>
      </trkpt>
      <trkpt lat="45.62511" lon="6.66117">
        <ele>2227.1</ele>
        <time>2022-02-08T14:33:18Z</time>
      </trkpt>
      <trkpt lat="45.62507" lon="6.66115">
        <ele>2228.2</ele>
        <time>2022-02-08T14:33:28Z</time>
      </trkpt>
      <trkpt lat="45.62502" lon="6.66113">
        <ele>2229</ele>
        <time>2022-02-08T14:33:39Z</time>
      </trkpt>
      <trkpt lat="45.62497" lon="6.66111">
        <ele>2230.2</ele>
        <time>2022-02-08T14:33:49Z</time>
      </trkpt>
      <trkpt lat="45.62492" lon="6.66112">
        <ele>2232.5</ele>
        <time>2022-02-08T14:33:59Z</time>
      </trkpt>
      <trkpt lat="45.62488" lon="6.66114">
        <ele>2234.7</ele>
        <time>2022-02-08T14:34:08Z</time>
      </trkpt>
      <trkpt lat="45.62483" lon="6.66111">
        <ele>2236.4</ele>
        <time>2022-02-08T14:34:19Z</time>
      </trkpt>
      <trkpt lat="45.6248" lon="6.66107">
        <ele>2237.2</ele>
        <time>2022-02-08T14:34:26Z</time>
      </trkpt>
      <trkpt lat="45.62477" lon="6.66101">
        <ele>2238.2</ele>
        <time>2022-02-08T14:34:33Z</time>
      </trkpt>
      <trkpt lat="45.62475" lon="6.66095">
        <ele>2240.3</ele>
        <time>2022-02-08T14:34:42Z</time>
      </trkpt>
      <trkpt lat="45.62472" lon="6.6609">
        <ele>2242</ele>
        <time>2022-02-08T14:34:50Z</time>
      </trkpt>
      <trkpt lat="45.62469" lon="6.66085">
        <ele>2243</ele>
        <time>2022-02-08T14:34:58Z</time>
      </trkpt>
      <trkpt lat="45.62466" lon="6.6608">
        <ele>2243.7</ele>
        <time>2022-02-08T14:35:05Z</time>
      </trkpt>
      <trkpt lat="45.62462" lon="6.66076">
        <ele>2244.6</ele>
        <time>2022-02-08T14:35:13Z</time>
      </trkpt>
      <trkpt lat="45.62459" lon="6.66071">
        <ele>2246.2</ele>
        <time>2022-02-08T14:35:21Z</time>
      </trkpt>
      <trkpt lat="45.62455" lon="6.66066">
        <ele>2247.5</ele>
        <time>2022-02-08T14:35:28Z</time>
      </trkpt>
      <trkpt lat="45.62451" lon="6.66062">
        <ele>2248.6</ele>
        <time>2022-02-08T14:35:36Z</time>
      </trkpt>
      <trkpt lat="45.62448" lon="6.66058">
        <ele>2249.6</ele>
        <time>2022-02-08T14:35:43Z</time>
      </trkpt>
      <trkpt lat="45.62444" lon="6.66053">
        <ele>2251.1</ele>
        <time>2022-02-08T14:35:51Z</time>
      </trkpt>
      <trkpt lat="45.62441" lon="6.66048">
        <ele>2252.3</ele>
        <time>2022-02-08T14:35:58Z</time>
      </trkpt>
      <trkpt lat="45.62437" lon="6.66043">
        <ele>2253.4</ele>
        <time>2022-02-08T14:36:04Z</time>
      </trkpt>
      <trkpt lat="45.62432" lon="6.6604">
        <ele>2254.2</ele>
        <time>2022-02-08T14:36:09Z</time>
      </trkpt>
      <trkpt lat="45.62428" lon="6.66035">
        <ele>2254.8</ele>
        <time>2022-02-08T14:36:15Z</time>
      </trkpt>
      <trkpt lat="45.62425" lon="6.6603">
        <ele>2255.9</ele>
        <time>2022-02-08T14:36:22Z</time>
      </trkpt>
      <trkpt lat="45.62423" lon="6.66024">
        <ele>2257.4</ele>
        <time>2022-02-08T14:36:31Z</time>
      </trkpt>
      <trkpt lat="45.62419" lon="6.66019">
        <ele>2258.6</ele>
        <time>2022-02-08T14:36:40Z</time>
      </trkpt>
      <trkpt lat="45.62416" lon="6.66014">
        <ele>2259.5</ele>
        <time>2022-02-08T14:36:48Z</time>
      </trkpt>
      <trkpt lat="45.62412" lon="6.6601">
        <ele>2259.9</ele>
        <time>2022-02-08T14:36:57Z</time>
      </trkpt>
      <trkpt lat="45.62409" lon="6.66005">
        <ele>2260.7</ele>
        <time>2022-02-08T14:37:04Z</time>
      </trkpt>
      <trkpt lat="45.62405" lon="6.66001">
        <ele>2262.2</ele>
        <time>2022-02-08T14:37:12Z</time>
      </trkpt>
      <trkpt lat="45.62401" lon="6.65996">
        <ele>2263.6</ele>
        <time>2022-02-08T14:37:20Z</time>
      </trkpt>
      <trkpt lat="45.62398" lon="6.65991">
        <ele>2264.6</ele>
        <time>2022-02-08T14:37:28Z</time>
      </trkpt>
      <trkpt lat="45.62395" lon="6.65986">
        <ele>2266.3</ele>
        <time>2022-02-08T14:37:37Z</time>
      </trkpt>
      <trkpt lat="45.62392" lon="6.65981">
        <ele>2268.4</ele>
        <time>2022-02-08T14:37:45Z</time>
      </trkpt>
      <trkpt lat="45.62389" lon="6.65975">
        <ele>2270.1</ele>
        <time>2022-02-08T14:37:54Z</time>
      </trkpt>
      <trkpt lat="45.62385" lon="6.65971">
        <ele>2272.3</ele>
        <time>2022-02-08T14:38:04Z</time>
      </trkpt>
      <trkpt lat="45.62381" lon="6.65967">
        <ele>2273.7</ele>
        <time>2022-02-08T14:38:13Z</time>
      </trkpt>
      <trkpt lat="45.62378" lon="6.65963">
        <ele>2274.7</ele>
        <time>2022-02-08T14:38:22Z</time>
      </trkpt>
      <trkpt lat="45.62374" lon="6.65958">
        <ele>2276.3</ele>
        <time>2022-02-08T14:38:32Z</time>
      </trkpt>
      <trkpt lat="45.62371" lon="6.65954">
        <ele>2277.7</ele>
        <time>2022-02-08T14:38:42Z</time>
      </trkpt>
      <trkpt lat="45.62367" lon="6.65949">
        <ele>2279</ele>
        <time>2022-02-08T14:38:50Z</time>
      </trkpt>
      <trkpt lat="45.62364" lon="6.65945">
        <ele>2280.7</ele>
        <time>2022-02-08T14:39:00Z</time>
      </trkpt>
      <trkpt lat="45.62361" lon="6.6594">
        <ele>2282.3</ele>
        <time>2022-02-08T14:39:09Z</time>
      </trkpt>
      <trkpt lat="45.62358" lon="6.65935">
        <ele>2284</ele>
        <time>2022-02-08T14:39:19Z</time>
      </trkpt>
      <trkpt lat="45.62354" lon="6.6593">
        <ele>2285.2</ele>
        <time>2022-02-08T14:39:28Z</time>
      </trkpt>
      <trkpt lat="45.62351" lon="6.65936">
        <ele>2287.5</ele>
        <time>2022-02-08T14:39:40Z</time>
      </trkpt>
      <trkpt lat="45.62349" lon="6.65942">
        <ele>2291.4</ele>
        <time>2022-02-08T14:39:51Z</time>
      </trkpt>
      <trkpt lat="45.62346" lon="6.65947">
        <ele>2293.6</ele>
        <time>2022-02-08T14:40:01Z</time>
      </trkpt>
      <trkpt lat="45.62344" lon="6.65953">
        <ele>2295.3</ele>
        <time>2022-02-08T14:40:10Z</time>
      </trkpt>
      <trkpt lat="45.62341" lon="6.65959">
        <ele>2296.3</ele>
        <time>2022-02-08T14:40:20Z</time>
      </trkpt>
      <trkpt lat="45.62339" lon="6.65965">
        <ele>2298</ele>
        <time>2022-02-08T14:40:30Z</time>
      </trkpt>
      <trkpt lat="45.62336" lon="6.6597">
        <ele>2300.3</ele>
        <time>2022-02-08T14:40:39Z</time>
      </trkpt>
      <trkpt lat="45.62332" lon="6.65969">
        <ele>2301.9</ele>
        <time>2022-02-08T14:40:52Z</time>
      </trkpt>
      <trkpt lat="45.62328" lon="6.65965">
        <ele>2303.2</ele>
        <time>2022-02-08T14:41:01Z</time>
      </trkpt>
      <trkpt lat="45.62326" lon="6.65959">
        <ele>2304.4</ele>
        <time>2022-02-08T14:41:10Z</time>
      </trkpt>
      <trkpt lat="45.62324" lon="6.65953">
        <ele>2305.8</ele>
        <time>2022-02-08T14:41:19Z</time>
      </trkpt>
      <trkpt lat="45.62321" lon="6.65947">
        <ele>2307</ele>
        <time>2022-02-08T14:41:28Z</time>
      </trkpt>
      <trkpt lat="45.62318" lon="6.65941">
        <ele>2307.6</ele>
        <time>2022-02-08T14:41:38Z</time>
      </trkpt>
      <trkpt lat="45.62315" lon="6.65937">
        <ele>2308.4</ele>
        <time>2022-02-08T14:41:47Z</time>
      </trkpt>
      <trkpt lat="45.62312" lon="6.65932">
        <ele>2310.1</ele>
        <time>2022-02-08T14:41:56Z</time>
      </trkpt>
      <trkpt lat="45.62309" lon="6.65926">
        <ele>2311.4</ele>
        <time>2022-02-08T14:42:05Z</time>
      </trkpt>
      <trkpt lat="45.62305" lon="6.65922">
        <ele>2312.8</ele>
        <time>2022-02-08T14:42:13Z</time>
      </trkpt>
      <trkpt lat="45.62302" lon="6.65917">
        <ele>2314.3</ele>
        <time>2022-02-08T14:42:21Z</time>
      </trkpt>
      <trkpt lat="45.62298" lon="6.65913">
        <ele>2315.7</ele>
        <time>2022-02-08T14:42:30Z</time>
      </trkpt>
      <trkpt lat="45.62294" lon="6.65909">
        <ele>2316.7</ele>
        <time>2022-02-08T14:42:38Z</time>
      </trkpt>
      <trkpt lat="45.6229" lon="6.65905">
        <ele>2318.2</ele>
        <time>2022-02-08T14:42:47Z</time>
      </trkpt>
      <trkpt lat="45.62286" lon="6.65901">
        <ele>2320.3</ele>
        <time>2022-02-08T14:42:55Z</time>
      </trkpt>
      <trkpt lat="45.62282" lon="6.65898">
        <ele>2322</ele>
        <time>2022-02-08T14:43:03Z</time>
      </trkpt>
      <trkpt lat="45.62277" lon="6.65897">
        <ele>2323.5</ele>
        <time>2022-02-08T14:43:09Z</time>
      </trkpt>
      <trkpt lat="45.62272" lon="6.65895">
        <ele>2324.8</ele>
        <time>2022-02-08T14:43:15Z</time>
      </trkpt>
      <trkpt lat="45.62267" lon="6.65894">
        <ele>2325.5</ele>
        <time>2022-02-08T14:43:21Z</time>
      </trkpt>
      <trkpt lat="45.62262" lon="6.65893">
        <ele>2325.8</ele>
        <time>2022-02-08T14:43:27Z</time>
      </trkpt>
      <trkpt lat="45.62257" lon="6.65894">
        <ele>2326.4</ele>
        <time>2022-02-08T14:43:33Z</time>
      </trkpt>
      <trkpt lat="45.62253" lon="6.65897">
        <ele>2327.6</ele>
        <time>2022-02-08T14:43:39Z</time>
      </trkpt>
      <trkpt lat="45.62249" lon="6.65901">
        <ele>2329.2</ele>
        <time>2022-02-08T14:43:46Z</time>
      </trkpt>
      <trkpt lat="45.62245" lon="6.65905">
        <ele>2330.8</ele>
        <time>2022-02-08T14:43:54Z</time>
      </trkpt>
      <trkpt lat="45.62241" lon="6.65909">
        <ele>2332.3</ele>
        <time>2022-02-08T14:44:02Z</time>
      </trkpt>
      <trkpt lat="45.62237" lon="6.65914">
        <ele>2333.9</ele>
        <time>2022-02-08T14:44:11Z</time>
      </trkpt>
      <trkpt lat="45.62233" lon="6.65917">
        <ele>2334.9</ele>
        <time>2022-02-08T14:44:18Z</time>
      </trkpt>
      <trkpt lat="45.62229" lon="6.6592">
        <ele>2335.8</ele>
        <time>2022-02-08T14:44:25Z</time>
      </trkpt>
      <trkpt lat="45.62224" lon="6.65923">
        <ele>2335.9</ele>
        <time>2022-02-08T14:44:31Z</time>
      </trkpt>
      <trkpt lat="45.6222" lon="6.65927">
        <ele>2335.5</ele>
        <time>2022-02-08T14:44:37Z</time>
      </trkpt>
      <trkpt lat="45.62216" lon="6.65931">
        <ele>2335.5</ele>
        <time>2022-02-08T14:44:42Z</time>
      </trkpt>
      <trkpt lat="45.62212" lon="6.65933">
        <ele>2335.6</ele>
        <time>2022-02-08T14:44:46Z</time>
      </trkpt>
      <trkpt lat="45.62207" lon="6.65936">
        <ele>2336</ele>
        <time>2022-02-08T14:44:50Z</time>
      </trkpt>
      <trkpt lat="45.62202" lon="6.65938">
        <ele>2336.7</ele>
        <time>2022-02-08T14:44:54Z</time>
      </trkpt>
      <trkpt lat="45.62197" lon="6.65939">
        <ele>2338.6</ele>
        <time>2022-02-08T14:44:58Z</time>
      </trkpt>
      <trkpt lat="45.62192" lon="6.65939">
        <ele>2340.7</ele>
        <time>2022-02-08T14:45:05Z</time>
      </trkpt>
      <trkpt lat="45.62187" lon="6.6594">
        <ele>2342</ele>
        <time>2022-02-08T14:45:13Z</time>
      </trkpt>
      <trkpt lat="45.62183" lon="6.6594">
        <ele>2341.9</ele>
        <time>2022-02-08T14:45:21Z</time>
      </trkpt>
      <trkpt lat="45.62178" lon="6.65939">
        <ele>2341.6</ele>
        <time>2022-02-08T14:45:28Z</time>
      </trkpt>
      <trkpt lat="45.62173" lon="6.6594">
        <ele>2341.5</ele>
        <time>2022-02-08T14:45:36Z</time>
      </trkpt>
      <trkpt lat="45.62168" lon="6.65941">
        <ele>2341.6</ele>
        <time>2022-02-08T14:45:42Z</time>
      </trkpt>
      <trkpt lat="45.62163" lon="6.65942">
        <ele>2341.4</ele>
        <time>2022-02-08T14:45:48Z</time>
      </trkpt>
      <trkpt lat="45.62158" lon="6.65944">
        <ele>2341.2</ele>
        <time>2022-02-08T14:45:54Z</time>
      </trkpt>
      <trkpt lat="45.62153" lon="6.65945">
        <ele>2340.7</ele>
        <time>2022-02-08T14:46:00Z</time>
      </trkpt>
      <trkpt lat="45.62149" lon="6.65946">
        <ele>2340.7</ele>
        <time>2022-02-08T14:46:05Z</time>
      </trkpt>
      <trkpt lat="45.62143" lon="6.65947">
        <ele>2340.7</ele>
        <time>2022-02-08T14:46:11Z</time>
      </trkpt>
      <trkpt lat="45.62139" lon="6.65947">
        <ele>2341.3</ele>
        <time>2022-02-08T14:46:16Z</time>
      </trkpt>
      <trkpt lat="45.62134" lon="6.65947">
        <ele>2342.5</ele>
        <time>2022-02-08T14:46:22Z</time>
      </trkpt>
      <trkpt lat="45.62129" lon="6.65947">
        <ele>2343.5</ele>
        <time>2022-02-08T14:46:28Z</time>
      </trkpt>
      <trkpt lat="45.62125" lon="6.65947">
        <ele>2344.5</ele>
        <time>2022-02-08T14:46:34Z</time>
      </trkpt>
      <trkpt lat="45.6212" lon="6.65948">
        <ele>2344.5</ele>
        <time>2022-02-08T14:46:41Z</time>
      </trkpt>
      <trkpt lat="45.62116" lon="6.6595">
        <ele>2344.4</ele>
        <time>2022-02-08T14:46:47Z</time>
      </trkpt>
      <trkpt lat="45.62111" lon="6.65953">
        <ele>2343.9</ele>
        <time>2022-02-08T14:46:53Z</time>
      </trkpt>
      <trkpt lat="45.62107" lon="6.65955">
        <ele>2344.1</ele>
        <time>2022-02-08T14:46:58Z</time>
      </trkpt>
      <trkpt lat="45.62102" lon="6.65958">
        <ele>2344</ele>
        <time>2022-02-08T14:47:04Z</time>
      </trkpt>
      <trkpt lat="45.62098" lon="6.6596">
        <ele>2344.8</ele>
        <time>2022-02-08T14:47:10Z</time>
      </trkpt>
      <trkpt lat="45.62093" lon="6.6596">
        <ele>2346.2</ele>
        <time>2022-02-08T14:47:17Z</time>
      </trkpt>
      <trkpt lat="45.62088" lon="6.65961">
        <ele>2347.4</ele>
        <time>2022-02-08T14:47:24Z</time>
      </trkpt>
      <trkpt lat="45.62083" lon="6.65962">
        <ele>2348.3</ele>
        <time>2022-02-08T14:47:31Z</time>
      </trkpt>
      <trkpt lat="45.62078" lon="6.65963">
        <ele>2349.9</ele>
        <time>2022-02-08T14:47:40Z</time>
      </trkpt>
      <trkpt lat="45.62073" lon="6.65964">
        <ele>2351.4</ele>
        <time>2022-02-08T14:47:48Z</time>
      </trkpt>
      <trkpt lat="45.62069" lon="6.65965">
        <ele>2352.6</ele>
        <time>2022-02-08T14:47:56Z</time>
      </trkpt>
      <trkpt lat="45.62064" lon="6.65966">
        <ele>2353.6</ele>
        <time>2022-02-08T14:48:03Z</time>
      </trkpt>
      <trkpt lat="45.62059" lon="6.65967">
        <ele>2354.2</ele>
        <time>2022-02-08T14:48:10Z</time>
      </trkpt>
      <trkpt lat="45.62054" lon="6.65969">
        <ele>2354.7</ele>
        <time>2022-02-08T14:48:18Z</time>
      </trkpt>
      <trkpt lat="45.6205" lon="6.6597">
        <ele>2355.5</ele>
        <time>2022-02-08T14:48:24Z</time>
      </trkpt>
      <trkpt lat="45.62045" lon="6.65972">
        <ele>2355.9</ele>
        <time>2022-02-08T14:48:32Z</time>
      </trkpt>
      <trkpt lat="45.6204" lon="6.65974">
        <ele>2355.8</ele>
        <time>2022-02-08T14:48:39Z</time>
      </trkpt>
      <trkpt lat="45.62036" lon="6.65977">
        <ele>2355.2</ele>
        <time>2022-02-08T14:48:46Z</time>
      </trkpt>
      <trkpt lat="45.62031" lon="6.6598">
        <ele>2355.1</ele>
        <time>2022-02-08T14:48:52Z</time>
      </trkpt>
      <trkpt lat="45.62027" lon="6.65983">
        <ele>2355.2</ele>
        <time>2022-02-08T14:48:58Z</time>
      </trkpt>
      <trkpt lat="45.62023" lon="6.65986">
        <ele>2355.4</ele>
        <time>2022-02-08T14:49:04Z</time>
      </trkpt>
      <trkpt lat="45.62019" lon="6.6599">
        <ele>2355.7</ele>
        <time>2022-02-08T14:49:10Z</time>
      </trkpt>
      <trkpt lat="45.62014" lon="6.65992">
        <ele>2356.5</ele>
        <time>2022-02-08T14:49:17Z</time>
      </trkpt>
      <trkpt lat="45.62009" lon="6.65993">
        <ele>2358.3</ele>
        <time>2022-02-08T14:49:24Z</time>
      </trkpt>
      <trkpt lat="45.62005" lon="6.65996">
        <ele>2359.9</ele>
        <time>2022-02-08T14:49:32Z</time>
      </trkpt>
      <trkpt lat="45.62001" lon="6.65999">
        <ele>2361.3</ele>
        <time>2022-02-08T14:49:40Z</time>
      </trkpt>
      <trkpt lat="45.61997" lon="6.66002">
        <ele>2362.4</ele>
        <time>2022-02-08T14:49:50Z</time>
      </trkpt>
      <trkpt lat="45.61992" lon="6.66005">
        <ele>2364.1</ele>
        <time>2022-02-08T14:50:01Z</time>
      </trkpt>
      <trkpt lat="45.61988" lon="6.66008">
        <ele>2366.1</ele>
        <time>2022-02-08T14:50:17Z</time>
      </trkpt>
      <trkpt lat="45.61984" lon="6.66011">
        <ele>2368.2</ele>
        <time>2022-02-08T14:50:45Z</time>
      </trkpt>
      <trkpt lat="45.6198" lon="6.66014">
        <ele>2370.1</ele>
        <time>2022-02-08T14:51:03Z</time>
      </trkpt>
      <trkpt lat="45.61976" lon="6.66017">
        <ele>2372.1</ele>
        <time>2022-02-08T14:51:16Z</time>
      </trkpt>
      <trkpt lat="45.61972" lon="6.66021">
        <ele>2372.8</ele>
        <time>2022-02-08T14:51:25Z</time>
      </trkpt>
      <trkpt lat="45.61968" lon="6.66023">
        <ele>2374.2</ele>
        <time>2022-02-08T14:51:34Z</time>
      </trkpt>
      <trkpt lat="45.61964" lon="6.66027">
        <ele>2375.1</ele>
        <time>2022-02-08T14:51:46Z</time>
      </trkpt>
      <trkpt lat="45.6196" lon="6.66031">
        <ele>2377</ele>
        <time>2022-02-08T14:51:59Z</time>
      </trkpt>
      <trkpt lat="45.61956" lon="6.66034">
        <ele>2379.1</ele>
        <time>2022-02-08T14:52:09Z</time>
      </trkpt>
      <trkpt lat="45.61952" lon="6.66039">
        <ele>2379.9</ele>
        <time>2022-02-08T14:52:19Z</time>
      </trkpt>
      <trkpt lat="45.61952" lon="6.66045">
        <ele>2379.5</ele>
        <time>2022-02-08T14:52:30Z</time>
      </trkpt>
      <trkpt lat="45.61954" lon="6.66051">
        <ele>2378.8</ele>
        <time>2022-02-08T14:52:39Z</time>
      </trkpt>
      <trkpt lat="45.61957" lon="6.66056">
        <ele>2378.6</ele>
        <time>2022-02-08T14:52:46Z</time>
      </trkpt>
      <trkpt lat="45.61962" lon="6.66058">
        <ele>2379.1</ele>
        <time>2022-02-08T14:52:54Z</time>
      </trkpt>
      <trkpt lat="45.61967" lon="6.66059">
        <ele>2379.8</ele>
        <time>2022-02-08T14:53:02Z</time>
      </trkpt>
      <trkpt lat="45.61971" lon="6.66062">
        <ele>2380.9</ele>
        <time>2022-02-08T14:53:10Z</time>
      </trkpt>
      <trkpt lat="45.61976" lon="6.66065">
        <ele>2382.5</ele>
        <time>2022-02-08T14:53:19Z</time>
      </trkpt>
      <trkpt lat="45.6198" lon="6.66067">
        <ele>2384</ele>
        <time>2022-02-08T14:53:28Z</time>
      </trkpt>
      <trkpt lat="45.61984" lon="6.6607">
        <ele>2385.5</ele>
        <time>2022-02-08T14:53:38Z</time>
      </trkpt>
      <trkpt lat="45.61988" lon="6.66067">
        <ele>2387.5</ele>
        <time>2022-02-08T14:53:49Z</time>
      </trkpt>
      <trkpt lat="45.61992" lon="6.66063">
        <ele>2389.3</ele>
        <time>2022-02-08T14:53:59Z</time>
      </trkpt>
      <trkpt lat="45.61997" lon="6.66064">
        <ele>2391.4</ele>
        <time>2022-02-08T14:54:14Z</time>
      </trkpt>
      <trkpt lat="45.62" lon="6.6607">
        <ele>2393.6</ele>
        <time>2022-02-08T14:54:25Z</time>
      </trkpt>
      <trkpt lat="45.62002" lon="6.66075">
        <ele>2395.3</ele>
        <time>2022-02-08T14:54:36Z</time>
      </trkpt>
      <trkpt lat="45.62007" lon="6.66075">
        <ele>2398</ele>
        <time>2022-02-08T14:54:57Z</time>
      </trkpt>
      <trkpt lat="45.62012" lon="6.66072">
        <ele>2398.9</ele>
        <time>2022-02-08T14:55:08Z</time>
      </trkpt>
      <trkpt lat="45.62016" lon="6.66073">
        <ele>2402.3</ele>
        <time>2022-02-08T14:55:25Z</time>
      </trkpt>
      <trkpt lat="45.62021" lon="6.66073">
        <ele>2404.5</ele>
        <time>2022-02-08T14:55:36Z</time>
      </trkpt>
      <trkpt lat="45.62026" lon="6.66073">
        <ele>2406.4</ele>
        <time>2022-02-08T14:55:45Z</time>
      </trkpt>
      <trkpt lat="45.62031" lon="6.66073">
        <ele>2408.2</ele>
        <time>2022-02-08T14:55:54Z</time>
      </trkpt>
      <trkpt lat="45.62036" lon="6.66072">
        <ele>2409.2</ele>
        <time>2022-02-08T14:56:02Z</time>
      </trkpt>
      <trkpt lat="45.62041" lon="6.66072">
        <ele>2409.9</ele>
        <time>2022-02-08T14:56:10Z</time>
      </trkpt>
      <trkpt lat="45.62046" lon="6.66073">
        <ele>2410.6</ele>
        <time>2022-02-08T14:56:16Z</time>
      </trkpt>
      <trkpt lat="45.62051" lon="6.66073">
        <ele>2410.9</ele>
        <time>2022-02-08T14:56:23Z</time>
      </trkpt>
      <trkpt lat="45.62056" lon="6.66073">
        <ele>2410</ele>
        <time>2022-02-08T14:56:29Z</time>
      </trkpt>
      <trkpt lat="45.62061" lon="6.66072">
        <ele>2410</ele>
        <time>2022-02-08T14:56:35Z</time>
      </trkpt>
      <trkpt lat="45.62065" lon="6.6607">
        <ele>2410.4</ele>
        <time>2022-02-08T14:56:41Z</time>
      </trkpt>
      <trkpt lat="45.6207" lon="6.6607">
        <ele>2410.9</ele>
        <time>2022-02-08T14:56:48Z</time>
      </trkpt>
      <trkpt lat="45.62075" lon="6.6607">
        <ele>2411.8</ele>
        <time>2022-02-08T14:56:54Z</time>
      </trkpt>
      <trkpt lat="45.6208" lon="6.6607">
        <ele>2412.9</ele>
        <time>2022-02-08T14:57:01Z</time>
      </trkpt>
      <trkpt lat="45.62085" lon="6.66071">
        <ele>2414.1</ele>
        <time>2022-02-08T14:57:09Z</time>
      </trkpt>
      <trkpt lat="45.6209" lon="6.66072">
        <ele>2415.2</ele>
        <time>2022-02-08T14:57:17Z</time>
      </trkpt>
      <trkpt lat="45.62095" lon="6.66074">
        <ele>2416.9</ele>
        <time>2022-02-08T14:57:26Z</time>
      </trkpt>
      <trkpt lat="45.62099" lon="6.66077">
        <ele>2418</ele>
        <time>2022-02-08T14:57:34Z</time>
      </trkpt>
      <trkpt lat="45.62104" lon="6.6608">
        <ele>2418.8</ele>
        <time>2022-02-08T14:57:42Z</time>
      </trkpt>
      <trkpt lat="45.62108" lon="6.66082">
        <ele>2420.6</ele>
        <time>2022-02-08T14:57:50Z</time>
      </trkpt>
      <trkpt lat="45.62112" lon="6.66085">
        <ele>2422.1</ele>
        <time>2022-02-08T14:57:59Z</time>
      </trkpt>
      <trkpt lat="45.62117" lon="6.66087">
        <ele>2423.9</ele>
        <time>2022-02-08T14:58:08Z</time>
      </trkpt>
      <trkpt lat="45.62121" lon="6.66089">
        <ele>2425.8</ele>
        <time>2022-02-08T14:58:19Z</time>
      </trkpt>
      <trkpt lat="45.62126" lon="6.66091">
        <ele>2428.2</ele>
        <time>2022-02-08T14:58:30Z</time>
      </trkpt>
      <trkpt lat="45.6213" lon="6.66093">
        <ele>2430.1</ele>
        <time>2022-02-08T14:58:41Z</time>
      </trkpt>
      <trkpt lat="45.62134" lon="6.66095">
        <ele>2432</ele>
        <time>2022-02-08T14:58:52Z</time>
      </trkpt>
      <trkpt lat="45.62139" lon="6.66098">
        <ele>2433.9</ele>
        <time>2022-02-08T14:59:02Z</time>
      </trkpt>
      <trkpt lat="45.62143" lon="6.66101">
        <ele>2435.5</ele>
        <time>2022-02-08T14:59:11Z</time>
      </trkpt>
      <trkpt lat="45.62147" lon="6.66104">
        <ele>2436.2</ele>
        <time>2022-02-08T14:59:20Z</time>
      </trkpt>
      <trkpt lat="45.62151" lon="6.66105">
        <ele>2437.1</ele>
        <time>2022-02-08T14:59:29Z</time>
      </trkpt>
      <trkpt lat="45.62156" lon="6.66104">
        <ele>2438.9</ele>
        <time>2022-02-08T14:59:38Z</time>
      </trkpt>
      <trkpt lat="45.62161" lon="6.66106">
        <ele>2440.4</ele>
        <time>2022-02-08T14:59:46Z</time>
      </trkpt>
      <trkpt lat="45.62165" lon="6.66108">
        <ele>2441.2</ele>
        <time>2022-02-08T14:59:54Z</time>
      </trkpt>
      <trkpt lat="45.6217" lon="6.66109">
        <ele>2441.9</ele>
        <time>2022-02-08T15:00:02Z</time>
      </trkpt>
      <trkpt lat="45.62174" lon="6.66109">
        <ele>2443.9</ele>
        <time>2022-02-08T15:00:15Z</time>
      </trkpt>
      <trkpt lat="45.6217" lon="6.66108">
        <ele>2445</ele>
        <time>2022-02-08T15:12:40Z</time>
      </trkpt>
      <trkpt lat="45.62165" lon="6.66102">
        <ele>2443.4</ele>
        <time>2022-02-08T15:12:53Z</time>
      </trkpt>
      <trkpt lat="45.62159" lon="6.66102">
        <ele>2442.4</ele>
        <time>2022-02-08T15:12:56Z</time>
      </trkpt>
      <trkpt lat="45.62154" lon="6.661">
        <ele>2442.7</ele>
        <time>2022-02-08T15:12:58Z</time>
      </trkpt>
      <trkpt lat="45.62149" lon="6.66098">
        <ele>2441.9</ele>
        <time>2022-02-08T15:13:00Z</time>
      </trkpt>
      <trkpt lat="45.62146" lon="6.66093">
        <ele>2439.6</ele>
        <time>2022-02-08T15:13:03Z</time>
      </trkpt>
      <trkpt lat="45.62149" lon="6.66087">
        <ele>2435.5</ele>
        <time>2022-02-08T15:13:08Z</time>
      </trkpt>
      <trkpt lat="45.62148" lon="6.66079">
        <ele>2431.9</ele>
        <time>2022-02-08T15:13:11Z</time>
      </trkpt>
      <trkpt lat="45.62147" lon="6.6607">
        <ele>2427.1</ele>
        <time>2022-02-08T15:13:14Z</time>
      </trkpt>
      <trkpt lat="45.62149" lon="6.66062">
        <ele>2424.1</ele>
        <time>2022-02-08T15:13:16Z</time>
      </trkpt>
      <trkpt lat="45.62154" lon="6.66046">
        <ele>2416.5</ele>
        <time>2022-02-08T15:13:19Z</time>
      </trkpt>
      <trkpt lat="45.62162" lon="6.66038">
        <ele>2410.4</ele>
        <time>2022-02-08T15:13:21Z</time>
      </trkpt>
      <trkpt lat="45.62168" lon="6.66029">
        <ele>2403.6</ele>
        <time>2022-02-08T15:13:23Z</time>
      </trkpt>
      <trkpt lat="45.62171" lon="6.66016">
        <ele>2397.7</ele>
        <time>2022-02-08T15:13:25Z</time>
      </trkpt>
      <trkpt lat="45.62177" lon="6.66003">
        <ele>2390.5</ele>
        <time>2022-02-08T15:13:27Z</time>
      </trkpt>
      <trkpt lat="45.62187" lon="6.65995">
        <ele>2384.1</ele>
        <time>2022-02-08T15:13:29Z</time>
      </trkpt>
      <trkpt lat="45.62198" lon="6.65991">
        <ele>2379.1</ele>
        <time>2022-02-08T15:13:31Z</time>
      </trkpt>
      <trkpt lat="45.62205" lon="6.6599">
        <ele>2375.2</ele>
        <time>2022-02-08T15:13:33Z</time>
      </trkpt>
      <trkpt lat="45.62209" lon="6.65989">
        <ele>2365.4</ele>
        <time>2022-02-08T15:13:46Z</time>
      </trkpt>
      <trkpt lat="45.62215" lon="6.65983">
        <ele>2366.6</ele>
        <time>2022-02-08T15:15:03Z</time>
      </trkpt>
      <trkpt lat="45.62222" lon="6.65982">
        <ele>2365.2</ele>
        <time>2022-02-08T15:15:05Z</time>
      </trkpt>
      <trkpt lat="45.62228" lon="6.65983">
        <ele>2363.9</ele>
        <time>2022-02-08T15:15:07Z</time>
      </trkpt>
      <trkpt lat="45.62232" lon="6.65986">
        <ele>2362.3</ele>
        <time>2022-02-08T15:15:09Z</time>
      </trkpt>
      <trkpt lat="45.62238" lon="6.65993">
        <ele>2360.7</ele>
        <time>2022-02-08T15:15:11Z</time>
      </trkpt>
      <trkpt lat="45.62246" lon="6.65995">
        <ele>2357.8</ele>
        <time>2022-02-08T15:15:13Z</time>
      </trkpt>
      <trkpt lat="45.62255" lon="6.65991">
        <ele>2354.5</ele>
        <time>2022-02-08T15:15:15Z</time>
      </trkpt>
      <trkpt lat="45.62263" lon="6.65987">
        <ele>2351</ele>
        <time>2022-02-08T15:15:17Z</time>
      </trkpt>
      <trkpt lat="45.62272" lon="6.65981">
        <ele>2347.6</ele>
        <time>2022-02-08T15:15:19Z</time>
      </trkpt>
      <trkpt lat="45.62281" lon="6.65976">
        <ele>2342.9</ele>
        <time>2022-02-08T15:15:21Z</time>
      </trkpt>
      <trkpt lat="45.6229" lon="6.6597">
        <ele>2338.7</ele>
        <time>2022-02-08T15:15:23Z</time>
      </trkpt>
      <trkpt lat="45.62299" lon="6.65967">
        <ele>2335</ele>
        <time>2022-02-08T15:15:25Z</time>
      </trkpt>
      <trkpt lat="45.62309" lon="6.65963">
        <ele>2330.4</ele>
        <time>2022-02-08T15:15:27Z</time>
      </trkpt>
      <trkpt lat="45.62317" lon="6.65965">
        <ele>2326.5</ele>
        <time>2022-02-08T15:15:29Z</time>
      </trkpt>
      <trkpt lat="45.62323" lon="6.65973">
        <ele>2323</ele>
        <time>2022-02-08T15:15:31Z</time>
      </trkpt>
      <trkpt lat="45.62328" lon="6.65984">
        <ele>2320.1</ele>
        <time>2022-02-08T15:15:33Z</time>
      </trkpt>
      <trkpt lat="45.62332" lon="6.65996">
        <ele>2317.6</ele>
        <time>2022-02-08T15:15:35Z</time>
      </trkpt>
      <trkpt lat="45.62336" lon="6.66008">
        <ele>2315.3</ele>
        <time>2022-02-08T15:15:37Z</time>
      </trkpt>
      <trkpt lat="45.6234" lon="6.66022">
        <ele>2313</ele>
        <time>2022-02-08T15:15:39Z</time>
      </trkpt>
      <trkpt lat="45.62345" lon="6.66036">
        <ele>2310.6</ele>
        <time>2022-02-08T15:15:41Z</time>
      </trkpt>
      <trkpt lat="45.62353" lon="6.6605">
        <ele>2307.7</ele>
        <time>2022-02-08T15:15:43Z</time>
      </trkpt>
      <trkpt lat="45.62363" lon="6.66065">
        <ele>2305</ele>
        <time>2022-02-08T15:15:45Z</time>
      </trkpt>
      <trkpt lat="45.62372" lon="6.66078">
        <ele>2302.1</ele>
        <time>2022-02-08T15:15:47Z</time>
      </trkpt>
      <trkpt lat="45.62383" lon="6.6609">
        <ele>2298.9</ele>
        <time>2022-02-08T15:15:49Z</time>
      </trkpt>
      <trkpt lat="45.62393" lon="6.66104">
        <ele>2295.8</ele>
        <time>2022-02-08T15:15:51Z</time>
      </trkpt>
      <trkpt lat="45.62402" lon="6.66119">
        <ele>2292.6</ele>
        <time>2022-02-08T15:15:53Z</time>
      </trkpt>
      <trkpt lat="45.62412" lon="6.66134">
        <ele>2289.4</ele>
        <time>2022-02-08T15:15:55Z</time>
      </trkpt>
      <trkpt lat="45.62422" lon="6.6615">
        <ele>2286.3</ele>
        <time>2022-02-08T15:15:57Z</time>
      </trkpt>
      <trkpt lat="45.62433" lon="6.66165">
        <ele>2283.1</ele>
        <time>2022-02-08T15:15:59Z</time>
      </trkpt>
      <trkpt lat="45.62443" lon="6.66181">
        <ele>2280.2</ele>
        <time>2022-02-08T15:16:01Z</time>
      </trkpt>
      <trkpt lat="45.62454" lon="6.66198">
        <ele>2277.1</ele>
        <time>2022-02-08T15:16:03Z</time>
      </trkpt>
      <trkpt lat="45.62464" lon="6.66217">
        <ele>2274.1</ele>
        <time>2022-02-08T15:16:05Z</time>
      </trkpt>
      <trkpt lat="45.62478" lon="6.66249">
        <ele>2269.5</ele>
        <time>2022-02-08T15:16:08Z</time>
      </trkpt>
      <trkpt lat="45.62489" lon="6.6627">
        <ele>2266.1</ele>
        <time>2022-02-08T15:16:10Z</time>
      </trkpt>
      <trkpt lat="45.62503" lon="6.6629">
        <ele>2262.6</ele>
        <time>2022-02-08T15:16:12Z</time>
      </trkpt>
      <trkpt lat="45.62519" lon="6.66308">
        <ele>2259.1</ele>
        <time>2022-02-08T15:16:14Z</time>
      </trkpt>
      <trkpt lat="45.62533" lon="6.66324">
        <ele>2256.3</ele>
        <time>2022-02-08T15:16:16Z</time>
      </trkpt>
      <trkpt lat="45.62553" lon="6.66345">
        <ele>2251.4</ele>
        <time>2022-02-08T15:16:19Z</time>
      </trkpt>
      <trkpt lat="45.62564" lon="6.66357">
        <ele>2248.5</ele>
        <time>2022-02-08T15:16:21Z</time>
      </trkpt>
      <trkpt lat="45.62575" lon="6.66368">
        <ele>2245.4</ele>
        <time>2022-02-08T15:16:23Z</time>
      </trkpt>
      <trkpt lat="45.62585" lon="6.66379">
        <ele>2242.9</ele>
        <time>2022-02-08T15:16:25Z</time>
      </trkpt>
      <trkpt lat="45.62594" lon="6.6639">
        <ele>2240.5</ele>
        <time>2022-02-08T15:16:27Z</time>
      </trkpt>
      <trkpt lat="45.62603" lon="6.66401">
        <ele>2237.9</ele>
        <time>2022-02-08T15:16:29Z</time>
      </trkpt>
      <trkpt lat="45.62614" lon="6.66408">
        <ele>2234.5</ele>
        <time>2022-02-08T15:16:31Z</time>
      </trkpt>
      <trkpt lat="45.62624" lon="6.66413">
        <ele>2230.4</ele>
        <time>2022-02-08T15:16:33Z</time>
      </trkpt>
      <trkpt lat="45.62635" lon="6.66416">
        <ele>2226.6</ele>
        <time>2022-02-08T15:16:35Z</time>
      </trkpt>
      <trkpt lat="45.62647" lon="6.66416">
        <ele>2221.2</ele>
        <time>2022-02-08T15:16:37Z</time>
      </trkpt>
      <trkpt lat="45.62659" lon="6.66415">
        <ele>2216.4</ele>
        <time>2022-02-08T15:16:39Z</time>
      </trkpt>
      <trkpt lat="45.62671" lon="6.66409">
        <ele>2212.3</ele>
        <time>2022-02-08T15:16:41Z</time>
      </trkpt>
      <trkpt lat="45.62679" lon="6.66399">
        <ele>2209.7</ele>
        <time>2022-02-08T15:16:43Z</time>
      </trkpt>
      <trkpt lat="45.62683" lon="6.6639">
        <ele>2207.3</ele>
        <time>2022-02-08T15:16:45Z</time>
      </trkpt>
      <trkpt lat="45.62686" lon="6.66378">
        <ele>2204.6</ele>
        <time>2022-02-08T15:16:48Z</time>
      </trkpt>
      <trkpt lat="45.62687" lon="6.66372">
        <ele>2201.3</ele>
        <time>2022-02-08T15:16:56Z</time>
      </trkpt>
      <trkpt lat="45.62693" lon="6.66372">
        <ele>2199.8</ele>
        <time>2022-02-08T15:17:05Z</time>
      </trkpt>
      <trkpt lat="45.62698" lon="6.66373">
        <ele>2198.7</ele>
        <time>2022-02-08T15:17:07Z</time>
      </trkpt>
      <trkpt lat="45.62705" lon="6.66378">
        <ele>2197.2</ele>
        <time>2022-02-08T15:17:09Z</time>
      </trkpt>
      <trkpt lat="45.62712" lon="6.66387">
        <ele>2195.8</ele>
        <time>2022-02-08T15:17:11Z</time>
      </trkpt>
      <trkpt lat="45.62718" lon="6.66398">
        <ele>2194.2</ele>
        <time>2022-02-08T15:17:13Z</time>
      </trkpt>
      <trkpt lat="45.62723" lon="6.6641">
        <ele>2192.9</ele>
        <time>2022-02-08T15:17:15Z</time>
      </trkpt>
      <trkpt lat="45.62728" lon="6.66422">
        <ele>2191.7</ele>
        <time>2022-02-08T15:17:17Z</time>
      </trkpt>
      <trkpt lat="45.62732" lon="6.66435">
        <ele>2190.2</ele>
        <time>2022-02-08T15:17:19Z</time>
      </trkpt>
      <trkpt lat="45.62739" lon="6.66447">
        <ele>2188.8</ele>
        <time>2022-02-08T15:17:21Z</time>
      </trkpt>
      <trkpt lat="45.62748" lon="6.66453">
        <ele>2186.1</ele>
        <time>2022-02-08T15:17:23Z</time>
      </trkpt>
      <trkpt lat="45.62761" lon="6.66454">
        <ele>2182.9</ele>
        <time>2022-02-08T15:17:25Z</time>
      </trkpt>
      <trkpt lat="45.62783" lon="6.66453">
        <ele>2177.3</ele>
        <time>2022-02-08T15:17:28Z</time>
      </trkpt>
      <trkpt lat="45.62798" lon="6.66453">
        <ele>2173.7</ele>
        <time>2022-02-08T15:17:30Z</time>
      </trkpt>
      <trkpt lat="45.62814" lon="6.66452">
        <ele>2169.6</ele>
        <time>2022-02-08T15:17:32Z</time>
      </trkpt>
      <trkpt lat="45.62829" lon="6.66453">
        <ele>2166.2</ele>
        <time>2022-02-08T15:17:34Z</time>
      </trkpt>
      <trkpt lat="45.62843" lon="6.66453">
        <ele>2163.1</ele>
        <time>2022-02-08T15:17:36Z</time>
      </trkpt>
      <trkpt lat="45.62861" lon="6.66451">
        <ele>2159.1</ele>
        <time>2022-02-08T15:17:39Z</time>
      </trkpt>
      <trkpt lat="45.62874" lon="6.66455">
        <ele>2156.1</ele>
        <time>2022-02-08T15:17:41Z</time>
      </trkpt>
      <trkpt lat="45.62879" lon="6.66459">
        <ele>2153.5</ele>
        <time>2022-02-08T15:17:43Z</time>
      </trkpt>
      <trkpt lat="45.62883" lon="6.66464">
        <ele>2150.3</ele>
        <time>2022-02-08T15:17:49Z</time>
      </trkpt>
      <trkpt lat="45.62887" lon="6.66471">
        <ele>2148.8</ele>
        <time>2022-02-08T15:17:52Z</time>
      </trkpt>
      <trkpt lat="45.62893" lon="6.6648">
        <ele>2147.6</ele>
        <time>2022-02-08T15:17:54Z</time>
      </trkpt>
      <trkpt lat="45.62899" lon="6.6649">
        <ele>2146.4</ele>
        <time>2022-02-08T15:17:56Z</time>
      </trkpt>
      <trkpt lat="45.62905" lon="6.66499">
        <ele>2144.9</ele>
        <time>2022-02-08T15:17:58Z</time>
      </trkpt>
      <trkpt lat="45.62909" lon="6.66504">
        <ele>2144</ele>
        <time>2022-02-08T15:18:00Z</time>
      </trkpt>
      <trkpt lat="45.62919" lon="6.66521">
        <ele>2141.1</ele>
        <time>2022-02-08T15:18:02Z</time>
      </trkpt>
      <trkpt lat="45.62926" lon="6.66534">
        <ele>2139</ele>
        <time>2022-02-08T15:18:04Z</time>
      </trkpt>
      <trkpt lat="45.62928" lon="6.6654">
        <ele>2138</ele>
        <time>2022-02-08T15:18:06Z</time>
      </trkpt>
      <trkpt lat="45.62933" lon="6.66554">
        <ele>2136</ele>
        <time>2022-02-08T15:18:08Z</time>
      </trkpt>
      <trkpt lat="45.62939" lon="6.66576">
        <ele>2132.6</ele>
        <time>2022-02-08T15:18:10Z</time>
      </trkpt>
      <trkpt lat="45.62943" lon="6.66593">
        <ele>2129.4</ele>
        <time>2022-02-08T15:18:12Z</time>
      </trkpt>
      <trkpt lat="45.62946" lon="6.66603">
        <ele>2128.4</ele>
        <time>2022-02-08T15:18:14Z</time>
      </trkpt>
      <trkpt lat="45.62951" lon="6.66622">
        <ele>2125.4</ele>
        <time>2022-02-08T15:18:16Z</time>
      </trkpt>
      <trkpt lat="45.62963" lon="6.66645">
        <ele>2122.3</ele>
        <time>2022-02-08T15:18:18Z</time>
      </trkpt>
      <trkpt lat="45.62968" lon="6.66655">
        <ele>2120.9</ele>
        <time>2022-02-08T15:18:20Z</time>
      </trkpt>
      <trkpt lat="45.62972" lon="6.66662">
        <ele>2119.6</ele>
        <time>2022-02-08T15:18:22Z</time>
      </trkpt>
      <trkpt lat="45.62975" lon="6.66669">
        <ele>2118.1</ele>
        <time>2022-02-08T15:18:25Z</time>
      </trkpt>
      <trkpt lat="45.62977" lon="6.66676">
        <ele>2115.2</ele>
        <time>2022-02-08T15:18:32Z</time>
      </trkpt>
      <trkpt lat="45.62976" lon="6.66687">
        <ele>2113.2</ele>
        <time>2022-02-08T15:18:35Z</time>
      </trkpt>
      <trkpt lat="45.62981" lon="6.66695">
        <ele>2111.8</ele>
        <time>2022-02-08T15:18:37Z</time>
      </trkpt>
      <trkpt lat="45.62988" lon="6.66698">
        <ele>2109.5</ele>
        <time>2022-02-08T15:18:39Z</time>
      </trkpt>
      <trkpt lat="45.62996" lon="6.66698">
        <ele>2106.9</ele>
        <time>2022-02-08T15:18:41Z</time>
      </trkpt>
      <trkpt lat="45.63005" lon="6.66699">
        <ele>2103.3</ele>
        <time>2022-02-08T15:18:43Z</time>
      </trkpt>
      <trkpt lat="45.63013" lon="6.66706">
        <ele>2099.8</ele>
        <time>2022-02-08T15:18:45Z</time>
      </trkpt>
      <trkpt lat="45.63021" lon="6.66713">
        <ele>2095.6</ele>
        <time>2022-02-08T15:18:47Z</time>
      </trkpt>
      <trkpt lat="45.63026" lon="6.66724">
        <ele>2092.2</ele>
        <time>2022-02-08T15:18:49Z</time>
      </trkpt>
      <trkpt lat="45.63032" lon="6.66732">
        <ele>2088</ele>
        <time>2022-02-08T15:18:52Z</time>
      </trkpt>
      <trkpt lat="45.63039" lon="6.66741">
        <ele>2083.4</ele>
        <time>2022-02-08T15:18:54Z</time>
      </trkpt>
      <trkpt lat="45.6305" lon="6.66749">
        <ele>2076.3</ele>
        <time>2022-02-08T15:18:57Z</time>
      </trkpt>
      <trkpt lat="45.63061" lon="6.66754">
        <ele>2068.7</ele>
        <time>2022-02-08T15:18:59Z</time>
      </trkpt>
      <trkpt lat="45.63068" lon="6.6676">
        <ele>2064.3</ele>
        <time>2022-02-08T15:19:01Z</time>
      </trkpt>
      <trkpt lat="45.63073" lon="6.66762">
        <ele>2059.2</ele>
        <time>2022-02-08T15:19:04Z</time>
      </trkpt>
      <trkpt lat="45.63077" lon="6.66767">
        <ele>2049.4</ele>
        <time>2022-02-08T15:19:17Z</time>
      </trkpt>
      <trkpt lat="45.63079" lon="6.66777">
        <ele>2047.7</ele>
        <time>2022-02-08T15:19:20Z</time>
      </trkpt>
      <trkpt lat="45.63086" lon="6.66795">
        <ele>2044.6</ele>
        <time>2022-02-08T15:19:22Z</time>
      </trkpt>
      <trkpt lat="45.63091" lon="6.66809">
        <ele>2042</ele>
        <time>2022-02-08T15:19:24Z</time>
      </trkpt>
      <trkpt lat="45.63098" lon="6.66821">
        <ele>2039.6</ele>
        <time>2022-02-08T15:19:27Z</time>
      </trkpt>
      <trkpt lat="45.6311" lon="6.66837">
        <ele>2034</ele>
        <time>2022-02-08T15:19:29Z</time>
      </trkpt>
      <trkpt lat="45.63118" lon="6.66852">
        <ele>2030.4</ele>
        <time>2022-02-08T15:19:31Z</time>
      </trkpt>
      <trkpt lat="45.63127" lon="6.66861">
        <ele>2027.3</ele>
        <time>2022-02-08T15:19:34Z</time>
      </trkpt>
      <trkpt lat="45.63133" lon="6.66863">
        <ele>2023.9</ele>
        <time>2022-02-08T15:19:36Z</time>
      </trkpt>
      <trkpt lat="45.63138" lon="6.66864">
        <ele>2019.3</ele>
        <time>2022-02-08T15:19:43Z</time>
      </trkpt>
      <trkpt lat="45.63144" lon="6.66866">
        <ele>2017.6</ele>
        <time>2022-02-08T15:19:45Z</time>
      </trkpt>
      <trkpt lat="45.63152" lon="6.6687">
        <ele>2015.7</ele>
        <time>2022-02-08T15:19:48Z</time>
      </trkpt>
      <trkpt lat="45.63159" lon="6.66878">
        <ele>2014</ele>
        <time>2022-02-08T15:19:50Z</time>
      </trkpt>
      <trkpt lat="45.63171" lon="6.66893">
        <ele>2011.1</ele>
        <time>2022-02-08T15:19:52Z</time>
      </trkpt>
      <trkpt lat="45.63178" lon="6.66901">
        <ele>2010.1</ele>
        <time>2022-02-08T15:19:54Z</time>
      </trkpt>
      <trkpt lat="45.63183" lon="6.66906">
        <ele>2009.3</ele>
        <time>2022-02-08T15:19:56Z</time>
      </trkpt>
      <trkpt lat="45.63187" lon="6.6691">
        <ele>2008.4</ele>
        <time>2022-02-08T15:19:59Z</time>
      </trkpt>
      <trkpt lat="45.63192" lon="6.66913">
        <ele>2007.6</ele>
        <time>2022-02-08T15:20:02Z</time>
      </trkpt>
      <trkpt lat="45.63195" lon="6.66917">
        <ele>2007.9</ele>
        <time>2022-02-08T15:20:21Z</time>
      </trkpt>
      <trkpt lat="45.63199" lon="6.66921">
        <ele>2007.5</ele>
        <time>2022-02-08T15:20:25Z</time>
      </trkpt>
      <trkpt lat="45.63202" lon="6.66927">
        <ele>2007</ele>
        <time>2022-02-08T15:20:28Z</time>
      </trkpt>
      <trkpt lat="45.63205" lon="6.66937">
        <ele>2005.4</ele>
        <time>2022-02-08T15:20:30Z</time>
      </trkpt>
      <trkpt lat="45.63218" lon="6.66954">
        <ele>2002.8</ele>
        <time>2022-02-08T15:20:33Z</time>
      </trkpt>
      <trkpt lat="45.63226" lon="6.66959">
        <ele>2001.4</ele>
        <time>2022-02-08T15:20:35Z</time>
      </trkpt>
      <trkpt lat="45.63235" lon="6.66962">
        <ele>2000</ele>
        <time>2022-02-08T15:20:37Z</time>
      </trkpt>
      <trkpt lat="45.63243" lon="6.66968">
        <ele>1998.8</ele>
        <time>2022-02-08T15:20:39Z</time>
      </trkpt>
      <trkpt lat="45.63252" lon="6.66975">
        <ele>1997.3</ele>
        <time>2022-02-08T15:20:41Z</time>
      </trkpt>
      <trkpt lat="45.6326" lon="6.66981">
        <ele>1996.2</ele>
        <time>2022-02-08T15:20:43Z</time>
      </trkpt>
      <trkpt lat="45.63266" lon="6.66985">
        <ele>1995.1</ele>
        <time>2022-02-08T15:20:45Z</time>
      </trkpt>
      <trkpt lat="45.63273" lon="6.66989">
        <ele>1994.1</ele>
        <time>2022-02-08T15:20:47Z</time>
      </trkpt>
      <trkpt lat="45.63278" lon="6.66992">
        <ele>1993</ele>
        <time>2022-02-08T15:20:49Z</time>
      </trkpt>
      <trkpt lat="45.63285" lon="6.66997">
        <ele>1991.6</ele>
        <time>2022-02-08T15:20:51Z</time>
      </trkpt>
      <trkpt lat="45.63293" lon="6.67004">
        <ele>1990.2</ele>
        <time>2022-02-08T15:20:53Z</time>
      </trkpt>
      <trkpt lat="45.63299" lon="6.6701">
        <ele>1989.3</ele>
        <time>2022-02-08T15:20:55Z</time>
      </trkpt>
      <trkpt lat="45.63303" lon="6.67016">
        <ele>1988</ele>
        <time>2022-02-08T15:20:57Z</time>
      </trkpt>
      <trkpt lat="45.63305" lon="6.67027">
        <ele>1985.8</ele>
        <time>2022-02-08T15:20:59Z</time>
      </trkpt>
      <trkpt lat="45.6331" lon="6.67039">
        <ele>1983.8</ele>
        <time>2022-02-08T15:21:01Z</time>
      </trkpt>
      <trkpt lat="45.63313" lon="6.67045">
        <ele>1982.3</ele>
        <time>2022-02-08T15:21:03Z</time>
      </trkpt>
      <trkpt lat="45.63317" lon="6.67048">
        <ele>1980.6</ele>
        <time>2022-02-08T15:21:05Z</time>
      </trkpt>
      <trkpt lat="45.63324" lon="6.67051">
        <ele>1978.7</ele>
        <time>2022-02-08T15:21:07Z</time>
      </trkpt>
      <trkpt lat="45.63334" lon="6.67055">
        <ele>1976.2</ele>
        <time>2022-02-08T15:21:09Z</time>
      </trkpt>
      <trkpt lat="45.63346" lon="6.67061">
        <ele>1974.3</ele>
        <time>2022-02-08T15:21:11Z</time>
      </trkpt>
      <trkpt lat="45.63353" lon="6.67068">
        <ele>1973.2</ele>
        <time>2022-02-08T15:21:13Z</time>
      </trkpt>
      <trkpt lat="45.63357" lon="6.67074">
        <ele>1972.3</ele>
        <time>2022-02-08T15:21:15Z</time>
      </trkpt>
      <trkpt lat="45.63361" lon="6.6708">
        <ele>1970.9</ele>
        <time>2022-02-08T15:21:17Z</time>
      </trkpt>
      <trkpt lat="45.63366" lon="6.6709">
        <ele>1969.6</ele>
        <time>2022-02-08T15:21:19Z</time>
      </trkpt>
      <trkpt lat="45.63369" lon="6.67098">
        <ele>1968.6</ele>
        <time>2022-02-08T15:21:21Z</time>
      </trkpt>
      <trkpt lat="45.63371" lon="6.67105">
        <ele>1967.5</ele>
        <time>2022-02-08T15:21:24Z</time>
      </trkpt>
      <trkpt lat="45.63374" lon="6.67111">
        <ele>1965.6</ele>
        <time>2022-02-08T15:21:28Z</time>
      </trkpt>
      <trkpt lat="45.63378" lon="6.67119">
        <ele>1964.4</ele>
        <time>2022-02-08T15:21:30Z</time>
      </trkpt>
      <trkpt lat="45.63375" lon="6.67126">
        <ele>1963</ele>
        <time>2022-02-08T15:21:32Z</time>
      </trkpt>
      <trkpt lat="45.63361" lon="6.67121">
        <ele>1961</ele>
        <time>2022-02-08T15:21:35Z</time>
      </trkpt>
      <trkpt lat="45.63352" lon="6.6712">
        <ele>1959.3</ele>
        <time>2022-02-08T15:21:37Z</time>
      </trkpt>
      <trkpt lat="45.63351" lon="6.67128">
        <ele>1956.7</ele>
        <time>2022-02-08T15:21:39Z</time>
      </trkpt>
      <trkpt lat="45.63355" lon="6.67138">
        <ele>1954.3</ele>
        <time>2022-02-08T15:21:41Z</time>
      </trkpt>
      <trkpt lat="45.63361" lon="6.67148">
        <ele>1951.9</ele>
        <time>2022-02-08T15:21:43Z</time>
      </trkpt>
      <trkpt lat="45.63368" lon="6.67158">
        <ele>1949.4</ele>
        <time>2022-02-08T15:21:45Z</time>
      </trkpt>
      <trkpt lat="45.63373" lon="6.67167">
        <ele>1947.7</ele>
        <time>2022-02-08T15:21:47Z</time>
      </trkpt>
      <trkpt lat="45.63376" lon="6.67173">
        <ele>1946.1</ele>
        <time>2022-02-08T15:21:49Z</time>
      </trkpt>
      <trkpt lat="45.63378" lon="6.67178">
        <ele>1943.9</ele>
        <time>2022-02-08T15:21:54Z</time>
      </trkpt>
      <trkpt lat="45.6338" lon="6.67185">
        <ele>1942.8</ele>
        <time>2022-02-08T15:21:57Z</time>
      </trkpt>
      <trkpt lat="45.63382" lon="6.67194">
        <ele>1941.9</ele>
        <time>2022-02-08T15:21:59Z</time>
      </trkpt>
      <trkpt lat="45.63384" lon="6.67203">
        <ele>1941.3</ele>
        <time>2022-02-08T15:22:01Z</time>
      </trkpt>
      <trkpt lat="45.63386" lon="6.67213">
        <ele>1940.3</ele>
        <time>2022-02-08T15:22:03Z</time>
      </trkpt>
      <trkpt lat="45.6339" lon="6.67226">
        <ele>1939</ele>
        <time>2022-02-08T15:22:05Z</time>
      </trkpt>
      <trkpt lat="45.63394" lon="6.67238">
        <ele>1937.8</ele>
        <time>2022-02-08T15:22:07Z</time>
      </trkpt>
      <trkpt lat="45.63397" lon="6.67251">
        <ele>1936.7</ele>
        <time>2022-02-08T15:22:09Z</time>
      </trkpt>
      <trkpt lat="45.63401" lon="6.67266">
        <ele>1935</ele>
        <time>2022-02-08T15:22:11Z</time>
      </trkpt>
      <trkpt lat="45.63404" lon="6.67282">
        <ele>1933.6</ele>
        <time>2022-02-08T15:22:13Z</time>
      </trkpt>
      <trkpt lat="45.63407" lon="6.67297">
        <ele>1932.3</ele>
        <time>2022-02-08T15:22:15Z</time>
      </trkpt>
      <trkpt lat="45.63408" lon="6.6731">
        <ele>1931.1</ele>
        <time>2022-02-08T15:22:17Z</time>
      </trkpt>
      <trkpt lat="45.63408" lon="6.67323">
        <ele>1929.8</ele>
        <time>2022-02-08T15:22:20Z</time>
      </trkpt>
      <trkpt lat="45.63404" lon="6.67332">
        <ele>1927.1</ele>
        <time>2022-02-08T15:22:25Z</time>
      </trkpt>
      <trkpt lat="45.63399" lon="6.6734">
        <ele>1925.6</ele>
        <time>2022-02-08T15:22:27Z</time>
      </trkpt>
      <trkpt lat="45.63391" lon="6.67351">
        <ele>1923.4</ele>
        <time>2022-02-08T15:22:29Z</time>
      </trkpt>
      <trkpt lat="45.63382" lon="6.67363">
        <ele>1921.4</ele>
        <time>2022-02-08T15:22:31Z</time>
      </trkpt>
      <trkpt lat="45.63372" lon="6.67376">
        <ele>1919.1</ele>
        <time>2022-02-08T15:22:33Z</time>
      </trkpt>
      <trkpt lat="45.63362" lon="6.67387">
        <ele>1917.6</ele>
        <time>2022-02-08T15:22:35Z</time>
      </trkpt>
      <trkpt lat="45.63348" lon="6.67399">
        <ele>1915.5</ele>
        <time>2022-02-08T15:22:38Z</time>
      </trkpt>
      <trkpt lat="45.63341" lon="6.67407">
        <ele>1914.1</ele>
        <time>2022-02-08T15:22:40Z</time>
      </trkpt>
      <trkpt lat="45.63334" lon="6.67418">
        <ele>1913.1</ele>
        <time>2022-02-08T15:22:42Z</time>
      </trkpt>
      <trkpt lat="45.63329" lon="6.67429">
        <ele>1911.8</ele>
        <time>2022-02-08T15:22:44Z</time>
      </trkpt>
      <trkpt lat="45.63323" lon="6.67438">
        <ele>1911.1</ele>
        <time>2022-02-08T15:22:46Z</time>
      </trkpt>
      <trkpt lat="45.63319" lon="6.67441">
        <ele>1910</ele>
        <time>2022-02-08T15:22:49Z</time>
      </trkpt>
      <trkpt lat="45.63313" lon="6.67442">
        <ele>1908.5</ele>
        <time>2022-02-08T15:22:54Z</time>
      </trkpt>
      <trkpt lat="45.63308" lon="6.67447">
        <ele>1907.9</ele>
        <time>2022-02-08T15:22:56Z</time>
      </trkpt>
      <trkpt lat="45.63303" lon="6.67453">
        <ele>1907</ele>
        <time>2022-02-08T15:22:58Z</time>
      </trkpt>
      <trkpt lat="45.63294" lon="6.67465">
        <ele>1905.2</ele>
        <time>2022-02-08T15:23:01Z</time>
      </trkpt>
      <trkpt lat="45.63286" lon="6.67468">
        <ele>1904.1</ele>
        <time>2022-02-08T15:23:03Z</time>
      </trkpt>
      <trkpt lat="45.63277" lon="6.67469">
        <ele>1902.4</ele>
        <time>2022-02-08T15:23:05Z</time>
      </trkpt>
      <trkpt lat="45.63265" lon="6.67473">
        <ele>1900</ele>
        <time>2022-02-08T15:23:07Z</time>
      </trkpt>
      <trkpt lat="45.6325" lon="6.67481">
        <ele>1897.3</ele>
        <time>2022-02-08T15:23:09Z</time>
      </trkpt>
      <trkpt lat="45.63233" lon="6.67498">
        <ele>1893.9</ele>
        <time>2022-02-08T15:23:12Z</time>
      </trkpt>
      <trkpt lat="45.63227" lon="6.67503">
        <ele>1892.3</ele>
        <time>2022-02-08T15:23:14Z</time>
      </trkpt>
      <trkpt lat="45.6322" lon="6.67502">
        <ele>1890</ele>
        <time>2022-02-08T15:23:17Z</time>
      </trkpt>
      <trkpt lat="45.63213" lon="6.67502">
        <ele>1888.5</ele>
        <time>2022-02-08T15:23:19Z</time>
      </trkpt>
      <trkpt lat="45.63204" lon="6.67504">
        <ele>1887</ele>
        <time>2022-02-08T15:23:21Z</time>
      </trkpt>
      <trkpt lat="45.63195" lon="6.67506">
        <ele>1885.9</ele>
        <time>2022-02-08T15:23:23Z</time>
      </trkpt>
      <trkpt lat="45.63187" lon="6.6751">
        <ele>1884.6</ele>
        <time>2022-02-08T15:23:25Z</time>
      </trkpt>
      <trkpt lat="45.63179" lon="6.67516">
        <ele>1883.7</ele>
        <time>2022-02-08T15:23:27Z</time>
      </trkpt>
      <trkpt lat="45.63173" lon="6.67522">
        <ele>1882.8</ele>
        <time>2022-02-08T15:23:29Z</time>
      </trkpt>
      <trkpt lat="45.63168" lon="6.67525">
        <ele>1882.2</ele>
        <time>2022-02-08T15:23:31Z</time>
      </trkpt>
      <trkpt lat="45.63162" lon="6.67527">
        <ele>1881.4</ele>
        <time>2022-02-08T15:23:33Z</time>
      </trkpt>
      <trkpt lat="45.63156" lon="6.67528">
        <ele>1880.6</ele>
        <time>2022-02-08T15:23:35Z</time>
      </trkpt>
      <trkpt lat="45.63149" lon="6.6753">
        <ele>1879.6</ele>
        <time>2022-02-08T15:23:37Z</time>
      </trkpt>
      <trkpt lat="45.63141" lon="6.67534">
        <ele>1878.5</ele>
        <time>2022-02-08T15:23:39Z</time>
      </trkpt>
      <trkpt lat="45.63131" lon="6.6754">
        <ele>1877.1</ele>
        <time>2022-02-08T15:23:41Z</time>
      </trkpt>
      <trkpt lat="45.6312" lon="6.67547">
        <ele>1875.6</ele>
        <time>2022-02-08T15:23:43Z</time>
      </trkpt>
      <trkpt lat="45.63107" lon="6.67554">
        <ele>1873.7</ele>
        <time>2022-02-08T15:23:45Z</time>
      </trkpt>
      <trkpt lat="45.63095" lon="6.67562">
        <ele>1872.3</ele>
        <time>2022-02-08T15:23:47Z</time>
      </trkpt>
      <trkpt lat="45.63082" lon="6.6757">
        <ele>1870.2</ele>
        <time>2022-02-08T15:23:49Z</time>
      </trkpt>
      <trkpt lat="45.63068" lon="6.67576">
        <ele>1867.8</ele>
        <time>2022-02-08T15:23:51Z</time>
      </trkpt>
      <trkpt lat="45.63053" lon="6.67581">
        <ele>1864.9</ele>
        <time>2022-02-08T15:23:53Z</time>
      </trkpt>
      <trkpt lat="45.63036" lon="6.67586">
        <ele>1861.9</ele>
        <time>2022-02-08T15:23:55Z</time>
      </trkpt>
      <trkpt lat="45.63019" lon="6.67592">
        <ele>1859</ele>
        <time>2022-02-08T15:23:57Z</time>
      </trkpt>
      <trkpt lat="45.63003" lon="6.67597">
        <ele>1856.5</ele>
        <time>2022-02-08T15:23:59Z</time>
      </trkpt>
      <trkpt lat="45.62987" lon="6.67604">
        <ele>1853.8</ele>
        <time>2022-02-08T15:24:01Z</time>
      </trkpt>
      <trkpt lat="45.62967" lon="6.67615">
        <ele>1850.7</ele>
        <time>2022-02-08T15:24:04Z</time>
      </trkpt>
      <trkpt lat="45.62957" lon="6.6762">
        <ele>1849.1</ele>
        <time>2022-02-08T15:24:06Z</time>
      </trkpt>
      <trkpt lat="45.62949" lon="6.67622">
        <ele>1847.7</ele>
        <time>2022-02-08T15:24:08Z</time>
      </trkpt>
      <trkpt lat="45.6294" lon="6.67622">
        <ele>1845.6</ele>
        <time>2022-02-08T15:24:10Z</time>
      </trkpt>
      <trkpt lat="45.62931" lon="6.6762">
        <ele>1843.8</ele>
        <time>2022-02-08T15:24:12Z</time>
      </trkpt>
      <trkpt lat="45.62922" lon="6.6762">
        <ele>1841.9</ele>
        <time>2022-02-08T15:24:14Z</time>
      </trkpt>
      <trkpt lat="45.62913" lon="6.67623">
        <ele>1840.3</ele>
        <time>2022-02-08T15:24:16Z</time>
      </trkpt>
      <trkpt lat="45.62903" lon="6.67627">
        <ele>1839.1</ele>
        <time>2022-02-08T15:24:18Z</time>
      </trkpt>
      <trkpt lat="45.62889" lon="6.67636">
        <ele>1837</ele>
        <time>2022-02-08T15:24:21Z</time>
      </trkpt>
      <trkpt lat="45.6288" lon="6.67642">
        <ele>1835.8</ele>
        <time>2022-02-08T15:24:23Z</time>
      </trkpt>
      <trkpt lat="45.62873" lon="6.67645">
        <ele>1834.7</ele>
        <time>2022-02-08T15:24:25Z</time>
      </trkpt>
      <trkpt lat="45.62863" lon="6.67651">
        <ele>1833.1</ele>
        <time>2022-02-08T15:24:27Z</time>
      </trkpt>
      <trkpt lat="45.62851" lon="6.67659">
        <ele>1830.9</ele>
        <time>2022-02-08T15:24:29Z</time>
      </trkpt>
      <trkpt lat="45.62838" lon="6.67667">
        <ele>1828.9</ele>
        <time>2022-02-08T15:24:31Z</time>
      </trkpt>
      <trkpt lat="45.62824" lon="6.67676">
        <ele>1827.3</ele>
        <time>2022-02-08T15:24:33Z</time>
      </trkpt>
      <trkpt lat="45.62811" lon="6.67684">
        <ele>1825.6</ele>
        <time>2022-02-08T15:24:35Z</time>
      </trkpt>
      <trkpt lat="45.62801" lon="6.67692">
        <ele>1824.1</ele>
        <time>2022-02-08T15:24:37Z</time>
      </trkpt>
      <trkpt lat="45.62792" lon="6.677">
        <ele>1822.9</ele>
        <time>2022-02-08T15:24:39Z</time>
      </trkpt>
      <trkpt lat="45.62785" lon="6.67707">
        <ele>1821.4</ele>
        <time>2022-02-08T15:24:41Z</time>
      </trkpt>
      <trkpt lat="45.62779" lon="6.67713">
        <ele>1820.2</ele>
        <time>2022-02-08T15:24:43Z</time>
      </trkpt>
      <trkpt lat="45.62772" lon="6.67718">
        <ele>1818.8</ele>
        <time>2022-02-08T15:24:45Z</time>
      </trkpt>
      <trkpt lat="45.62763" lon="6.67724">
        <ele>1817.2</ele>
        <time>2022-02-08T15:24:47Z</time>
      </trkpt>
      <trkpt lat="45.62753" lon="6.67731">
        <ele>1815.4</ele>
        <time>2022-02-08T15:24:49Z</time>
      </trkpt>
      <trkpt lat="45.62743" lon="6.67737">
        <ele>1813.6</ele>
        <time>2022-02-08T15:24:51Z</time>
      </trkpt>
      <trkpt lat="45.62733" lon="6.67743">
        <ele>1811.8</ele>
        <time>2022-02-08T15:24:53Z</time>
      </trkpt>
      <trkpt lat="45.62722" lon="6.67749">
        <ele>1809.7</ele>
        <time>2022-02-08T15:24:55Z</time>
      </trkpt>
      <trkpt lat="45.6271" lon="6.67756">
        <ele>1807.6</ele>
        <time>2022-02-08T15:24:57Z</time>
      </trkpt>
      <trkpt lat="45.62697" lon="6.67764">
        <ele>1805.3</ele>
        <time>2022-02-08T15:24:59Z</time>
      </trkpt>
      <trkpt lat="45.62683" lon="6.67772">
        <ele>1803.2</ele>
        <time>2022-02-08T15:25:01Z</time>
      </trkpt>
      <trkpt lat="45.62672" lon="6.67779">
        <ele>1801.9</ele>
        <time>2022-02-08T15:25:03Z</time>
      </trkpt>
      <trkpt lat="45.62663" lon="6.67784">
        <ele>1800.1</ele>
        <time>2022-02-08T15:25:05Z</time>
      </trkpt>
      <trkpt lat="45.62656" lon="6.67786">
        <ele>1799.4</ele>
        <time>2022-02-08T15:25:07Z</time>
      </trkpt>
      <trkpt lat="45.62649" lon="6.67787">
        <ele>1797.7</ele>
        <time>2022-02-08T15:25:09Z</time>
      </trkpt>
      <trkpt lat="45.62638" lon="6.67786">
        <ele>1795.9</ele>
        <time>2022-02-08T15:25:11Z</time>
      </trkpt>
      <trkpt lat="45.62626" lon="6.67788">
        <ele>1794</ele>
        <time>2022-02-08T15:25:13Z</time>
      </trkpt>
      <trkpt lat="45.62615" lon="6.67792">
        <ele>1792.2</ele>
        <time>2022-02-08T15:25:15Z</time>
      </trkpt>
      <trkpt lat="45.62606" lon="6.67797">
        <ele>1790.4</ele>
        <time>2022-02-08T15:25:17Z</time>
      </trkpt>
      <trkpt lat="45.62597" lon="6.67804">
        <ele>1788.6</ele>
        <time>2022-02-08T15:25:19Z</time>
      </trkpt>
      <trkpt lat="45.62588" lon="6.67809">
        <ele>1787.1</ele>
        <time>2022-02-08T15:25:21Z</time>
      </trkpt>
      <trkpt lat="45.62575" lon="6.67819">
        <ele>1784.9</ele>
        <time>2022-02-08T15:25:24Z</time>
      </trkpt>
      <trkpt lat="45.62569" lon="6.67825">
        <ele>1784</ele>
        <time>2022-02-08T15:25:26Z</time>
      </trkpt>
      <trkpt lat="45.62565" lon="6.67828">
        <ele>1783</ele>
        <time>2022-02-08T15:25:30Z</time>
      </trkpt>
      <trkpt lat="45.62567" lon="6.67819">
        <ele>1781.3</ele>
        <time>2022-02-08T15:25:36Z</time>
      </trkpt>
      <trkpt lat="45.6257" lon="6.6781">
        <ele>1780.6</ele>
        <time>2022-02-08T15:25:38Z</time>
      </trkpt>
      <trkpt lat="45.62572" lon="6.67799">
        <ele>1779.6</ele>
        <time>2022-02-08T15:25:40Z</time>
      </trkpt>
      <trkpt lat="45.62574" lon="6.67786">
        <ele>1778.9</ele>
        <time>2022-02-08T15:25:42Z</time>
      </trkpt>
      <trkpt lat="45.62576" lon="6.67774">
        <ele>1778.2</ele>
        <time>2022-02-08T15:25:44Z</time>
      </trkpt>
      <trkpt lat="45.62578" lon="6.67762">
        <ele>1777.4</ele>
        <time>2022-02-08T15:25:46Z</time>
      </trkpt>
      <trkpt lat="45.62575" lon="6.67751">
        <ele>1776.4</ele>
        <time>2022-02-08T15:25:48Z</time>
      </trkpt>
      <trkpt lat="45.62571" lon="6.67746">
        <ele>1775.4</ele>
        <time>2022-02-08T15:25:51Z</time>
      </trkpt>
      <trkpt lat="45.62567" lon="6.67741">
        <ele>1773.8</ele>
        <time>2022-02-08T15:25:57Z</time>
      </trkpt>
      <trkpt lat="45.62559" lon="6.67734">
        <ele>1771.6</ele>
        <time>2022-02-08T15:26:00Z</time>
      </trkpt>
      <trkpt lat="45.62549" lon="6.67734">
        <ele>1769.9</ele>
        <time>2022-02-08T15:26:02Z</time>
      </trkpt>
      <trkpt lat="45.6254" lon="6.67737">
        <ele>1768</ele>
        <time>2022-02-08T15:26:04Z</time>
      </trkpt>
      <trkpt lat="45.62531" lon="6.67744">
        <ele>1766.1</ele>
        <time>2022-02-08T15:26:06Z</time>
      </trkpt>
      <trkpt lat="45.62522" lon="6.67751">
        <ele>1763.9</ele>
        <time>2022-02-08T15:26:08Z</time>
      </trkpt>
      <trkpt lat="45.62511" lon="6.6776">
        <ele>1761.4</ele>
        <time>2022-02-08T15:26:10Z</time>
      </trkpt>
      <trkpt lat="45.62498" lon="6.6777">
        <ele>1758.4</ele>
        <time>2022-02-08T15:26:12Z</time>
      </trkpt>
      <trkpt lat="45.62483" lon="6.67781">
        <ele>1755.6</ele>
        <time>2022-02-08T15:26:14Z</time>
      </trkpt>
      <trkpt lat="45.62468" lon="6.67791">
        <ele>1752.9</ele>
        <time>2022-02-08T15:26:16Z</time>
      </trkpt>
      <trkpt lat="45.62452" lon="6.678">
        <ele>1750.6</ele>
        <time>2022-02-08T15:26:18Z</time>
      </trkpt>
      <trkpt lat="45.62426" lon="6.67805">
        <ele>1747.7</ele>
        <time>2022-02-08T15:26:21Z</time>
      </trkpt>
      <trkpt lat="45.62412" lon="6.67798">
        <ele>1745.9</ele>
        <time>2022-02-08T15:26:23Z</time>
      </trkpt>
      <trkpt lat="45.62401" lon="6.67796">
        <ele>1744</ele>
        <time>2022-02-08T15:26:25Z</time>
      </trkpt>
      <trkpt lat="45.62391" lon="6.67795">
        <ele>1742.1</ele>
        <time>2022-02-08T15:26:27Z</time>
      </trkpt>
      <trkpt lat="45.62379" lon="6.67796">
        <ele>1739.7</ele>
        <time>2022-02-08T15:26:29Z</time>
      </trkpt>
      <trkpt lat="45.62365" lon="6.67797">
        <ele>1738</ele>
        <time>2022-02-08T15:26:31Z</time>
      </trkpt>
      <trkpt lat="45.62352" lon="6.67799">
        <ele>1736.4</ele>
        <time>2022-02-08T15:26:33Z</time>
      </trkpt>
      <trkpt lat="45.6234" lon="6.67799">
        <ele>1734.9</ele>
        <time>2022-02-08T15:26:35Z</time>
      </trkpt>
      <trkpt lat="45.62324" lon="6.67798">
        <ele>1733.2</ele>
        <time>2022-02-08T15:26:38Z</time>
      </trkpt>
      <trkpt lat="45.62317" lon="6.67795">
        <ele>1732.4</ele>
        <time>2022-02-08T15:26:40Z</time>
      </trkpt>
      <trkpt lat="45.62309" lon="6.67793">
        <ele>1731.5</ele>
        <time>2022-02-08T15:26:42Z</time>
      </trkpt>
      <trkpt lat="45.62301" lon="6.67794">
        <ele>1730.4</ele>
        <time>2022-02-08T15:26:44Z</time>
      </trkpt>
      <trkpt lat="45.62291" lon="6.67796">
        <ele>1729.4</ele>
        <time>2022-02-08T15:26:46Z</time>
      </trkpt>
      <trkpt lat="45.62275" lon="6.67801">
        <ele>1727.7</ele>
        <time>2022-02-08T15:26:49Z</time>
      </trkpt>
      <trkpt lat="45.62264" lon="6.67802">
        <ele>1726.4</ele>
        <time>2022-02-08T15:26:51Z</time>
      </trkpt>
      <trkpt lat="45.6225" lon="6.67802">
        <ele>1725.5</ele>
        <time>2022-02-08T15:26:53Z</time>
      </trkpt>
      <trkpt lat="45.62236" lon="6.678">
        <ele>1724.1</ele>
        <time>2022-02-08T15:26:55Z</time>
      </trkpt>
      <trkpt lat="45.62221" lon="6.67797">
        <ele>1722.3</ele>
        <time>2022-02-08T15:26:57Z</time>
      </trkpt>
      <trkpt lat="45.62197" lon="6.67793">
        <ele>1718.9</ele>
        <time>2022-02-08T15:27:00Z</time>
      </trkpt>
      <trkpt lat="45.6218" lon="6.67791">
        <ele>1716.9</ele>
        <time>2022-02-08T15:27:02Z</time>
      </trkpt>
      <trkpt lat="45.62164" lon="6.67789">
        <ele>1714.7</ele>
        <time>2022-02-08T15:27:04Z</time>
      </trkpt>
      <trkpt lat="45.62149" lon="6.67787">
        <ele>1712.9</ele>
        <time>2022-02-08T15:27:06Z</time>
      </trkpt>
      <trkpt lat="45.62133" lon="6.67785">
        <ele>1711</ele>
        <time>2022-02-08T15:27:08Z</time>
      </trkpt>
      <trkpt lat="45.62119" lon="6.67782">
        <ele>1709.1</ele>
        <time>2022-02-08T15:27:10Z</time>
      </trkpt>
      <trkpt lat="45.62104" lon="6.67779">
        <ele>1707.1</ele>
        <time>2022-02-08T15:27:12Z</time>
      </trkpt>
      <trkpt lat="45.6209" lon="6.67776">
        <ele>1705.3</ele>
        <time>2022-02-08T15:27:14Z</time>
      </trkpt>
      <trkpt lat="45.62075" lon="6.67773">
        <ele>1703.4</ele>
        <time>2022-02-08T15:27:16Z</time>
      </trkpt>
      <trkpt lat="45.62062" lon="6.67769">
        <ele>1701.6</ele>
        <time>2022-02-08T15:27:18Z</time>
      </trkpt>
      <trkpt lat="45.62048" lon="6.67767">
        <ele>1699.9</ele>
        <time>2022-02-08T15:27:20Z</time>
      </trkpt>
      <trkpt lat="45.62027" lon="6.67762">
        <ele>1697.7</ele>
        <time>2022-02-08T15:27:23Z</time>
      </trkpt>
      <trkpt lat="45.62012" lon="6.67761">
        <ele>1695.8</ele>
        <time>2022-02-08T15:27:25Z</time>
      </trkpt>
      <trkpt lat="45.61995" lon="6.6776">
        <ele>1694.2</ele>
        <time>2022-02-08T15:27:27Z</time>
      </trkpt>
      <trkpt lat="45.61979" lon="6.67759">
        <ele>1692.5</ele>
        <time>2022-02-08T15:27:29Z</time>
      </trkpt>
      <trkpt lat="45.61963" lon="6.67757">
        <ele>1690.9</ele>
        <time>2022-02-08T15:27:31Z</time>
      </trkpt>
      <trkpt lat="45.61947" lon="6.67756">
        <ele>1689.1</ele>
        <time>2022-02-08T15:27:33Z</time>
      </trkpt>
      <trkpt lat="45.61931" lon="6.67754">
        <ele>1687.3</ele>
        <time>2022-02-08T15:27:35Z</time>
      </trkpt>
      <trkpt lat="45.61923" lon="6.67754">
        <ele>1686.6</ele>
        <time>2022-02-08T15:27:37Z</time>
      </trkpt>
      <trkpt lat="45.61906" lon="6.67755">
        <ele>1684.8</ele>
        <time>2022-02-08T15:27:39Z</time>
      </trkpt>
      <trkpt lat="45.61881" lon="6.67757">
        <ele>1682.7</ele>
        <time>2022-02-08T15:27:41Z</time>
      </trkpt>
      <trkpt lat="45.61863" lon="6.67758">
        <ele>1681.5</ele>
        <time>2022-02-08T15:27:43Z</time>
      </trkpt>
      <trkpt lat="45.61846" lon="6.67761">
        <ele>1680.4</ele>
        <time>2022-02-08T15:27:45Z</time>
      </trkpt>
      <trkpt lat="45.61838" lon="6.67763">
        <ele>1679.9</ele>
        <time>2022-02-08T15:27:47Z</time>
      </trkpt>
      <trkpt lat="45.61814" lon="6.67768">
        <ele>1677.3</ele>
        <time>2022-02-08T15:27:49Z</time>
      </trkpt>
      <trkpt lat="45.61799" lon="6.67769">
        <ele>1675.5</ele>
        <time>2022-02-08T15:27:51Z</time>
      </trkpt>
      <trkpt lat="45.61791" lon="6.6777">
        <ele>1674.7</ele>
        <time>2022-02-08T15:27:53Z</time>
      </trkpt>
      <trkpt lat="45.61776" lon="6.67769">
        <ele>1672.9</ele>
        <time>2022-02-08T15:27:55Z</time>
      </trkpt>
      <trkpt lat="45.61753" lon="6.67771">
        <ele>1670.3</ele>
        <time>2022-02-08T15:27:57Z</time>
      </trkpt>
      <trkpt lat="45.61737" lon="6.67776">
        <ele>1668.7</ele>
        <time>2022-02-08T15:27:59Z</time>
      </trkpt>
      <trkpt lat="45.6172" lon="6.67774">
        <ele>1667.3</ele>
        <time>2022-02-08T15:28:02Z</time>
      </trkpt>
      <trkpt lat="45.61696" lon="6.67779">
        <ele>1664.4</ele>
        <time>2022-02-08T15:28:04Z</time>
      </trkpt>
      <trkpt lat="45.61679" lon="6.67783">
        <ele>1663</ele>
        <time>2022-02-08T15:28:06Z</time>
      </trkpt>
      <trkpt lat="45.61663" lon="6.67788">
        <ele>1661.8</ele>
        <time>2022-02-08T15:28:08Z</time>
      </trkpt>
      <trkpt lat="45.61638" lon="6.67794">
        <ele>1660</ele>
        <time>2022-02-08T15:28:11Z</time>
      </trkpt>
      <trkpt lat="45.61621" lon="6.67796">
        <ele>1659</ele>
        <time>2022-02-08T15:28:13Z</time>
      </trkpt>
      <trkpt lat="45.61606" lon="6.67797">
        <ele>1658.2</ele>
        <time>2022-02-08T15:28:15Z</time>
      </trkpt>
      <trkpt lat="45.61587" lon="6.67793">
        <ele>1656.8</ele>
        <time>2022-02-08T15:28:18Z</time>
      </trkpt>
      <trkpt lat="45.61576" lon="6.67788">
        <ele>1655.6</ele>
        <time>2022-02-08T15:28:20Z</time>
      </trkpt>
      <trkpt lat="45.61565" lon="6.67782">
        <ele>1654.6</ele>
        <time>2022-02-08T15:28:23Z</time>
      </trkpt>
      <trkpt lat="45.61552" lon="6.67777">
        <ele>1653.3</ele>
        <time>2022-02-08T15:28:25Z</time>
      </trkpt>
      <trkpt lat="45.61532" lon="6.67772">
        <ele>1651.7</ele>
        <time>2022-02-08T15:28:27Z</time>
      </trkpt>
      <trkpt lat="45.61519" lon="6.67772">
        <ele>1650.7</ele>
        <time>2022-02-08T15:28:29Z</time>
      </trkpt>
      <trkpt lat="45.61504" lon="6.67772">
        <ele>1649.1</ele>
        <time>2022-02-08T15:28:31Z</time>
      </trkpt>
      <trkpt lat="45.61489" lon="6.67772">
        <ele>1647.8</ele>
        <time>2022-02-08T15:28:33Z</time>
      </trkpt>
      <trkpt lat="45.61474" lon="6.67771">
        <ele>1646.5</ele>
        <time>2022-02-08T15:28:35Z</time>
      </trkpt>
      <trkpt lat="45.61459" lon="6.6777">
        <ele>1644.9</ele>
        <time>2022-02-08T15:28:37Z</time>
      </trkpt>
      <trkpt lat="45.61451" lon="6.6777">
        <ele>1644.2</ele>
        <time>2022-02-08T15:28:39Z</time>
      </trkpt>
      <trkpt lat="45.61428" lon="6.67768">
        <ele>1641.9</ele>
        <time>2022-02-08T15:28:41Z</time>
      </trkpt>
      <trkpt lat="45.61413" lon="6.67766">
        <ele>1640.4</ele>
        <time>2022-02-08T15:28:43Z</time>
      </trkpt>
      <trkpt lat="45.61398" lon="6.67765">
        <ele>1639.2</ele>
        <time>2022-02-08T15:28:45Z</time>
      </trkpt>
      <trkpt lat="45.61384" lon="6.67768">
        <ele>1638.2</ele>
        <time>2022-02-08T15:28:47Z</time>
      </trkpt>
      <trkpt lat="45.61369" lon="6.67771">
        <ele>1637.1</ele>
        <time>2022-02-08T15:28:49Z</time>
      </trkpt>
      <trkpt lat="45.61355" lon="6.67772">
        <ele>1636.3</ele>
        <time>2022-02-08T15:28:51Z</time>
      </trkpt>
      <trkpt lat="45.61342" lon="6.67768">
        <ele>1635.2</ele>
        <time>2022-02-08T15:28:54Z</time>
      </trkpt>
      <trkpt lat="45.61326" lon="6.67763">
        <ele>1633.4</ele>
        <time>2022-02-08T15:28:57Z</time>
      </trkpt>
      <trkpt lat="45.6131" lon="6.67759">
        <ele>1632.4</ele>
        <time>2022-02-08T15:28:59Z</time>
      </trkpt>
      <trkpt lat="45.61299" lon="6.6776">
        <ele>1631.7</ele>
        <time>2022-02-08T15:29:01Z</time>
      </trkpt>
      <trkpt lat="45.61293" lon="6.6776">
        <ele>1631.2</ele>
        <time>2022-02-08T15:29:03Z</time>
      </trkpt>
      <trkpt lat="45.61281" lon="6.6776">
        <ele>1630.6</ele>
        <time>2022-02-08T15:29:05Z</time>
      </trkpt>
      <trkpt lat="45.61264" lon="6.67757">
        <ele>1629.6</ele>
        <time>2022-02-08T15:29:07Z</time>
      </trkpt>
      <trkpt lat="45.61253" lon="6.67756">
        <ele>1628.6</ele>
        <time>2022-02-08T15:29:09Z</time>
      </trkpt>
      <trkpt lat="45.61241" lon="6.67756">
        <ele>1628.1</ele>
        <time>2022-02-08T15:29:12Z</time>
      </trkpt>
      <trkpt lat="45.61224" lon="6.67757">
        <ele>1626.9</ele>
        <time>2022-02-08T15:29:14Z</time>
      </trkpt>
      <trkpt lat="45.61213" lon="6.67756">
        <ele>1625.8</ele>
        <time>2022-02-08T15:29:16Z</time>
      </trkpt>
      <trkpt lat="45.61208" lon="6.67756">
        <ele>1625.1</ele>
        <time>2022-02-08T15:29:18Z</time>
      </trkpt>
      <trkpt lat="45.61191" lon="6.67755">
        <ele>1623.2</ele>
        <time>2022-02-08T15:29:20Z</time>
      </trkpt>
      <trkpt lat="45.6118" lon="6.67753">
        <ele>1622.1</ele>
        <time>2022-02-08T15:29:22Z</time>
      </trkpt>
      <trkpt lat="45.61171" lon="6.67749">
        <ele>1620.8</ele>
        <time>2022-02-08T15:29:24Z</time>
      </trkpt>
      <trkpt lat="45.61162" lon="6.67744">
        <ele>1620.3</ele>
        <time>2022-02-08T15:29:26Z</time>
      </trkpt>
      <trkpt lat="45.61154" lon="6.67739">
        <ele>1619.7</ele>
        <time>2022-02-08T15:29:29Z</time>
      </trkpt>
      <trkpt lat="45.61142" lon="6.67731">
        <ele>1619.2</ele>
        <time>2022-02-08T15:29:31Z</time>
      </trkpt>
      <trkpt lat="45.61136" lon="6.67726">
        <ele>1618.9</ele>
        <time>2022-02-08T15:29:33Z</time>
      </trkpt>
      <trkpt lat="45.61129" lon="6.67722">
        <ele>1618.4</ele>
        <time>2022-02-08T15:29:35Z</time>
      </trkpt>
      <trkpt lat="45.61122" lon="6.67718">
        <ele>1618</ele>
        <time>2022-02-08T15:29:37Z</time>
      </trkpt>
      <trkpt lat="45.61116" lon="6.67714">
        <ele>1617.9</ele>
        <time>2022-02-08T15:29:39Z</time>
      </trkpt>
      <trkpt lat="45.61109" lon="6.67711">
        <ele>1617.9</ele>
        <time>2022-02-08T15:29:41Z</time>
      </trkpt>
      <trkpt lat="45.61103" lon="6.67708">
        <ele>1617.9</ele>
        <time>2022-02-08T15:29:43Z</time>
      </trkpt>
      <trkpt lat="45.61096" lon="6.67704">
        <ele>1617.8</ele>
        <time>2022-02-08T15:29:45Z</time>
      </trkpt>
      <trkpt lat="45.6109" lon="6.67701">
        <ele>1617.5</ele>
        <time>2022-02-08T15:29:47Z</time>
      </trkpt>
      <trkpt lat="45.61084" lon="6.67698">
        <ele>1617.1</ele>
        <time>2022-02-08T15:29:49Z</time>
      </trkpt>
      <trkpt lat="45.61077" lon="6.67695">
        <ele>1616.7</ele>
        <time>2022-02-08T15:29:51Z</time>
      </trkpt>
      <trkpt lat="45.61071" lon="6.67691">
        <ele>1616.5</ele>
        <time>2022-02-08T15:29:53Z</time>
      </trkpt>
      <trkpt lat="45.61064" lon="6.67688">
        <ele>1616.3</ele>
        <time>2022-02-08T15:29:55Z</time>
      </trkpt>
      <trkpt lat="45.61058" lon="6.67685">
        <ele>1616</ele>
        <time>2022-02-08T15:29:57Z</time>
      </trkpt>
      <trkpt lat="45.61053" lon="6.67683">
        <ele>1615.8</ele>
        <time>2022-02-08T15:29:59Z</time>
      </trkpt>
      <trkpt lat="45.61045" lon="6.6768">
        <ele>1615.5</ele>
        <time>2022-02-08T15:30:02Z</time>
      </trkpt>
      <trkpt lat="45.6104" lon="6.67678">
        <ele>1615.5</ele>
        <time>2022-02-08T15:30:04Z</time>
      </trkpt>
      <trkpt lat="45.61035" lon="6.67675">
        <ele>1615.4</ele>
        <time>2022-02-08T15:30:06Z</time>
      </trkpt>
      <trkpt lat="45.6103" lon="6.67672">
        <ele>1615.5</ele>
        <time>2022-02-08T15:30:08Z</time>
      </trkpt>
      <trkpt lat="45.61026" lon="6.67668">
        <ele>1615.5</ele>
        <time>2022-02-08T15:30:10Z</time>
      </trkpt>
      <trkpt lat="45.61021" lon="6.67664">
        <ele>1615.7</ele>
        <time>2022-02-08T15:30:13Z</time>
      </trkpt>
      <trkpt lat="45.61017" lon="6.6766">
        <ele>1615.7</ele>
        <time>2022-02-08T15:30:16Z</time>
      </trkpt>
      <trkpt lat="45.61013" lon="6.67657">
        <ele>1615.7</ele>
        <time>2022-02-08T15:30:19Z</time>
      </trkpt>
      <trkpt lat="45.61008" lon="6.67652">
        <ele>1615.3</ele>
        <time>2022-02-08T15:30:30Z</time>
      </trkpt>
      <trkpt lat="45.61004" lon="6.67646">
        <ele>1615</ele>
        <time>2022-02-08T15:30:34Z</time>
      </trkpt>
      <trkpt lat="45.61001" lon="6.67641">
        <ele>1615</ele>
        <time>2022-02-08T15:30:37Z</time>
      </trkpt>
      <trkpt lat="45.60997" lon="6.67635">
        <ele>1614.8</ele>
        <time>2022-02-08T15:30:40Z</time>
      </trkpt>
      <trkpt lat="45.60993" lon="6.67629">
        <ele>1614.8</ele>
        <time>2022-02-08T15:30:43Z</time>
      </trkpt>
      <trkpt lat="45.60988" lon="6.67621">
        <ele>1615.1</ele>
        <time>2022-02-08T15:30:46Z</time>
      </trkpt>
      <trkpt lat="45.60985" lon="6.67617">
        <ele>1615.2</ele>
        <time>2022-02-08T15:30:48Z</time>
      </trkpt>
      <trkpt lat="45.6098" lon="6.67611">
        <ele>1615.4</ele>
        <time>2022-02-08T15:30:51Z</time>
      </trkpt>
      <trkpt lat="45.60976" lon="6.67606">
        <ele>1615.6</ele>
        <time>2022-02-08T15:30:54Z</time>
      </trkpt>
      <trkpt lat="45.60973" lon="6.67602">
        <ele>1615.7</ele>
        <time>2022-02-08T15:30:57Z</time>
      </trkpt>
      <trkpt lat="45.60969" lon="6.67597">
        <ele>1615.8</ele>
        <time>2022-02-08T15:31:00Z</time>
      </trkpt>
      <trkpt lat="45.60965" lon="6.67591">
        <ele>1615.7</ele>
        <time>2022-02-08T15:31:03Z</time>
      </trkpt>
      <trkpt lat="45.60961" lon="6.67586">
        <ele>1615.7</ele>
        <time>2022-02-08T15:31:06Z</time>
      </trkpt>
      <trkpt lat="45.60957" lon="6.67582">
        <ele>1615.6</ele>
        <time>2022-02-08T15:31:09Z</time>
      </trkpt>
      <trkpt lat="45.60952" lon="6.67579">
        <ele>1615.3</ele>
        <time>2022-02-08T15:31:12Z</time>
      </trkpt>
      <trkpt lat="45.60946" lon="6.67576">
        <ele>1615.1</ele>
        <time>2022-02-08T15:31:15Z</time>
      </trkpt>
      <trkpt lat="45.6094" lon="6.67571">
        <ele>1614.8</ele>
        <time>2022-02-08T15:31:18Z</time>
      </trkpt>
      <trkpt lat="45.60935" lon="6.67567">
        <ele>1614.5</ele>
        <time>2022-02-08T15:31:21Z</time>
      </trkpt>
      <trkpt lat="45.60931" lon="6.67563">
        <ele>1614.4</ele>
        <time>2022-02-08T15:31:23Z</time>
      </trkpt>
      <trkpt lat="45.60926" lon="6.6756">
        <ele>1614.2</ele>
        <time>2022-02-08T15:31:25Z</time>
      </trkpt>
      <trkpt lat="45.60922" lon="6.67557">
        <ele>1614</ele>
        <time>2022-02-08T15:31:27Z</time>
      </trkpt>
      <trkpt lat="45.60918" lon="6.67555">
        <ele>1613.7</ele>
        <time>2022-02-08T15:31:29Z</time>
      </trkpt>
      <trkpt lat="45.60913" lon="6.67552">
        <ele>1613.4</ele>
        <time>2022-02-08T15:31:31Z</time>
      </trkpt>
      <trkpt lat="45.60909" lon="6.6755">
        <ele>1613.2</ele>
        <time>2022-02-08T15:31:33Z</time>
      </trkpt>
      <trkpt lat="45.60903" lon="6.67548">
        <ele>1613.1</ele>
        <time>2022-02-08T15:31:36Z</time>
      </trkpt>
      <trkpt lat="45.60899" lon="6.67545">
        <ele>1612.8</ele>
        <time>2022-02-08T15:31:40Z</time>
      </trkpt>
      <trkpt lat="45.60894" lon="6.67543">
        <ele>1612.7</ele>
        <time>2022-02-08T15:31:47Z</time>
      </trkpt>
      <trkpt lat="45.60889" lon="6.6754">
        <ele>1612.6</ele>
        <time>2022-02-08T15:31:50Z</time>
      </trkpt>
      <trkpt lat="45.60884" lon="6.67538">
        <ele>1612.2</ele>
        <time>2022-02-08T15:31:53Z</time>
      </trkpt>
      <trkpt lat="45.60879" lon="6.67535">
        <ele>1611.7</ele>
        <time>2022-02-08T15:31:56Z</time>
      </trkpt>
      <trkpt lat="45.60874" lon="6.67532">
        <ele>1611.4</ele>
        <time>2022-02-08T15:31:59Z</time>
      </trkpt>
      <trkpt lat="45.60868" lon="6.67529">
        <ele>1611.2</ele>
        <time>2022-02-08T15:32:02Z</time>
      </trkpt>
      <trkpt lat="45.60862" lon="6.67525">
        <ele>1610.9</ele>
        <time>2022-02-08T15:32:05Z</time>
      </trkpt>
      <trkpt lat="45.60855" lon="6.67521">
        <ele>1610.6</ele>
        <time>2022-02-08T15:32:08Z</time>
      </trkpt>
      <trkpt lat="45.60851" lon="6.67518">
        <ele>1610.5</ele>
        <time>2022-02-08T15:32:10Z</time>
      </trkpt>
      <trkpt lat="45.60846" lon="6.67515">
        <ele>1610.4</ele>
        <time>2022-02-08T15:32:12Z</time>
      </trkpt>
      <trkpt lat="45.60841" lon="6.67513">
        <ele>1610.2</ele>
        <time>2022-02-08T15:32:14Z</time>
      </trkpt>
      <trkpt lat="45.60836" lon="6.67511">
        <ele>1610.1</ele>
        <time>2022-02-08T15:32:16Z</time>
      </trkpt>
      <trkpt lat="45.60831" lon="6.6751">
        <ele>1610</ele>
        <time>2022-02-08T15:32:18Z</time>
      </trkpt>
      <trkpt lat="45.60826" lon="6.67509">
        <ele>1610</ele>
        <time>2022-02-08T15:32:20Z</time>
      </trkpt>
      <trkpt lat="45.60821" lon="6.67507">
        <ele>1609.9</ele>
        <time>2022-02-08T15:32:22Z</time>
      </trkpt>
      <trkpt lat="45.60814" lon="6.67506">
        <ele>1609.7</ele>
        <time>2022-02-08T15:32:25Z</time>
      </trkpt>
      <trkpt lat="45.60809" lon="6.67505">
        <ele>1609.6</ele>
        <time>2022-02-08T15:32:27Z</time>
      </trkpt>
      <trkpt lat="45.60804" lon="6.67504">
        <ele>1609.5</ele>
        <time>2022-02-08T15:32:29Z</time>
      </trkpt>
      <trkpt lat="45.60798" lon="6.67502">
        <ele>1609.6</ele>
        <time>2022-02-08T15:32:32Z</time>
      </trkpt>
      <trkpt lat="45.60792" lon="6.67501">
        <ele>1609.6</ele>
        <time>2022-02-08T15:32:35Z</time>
      </trkpt>
      <trkpt lat="45.60786" lon="6.675">
        <ele>1609.6</ele>
        <time>2022-02-08T15:32:38Z</time>
      </trkpt>
      <trkpt lat="45.60779" lon="6.67498">
        <ele>1609.5</ele>
        <time>2022-02-08T15:32:41Z</time>
      </trkpt>
      <trkpt lat="45.60772" lon="6.67496">
        <ele>1609.3</ele>
        <time>2022-02-08T15:32:44Z</time>
      </trkpt>
      <trkpt lat="45.60768" lon="6.67495">
        <ele>1609.1</ele>
        <time>2022-02-08T15:32:46Z</time>
      </trkpt>
      <trkpt lat="45.60762" lon="6.67492">
        <ele>1608.8</ele>
        <time>2022-02-08T15:32:48Z</time>
      </trkpt>
      <trkpt lat="45.60757" lon="6.6749">
        <ele>1608.7</ele>
        <time>2022-02-08T15:32:50Z</time>
      </trkpt>
      <trkpt lat="45.60752" lon="6.67487">
        <ele>1608.5</ele>
        <time>2022-02-08T15:32:52Z</time>
      </trkpt>
      <trkpt lat="45.60747" lon="6.67483">
        <ele>1608.2</ele>
        <time>2022-02-08T15:32:54Z</time>
      </trkpt>
      <trkpt lat="45.60742" lon="6.67479">
        <ele>1607.9</ele>
        <time>2022-02-08T15:32:56Z</time>
      </trkpt>
      <trkpt lat="45.60736" lon="6.67473">
        <ele>1607.6</ele>
        <time>2022-02-08T15:32:58Z</time>
      </trkpt>
      <trkpt lat="45.6073" lon="6.67467">
        <ele>1607.2</ele>
        <time>2022-02-08T15:33:00Z</time>
      </trkpt>
      <trkpt lat="45.60724" lon="6.67459">
        <ele>1606.7</ele>
        <time>2022-02-08T15:33:02Z</time>
      </trkpt>
      <trkpt lat="45.60713" lon="6.67447">
        <ele>1605.9</ele>
        <time>2022-02-08T15:33:05Z</time>
      </trkpt>
      <trkpt lat="45.60705" lon="6.67439">
        <ele>1605.3</ele>
        <time>2022-02-08T15:33:07Z</time>
      </trkpt>
      <trkpt lat="45.60697" lon="6.67429">
        <ele>1604.6</ele>
        <time>2022-02-08T15:33:09Z</time>
      </trkpt>
      <trkpt lat="45.60689" lon="6.6742">
        <ele>1603.9</ele>
        <time>2022-02-08T15:33:11Z</time>
      </trkpt>
      <trkpt lat="45.6068" lon="6.6741">
        <ele>1603.1</ele>
        <time>2022-02-08T15:33:13Z</time>
      </trkpt>
      <trkpt lat="45.6067" lon="6.674">
        <ele>1602.3</ele>
        <time>2022-02-08T15:33:15Z</time>
      </trkpt>
      <trkpt lat="45.60659" lon="6.67392">
        <ele>1601.5</ele>
        <time>2022-02-08T15:33:17Z</time>
      </trkpt>
      <trkpt lat="45.60647" lon="6.67388">
        <ele>1600.5</ele>
        <time>2022-02-08T15:33:19Z</time>
      </trkpt>
      <trkpt lat="45.60634" lon="6.67387">
        <ele>1599.7</ele>
        <time>2022-02-08T15:33:21Z</time>
      </trkpt>
      <trkpt lat="45.60621" lon="6.67387">
        <ele>1598.7</ele>
        <time>2022-02-08T15:33:23Z</time>
      </trkpt>
      <trkpt lat="45.6061" lon="6.67387">
        <ele>1598</ele>
        <time>2022-02-08T15:33:25Z</time>
      </trkpt>
      <trkpt lat="45.60599" lon="6.67386">
        <ele>1596.6</ele>
        <time>2022-02-08T15:33:27Z</time>
      </trkpt>
      <trkpt lat="45.60588" lon="6.67386">
        <ele>1595.3</ele>
        <time>2022-02-08T15:33:29Z</time>
      </trkpt>
      <trkpt lat="45.60576" lon="6.67385">
        <ele>1594.2</ele>
        <time>2022-02-08T15:33:31Z</time>
      </trkpt>
      <trkpt lat="45.60559" lon="6.67377">
        <ele>1592.8</ele>
        <time>2022-02-08T15:33:34Z</time>
      </trkpt>
      <trkpt lat="45.60551" lon="6.67372">
        <ele>1592</ele>
        <time>2022-02-08T15:33:36Z</time>
      </trkpt>
      <trkpt lat="45.60546" lon="6.6737">
        <ele>1590.8</ele>
        <time>2022-02-08T15:34:39Z</time>
      </trkpt>
      <trkpt lat="45.6054" lon="6.67366">
        <ele>1590.2</ele>
        <time>2022-02-08T15:34:42Z</time>
      </trkpt>
      <trkpt lat="45.60534" lon="6.67361">
        <ele>1589.7</ele>
        <time>2022-02-08T15:34:44Z</time>
      </trkpt>
      <trkpt lat="45.60527" lon="6.67354">
        <ele>1589</ele>
        <time>2022-02-08T15:34:46Z</time>
      </trkpt>
      <trkpt lat="45.60519" lon="6.67346">
        <ele>1588.3</ele>
        <time>2022-02-08T15:34:48Z</time>
      </trkpt>
      <trkpt lat="45.60511" lon="6.67337">
        <ele>1587.6</ele>
        <time>2022-02-08T15:34:50Z</time>
      </trkpt>
      <trkpt lat="45.60502" lon="6.67327">
        <ele>1586.8</ele>
        <time>2022-02-08T15:34:52Z</time>
      </trkpt>
      <trkpt lat="45.60494" lon="6.67316">
        <ele>1585.9</ele>
        <time>2022-02-08T15:34:54Z</time>
      </trkpt>
      <trkpt lat="45.60484" lon="6.67305">
        <ele>1585</ele>
        <time>2022-02-08T15:34:56Z</time>
      </trkpt>
      <trkpt lat="45.60474" lon="6.67296">
        <ele>1584.1</ele>
        <time>2022-02-08T15:34:58Z</time>
      </trkpt>
      <trkpt lat="45.60462" lon="6.6729">
        <ele>1583.3</ele>
        <time>2022-02-08T15:35:00Z</time>
      </trkpt>
      <trkpt lat="45.6045" lon="6.67285">
        <ele>1582.3</ele>
        <time>2022-02-08T15:35:02Z</time>
      </trkpt>
      <trkpt lat="45.60436" lon="6.67282">
        <ele>1581.3</ele>
        <time>2022-02-08T15:35:04Z</time>
      </trkpt>
      <trkpt lat="45.60422" lon="6.67281">
        <ele>1580.2</ele>
        <time>2022-02-08T15:35:06Z</time>
      </trkpt>
      <trkpt lat="45.60408" lon="6.67279">
        <ele>1579</ele>
        <time>2022-02-08T15:35:08Z</time>
      </trkpt>
      <trkpt lat="45.60394" lon="6.67275">
        <ele>1577.6</ele>
        <time>2022-02-08T15:35:10Z</time>
      </trkpt>
      <trkpt lat="45.60379" lon="6.67269">
        <ele>1576.1</ele>
        <time>2022-02-08T15:35:12Z</time>
      </trkpt>
      <trkpt lat="45.60364" lon="6.67263">
        <ele>1574.9</ele>
        <time>2022-02-08T15:35:14Z</time>
      </trkpt>
      <trkpt lat="45.60349" lon="6.67257">
        <ele>1573.2</ele>
        <time>2022-02-08T15:35:16Z</time>
      </trkpt>
      <trkpt lat="45.60334" lon="6.67249">
        <ele>1571.8</ele>
        <time>2022-02-08T15:35:18Z</time>
      </trkpt>
      <trkpt lat="45.60321" lon="6.67238">
        <ele>1570.5</ele>
        <time>2022-02-08T15:35:20Z</time>
      </trkpt>
      <trkpt lat="45.60309" lon="6.67225">
        <ele>1568.9</ele>
        <time>2022-02-08T15:35:22Z</time>
      </trkpt>
      <trkpt lat="45.60297" lon="6.67211">
        <ele>1567.4</ele>
        <time>2022-02-08T15:35:24Z</time>
      </trkpt>
      <trkpt lat="45.60286" lon="6.67197">
        <ele>1566</ele>
        <time>2022-02-08T15:35:26Z</time>
      </trkpt>
      <trkpt lat="45.60274" lon="6.67183">
        <ele>1564.5</ele>
        <time>2022-02-08T15:35:28Z</time>
      </trkpt>
      <trkpt lat="45.60263" lon="6.6717">
        <ele>1563</ele>
        <time>2022-02-08T15:35:30Z</time>
      </trkpt>
      <trkpt lat="45.60252" lon="6.67166">
        <ele>1561.4</ele>
        <time>2022-02-08T15:35:32Z</time>
      </trkpt>
      <trkpt lat="45.60245" lon="6.67165">
        <ele>1560</ele>
        <time>2022-02-08T15:35:34Z</time>
      </trkpt>
      <trkpt lat="45.6024" lon="6.67163">
        <ele>1558.8</ele>
        <time>2022-02-08T15:35:37Z</time>
      </trkpt>
      <trkpt lat="45.60236" lon="6.67161">
        <ele>1557.5</ele>
        <time>2022-02-08T15:35:39Z</time>
      </trkpt>
      <trkpt lat="45.60232" lon="6.67152">
        <ele>1556</ele>
        <time>2022-02-08T15:35:41Z</time>
      </trkpt>
      <trkpt lat="45.60226" lon="6.6714">
        <ele>1553.9</ele>
        <time>2022-02-08T15:35:43Z</time>
      </trkpt>
      <trkpt lat="45.60214" lon="6.67136">
        <ele>1551</ele>
        <time>2022-02-08T15:35:45Z</time>
      </trkpt>
      <trkpt lat="45.60203" lon="6.67129">
        <ele>1548.6</ele>
        <time>2022-02-08T15:35:47Z</time>
      </trkpt>
      <trkpt lat="45.60192" lon="6.67127">
        <ele>1546.3</ele>
        <time>2022-02-08T15:35:49Z</time>
      </trkpt>
      <trkpt lat="45.60183" lon="6.67122">
        <ele>1544.6</ele>
        <time>2022-02-08T15:35:51Z</time>
      </trkpt>
      <trkpt lat="45.60175" lon="6.6711">
        <ele>1542.1</ele>
        <time>2022-02-08T15:35:53Z</time>
      </trkpt>
      <trkpt lat="45.60166" lon="6.67097">
        <ele>1540.2</ele>
        <time>2022-02-08T15:35:55Z</time>
      </trkpt>
      <trkpt lat="45.60156" lon="6.67084">
        <ele>1538.2</ele>
        <time>2022-02-08T15:35:57Z</time>
      </trkpt>
      <trkpt lat="45.60146" lon="6.6707">
        <ele>1536.2</ele>
        <time>2022-02-08T15:35:59Z</time>
      </trkpt>
      <trkpt lat="45.60136" lon="6.67057">
        <ele>1534.3</ele>
        <time>2022-02-08T15:36:01Z</time>
      </trkpt>
      <trkpt lat="45.60126" lon="6.67045">
        <ele>1532.7</ele>
        <time>2022-02-08T15:36:03Z</time>
      </trkpt>
      <trkpt lat="45.60116" lon="6.67033">
        <ele>1531.1</ele>
        <time>2022-02-08T15:36:05Z</time>
      </trkpt>
      <trkpt lat="45.60105" lon="6.67021">
        <ele>1529.8</ele>
        <time>2022-02-08T15:36:07Z</time>
      </trkpt>
      <trkpt lat="45.60095" lon="6.6701">
        <ele>1528.3</ele>
        <time>2022-02-08T15:36:09Z</time>
      </trkpt>
      <trkpt lat="45.60084" lon="6.66999">
        <ele>1526.7</ele>
        <time>2022-02-08T15:36:11Z</time>
      </trkpt>
      <trkpt lat="45.60072" lon="6.66989">
        <ele>1525.5</ele>
        <time>2022-02-08T15:36:13Z</time>
      </trkpt>
      <trkpt lat="45.60059" lon="6.6698">
        <ele>1524</ele>
        <time>2022-02-08T15:36:15Z</time>
      </trkpt>
      <trkpt lat="45.60047" lon="6.66971">
        <ele>1522.7</ele>
        <time>2022-02-08T15:36:17Z</time>
      </trkpt>
      <trkpt lat="45.60035" lon="6.66961">
        <ele>1521.3</ele>
        <time>2022-02-08T15:36:19Z</time>
      </trkpt>
      <trkpt lat="45.60025" lon="6.66959">
        <ele>1520.1</ele>
        <time>2022-02-08T15:36:21Z</time>
      </trkpt>
      <trkpt lat="45.60022" lon="6.66965">
        <ele>1518.2</ele>
        <time>2022-02-08T15:36:23Z</time>
      </trkpt>
      <trkpt lat="45.60024" lon="6.66974">
        <ele>1516.9</ele>
        <time>2022-02-08T15:36:25Z</time>
      </trkpt>
      <trkpt lat="45.6003" lon="6.66983">
        <ele>1515.8</ele>
        <time>2022-02-08T15:36:27Z</time>
      </trkpt>
      <trkpt lat="45.60036" lon="6.66991">
        <ele>1514.9</ele>
        <time>2022-02-08T15:36:29Z</time>
      </trkpt>
      <trkpt lat="45.60042" lon="6.66999">
        <ele>1514.1</ele>
        <time>2022-02-08T15:36:31Z</time>
      </trkpt>
      <trkpt lat="45.60048" lon="6.67008">
        <ele>1513.3</ele>
        <time>2022-02-08T15:36:33Z</time>
      </trkpt>
      <trkpt lat="45.60055" lon="6.6702">
        <ele>1512.3</ele>
        <time>2022-02-08T15:36:36Z</time>
      </trkpt>
      <trkpt lat="45.60059" lon="6.67029">
        <ele>1511.8</ele>
        <time>2022-02-08T15:36:38Z</time>
      </trkpt>
      <trkpt lat="45.60062" lon="6.67036">
        <ele>1511.1</ele>
        <time>2022-02-08T15:36:40Z</time>
      </trkpt>
      <trkpt lat="45.60059" lon="6.67045">
        <ele>1509.6</ele>
        <time>2022-02-08T15:36:42Z</time>
      </trkpt>
      <trkpt lat="45.60055" lon="6.67053">
        <ele>1508.1</ele>
        <time>2022-02-08T15:36:44Z</time>
      </trkpt>
      <trkpt lat="45.60049" lon="6.6705">
        <ele>1505.8</ele>
        <time>2022-02-08T15:36:47Z</time>
      </trkpt>
      <trkpt lat="45.60041" lon="6.67042">
        <ele>1504.3</ele>
        <time>2022-02-08T15:36:49Z</time>
      </trkpt>
      <trkpt lat="45.60031" lon="6.67034">
        <ele>1502.9</ele>
        <time>2022-02-08T15:36:51Z</time>
      </trkpt>
      <trkpt lat="45.60012" lon="6.67024">
        <ele>1501.2</ele>
        <time>2022-02-08T15:36:54Z</time>
      </trkpt>
      <trkpt lat="45.59997" lon="6.6702">
        <ele>1499.8</ele>
        <time>2022-02-08T15:36:56Z</time>
      </trkpt>
      <trkpt lat="45.5998" lon="6.67017">
        <ele>1498.5</ele>
        <time>2022-02-08T15:36:58Z</time>
      </trkpt>
      <trkpt lat="45.59964" lon="6.67016">
        <ele>1496.6</ele>
        <time>2022-02-08T15:37:00Z</time>
      </trkpt>
      <trkpt lat="45.59947" lon="6.67012">
        <ele>1494.5</ele>
        <time>2022-02-08T15:37:02Z</time>
      </trkpt>
      <trkpt lat="45.59924" lon="6.66998">
        <ele>1491.4</ele>
        <time>2022-02-08T15:37:05Z</time>
      </trkpt>
      <trkpt lat="45.5991" lon="6.66984">
        <ele>1489.9</ele>
        <time>2022-02-08T15:37:07Z</time>
      </trkpt>
      <trkpt lat="45.59896" lon="6.66967">
        <ele>1488.2</ele>
        <time>2022-02-08T15:37:09Z</time>
      </trkpt>
      <trkpt lat="45.59879" lon="6.66954">
        <ele>1486.1</ele>
        <time>2022-02-08T15:37:11Z</time>
      </trkpt>
      <trkpt lat="45.59861" lon="6.66947">
        <ele>1483.9</ele>
        <time>2022-02-08T15:37:13Z</time>
      </trkpt>
      <trkpt lat="45.59843" lon="6.66945">
        <ele>1481.7</ele>
        <time>2022-02-08T15:37:15Z</time>
      </trkpt>
      <trkpt lat="45.59824" lon="6.66946">
        <ele>1479.7</ele>
        <time>2022-02-08T15:37:17Z</time>
      </trkpt>
      <trkpt lat="45.59805" lon="6.66949">
        <ele>1477.7</ele>
        <time>2022-02-08T15:37:19Z</time>
      </trkpt>
      <trkpt lat="45.59776" lon="6.6695">
        <ele>1474.4</ele>
        <time>2022-02-08T15:37:22Z</time>
      </trkpt>
      <trkpt lat="45.59759" lon="6.66944">
        <ele>1472.1</ele>
        <time>2022-02-08T15:37:24Z</time>
      </trkpt>
      <trkpt lat="45.59747" lon="6.66927">
        <ele>1470</ele>
        <time>2022-02-08T15:37:26Z</time>
      </trkpt>
      <trkpt lat="45.59743" lon="6.66917">
        <ele>1469</ele>
        <time>2022-02-08T15:37:28Z</time>
      </trkpt>
      <trkpt lat="45.59739" lon="6.66883">
        <ele>1466.1</ele>
        <time>2022-02-08T15:37:30Z</time>
      </trkpt>
      <trkpt lat="45.59737" lon="6.6686">
        <ele>1464.4</ele>
        <time>2022-02-08T15:37:32Z</time>
      </trkpt>
      <trkpt lat="45.59732" lon="6.66837">
        <ele>1463.3</ele>
        <time>2022-02-08T15:37:34Z</time>
      </trkpt>
      <trkpt lat="45.59722" lon="6.66817">
        <ele>1460.9</ele>
        <time>2022-02-08T15:37:36Z</time>
      </trkpt>
      <trkpt lat="45.59709" lon="6.668">
        <ele>1458.7</ele>
        <time>2022-02-08T15:37:38Z</time>
      </trkpt>
      <trkpt lat="45.59694" lon="6.66785">
        <ele>1457</ele>
        <time>2022-02-08T15:37:40Z</time>
      </trkpt>
      <trkpt lat="45.59667" lon="6.66773">
        <ele>1454</ele>
        <time>2022-02-08T15:37:44Z</time>
      </trkpt>
      <trkpt lat="45.59638" lon="6.66773">
        <ele>1451.1</ele>
        <time>2022-02-08T15:37:46Z</time>
      </trkpt>
      <trkpt lat="45.59619" lon="6.66771">
        <ele>1449.9</ele>
        <time>2022-02-08T15:37:48Z</time>
      </trkpt>
      <trkpt lat="45.59606" lon="6.6678">
        <ele>1448.1</ele>
        <time>2022-02-08T15:37:50Z</time>
      </trkpt>
      <trkpt lat="45.59606" lon="6.66792">
        <ele>1446.5</ele>
        <time>2022-02-08T15:37:52Z</time>
      </trkpt>
      <trkpt lat="45.59612" lon="6.66803">
        <ele>1445.1</ele>
        <time>2022-02-08T15:37:54Z</time>
      </trkpt>
      <trkpt lat="45.59621" lon="6.66815">
        <ele>1443.7</ele>
        <time>2022-02-08T15:37:56Z</time>
      </trkpt>
      <trkpt lat="45.59629" lon="6.6683">
        <ele>1442.5</ele>
        <time>2022-02-08T15:37:59Z</time>
      </trkpt>
      <trkpt lat="45.59637" lon="6.66856">
        <ele>1440.7</ele>
        <time>2022-02-08T15:38:01Z</time>
      </trkpt>
      <trkpt lat="45.59638" lon="6.66874">
        <ele>1439.5</ele>
        <time>2022-02-08T15:38:03Z</time>
      </trkpt>
      <trkpt lat="45.59638" lon="6.66884">
        <ele>1438.9</ele>
        <time>2022-02-08T15:38:05Z</time>
      </trkpt>
      <trkpt lat="45.59636" lon="6.66914">
        <ele>1436.7</ele>
        <time>2022-02-08T15:38:07Z</time>
      </trkpt>
      <trkpt lat="45.59635" lon="6.66935">
        <ele>1435</ele>
        <time>2022-02-08T15:38:09Z</time>
      </trkpt>
      <trkpt lat="45.59638" lon="6.66957">
        <ele>1432.8</ele>
        <time>2022-02-08T15:38:11Z</time>
      </trkpt>
      <trkpt lat="45.5964" lon="6.66968">
        <ele>1431.9</ele>
        <time>2022-02-08T15:38:13Z</time>
      </trkpt>
      <trkpt lat="45.59639" lon="6.66999">
        <ele>1428.9</ele>
        <time>2022-02-08T15:38:16Z</time>
      </trkpt>
      <trkpt lat="45.59625" lon="6.67012">
        <ele>1425.9</ele>
        <time>2022-02-08T15:38:18Z</time>
      </trkpt>
      <trkpt lat="45.59613" lon="6.67009">
        <ele>1424.5</ele>
        <time>2022-02-08T15:38:20Z</time>
      </trkpt>
      <trkpt lat="45.59592" lon="6.67003">
        <ele>1422.6</ele>
        <time>2022-02-08T15:38:24Z</time>
      </trkpt>
      <trkpt lat="45.59569" lon="6.67002">
        <ele>1420.9</ele>
        <time>2022-02-08T15:38:26Z</time>
      </trkpt>
      <trkpt lat="45.59562" lon="6.67001">
        <ele>1420.4</ele>
        <time>2022-02-08T15:38:28Z</time>
      </trkpt>
      <trkpt lat="45.59547" lon="6.66997">
        <ele>1419.2</ele>
        <time>2022-02-08T15:38:30Z</time>
      </trkpt>
      <trkpt lat="45.59531" lon="6.66995">
        <ele>1418.1</ele>
        <time>2022-02-08T15:38:32Z</time>
      </trkpt>
      <trkpt lat="45.59508" lon="6.67">
        <ele>1416.7</ele>
        <time>2022-02-08T15:38:34Z</time>
      </trkpt>
      <trkpt lat="45.59494" lon="6.67008">
        <ele>1415.8</ele>
        <time>2022-02-08T15:38:36Z</time>
      </trkpt>
      <trkpt lat="45.59487" lon="6.67013">
        <ele>1415.3</ele>
        <time>2022-02-08T15:38:38Z</time>
      </trkpt>
      <trkpt lat="45.59467" lon="6.67028">
        <ele>1413.9</ele>
        <time>2022-02-08T15:38:40Z</time>
      </trkpt>
      <trkpt lat="45.59453" lon="6.67035">
        <ele>1413</ele>
        <time>2022-02-08T15:38:42Z</time>
      </trkpt>
      <trkpt lat="45.59446" lon="6.67039">
        <ele>1412.4</ele>
        <time>2022-02-08T15:38:44Z</time>
      </trkpt>
      <trkpt lat="45.59424" lon="6.67052">
        <ele>1410.8</ele>
        <time>2022-02-08T15:38:46Z</time>
      </trkpt>
      <trkpt lat="45.59417" lon="6.67057">
        <ele>1410.4</ele>
        <time>2022-02-08T15:38:48Z</time>
      </trkpt>
      <trkpt lat="45.59397" lon="6.6707">
        <ele>1409.1</ele>
        <time>2022-02-08T15:38:50Z</time>
      </trkpt>
      <trkpt lat="45.59383" lon="6.67075">
        <ele>1409</ele>
        <time>2022-02-08T15:38:52Z</time>
      </trkpt>
      <trkpt lat="45.59365" lon="6.6708">
        <ele>1408.3</ele>
        <time>2022-02-08T15:38:55Z</time>
      </trkpt>
      <trkpt lat="45.59354" lon="6.67081">
        <ele>1408.2</ele>
        <time>2022-02-08T15:38:57Z</time>
      </trkpt>
      <trkpt lat="45.59344" lon="6.67079">
        <ele>1408.6</ele>
        <time>2022-02-08T15:38:59Z</time>
      </trkpt>
      <trkpt lat="45.59333" lon="6.67077">
        <ele>1408.9</ele>
        <time>2022-02-08T15:39:02Z</time>
      </trkpt>
      <trkpt lat="45.59318" lon="6.67076">
        <ele>1408.8</ele>
        <time>2022-02-08T15:39:04Z</time>
      </trkpt>
      <trkpt lat="45.59309" lon="6.67076">
        <ele>1409.3</ele>
        <time>2022-02-08T15:39:06Z</time>
      </trkpt>
      <trkpt lat="45.59299" lon="6.67075">
        <ele>1409.9</ele>
        <time>2022-02-08T15:39:09Z</time>
      </trkpt>
      <trkpt lat="45.59291" lon="6.67075">
        <ele>1410</ele>
        <time>2022-02-08T15:39:11Z</time>
      </trkpt>
      <trkpt lat="45.59278" lon="6.67076">
        <ele>1410.3</ele>
        <time>2022-02-08T15:39:13Z</time>
      </trkpt>
      <trkpt lat="45.59271" lon="6.67077">
        <ele>1410.3</ele>
        <time>2022-02-08T15:39:15Z</time>
      </trkpt>
      <trkpt lat="45.59264" lon="6.67076">
        <ele>1410.5</ele>
        <time>2022-02-08T15:39:17Z</time>
      </trkpt>
      <trkpt lat="45.59258" lon="6.67077">
        <ele>1410.4</ele>
        <time>2022-02-08T15:39:20Z</time>
      </trkpt>
      <trkpt lat="45.59248" lon="6.67077">
        <ele>1409.8</ele>
        <time>2022-02-08T15:39:22Z</time>
      </trkpt>
      <trkpt lat="45.59241" lon="6.67078">
        <ele>1409.4</ele>
        <time>2022-02-08T15:39:24Z</time>
      </trkpt>
      <trkpt lat="45.59235" lon="6.6708">
        <ele>1408.3</ele>
        <time>2022-02-08T15:39:26Z</time>
      </trkpt>
      <trkpt lat="45.59229" lon="6.6708">
        <ele>1408.1</ele>
        <time>2022-02-08T15:39:28Z</time>
      </trkpt>
      <trkpt lat="45.59223" lon="6.67081">
        <ele>1407.6</ele>
        <time>2022-02-08T15:39:31Z</time>
      </trkpt>
      <trkpt lat="45.59216" lon="6.67084">
        <ele>1406.8</ele>
        <time>2022-02-08T15:39:33Z</time>
      </trkpt>
      <trkpt lat="45.59212" lon="6.67088">
        <ele>1407.2</ele>
        <time>2022-02-08T15:39:36Z</time>
      </trkpt>
      <trkpt lat="45.59206" lon="6.67087">
        <ele>1407.1</ele>
        <time>2022-02-08T15:39:38Z</time>
      </trkpt>
      <trkpt lat="45.59202" lon="6.67089">
        <ele>1406.5</ele>
        <time>2022-02-08T15:39:41Z</time>
      </trkpt>
      <trkpt lat="45.59197" lon="6.6709">
        <ele>1405.9</ele>
        <time>2022-02-08T15:40:36Z</time>
      </trkpt>
      <trkpt lat="45.59192" lon="6.67089">
        <ele>1405.4</ele>
        <time>2022-02-08T15:40:41Z</time>
      </trkpt>
      <trkpt lat="45.59187" lon="6.67088">
        <ele>1405</ele>
        <time>2022-02-08T15:40:46Z</time>
      </trkpt>
      <trkpt lat="45.59182" lon="6.67087">
        <ele>1404.8</ele>
        <time>2022-02-08T15:40:51Z</time>
      </trkpt>
      <trkpt lat="45.59178" lon="6.67087">
        <ele>1404.6</ele>
        <time>2022-02-08T15:40:55Z</time>
      </trkpt>
      <trkpt lat="45.59173" lon="6.67086">
        <ele>1404.2</ele>
        <time>2022-02-08T15:41:00Z</time>
      </trkpt>
      <trkpt lat="45.59168" lon="6.67083">
        <ele>1404.1</ele>
        <time>2022-02-08T15:41:05Z</time>
      </trkpt>
      <trkpt lat="45.59164" lon="6.6708">
        <ele>1403.7</ele>
        <time>2022-02-08T15:41:10Z</time>
      </trkpt>
      <trkpt lat="45.5916" lon="6.67078">
        <ele>1402.1</ele>
        <time>2022-02-08T15:41:25Z</time>
      </trkpt>
      <trkpt lat="45.59157" lon="6.67073">
        <ele>1401.5</ele>
        <time>2022-02-08T15:41:40Z</time>
      </trkpt>
      <trkpt lat="45.59159" lon="6.67079">
        <ele>1401.7</ele>
        <time>2022-02-08T15:43:30Z</time>
      </trkpt>
      <trkpt lat="45.59158" lon="6.67073">
        <ele>1401.4</ele>
        <time>2022-02-08T15:43:49Z</time>
      </trkpt>
      <trkpt lat="45.59159" lon="6.67079">
        <ele>1401.5</ele>
        <time>2022-02-08T15:45:36Z</time>
      </trkpt>
      <trkpt lat="45.59163" lon="6.67083">
        <ele>1399.3</ele>
        <time>2022-02-08T15:46:39Z</time>
      </trkpt>
      <trkpt lat="45.59159" lon="6.67087">
        <ele>1400.5</ele>
        <time>2022-02-08T15:49:02Z</time>
      </trkpt>
    </trkseg>
  </trk>
</gpx>